# Wetter Temperatur Luftdruck Luftfeuchtigkeit Sichtweite Windgeschwindigkeit Windrichtung Zeit
1 Clouds 15 1014 41 10000 6.2 280 21:57 28.01.2020
2 Clouds 15 1014 41 10000 6.2 280 21:38 28.01.2020
3 Clouds 15 1014 41 10000 6.2 280 21:19 28.01.2020
4 Clouds 15 1014 47 10000 6.7 280 20:45 28.01.2020
5 Clouds 15 1014 47 10000 6.7 280 20:26 28.01.2020
6 Clouds 15 1014 38 10000 5.1 280 19:55 28.01.2020
7 Clouds 15 1014 38 10000 5.1 280 19:37 28.01.2020
8 Clouds 15 1014 38 10000 5.1 280 19:19 28.01.2020
9 Clouds 15 1014 38 10000 5.1 280 19:19 28.01.2020
10 Clouds 15 1014 38 10000 5.1 280 19:19 28.01.2020
11 Clouds 15 1014 47 10000 6.2 280 18:41 28.01.2020
12 Clouds 15 1014 47 10000 6.2 280 18:23 28.01.2020
13 Clouds 13 1013 50 10000 6.7 290 17:59 28.01.2020
14 Clouds 13 1013 50 10000 6.7 290 17:59 28.01.2020
15 Clouds 13 1013 50 10000 6.7 290 17:39 28.01.2020
16 Clouds 13 1013 50 10000 6.7 290 17:21 28.01.2020
17 Clouds 14 1012 41 10000 5.7 280 16:57 28.01.2020
18 Clouds 14 1012 41 10000 5.7 280 16:39 28.01.2020
19 Clouds 14 1012 41 10000 5.7 280 16:21 28.01.2020
20 Clouds 14 1012 41 10000 6.2 280 15:45 28.01.2020
21 Clouds 14 1012 41 10000 6.2 280 15:19 28.01.2020
22 Clouds 14 1011 41 10000 6.2 280 14:57 28.01.2020
23 Clouds 14 1011 41 10000 6.2 280 14:39 28.01.2020
24 Clouds 14 1011 41 10000 6.2 280 14:39 28.01.2020
25 Clear 14 1011 73 10000 6.2 280 14:18 28.01.2020
26 Clear 10 1009 73 0 3.41 267 13:40 28.01.2020
27 Clear 14 1009 47 10000 5.1 260 13:22 28.01.2020
28 Clouds 14 1009 47 10000 5.1 260 12:43 28.01.2020
29 Clouds 14 1009 47 10000 5.1 260 12:24 28.01.2020
30 Clouds 14 1008 47 10000 6.2 280 11:56 28.01.2020
31 Clouds 14 1008 47 10000 6.2 280 11:37 28.01.2020
32 Clouds 14 1008 47 10000 6.2 280 11:19 28.01.2020
33 Clouds 14 1008 58 10000 5.1 260 10:41 28.01.2020
34 Clouds 14 1008 58 10000 5.1 260 10:22 28.01.2020
35 Clouds 15 1008 62 10000 4.6 260 09:56 28.01.2020
36 Clouds 15 1008 62 10000 4.6 260 09:37 28.01.2020
37 Clouds 15 1008 62 10000 4.6 260 09:19 28.01.2020
38 Clouds 16 1008 59 10000 4.6 260 08:42 28.01.2020
39 Rain 16 1008 59 10000 4.6 260 08:20 28.01.2020
40 Rain 16 1009 63 10000 3.6 260 07:38 28.01.2020
41 Rain 16 1009 63 10000 4.1 260 06:51 28.01.2020
42 Rain 16 1009 63 10000 4.1 260 06:29 28.01.2020
43 Rain 16 1009 63 10000 4.1 260 06:29 28.01.2020
44 Rain 15 1010 82 10000 3.1 260 05:55 28.01.2020
45 Rain 15 1010 82 10000 3.1 260 05:33 28.01.2020
46 Rain 16 1010 82 10000 3.6 280 04:38 28.01.2020
47 Rain 15 1009 87 10000 3.6 280 03:33 28.01.2020
48 Rain 16 1009 82 9000 2.6 240 02:25 28.01.2020
49 Rain 16 1009 82 9000 2.6 240 02:25 28.01.2020
50 Rain 16 1009 82 9000 2.6 240 02:25 28.01.2020
51 Rain 16 1010 77 7000 4.1 300 01:57 28.01.2020
52 Rain 16 1010 77 7000 4.1 300 01:32 28.01.2020
53 Clouds 18 1010 63 9000 3.1 260 00:51 28.01.2020
54 Clouds 18 1010 63 9000 3.1 260 00:29 28.01.2020
55 Clouds 19 1010 55 10000 5.7 260 23:51 27.01.2020
56 Clouds 19 1010 55 10000 5.7 260 23:51 27.01.2020
57 Clouds 19 1010 55 10000 5.7 260 23:30 27.01.2020
58 Clouds 16 1010 56 0 3.8 285 22:59 27.01.2020
59 Clouds 16 1010 56 0 3.8 285 22:40 27.01.2020
60 Clouds 23 1011 38 10000 6.2 270 22:19 27.01.2020
61 Clouds 23 1011 38 10000 6.2 270 21:55 27.01.2020
62 Clouds 23 1011 38 10000 6.2 270 21:37 27.01.2020
63 Clouds 23 1011 38 10000 6.2 270 21:18 27.01.2020
64 Clouds 23 1012 35 10000 5.7 270 20:43 27.01.2020
65 Clouds 23 1012 35 10000 5.7 270 20:22 27.01.2020
66 Clouds 22 1013 33 10000 4.6 270 19:59 27.01.2020
67 Clouds 22 1013 33 10000 4.6 270 19:40 27.01.2020
68 Clouds 22 1013 33 10000 4.6 270 19:22 27.01.2020
69 Clouds 22 1014 32 10000 3.1 0 18:56 27.01.2020
70 Clouds 22 1014 32 10000 3.1 0 18:37 27.01.2020
71 Clouds 22 1014 32 10000 3.1 0 18:37 27.01.2020
72 Clouds 22 1014 32 10000 3.1 0 18:19 27.01.2020
73 Clouds 19 1015 29 10000 2.6 0 17:39 27.01.2020
74 Clouds 19 1015 29 10000 2.6 0 17:39 27.01.2020
75 Clouds 19 1015 29 10000 2.6 0 17:20 27.01.2020
76 Clouds 17 1016 39 10000 1 0 16:58 27.01.2020
77 Clouds 17 1016 39 10000 1 0 16:58 27.01.2020
78 Clouds 17 1016 39 10000 1 0 16:40 27.01.2020
79 Clouds 17 1016 39 10000 1 0 16:22 27.01.2020
80 Clouds 17 1016 39 10000 1 0 16:22 27.01.2020
81 Clouds 15 1017 51 10000 1.5 240 15:55 27.01.2020
82 Clouds 15 1017 51 10000 1.5 240 15:36 27.01.2020
83 Clouds 15 1017 51 10000 1.5 240 15:18 27.01.2020
84 Clouds 13 1018 58 10000 1.5 220 14:41 27.01.2020
85 Clouds 13 1018 58 10000 1.5 220 14:22 27.01.2020
86 Clear 10 1019 66 10000 1 0 13:54 27.01.2020
87 Clear 10 1019 66 10000 1 0 13:36 27.01.2020
88 Clouds 10 1019 66 10000 1 0 13:18 27.01.2020
89 Clouds 7 1019 81 10000 1 0 12:42 27.01.2020
90 Clouds 7 1019 81 10000 1 0 12:22 27.01.2020
91 Clouds 6 1020 81 10000 0.5 0 11:43 27.01.2020
92 Clouds 6 1020 81 10000 0.5 0 11:23 27.01.2020
93 Clouds 6 1020 81 10000 0.5 0 11:23 27.01.2020
94 Clear 7 1020 75 10000 0.5 0 10:57 27.01.2020
95 Clear 7 1020 75 10000 0.5 0 10:57 27.01.2020
96 Clear 7 1020 75 10000 0.5 0 10:57 27.01.2020
97 Clear 7 1020 75 10000 0.5 0 10:39 27.01.2020
98 Clear 7 1020 75 10000 0.5 0 10:20 27.01.2020
99 Clear 8 1020 70 10000 1 0 09:40 27.01.2020
100 Clear 8 1020 70 10000 1 0 09:19 27.01.2020
101 Clear 9 1020 66 10000 1 0 08:57 27.01.2020
102 Clear 9 1020 66 10000 1 0 08:39 27.01.2020
103 Clouds 9 1020 66 10000 1 0 08:19 27.01.2020
104 Clouds 10 1021 61 10000 1 0 07:47 27.01.2020
105 Clouds 10 1021 61 10000 1 0 07:47 27.01.2020
106 Clouds 10 1021 61 10000 1 0 07:29 27.01.2020
107 Clouds 11 1021 62 10000 1 230 06:38 27.01.2020
108 Clouds 12 1021 54 10000 1.5 260 05:46 27.01.2020
109 Clouds 13 1021 54 10000 1 0 04:37 27.01.2020
110 Clouds 15 1021 47 10000 1 0 03:35 27.01.2020
111 Clear 18 1020 39 10000 3.1 270 01:55 27.01.2020
112 Clear 18 1020 39 10000 3.1 270 01:27 27.01.2020
113 Clear 20 1019 34 10000 3.6 230 00:41 27.01.2020
114 Clear 20 1019 34 10000 3.6 230 00:21 27.01.2020
115 Clear 21 1019 30 10000 4.1 280 23:43 26.01.2020
116 Clear 21 1019 30 10000 4.1 280 23:22 26.01.2020
117 Clear 22 1019 28 10000 3.6 270 22:58 26.01.2020
118 Clear 22 1019 28 10000 3.6 270 22:38 26.01.2020
119 Clear 22 1019 28 10000 3.6 270 22:20 26.01.2020
120 Clear 22 1019 28 10000 3.1 290 21:58 26.01.2020
121 Clear 22 1019 28 10000 3.1 290 21:39 26.01.2020
122 Clear 22 1019 28 10000 3.1 290 21:20 26.01.2020
123 Clear 22 1019 28 10000 2.1 0 20:58 26.01.2020
124 Clear 22 1019 28 10000 2.1 0 20:38 26.01.2020
125 Clear 22 1019 28 10000 2.1 0 20:38 26.01.2020
126 Clouds 22 1019 28 10000 2.1 0 20:19 26.01.2020
127 Clouds 22 1019 28 10000 2.1 0 20:19 26.01.2020
128 Clouds 21 1019 30 10000 3.1 0 19:57 26.01.2020
129 Clouds 21 1019 30 10000 3.1 0 19:38 26.01.2020
130 Clouds 21 1019 30 10000 3.1 0 19:18 26.01.2020
131 -273 0 0 0 0 0 18:54 26.01.2020
132 Clouds 20 1019 32 10000 3.1 290 18:36 26.01.2020
133 Clouds 20 1019 32 10000 3.1 290 18:18 26.01.2020
134 Clouds 20 1019 34 10000 2.6 0 17:40 26.01.2020
135 Clouds 20 1019 34 10000 2.6 0 17:20 26.01.2020
136 Clouds 20 1019 34 10000 2.6 0 17:20 26.01.2020
137 Clouds 19 1019 37 10000 4.1 280 16:59 26.01.2020
138 Clouds 19 1019 37 10000 4.1 280 16:40 26.01.2020
139 Clouds 19 1019 37 10000 4.1 280 16:21 26.01.2020
140 Clouds 18 1019 39 10000 4.6 270 15:58 26.01.2020
141 Clouds 18 1019 39 10000 4.6 270 15:58 26.01.2020
142 Clouds 18 1019 39 10000 4.6 270 15:40 26.01.2020
143 Clouds 17 1019 45 10000 3.1 250 15:19 26.01.2020
144 Clouds 16 1018 51 0 2.86 281 14:41 26.01.2020
145 Clouds 16 1019 48 10000 1.5 230 14:23 26.01.2020
146 Clouds 16 1019 48 10000 1.5 230 13:57 26.01.2020
147 Clouds 16 1019 48 10000 1.5 230 13:37 26.01.2020
148 Clouds 16 1019 48 10000 1.5 230 13:18 26.01.2020
149 Clouds 15 1018 47 10000 3.1 250 12:42 26.01.2020
150 Clouds 15 1018 47 10000 3.1 250 12:24 26.01.2020
151 Clouds 15 1018 47 10000 3.1 250 12:24 26.01.2020
152 Clouds 13 1017 58 10000 1.5 210 11:58 26.01.2020
153 Clouds 13 1017 58 10000 1.5 210 11:39 26.01.2020
154 Clouds 13 1017 58 10000 1.5 210 11:19 26.01.2020
155 Clouds 15 1016 54 10000 3.6 290 10:58 26.01.2020
156 Clouds 15 1016 54 10000 3.6 290 10:38 26.01.2020
157 Clouds 15 1016 54 10000 3.6 290 10:20 26.01.2020
158 Clouds 15 1016 54 10000 2.6 250 09:57 26.01.2020
159 Clouds 15 1016 54 10000 2.6 250 09:39 26.01.2020
160 Clouds 15 1016 54 10000 2.6 250 09:20 26.01.2020
161 Clouds 15 1016 54 10000 2.6 250 09:20 26.01.2020
162 Clouds 16 1016 51 10000 3.6 250 08:43 26.01.2020
163 Clouds 16 1016 51 10000 3.6 250 08:22 26.01.2020
164 Clouds 16 1016 55 10000 4.6 260 07:56 26.01.2020
165 Clouds 16 1016 55 10000 4.6 260 07:38 26.01.2020
166 Clouds 16 1016 55 10000 4.6 260 07:19 26.01.2020
167 Clouds 17 1016 51 10000 4.6 270 06:29 26.01.2020
168 Clouds 17 1016 51 10000 5.1 270 05:30 26.01.2020
169 Clouds 17 1016 51 10000 4.6 260 04:45 26.01.2020
170 Clouds 18 1016 55 10000 4.6 270 02:41 26.01.2020
171 Clouds 19 1015 52 10000 5.1 270 01:47 26.01.2020
172 Clouds 19 1015 52 10000 5.1 270 01:24 26.01.2020
173 Clouds 20 1015 49 10000 5.1 270 00:44 26.01.2020
174 Clouds 20 1015 49 10000 5.1 270 00:26 26.01.2020
175 Clouds 22 1015 40 10000 6.7 270 23:40 25.01.2020
176 Clouds 22 1015 40 10000 6.7 270 23:21 25.01.2020
177 Clouds 22 1015 40 10000 6.7 280 22:56 25.01.2020
178 Clouds 22 1015 40 10000 6.7 280 22:56 25.01.2020
179 Clouds 22 1015 40 10000 6.7 280 22:37 25.01.2020
180 Clouds 22 1015 40 10000 6.7 280 22:37 25.01.2020
181 Clouds 22 1015 40 10000 6.7 280 22:18 25.01.2020
182 Clouds 22 1015 37 10000 7.7 280 21:55 25.01.2020
183 Clouds 22 1015 37 10000 7.7 280 21:55 25.01.2020
184 Clouds 22 1015 37 10000 7.7 280 21:55 25.01.2020
185 Clouds 22 1015 37 10000 7.7 280 21:36 25.01.2020
186 Clouds 22 1015 37 10000 7.7 280 21:18 25.01.2020
187 Clouds 19 1013 53 0 5.12 283 20:43 25.01.2020
188 Clouds 22 1015 37 10000 6.7 270 20:24 25.01.2020
189 Clouds 22 1015 37 10000 6.7 270 19:48 25.01.2020
190 Clouds 22 1015 37 10000 6.7 270 19:48 25.01.2020
191 Clouds 22 1016 37 10000 7.2 280 19:20 25.01.2020
192 Clouds 22 1016 37 10000 7.2 280 18:59 25.01.2020
193 Clouds 22 1016 37 10000 7.2 280 18:41 25.01.2020
194 Clouds 22 1016 37 10000 7.2 280 18:20 25.01.2020
195 Clouds 21 1016 40 10000 7.7 280 17:42 25.01.2020
196 Clouds 21 1016 40 10000 7.7 280 17:24 25.01.2020
197 Clouds 21 1016 43 10000 6.2 270 16:58 25.01.2020
198 Clouds 21 1016 43 10000 6.2 270 16:40 25.01.2020
199 Clouds 20 1017 56 10000 3.1 280 16:21 25.01.2020
200 Clouds 20 1017 56 10000 3.1 280 15:55 25.01.2020
201 Clouds 20 1017 56 10000 3.1 280 15:37 25.01.2020
202 Clouds 20 1017 56 10000 3.1 280 15:18 25.01.2020
203 Clouds 18 1017 63 10000 2.6 270 14:41 25.01.2020
204 Clouds 18 1017 63 10000 2.6 270 14:18 25.01.2020
205 Clouds 16 1018 72 10000 1.5 260 13:43 25.01.2020
206 Clouds 16 1018 72 10000 1.5 260 13:24 25.01.2020
207 Clouds 14 1018 76 10000 1.5 250 12:46 25.01.2020
208 Clouds 14 1018 76 10000 1.5 250 12:26 25.01.2020
209 Clouds 14 1017 76 10000 1.5 240 11:45 25.01.2020
210 Clouds 14 1017 76 10000 1.5 240 11:22 25.01.2020
211 Clouds 14 1017 76 10000 1.5 280 10:59 25.01.2020
212 Clouds 14 1017 76 10000 1.5 280 10:40 25.01.2020
213 Clouds 14 1017 76 10000 1.5 280 10:20 25.01.2020
214 Clouds 14 1017 71 10000 1.5 250 09:41 25.01.2020
215 Clouds 14 1017 71 10000 1.5 250 09:22 25.01.2020
216 Clouds 14 1017 71 10000 3.1 290 08:47 25.01.2020
217 Clouds 14 1017 71 10000 3.1 290 08:28 25.01.2020
218 Clouds 15 1017 67 10000 1.5 270 07:50 25.01.2020
219 Clouds 15 1017 67 10000 1 0 06:53 25.01.2020
220 Clouds 15 1017 67 10000 1 0 06:28 25.01.2020
221 Clouds 16 1017 59 10000 2.1 0 05:47 25.01.2020
222 Clouds 16 1017 59 10000 2.1 0 05:18 25.01.2020
223 Clouds 16 1016 59 10000 6.7 280 03:51 25.01.2020
224 Clouds 16 1016 59 10000 6.7 280 03:19 25.01.2020
225 Clouds 16 1016 59 10000 5.1 240 02:20 25.01.2020
226 Clouds 15 1016 62 10000 5.1 250 01:43 25.01.2020
227 Clouds 16 1016 59 10000 4.6 250 00:44 25.01.2020
228 Clouds 16 1016 59 10000 4.6 250 00:25 25.01.2020
229 Clouds 16 1015 55 10000 5.1 260 23:57 24.01.2020
230 Clouds 16 1015 55 10000 5.1 260 23:38 24.01.2020
231 Clouds 16 1015 55 10000 5.1 260 23:20 24.01.2020
232 Clouds 17 1016 51 10000 6.2 260 22:42 24.01.2020
233 Clouds 17 1016 51 10000 6.2 260 22:24 24.01.2020
234 Clouds 17 1015 48 10000 6.7 260 21:43 24.01.2020
235 Clouds 17 1015 48 10000 6.7 260 21:20 24.01.2020
236 Clouds 17 1015 48 10000 6.7 260 21:20 24.01.2020
237 Clouds 18 1015 42 10000 7.7 270 20:56 24.01.2020
238 Clouds 18 1015 42 10000 7.7 270 20:38 24.01.2020
239 Clouds 18 1015 42 10000 7.7 270 20:19 24.01.2020
240 Clouds 18 1015 39 10000 6.7 270 19:55 24.01.2020
241 Clouds 18 1015 39 10000 6.7 270 19:37 24.01.2020
242 Clouds 18 1015 39 10000 6.7 270 19:19 24.01.2020
243 Clouds 19 1014 37 10000 6.7 270 18:43 24.01.2020
244 Clouds 19 1014 37 10000 6.7 270 18:22 24.01.2020
245 Clouds 19 1014 37 10000 6.7 270 18:22 24.01.2020
246 Clouds 20 1014 32 10000 6.2 260 17:45 24.01.2020
247 Clouds 20 1014 32 10000 6.2 260 17:23 24.01.2020
248 Clouds 19 1015 34 10000 5.7 250 16:58 24.01.2020
249 Clouds 19 1015 34 10000 5.7 250 16:38 24.01.2020
250 Clouds 19 1015 34 10000 5.7 250 16:19 24.01.2020
251 Clouds 17 1016 42 10000 5.7 260 15:42 24.01.2020
252 Clouds 17 1016 42 10000 5.7 260 15:21 24.01.2020
253 Clouds 15 1017 47 10000 4.6 270 14:43 24.01.2020
254 Clouds 15 1017 47 10000 4.6 270 14:24 24.01.2020
255 Clouds 14 1017 50 10000 5.1 270 13:59 24.01.2020
256 Clouds 14 1017 50 10000 5.1 270 13:40 24.01.2020
257 Clouds 14 1017 50 10000 5.1 270 13:21 24.01.2020
258 Clouds 14 1016 47 10000 4.6 260 12:42 24.01.2020
259 Clouds 14 1016 47 10000 4.6 260 12:20 24.01.2020
260 Clouds 14 1016 47 10000 4.1 260 11:44 24.01.2020
261 Clouds 14 1016 47 10000 4.1 260 11:19 24.01.2020
262 Clouds 14 1015 44 10000 4.6 250 10:44 24.01.2020
263 Clouds 14 1015 44 10000 4.6 250 10:23 24.01.2020
264 Clouds 14 1015 47 10000 4.1 280 10:00 24.01.2020
265 Clouds 14 1015 47 10000 4.1 280 09:40 24.01.2020
266 Clouds 14 1015 47 10000 4.1 280 09:22 24.01.2020
267 Clouds 14 1016 47 10000 3.1 260 08:41 24.01.2020
268 Clouds 14 1016 47 10000 3.1 260 08:20 24.01.2020
269 Clouds 13 1016 50 10000 2.6 260 07:53 24.01.2020
270 Clouds 13 1016 50 10000 2.6 260 07:34 24.01.2020
271 Clouds 14 1016 47 10000 5.1 270 06:48 24.01.2020
272 Clouds 14 1016 47 10000 5.1 270 06:29 24.01.2020
273 Clouds 14 1016 47 10000 4.1 250 05:58 24.01.2020
274 Clear 15 1016 47 10000 4.6 240 04:57 24.01.2020
275 Clear 16 1015 41 10000 4.6 260 02:53 24.01.2020
276 Clear 16 1015 41 10000 4.6 260 02:25 24.01.2020
277 Clear 17 1015 42 10000 6.2 270 01:45 24.01.2020
278 Clear 17 1015 42 10000 6.2 270 01:26 24.01.2020
279 Clear 19 1015 34 10000 6.7 260 00:23 24.01.2020
280 Clear 20 1014 37 10000 7.2 270 23:49 23.01.2020
281 Clear 20 1014 37 10000 7.2 270 23:31 23.01.2020
282 Clear 20 1014 45 10000 7.2 270 22:59 23.01.2020
283 Clear 20 1014 45 10000 7.2 270 22:38 23.01.2020
284 Clear 20 1014 45 10000 7.2 270 22:19 23.01.2020
285 Clear 19 1013 33 0 4.83 275 21:57 23.01.2020
286 Clear 19 1013 33 0 4.83 275 21:38 23.01.2020
287 Clear 21 1014 37 10000 7.7 280 21:20 23.01.2020
288 Clear 21 1014 37 10000 7.7 280 20:57 23.01.2020
289 Clear 21 1014 37 10000 7.7 280 20:38 23.01.2020
290 Clear 21 1014 37 10000 7.7 280 20:19 23.01.2020
291 Clear 21 1014 37 10000 7.7 280 19:44 23.01.2020
292 Clear 21 1014 37 10000 7.7 280 19:44 23.01.2020
293 Clear 21 1014 37 10000 7.7 280 19:24 23.01.2020
294 Clear 21 1014 37 10000 7.7 280 19:24 23.01.2020
295 Clear 22 1014 35 10000 7.2 280 18:59 23.01.2020
296 Clear 22 1014 35 10000 7.2 280 18:40 23.01.2020
297 Clear 22 1014 35 10000 7.2 280 18:20 23.01.2020
298 Clear 21 1014 40 10000 7.2 280 17:58 23.01.2020
299 Clear 21 1014 40 10000 7.2 280 17:39 23.01.2020
300 Clear 21 1014 40 10000 7.2 280 17:19 23.01.2020
301 Clear 21 1014 43 10000 7.2 290 16:39 23.01.2020
302 Clear 21 1014 43 10000 7.2 290 16:20 23.01.2020
303 Clouds 20 1014 49 10000 4.1 250 15:58 23.01.2020
304 Clouds 20 1014 49 10000 4.1 250 15:40 23.01.2020
305 Clouds 20 1014 49 10000 4.1 250 15:19 23.01.2020
306 Clouds 20 1014 49 10000 4.1 250 15:19 23.01.2020
307 Clear 17 1015 63 10000 2.6 290 14:59 23.01.2020
308 Clear 17 1015 63 10000 2.6 290 14:41 23.01.2020
309 Clear 17 1015 63 10000 2.6 290 14:23 23.01.2020
310 Clear 16 1015 67 10000 1.5 270 13:59 23.01.2020
311 Clear 16 1015 67 10000 1.5 270 13:38 23.01.2020
312 Clouds 16 1015 67 10000 1.5 270 13:19 23.01.2020
313 Clouds 13 1015 76 10000 1.5 290 12:46 23.01.2020
314 Clouds 13 1015 76 10000 1.5 290 12:25 23.01.2020
315 Clouds 12 1015 76 10000 2.1 270 11:57 23.01.2020
316 Clouds 12 1015 76 10000 2.1 270 11:38 23.01.2020
317 Clear 12 1015 76 10000 2.1 270 11:19 23.01.2020
318 Clear 12 1014 76 10000 2.1 290 10:44 23.01.2020
319 Clear 12 1014 76 10000 2.1 290 10:44 23.01.2020
320 Clear 12 1014 76 10000 2.1 290 10:22 23.01.2020
321 Clear 12 1014 76 10000 2.1 290 10:22 23.01.2020
322 Clear 12 1014 71 10000 1.5 290 09:43 23.01.2020
323 Clear 12 1014 71 10000 1.5 290 09:25 23.01.2020
324 Clear 13 1013 66 10000 1.5 280 08:59 23.01.2020
325 Clear 13 1013 66 10000 1.5 280 08:40 23.01.2020
326 Clear 13 1013 66 10000 1.5 280 08:21 23.01.2020
327 Clear 14 1013 58 10000 1 270 07:44 23.01.2020
328 Clear 14 1013 58 10000 1 270 07:24 23.01.2020
329 Clear 14 1014 62 10000 1.5 300 06:51 23.01.2020
330 Clear 14 1014 62 10000 1.5 300 06:22 23.01.2020
331 Clear 15 1014 54 10000 1 0 05:37 23.01.2020
332 Clear 15 1014 58 10000 0.5 0 04:24 23.01.2020
333 Clear 21 1013 30 9000 2.6 290 02:33 23.01.2020
334 Clouds 26 1013 22 10000 1.5 270 00:58 23.01.2020
335 Clouds 26 1013 22 10000 1.5 270 00:27 23.01.2020
336 Clouds 28 1012 18 10000 3.6 270 23:47 22.01.2020
337 Clouds 28 1012 18 10000 3.6 270 23:29 22.01.2020
338 Clouds 29 1012 18 10000 3.1 280 22:58 22.01.2020
339 Clouds 29 1012 18 10000 3.1 280 22:39 22.01.2020
340 Clouds 29 1012 18 10000 3.1 280 22:21 22.01.2020
341 Clouds 28 1011 17 0 2.81 221 21:39 22.01.2020
342 Clouds 29 1013 21 10000 2.6 280 21:21 22.01.2020
343 Clouds 29 1013 21 10000 2.6 280 20:56 22.01.2020
344 Clouds 29 1013 21 10000 2.6 280 20:37 22.01.2020
345 Clouds 29 1013 21 10000 2.6 280 20:18 22.01.2020
346 Clouds 26 1012 22 0 2.13 152 19:55 22.01.2020
347 Clouds 26 1012 22 0 2.13 152 19:37 22.01.2020
348 Clouds 25 1014 47 10000 2.1 260 19:18 22.01.2020
349 Clouds 25 1014 47 10000 2.1 260 18:55 22.01.2020
350 Clouds 25 1014 47 10000 2.1 260 18:36 22.01.2020
351 Clouds 25 1014 47 10000 2.1 260 18:18 22.01.2020
352 Clouds 25 1014 47 10000 2.1 260 18:18 22.01.2020
353 Clouds 26 1012 22 0 2.13 152 17:40 22.01.2020
354 Clouds 21 1016 56 10000 1 0 17:21 22.01.2020
355 Clouds 21 1016 56 10000 1 0 16:57 22.01.2020
356 Clouds 21 1016 56 10000 1 0 16:39 22.01.2020
357 Clouds 21 1016 56 10000 1 0 16:20 22.01.2020
358 Clouds 19 1017 63 10000 0.5 0 15:55 22.01.2020
359 Clouds 19 1017 63 10000 0.5 0 15:37 22.01.2020
360 Clouds 19 1017 63 10000 0.5 0 15:18 22.01.2020
361 Clouds 17 1018 67 10000 1 0 14:39 22.01.2020
362 Clear 17 1018 67 10000 1 0 14:20 22.01.2020
363 Clear 15 1018 77 10000 1.1 215 13:57 22.01.2020
364 Clear 15 1018 77 10000 1.1 215 13:37 22.01.2020
365 Clear 15 1018 77 10000 0.95 211 13:19 22.01.2020
366 Clear 12 1018 87 9000 0.95 211 12:57 22.01.2020
367 Clear 12 1018 87 9000 0.95 211 12:38 22.01.2020
368 Clear 12 1018 87 9000 0.95 211 12:19 22.01.2020
369 Clear 11 1018 87 8000 0.5 0 11:56 22.01.2020
370 Clear 11 1018 87 8000 0.5 0 11:38 22.01.2020
371 Clear 11 1018 87 8000 0.5 0 11:19 22.01.2020
372 Clear 12 1018 87 8000 1 0 10:45 22.01.2020
373 Clear 12 1018 87 8000 1 0 10:21 22.01.2020
374 Clear 12 1018 87 9000 1 0 09:57 22.01.2020
375 Clear 12 1018 87 9000 1 0 09:39 22.01.2020
376 Clear 12 1018 87 9000 1 0 09:20 22.01.2020
377 Clear 13 1018 82 10000 1.5 280 08:54 22.01.2020
378 Clear 13 1018 82 10000 1.5 280 08:36 22.01.2020
379 Clear 13 1018 82 10000 1.5 280 08:18 22.01.2020
380 Clear 14 1018 82 10000 0.5 0 07:41 22.01.2020
381 Clear 14 1018 82 10000 0.5 0 07:21 22.01.2020
382 Clear 14 1018 82 10000 0.5 0 07:21 22.01.2020
383 Clear 15 1018 77 10000 1 0 06:33 22.01.2020
384 Clear 16 1018 72 10000 1 0 05:42 22.01.2020
385 Clear 17 1018 67 8000 0.5 0 04:24 22.01.2020
386 Clear 17 1018 67 8000 0.5 0 03:26 22.01.2020
387 Clear 20 1017 60 8000 0.5 0 02:38 22.01.2020
388 Clear 27 1015 26 10000 3.1 300 00:46 22.01.2020
389 Clear 27 1015 26 10000 3.1 300 00:27 22.01.2020
390 Clear 29 1015 23 10000 3.1 300 23:55 21.01.2020
391 Clear 29 1015 23 10000 3.1 300 23:37 21.01.2020
392 Clear 29 1015 23 10000 3.1 300 23:18 21.01.2020
393 Clear 29 1015 23 10000 3.1 300 23:18 21.01.2020
394 Clear 29 1015 23 10000 3.1 300 23:18 21.01.2020
395 Clear 30 1016 23 10000 1.5 0 22:40 21.01.2020
396 Clear 30 1016 23 10000 1.5 0 22:20 21.01.2020
397 Clear 29 1016 23 10000 2.1 0 21:57 21.01.2020
398 Clear 29 1016 23 10000 2.1 0 21:38 21.01.2020
399 Clear 29 1016 23 10000 2.1 0 21:20 21.01.2020
400 Clear 29 1017 26 10000 1.5 0 20:56 21.01.2020
401 Clear 29 1017 26 10000 1.5 0 20:37 21.01.2020
402 Clear 29 1017 26 10000 1.5 0 20:18 21.01.2020
403 Clear 28 1017 30 10000 1.5 300 19:56 21.01.2020
404 Clear 28 1017 30 10000 1.5 300 19:37 21.01.2020
405 Clear 28 1017 30 10000 1.5 300 19:37 21.01.2020
406 Clear 28 1017 30 10000 1.5 300 19:19 21.01.2020
407 Clear 27 1018 36 10000 1.5 0 18:55 21.01.2020
408 Clear 27 1018 36 10000 1.5 0 18:36 21.01.2020
409 Clear 27 1018 36 10000 1.5 0 18:18 21.01.2020
410 Clear 24 1019 44 10000 2.6 300 17:43 21.01.2020
411 Clear 24 1019 44 10000 2.6 300 17:20 21.01.2020
412 Clear 22 1019 49 10000 2.1 0 16:58 21.01.2020
413 Clear 22 1019 49 10000 2.1 0 16:36 21.01.2020
414 Clear 22 1019 49 10000 2.1 0 16:36 21.01.2020
415 Clear 22 1019 49 10000 2.1 0 16:18 21.01.2020
416 Clear 20 1020 56 10000 1.5 220 15:40 21.01.2020
417 Clear 20 1020 56 10000 1.5 220 15:20 21.01.2020
418 Clear 18 1021 63 10000 1.1 162 14:57 21.01.2020
419 Clear 18 1021 63 10000 1.1 162 14:37 21.01.2020
420 Clear 15 1021 77 10000 1.5 270 14:19 21.01.2020
421 Clear 15 1021 77 10000 1.5 270 13:39 21.01.2020
422 Clear 15 1021 77 10000 1.5 270 13:18 21.01.2020
423 Clear 13 1020 82 9000 1.5 230 12:43 21.01.2020
424 Clear 13 1020 82 9000 1.5 230 12:25 21.01.2020
425 Clear 12 1020 87 10000 1 300 11:57 21.01.2020
426 Clear 12 1020 87 10000 1 300 11:38 21.01.2020
427 Clear 12 1020 87 10000 1 300 11:19 21.01.2020
428 Clear 12 1020 87 10000 1 0 10:43 21.01.2020
429 Clear 12 1020 87 10000 1 0 10:23 21.01.2020
430 Clear 13 1020 82 9000 1 270 09:57 21.01.2020
431 Clear 13 1020 82 9000 1 270 09:39 21.01.2020
432 Clear 13 1020 82 9000 1 270 09:21 21.01.2020
433 Clear 13 1020 82 9000 1 270 08:45 21.01.2020
434 Clear 13 1020 82 9000 1 270 08:27 21.01.2020
435 Clear 14 1020 76 10000 1 0 07:45 21.01.2020
436 Clear 14 1020 76 10000 1 0 07:26 21.01.2020
437 Clear 14 1020 82 10000 0.5 0 06:58 21.01.2020
438 Clear 14 1020 82 10000 0.5 0 06:39 21.01.2020
439 Clear 14 1020 82 10000 0.5 0 06:20 21.01.2020
440 Clear 15 1019 72 10000 1 0 05:40 21.01.2020
441 Clear 17 1019 63 9000 1 0 04:38 21.01.2020
442 Clear 24 1016 36 10000 2.1 290 02:29 21.01.2020
443 Clear 24 1016 36 10000 2.1 290 01:36 21.01.2020
444 Clear 27 1015 28 10000 3.1 320 00:51 21.01.2020
445 Clear 27 1015 28 10000 3.1 320 00:28 21.01.2020
446 Clear 28 1015 24 10000 3.6 290 23:56 20.01.2020
447 Clear 28 1015 24 10000 3.6 290 23:36 20.01.2020
448 Clear 28 1015 24 10000 3.6 290 23:18 20.01.2020
449 Clear 27 1013 25 0 2.35 191 22:40 20.01.2020
450 Clear 29 1015 25 10000 2.1 0 22:21 20.01.2020
451 Clear 29 1015 25 10000 2.1 0 21:58 20.01.2020
452 Clear 29 1015 25 10000 2.1 0 21:38 20.01.2020
453 Clear 29 1015 25 10000 2.1 0 21:20 20.01.2020
454 Clear 28 1015 26 10000 2.6 290 20:59 20.01.2020
455 Clear 28 1015 26 10000 2.6 290 20:39 20.01.2020
456 Clear 28 1015 26 10000 2.6 290 20:20 20.01.2020
457 Clear 27 1015 32 10000 1.5 0 19:58 20.01.2020
458 Clear 27 1015 32 10000 1.5 0 19:40 20.01.2020
459 Clear 27 1015 32 10000 1.5 0 19:19 20.01.2020
460 Clear 25 1016 36 10000 2.1 280 18:45 20.01.2020
461 Clear 25 1016 36 10000 2.1 280 18:24 20.01.2020
462 Clear 23 1017 43 10000 1.5 0 17:59 20.01.2020
463 Clear 23 1017 43 10000 1.5 0 17:38 20.01.2020
464 Clear 23 1017 43 10000 1.5 0 17:18 20.01.2020
465 Clear 20 1018 49 10000 1.5 310 16:45 20.01.2020
466 Clear 20 1018 49 10000 1.5 310 16:25 20.01.2020
467 Clear 18 1018 59 10000 1 0 15:58 20.01.2020
468 Clear 18 1018 59 10000 1 0 15:58 20.01.2020
469 Clear 18 1018 59 10000 1 0 15:40 20.01.2020
470 Clear 18 1018 59 10000 1 0 15:21 20.01.2020
471 Clear 15 1019 72 10000 0.5 0 14:55 20.01.2020
472 Clear 15 1019 72 10000 0.5 0 14:36 20.01.2020
473 Clear 15 1019 72 10000 0.5 0 14:18 20.01.2020
474 Clear 13 1019 76 10000 1 0 13:41 20.01.2020
475 Clear 13 1019 76 10000 1 0 13:23 20.01.2020
476 Clear 10 1019 87 9000 0.26 152 12:56 20.01.2020
477 Clear 10 1019 87 9000 0.26 152 12:38 20.01.2020
478 Clear 10 1019 87 9000 0.26 152 12:19 20.01.2020
479 Clear 9 1019 93 9000 1 260 11:43 20.01.2020
480 Clear 9 1019 93 9000 1 260 11:24 20.01.2020
481 Clear 10 1019 87 9000 1 290 10:57 20.01.2020
482 Clear 10 1019 87 9000 1 290 10:39 20.01.2020
483 Clear 10 1019 87 9000 1 290 10:19 20.01.2020
484 Clear 10 1019 87 9000 1 290 10:19 20.01.2020
485 Clear 10 1019 87 9000 1 290 10:19 20.01.2020
486 Clear 11 1018 81 9000 1 0 09:41 20.01.2020
487 Clear 11 1018 81 9000 1 0 09:21 20.01.2020
488 Clear 11 1018 81 10000 1.5 290 08:49 20.01.2020
489 Clear 11 1018 81 10000 1.5 290 08:30 20.01.2020
490 Clear 12 1018 76 10000 1 260 07:53 20.01.2020
491 Clear 12 1018 76 10000 1 260 07:30 20.01.2020
492 Clear 12 1019 81 10000 1.5 290 06:59 20.01.2020
493 Clear 12 1019 81 10000 1.5 290 06:28 20.01.2020
494 Clear 13 1019 71 10000 1.5 270 05:43 20.01.2020
495 Clear 13 1019 71 10000 1.5 270 05:43 20.01.2020
496 Clear 13 1019 71 10000 1.5 270 05:23 20.01.2020
497 Clear 15 1018 62 9000 1 0 04:48 20.01.2020
498 Clear 18 1017 52 9000 1 0 02:58 20.01.2020
499 Clear 18 1017 52 9000 1 0 02:58 20.01.2020
500 Clear 21 1016 43 10000 1 0 01:55 20.01.2020
501 Clear 21 1016 43 10000 1 0 01:37 20.01.2020
502 Clear 24 1015 29 10000 1.5 0 00:45 20.01.2020
503 Clear 24 1015 29 10000 1.5 0 00:24 20.01.2020
504 Clear 25 1014 23 10000 1.5 0 23:39 19.01.2020
505 Clear 25 1014 23 10000 1.5 0 23:20 19.01.2020
506 Clear 26 1014 21 10000 1.5 0 22:57 19.01.2020
507 Clear 26 1014 21 10000 1.5 0 22:39 19.01.2020
508 Clear 26 1014 21 10000 1.5 0 22:39 19.01.2020
509 Clear 26 1014 21 10000 1.5 0 22:20 19.01.2020
510 Clear 26 1014 21 10000 2.1 0 21:57 19.01.2020
511 Clear 26 1014 21 10000 2.1 0 21:38 19.01.2020
512 Clear 26 1014 21 10000 2.1 0 21:20 19.01.2020
513 Clear 26 1014 19 10000 2.1 0 20:57 19.01.2020
514 Clear 26 1014 19 10000 2.1 0 20:39 19.01.2020
515 Clear 26 1014 19 10000 2.1 0 20:20 19.01.2020
516 Clear 25 1014 22 10000 1.5 0 19:57 19.01.2020
517 Clear 25 1014 22 10000 1.5 0 19:39 19.01.2020
518 Clear 25 1014 22 10000 1.5 0 19:39 19.01.2020
519 Clear 25 1014 22 10000 1.5 0 19:20 19.01.2020
520 Clear 24 1014 25 10000 1.5 0 18:56 19.01.2020
521 -273 0 0 0 0 0 18:38 19.01.2020
522 Clear 24 1014 25 10000 1.5 0 18:20 19.01.2020
523 Clear 21 1015 40 10000 2.6 280 17:58 19.01.2020
524 Clear 21 1015 40 10000 2.6 280 17:58 19.01.2020
525 Clear 21 1015 40 10000 2.6 280 17:39 19.01.2020
526 Clear 21 1015 40 10000 2.6 280 17:20 19.01.2020
527 Clear 20 1015 49 9000 2.1 0 16:58 19.01.2020
528 Clear 20 1015 49 9000 2.1 0 16:38 19.01.2020
529 Clear 20 1015 49 9000 2.1 0 16:19 19.01.2020
530 Clear 16 1016 63 9000 1.5 230 15:58 19.01.2020
531 Clear 16 1016 63 9000 1.5 230 15:37 19.01.2020
532 Clear 16 1016 63 9000 1.5 230 15:19 19.01.2020
533 Clear 14 1016 67 9000 1.5 250 14:57 19.01.2020
534 Clear 14 1016 67 9000 1.5 250 14:38 19.01.2020
535 Clear 14 1016 67 9000 1.5 250 14:18 19.01.2020
536 Clear 12 1016 76 9000 1.5 240 13:55 19.01.2020
537 Clear 12 1016 76 9000 1.5 240 13:37 19.01.2020
538 Clear 12 1016 76 9000 1.5 240 13:18 19.01.2020
539 Clear 10 1016 81 9000 1.5 230 12:42 19.01.2020
540 Clear 10 1016 81 9000 1.5 230 12:23 19.01.2020
541 Clear 9 1015 81 8000 1 0 11:58 19.01.2020
542 Clear 9 1015 81 8000 1 0 11:39 19.01.2020
543 Clear 9 1015 81 8000 1 0 11:20 19.01.2020
544 Clear 9 1015 81 9000 1.5 310 10:55 19.01.2020
545 Clear 9 1015 81 9000 1.5 310 10:37 19.01.2020
546 Clear 9 1015 81 9000 1.5 310 10:18 19.01.2020
547 Clear 10 1015 76 9000 1 300 09:41 19.01.2020
548 Clear 10 1015 76 9000 1 300 09:23 19.01.2020
549 Clear 11 1015 71 10000 1.5 280 08:56 19.01.2020
550 Clear 11 1015 71 10000 1.5 280 08:38 19.01.2020
551 Clear 11 1015 71 10000 1.5 280 08:19 19.01.2020
552 Clear 11 1015 62 10000 1.5 300 07:30 19.01.2020
553 Clear 12 1015 62 10000 2.1 300 06:56 19.01.2020
554 Clear 12 1015 62 10000 2.1 300 06:25 19.01.2020
555 Clear 13 1014 58 8000 1 0 04:39 19.01.2020
556 Clear 19 1013 32 9000 1 0 02:36 19.01.2020
557 Clear 23 1012 53 10000 2.6 220 01:58 19.01.2020
558 Clear 23 1012 54 10000 2.6 220 01:22 19.01.2020
559 Clear 26 1012 54 10000 2.1 250 00:45 19.01.2020
560 Clear 26 1012 54 10000 2.1 250 00:25 19.01.2020
561 Clear 27 1012 54 10000 3.6 260 23:55 18.01.2020
562 Clear 27 1012 54 10000 3.6 260 23:36 18.01.2020
563 Clear 27 1012 54 10000 3.6 260 23:36 18.01.2020
564 Clear 27 1012 19 10000 3.6 260 23:18 18.01.2020
565 Clear 28 1012 18 10000 4.1 300 22:42 18.01.2020
566 Clear 28 1012 18 10000 4.1 300 22:24 18.01.2020
567 Clear 28 1012 18 10000 4.1 300 22:24 18.01.2020
568 Clear 28 1012 17 10000 1.5 0 21:58 18.01.2020
569 Clear 28 1012 17 10000 1.5 0 21:39 18.01.2020
570 Clear 28 1012 17 10000 1.5 0 21:20 18.01.2020
571 Clear 28 1013 21 10000 2.1 280 20:57 18.01.2020
572 Clear 28 1013 21 10000 2.1 280 20:57 18.01.2020
573 Clear 28 1013 21 10000 2.1 280 20:39 18.01.2020
574 Clear 28 1013 21 10000 2.1 280 20:19 18.01.2020
575 Clear 26 1013 29 10000 2.1 260 19:43 18.01.2020
576 Clear 26 1013 29 10000 2.1 260 19:24 18.01.2020
577 Clear 24 1015 36 9000 2.1 270 18:43 18.01.2020
578 Clear 24 1015 36 9000 2.1 270 18:25 18.01.2020
579 Clear 21 1015 40 10000 1.5 310 17:59 18.01.2020
580 Clear 21 1015 40 10000 1.5 310 17:40 18.01.2020
581 Clear 21 1015 40 10000 1.5 310 17:20 18.01.2020
582 Clear 19 1016 55 10000 1 0 16:56 18.01.2020
583 Clear 19 1016 55 10000 1 0 16:37 18.01.2020
584 Clear 19 1016 55 10000 1 0 16:19 18.01.2020
585 Clear 17 1017 67 10000 0.5 0 15:43 18.01.2020
586 Clear 17 1017 67 10000 0.5 0 15:24 18.01.2020
587 Clear 15 1018 72 9000 1.5 210 14:58 18.01.2020
588 Clear 15 1018 72 9000 1.5 210 14:39 18.01.2020
589 Clear 15 1018 72 9000 1.5 210 14:18 18.01.2020
590 Clear 13 1018 76 10000 1 0 13:45 18.01.2020
591 Clear 13 1018 76 10000 1 0 13:27 18.01.2020
592 Clear 11 1019 87 10000 2.1 300 12:59 18.01.2020
593 Clear 11 1019 87 10000 2.1 300 12:40 18.01.2020
594 Clear 11 1019 87 10000 2.1 300 12:20 18.01.2020
595 Clear 10 1018 87 9000 1.5 280 11:44 18.01.2020
596 Clear 10 1018 87 9000 1.5 280 11:22 18.01.2020
597 Clear 10 1018 87 9000 1.5 290 10:57 18.01.2020
598 Clear 10 1018 87 9000 1.5 290 10:38 18.01.2020
599 Clear 10 1018 87 9000 1.5 290 10:20 18.01.2020
600 Clear 10 1018 87 9000 1.5 240 09:46 18.01.2020
601 Clear 10 1018 87 9000 1.5 240 09:28 18.01.2020
602 Clear 11 1018 87 9000 1.5 280 08:56 18.01.2020
603 Clear 11 1018 87 9000 1.5 280 08:37 18.01.2020
604 Clear 11 1018 87 9000 1.5 280 08:19 18.01.2020
605 Clear 12 1018 81 10000 1 270 07:45 18.01.2020
606 Clear 12 1018 81 10000 1 270 07:26 18.01.2020
607 Clear 13 1018 76 10000 1 0 06:47 18.01.2020
608 Clear 13 1018 82 10000 1 0 05:58 18.01.2020
609 Clear 15 1018 72 10000 0.5 0 04:35 18.01.2020
610 Clear 19 1017 55 10000 0.5 0 02:50 18.01.2020
611 Clear 22 1016 40 10000 2.1 250 01:51 18.01.2020
612 Clear 24 1015 36 10000 3.6 300 00:41 18.01.2020
613 Clear 24 1015 36 10000 3.6 300 00:21 18.01.2020
614 Clear 25 1015 31 10000 4.1 280 23:59 17.01.2020
615 Clear 25 1015 31 10000 4.1 280 23:40 17.01.2020
616 Clear 25 1015 31 10000 4.1 280 23:19 17.01.2020
617 Clear 25 1016 33 10000 3.1 280 22:43 17.01.2020
618 Clear 25 1016 33 10000 3.1 280 22:21 17.01.2020
619 Clear 26 1016 31 10000 4.6 0 21:57 17.01.2020
620 Clear 26 1016 31 10000 4.6 0 21:39 17.01.2020
621 Clear 26 1016 31 10000 4.6 0 21:20 17.01.2020
622 Clear 25 1016 36 10000 4.1 0 20:55 17.01.2020
623 Clear 25 1016 36 10000 4.1 0 20:55 17.01.2020
624 Clear 25 1016 36 10000 4.1 0 20:36 17.01.2020
625 Clear 25 1016 36 10000 4.1 0 20:18 17.01.2020
626 Clear 26 1016 34 10000 3.6 0 19:54 17.01.2020
627 Clear 26 1016 34 10000 3.6 0 19:36 17.01.2020
628 Clear 26 1016 34 10000 3.6 0 19:18 17.01.2020
629 Clear 24 1017 41 10000 2.6 290 18:41 17.01.2020
630 Clear 24 1017 41 10000 2.6 290 18:23 17.01.2020
631 Clear 23 1018 46 10000 2.1 300 17:54 17.01.2020
632 Clear 23 1018 46 10000 2.1 300 17:36 17.01.2020
633 Clear 23 1018 46 10000 2.1 300 17:18 17.01.2020
634 Clear 20 1018 52 10000 2.1 300 16:41 17.01.2020
635 Clear 20 1018 52 10000 2.1 300 16:19 17.01.2020
636 Clear 18 1019 59 10000 1.5 270 15:48 17.01.2020
637 Clear 18 1019 59 10000 1.5 270 15:48 17.01.2020
638 Clear 18 1019 59 10000 1.5 270 15:26 17.01.2020
639 Clear 15 1020 67 10000 1.5 270 14:54 17.01.2020
640 Clear 15 1020 67 10000 1.5 270 14:36 17.01.2020
641 Clear 15 1020 67 10000 1.5 270 14:18 17.01.2020
642 Clear 15 1020 67 10000 1.5 270 14:18 17.01.2020
643 Clear 12 1021 81 10000 1 0 13:38 17.01.2020
644 Clear 12 1021 81 10000 1 0 13:19 17.01.2020
645 Clear 9 1021 93 10000 1.5 250 12:44 17.01.2020
646 Clear 9 1021 93 10000 1.5 250 12:22 17.01.2020
647 Clear 8 1021 93 9000 0.84 182 11:40 17.01.2020
648 Clear 8 1021 93 9000 0.9 289 11:19 17.01.2020
649 Clear 8 1021 93 10000 1.5 280 10:44 17.01.2020
650 Clear 8 1021 93 10000 1.5 280 10:23 17.01.2020
651 Clear 9 1021 87 10000 0.5 0 09:58 17.01.2020
652 Clear 9 1021 87 10000 0.5 0 09:58 17.01.2020
653 Clear 9 1021 87 10000 0.5 0 09:40 17.01.2020
654 Clear 9 1021 87 10000 0.5 0 09:20 17.01.2020
655 Clear 10 1021 81 10000 1 0 08:45 17.01.2020
656 Clear 10 1021 81 10000 1 0 08:25 17.01.2020
657 Clear 11 1021 76 10000 0.5 0 07:55 17.01.2020
658 Clear 11 1021 76 10000 0.5 0 07:32 17.01.2020
659 Clear 11 1021 76 10000 0.5 0 07:32 17.01.2020
660 Clear 11 1022 81 10000 1.5 280 06:59 17.01.2020
661 Clear 11 1022 81 10000 1.5 280 06:41 17.01.2020
662 Clear 12 1022 76 10000 2.1 280 05:56 17.01.2020
663 Clear 14 1022 67 10000 2.1 290 03:39 17.01.2020
664 Clear 15 1022 67 9000 1.5 270 02:53 17.01.2020
665 Clear 18 1021 52 10000 3.1 300 01:47 17.01.2020
666 Clear 18 1021 52 10000 3.1 300 01:29 17.01.2020
667 Clear 20 1021 37 10000 1 0 00:51 17.01.2020
668 Clear 20 1021 37 10000 1 0 00:26 17.01.2020
669 Clear 15 1018 68 0 1.86 249 23:44 16.01.2020
670 Clear 22 1021 30 10000 1.5 250 23:26 16.01.2020
671 Clear 22 1021 30 10000 1.5 250 22:57 16.01.2020
672 Clear 22 1021 30 10000 1.5 250 22:39 16.01.2020
673 Clear 22 1021 30 10000 1.5 250 22:20 16.01.2020
674 Clear 21 1022 30 10000 2.1 0 21:55 16.01.2020
675 Clear 21 1022 30 10000 2.1 0 21:36 16.01.2020
676 Clear 21 1022 30 10000 2.1 0 21:18 16.01.2020
677 Clear 21 1022 32 10000 1.5 0 20:41 16.01.2020
678 Clear 21 1022 32 10000 1.5 0 20:21 16.01.2020
679 Clear 20 1023 32 10000 1.5 0 19:59 16.01.2020
680 Clear 20 1023 32 10000 1.5 0 19:41 16.01.2020
681 Clear 20 1023 32 10000 1.5 0 19:22 16.01.2020
682 Clear 18 1024 39 10000 2.1 0 18:57 16.01.2020
683 Clear 18 1024 39 10000 2.1 0 18:38 16.01.2020
684 Clear 18 1024 39 10000 2.1 0 18:19 16.01.2020
685 Clear 16 1025 44 10000 1 0 17:58 16.01.2020
686 Clear 16 1025 44 10000 1 0 17:39 16.01.2020
687 Clear 16 1025 44 10000 1 0 17:20 16.01.2020
688 Clear 14 1025 50 10000 3.1 310 16:41 16.01.2020
689 Clear 14 1025 50 10000 3.1 310 16:23 16.01.2020
690 Clear 12 1026 54 10000 2.6 290 15:57 16.01.2020
691 Clear 12 1026 54 10000 2.6 290 15:38 16.01.2020
692 Clear 12 1026 54 10000 2.6 290 15:20 16.01.2020
693 Clear 10 1026 57 10000 2.6 280 14:42 16.01.2020
694 Clear 10 1026 57 10000 2.6 280 14:24 16.01.2020
695 Clear 8 1026 70 10000 2.1 260 13:49 16.01.2020
696 Clear 8 1026 70 10000 2.1 260 13:30 16.01.2020
697 Clear 5 1026 80 10000 2.1 240 12:59 16.01.2020
698 Clear 5 1026 80 10000 2.1 240 12:40 16.01.2020
699 Clear 5 1026 80 10000 2.1 240 12:21 16.01.2020
700 Clear 4 1027 86 10000 1.5 270 11:42 16.01.2020
701 Clear 4 1027 86 10000 1.5 270 11:42 16.01.2020
702 Clear 4 1027 86 10000 1.5 270 11:24 16.01.2020
703 Clear 5 1027 80 10000 1.5 260 10:56 16.01.2020
704 Clear 5 1027 80 10000 1.5 260 10:37 16.01.2020
705 Clear 5 1027 80 10000 1.5 260 10:19 16.01.2020
706 Clear 5 1027 86 9000 1.5 260 09:43 16.01.2020
707 Clear 5 1027 86 9000 1.5 260 09:24 16.01.2020
708 Clear 6 1027 75 10000 1 0 08:58 16.01.2020
709 Clear 6 1027 75 10000 1 0 08:40 16.01.2020
710 Clear 6 1027 75 10000 1 0 08:19 16.01.2020
711 Clear 7 1027 70 10000 1.5 260 07:42 16.01.2020
712 Clear 7 1027 70 10000 1.5 260 07:24 16.01.2020
713 Clear 8 1027 61 10000 4.1 270 06:52 16.01.2020
714 Clear 8 1027 61 10000 4.1 270 06:34 16.01.2020
715 Clear 9 1026 57 10000 3.1 230 05:49 16.01.2020
716 Clear 8 1026 61 10000 3.6 250 04:50 16.01.2020
717 Clear 9 1026 57 10000 3.6 240 03:56 16.01.2020
718 Clear 9 1025 61 10000 3.1 250 02:46 16.01.2020
719 Clear 10 1024 53 10000 5.1 280 01:34 16.01.2020
720 Clear 11 1023 50 10000 5.7 280 00:43 16.01.2020
721 Clear 11 1023 50 10000 5.7 280 00:43 16.01.2020
722 Clear 11 1023 50 10000 5.7 280 00:23 16.01.2020
723 Clear 12 1022 46 10000 6.2 270 23:44 15.01.2020
724 Clear 12 1022 46 10000 6.2 270 23:44 15.01.2020
725 Clear 12 1022 46 10000 6.2 270 23:22 15.01.2020
726 Clear 12 1021 46 10000 7.2 270 22:56 15.01.2020
727 Clear 12 1021 46 10000 7.2 270 22:38 15.01.2020
728 Clear 12 1021 46 10000 7.2 270 22:18 15.01.2020
729 Clear 13 1021 48 10000 6.7 270 21:56 15.01.2020
730 Clear 13 1021 48 10000 6.7 270 21:56 15.01.2020
731 Clear 13 1021 48 10000 6.7 270 21:36 15.01.2020
732 Clear 13 1021 48 10000 6.7 270 21:18 15.01.2020
733 Clear 12 1020 46 10000 7.2 280 20:54 15.01.2020
734 Clear 12 1020 46 10000 7.2 280 20:36 15.01.2020
735 Clear 12 1020 46 10000 7.2 280 20:18 15.01.2020
736 Clear 13 1020 43 10000 6.7 270 19:54 15.01.2020
737 Clear 13 1020 43 10000 6.7 270 19:36 15.01.2020
738 Clear 13 1020 43 10000 6.7 270 19:18 15.01.2020
739 Clear 13 1020 43 10000 6.7 270 19:18 15.01.2020
740 Clear 12 1020 46 10000 6.2 280 18:54 15.01.2020
741 Clear 12 1020 46 10000 6.2 280 18:36 15.01.2020
742 Clear 12 1020 46 10000 6.2 280 18:18 15.01.2020
743 Clouds 11 1005 71 10000 7.2 270 17:40 15.01.2020
744 Clouds 11 1005 71 10000 7.2 270 17:40 15.01.2020
745 Clouds 11 1005 71 10000 7.2 270 17:21 15.01.2020
746 Clouds 11 1005 71 10000 7.2 270 16:56 15.01.2020
747 Clouds 11 1005 71 10000 7.2 270 16:38 15.01.2020
748 Clouds 11 1005 71 10000 7.2 270 16:20 15.01.2020
749 Clouds 10 1005 71 10000 7.2 270 15:43 15.01.2020
750 Clear 9 1019 57 10000 4.1 300 15:21 15.01.2020
751 Clear 9 1019 45 10000 3.6 250 14:56 15.01.2020
752 Clear 9 1019 45 10000 3.6 250 14:37 15.01.2020
753 Clear 9 1019 45 10000 3.6 250 14:37 15.01.2020
754 Rain 9 1019 67 10000 3.6 250 14:18 15.01.2020
755 Rain 7 1018 70 10000 3.1 280 13:41 15.01.2020
756 Rain 7 1018 70 10000 3.1 280 13:23 15.01.2020
757 Rain 6 1018 75 10000 3.1 310 12:55 15.01.2020
758 Rain 6 1018 75 10000 3.1 310 12:55 15.01.2020
759 Rain 6 1018 75 10000 3.1 310 12:37 15.01.2020
760 Rain 6 1018 75 10000 3.1 310 12:18 15.01.2020
761 Rain 6 1017 75 10000 2.6 300 11:38 15.01.2020
762 Rain 6 1017 75 10000 2.6 300 11:20 15.01.2020
763 Rain 6 1016 70 10000 4.1 260 10:47 15.01.2020
764 Rain 6 1016 70 10000 4.1 260 10:28 15.01.2020
765 Rain 6 1015 75 10000 4.1 260 09:58 15.01.2020
766 Rain 6 1015 75 10000 4.1 260 09:39 15.01.2020
767 Rain 6 1015 75 10000 4.1 260 09:19 15.01.2020
768 Rain 5 1015 93 10000 3.6 270 08:44 15.01.2020
769 Rain 5 1015 93 10000 3.6 270 08:24 15.01.2020
770 Rain 6 1014 81 9000 2.1 0 07:54 15.01.2020
771 Rain 6 1014 81 9000 2.1 0 07:33 15.01.2020
772 Rain 6 1014 87 10000 3.1 300 06:49 15.01.2020
773 Rain 6 1014 87 10000 3.1 300 06:26 15.01.2020
774 Rain 6 1015 81 10000 2.6 230 04:46 15.01.2020
775 Rain 7 1013 81 8000 3.6 250 02:40 15.01.2020
776 Rain 7 1012 75 9000 4.1 250 01:43 15.01.2020
777 Rain 7 1012 75 9000 4.1 250 01:20 15.01.2020
778 Rain 9 1012 70 10000 4.6 270 00:36 15.01.2020
779 Rain 9 1012 70 10000 4.6 270 00:18 15.01.2020
780 Rain 9 1011 76 6000 4.6 260 23:45 14.01.2020
781 Rain 9 1011 76 6000 4.6 260 23:24 14.01.2020
782 Rain 8 1011 81 6000 4.1 260 22:41 14.01.2020
783 Rain 8 1011 81 6000 4.1 260 22:20 14.01.2020
784 Rain 12 1010 54 10000 6.2 270 21:59 14.01.2020
785 Rain 12 1010 54 10000 6.2 270 21:41 14.01.2020
786 Rain 12 1010 54 10000 6.2 270 21:23 14.01.2020
787 Rain 12 1010 62 9000 6.2 270 21:00 14.01.2020
788 Rain 12 1010 62 9000 6.2 270 20:41 14.01.2020
789 Rain 12 1010 62 9000 6.2 270 20:21 14.01.2020
790 Clouds 13 1009 54 10000 6.7 270 19:56 14.01.2020
791 Clouds 13 1009 54 10000 6.7 270 19:38 14.01.2020
792 Clouds 13 1009 54 10000 6.7 270 19:19 14.01.2020
793 Clouds 13 1009 58 5000 7.2 280 18:56 14.01.2020
794 Clouds 13 1009 58 5000 7.2 280 18:37 14.01.2020
795 Clouds 13 1009 58 5000 7.2 280 18:19 14.01.2020
796 Clouds 14 1009 54 10000 6.2 280 17:39 14.01.2020
797 Clouds 14 1009 54 10000 6.2 280 17:19 14.01.2020
798 Rain 12 1009 58 9000 5.7 260 16:55 14.01.2020
799 Rain 12 1009 58 9000 5.7 260 16:37 14.01.2020
800 Rain 12 1009 58 9000 5.7 260 16:19 14.01.2020
801 Rain 13 1009 54 10000 7.2 270 15:43 14.01.2020
802 Rain 13 1009 54 10000 7.2 270 15:19 14.01.2020
803 Rain 12 1008 76 10000 5.1 270 14:57 14.01.2020
804 Rain 12 1008 76 10000 5.1 270 14:39 14.01.2020
805 Rain 12 1008 76 10000 5.1 270 14:18 14.01.2020
806 Rain 12 1006 87 7000 3.1 270 13:42 14.01.2020
807 Rain 12 1006 87 7000 3.1 270 13:20 14.01.2020
808 Rain 13 1004 76 9000 2.6 250 12:43 14.01.2020
809 Rain 13 1004 76 9000 2.6 250 12:25 14.01.2020
810 Rain 12 1005 87 10000 1.5 90 11:59 14.01.2020
811 Rain 12 1005 87 10000 1.5 90 11:40 14.01.2020
812 Rain 12 1005 87 10000 1.5 90 11:40 14.01.2020
813 Rain 12 1005 87 10000 1.5 90 11:22 14.01.2020
814 Rain 12 1006 81 10000 1 0 10:56 14.01.2020
815 Rain 12 1006 81 10000 1 0 10:37 14.01.2020
816 Rain 12 1006 81 10000 1 0 10:19 14.01.2020
817 Rain 15 1007 58 10000 2.6 260 09:43 14.01.2020
818 Rain 15 1007 58 10000 2.6 260 09:43 14.01.2020
819 Rain 15 1007 58 10000 2.6 260 09:24 14.01.2020
820 Rain 15 1007 58 10000 1 0 08:59 14.01.2020
821 Rain 15 1007 58 10000 1 0 08:40 14.01.2020
822 Clear 15 1007 58 10000 1 0 08:21 14.01.2020
823 Clear 15 1009 54 10000 3.1 240 07:51 14.01.2020
824 Clear 15 1009 54 10000 3.1 240 07:18 14.01.2020
825 Clear 15 1010 54 10000 1.5 250 06:42 14.01.2020
826 Clear 15 1011 54 10000 1.5 270 05:57 14.01.2020
827 Clear 16 1011 48 10000 3.6 250 04:49 14.01.2020
828 Clear 16 1011 48 10000 4.6 260 03:45 14.01.2020
829 Clear 17 1011 45 10000 5.1 260 02:32 14.01.2020
830 Clear 19 1010 37 10000 4.1 270 01:19 14.01.2020
831 Clear 22 1009 30 10000 6.2 280 00:47 14.01.2020
832 Clear 22 1009 30 10000 6.2 280 00:21 14.01.2020
833 Clear 22 1009 30 10000 6.2 280 00:21 14.01.2020
834 Clear 23 1009 27 10000 6.2 290 23:42 13.01.2020
835 Clear 23 1009 27 10000 6.2 290 23:18 13.01.2020
836 Clear 24 1009 25 10000 6.2 280 22:55 13.01.2020
837 Clear 24 1009 25 10000 6.2 280 22:37 13.01.2020
838 Clear 24 1009 25 10000 6.2 280 22:19 13.01.2020
839 Clear 24 1007 33 0 4.64 276 21:54 13.01.2020
840 Clear 24 1007 33 0 4.64 276 21:36 13.01.2020
841 Clear 24 1007 33 0 4.64 276 21:18 13.01.2020
842 Clear 24 1007 33 0 4.64 276 20:42 13.01.2020
843 Clear 23 1007 33 0 4.87 279 20:23 13.01.2020
844 Clouds 26 1007 25 0 5.13 279 19:59 13.01.2020
845 Clouds 26 1007 25 0 5.13 279 19:41 13.01.2020
846 Clouds 26 1007 25 0 5.13 279 19:20 13.01.2020
847 Clouds 26 1007 25 0 5.13 279 18:58 13.01.2020
848 Clouds 26 1007 25 0 5.13 279 18:38 13.01.2020
849 Clouds 26 1007 25 0 5.13 279 18:19 13.01.2020
850 Clouds 26 1007 25 0 5.13 279 17:55 13.01.2020
851 Clouds 26 1007 25 0 5.13 279 17:36 13.01.2020
852 Clouds 23 1009 44 0 0.97 197 17:18 13.01.2020
853 Clouds 23 1009 44 0 0.97 197 16:40 13.01.2020
854 Clouds 23 1009 44 0 0.97 197 16:40 13.01.2020
855 Clouds 23 1009 44 0 0.97 197 16:21 13.01.2020
856 Clouds 23 1009 44 0 0.97 197 15:55 13.01.2020
857 Clouds 23 1009 44 0 0.97 197 15:36 13.01.2020
858 Clouds 23 1009 44 0 0.97 197 15:18 13.01.2020
859 Clouds 23 1009 44 0 0.97 197 14:42 13.01.2020
860 Clouds 23 1009 44 0 0.97 197 14:23 13.01.2020
861 Clouds 17 1011 58 0 0.64 251 13:56 13.01.2020
862 Clouds 17 1011 58 0 0.64 251 13:38 13.01.2020
863 Clouds 17 1011 59 0 0.41 269 13:20 13.01.2020
864 Clouds 17 1011 59 0 0.41 269 13:20 13.01.2020
865 Clouds 17 1011 59 0 0.41 269 12:43 13.01.2020
866 Clouds 17 1011 59 0 0.41 269 12:23 13.01.2020
867 Clouds 17 1011 59 0 0.41 269 11:59 13.01.2020
868 Clouds 17 1011 59 0 0.41 269 11:38 13.01.2020
869 Clouds 11 1011 79 0 1.16 304 11:19 13.01.2020
870 Clouds 11 1011 79 0 1.16 304 10:56 13.01.2020
871 Clouds 11 1011 79 0 1.16 304 10:38 13.01.2020
872 Clouds 11 1011 79 0 1.16 304 10:19 13.01.2020
873 Clouds 11 1011 79 0 1.16 304 09:44 13.01.2020
874 Clouds 11 1011 79 0 1.16 304 09:26 13.01.2020
875 Clouds 11 1011 79 0 1.16 304 08:59 13.01.2020
876 Clouds 11 1011 79 0 1.16 304 08:37 13.01.2020
877 Clear 12 1011 81 0 1.62 283 08:18 13.01.2020
878 Clear 12 1011 81 0 1.62 283 07:44 13.01.2020
879 Clear 12 1011 81 0 1.62 283 07:26 13.01.2020
880 Clear 12 1011 81 0 1.62 283 06:37 13.01.2020
881 Clear 12 1011 81 0 1.62 283 05:42 13.01.2020
882 Clear 14 1011 79 0 1.72 285 05:18 13.01.2020
883 Clear 14 1011 79 0 1.72 285 03:41 13.01.2020
884 Clear 14 1011 79 0 1.72 285 02:50 13.01.2020
885 Clear 14 1011 79 0 1.72 285 02:30 13.01.2020
886 Clouds 19 1010 59 0 1.28 226 01:33 13.01.2020
887 Clouds 19 1010 59 0 1.28 226 00:44 13.01.2020
888 Clouds 19 1010 59 0 1.28 226 00:26 13.01.2020
889 Clouds 19 1010 59 0 1.28 226 23:57 12.01.2020
890 Clouds 19 1010 59 0 1.28 226 23:57 12.01.2020
891 Clouds 19 1010 59 0 1.28 226 23:39 12.01.2020
892 Clouds 26 1010 35 0 2.14 181 23:21 12.01.2020
893 Clouds 26 1010 35 0 2.14 181 22:43 12.01.2020
894 Clouds 26 1010 35 0 2.14 181 22:43 12.01.2020
895 Clouds 26 1010 35 0 2.14 181 22:25 12.01.2020
896 Clouds 26 1010 35 0 2.14 181 21:59 12.01.2020
897 Clouds 26 1010 35 0 2.14 181 21:59 12.01.2020
898 Clouds 26 1010 35 0 2.14 181 21:40 12.01.2020
899 Clouds 26 1010 35 0 2.14 181 21:20 12.01.2020
900 Clouds 26 1010 35 0 2.14 181 20:57 12.01.2020
901 Clouds 26 1010 35 0 2.14 181 20:39 12.01.2020
902 Clouds 24 1012 44 0 1.82 171 20:20 12.01.2020
903 Clouds 24 1012 44 0 1.82 171 19:56 12.01.2020
904 Clouds 24 1012 44 0 1.82 171 19:38 12.01.2020
905 Clouds 24 1012 44 0 1.82 171 19:19 12.01.2020
906 Clouds 24 1012 44 0 1.82 171 18:58 12.01.2020
907 Clouds 24 1012 44 0 1.82 171 18:58 12.01.2020
908 Clouds 24 1012 44 0 1.82 171 18:39 12.01.2020
909 Clouds 24 1012 44 0 1.82 171 18:21 12.01.2020
910 Clouds 24 1012 44 0 1.82 171 17:57 12.01.2020
911 Clouds 24 1012 44 0 1.82 171 17:38 12.01.2020
912 Clear 19 1014 55 0 1.37 153 17:19 12.01.2020
913 Clear 19 1014 55 0 1.37 153 16:55 12.01.2020
914 Clear 19 1014 55 0 1.37 153 16:55 12.01.2020
915 Clear 19 1014 55 0 1.37 153 16:37 12.01.2020
916 Clear 17 1018 63 10000 3.1 110 16:18 12.01.2020
917 Clear 17 1018 63 10000 3.1 110 15:42 12.01.2020
918 Clear 17 1018 63 10000 3.1 110 15:24 12.01.2020
919 Clear 17 1018 63 10000 3.1 110 15:24 12.01.2020
920 Clear 14 1019 71 10000 0.5 0 14:56 12.01.2020
921 Clear 14 1019 71 10000 0.5 0 14:37 12.01.2020
922 Clear 14 1019 71 10000 0.5 0 14:18 12.01.2020
923 Clear 11 1019 87 10000 1 0 13:42 12.01.2020
924 Clear 11 1019 87 10000 1 0 13:23 12.01.2020
925 Clear 9 1019 93 10000 1 0 12:58 12.01.2020
926 Clear 9 1019 93 10000 1 0 12:38 12.01.2020
927 Clear 9 1019 93 10000 1 0 12:19 12.01.2020
928 Clear 8 1019 93 10000 1 280 11:55 12.01.2020
929 Clear 8 1019 93 10000 1 280 11:36 12.01.2020
930 Clear 8 1019 93 10000 1 280 11:18 12.01.2020
931 Clear 8 1019 93 10000 0.5 270 10:41 12.01.2020
932 Clear 8 1019 93 10000 0.5 270 10:21 12.01.2020
933 Clear 8 1019 93 10000 0.87 285 09:55 12.01.2020
934 Clear 8 1019 93 10000 0.87 285 09:37 12.01.2020
935 Clear 8 1019 93 10000 0.87 285 09:18 12.01.2020
936 Clear 9 1019 93 10000 0.87 285 08:42 12.01.2020
937 Clouds 9 1019 93 10000 1.28 285 08:19 12.01.2020
938 Clouds 10 1019 87 10000 0.5 240 07:39 12.01.2020
939 Clouds 10 1019 87 10000 0.5 240 07:21 12.01.2020
940 Clouds 11 1019 87 10000 1 300 06:42 12.01.2020
941 Clouds 11 1019 87 10000 1 300 06:18 12.01.2020
942 Clear 12 1019 81 10000 1.5 290 05:21 12.01.2020
943 Clear 14 1019 71 10000 1 260 03:45 12.01.2020
944 Clear 15 1018 67 10000 1.5 270 02:59 12.01.2020
945 Clear 15 1018 67 10000 1.5 270 02:30 12.01.2020
946 Clear 18 1018 52 10000 0.5 0 01:40 12.01.2020
947 Clear 18 1018 52 10000 0.5 0 01:21 12.01.2020
948 Clouds 20 1017 45 10000 2.1 0 00:40 12.01.2020
949 Clouds 20 1017 45 10000 2.1 0 00:18 12.01.2020
950 Clouds 21 1017 40 10000 1.5 0 23:41 11.01.2020
951 Clouds 21 1017 40 10000 1.5 0 23:19 11.01.2020
952 Clouds 21 1016 43 10000 2.1 0 22:57 11.01.2020
953 Clouds 21 1016 43 10000 2.1 0 22:38 11.01.2020
954 Clouds 21 1016 43 10000 2.1 0 22:20 11.01.2020
955 Clouds 21 1017 40 10000 2.1 0 21:54 11.01.2020
956 Clouds 21 1017 40 10000 2.1 0 21:36 11.01.2020
957 Clouds 21 1017 40 10000 2.1 0 21:18 11.01.2020
958 Clouds 21 1017 43 10000 2.1 0 20:39 11.01.2020
959 Clouds 21 1017 43 10000 2.1 0 20:20 11.01.2020
960 Clouds 20 1017 49 10000 2.6 300 19:57 11.01.2020
961 Clouds 20 1017 49 10000 2.6 300 19:38 11.01.2020
962 Clouds 20 1017 49 10000 2.6 300 19:38 11.01.2020
963 Clouds 20 1017 49 10000 2.6 300 19:38 11.01.2020
964 Clouds 20 1017 49 10000 2.6 300 19:38 11.01.2020
965 Clouds 20 1017 49 10000 2.6 300 19:20 11.01.2020
966 Clouds 19 1018 48 10000 1.5 0 18:55 11.01.2020
967 Clouds 19 1018 48 10000 1.5 0 18:37 11.01.2020
968 Clouds 19 1018 48 10000 1.5 0 18:18 11.01.2020
969 Clouds 17 1018 55 10000 1.5 340 17:57 11.01.2020
970 Clouds 17 1018 55 10000 1.5 340 17:57 11.01.2020
971 Clouds 17 1018 55 10000 1.5 340 17:38 11.01.2020
972 Clouds 17 1018 55 10000 1.5 340 17:18 11.01.2020
973 Clouds 16 1018 55 10000 1.5 0 16:43 11.01.2020
974 Clouds 16 1018 55 10000 1.5 0 16:24 11.01.2020
975 Clouds 13 1019 71 10000 1.5 0 15:56 11.01.2020
976 Clouds 13 1019 71 10000 1.5 0 15:37 11.01.2020
977 Clouds 13 1019 71 10000 1.5 0 15:19 11.01.2020
978 Clouds 13 1019 66 10000 0.5 0 14:44 11.01.2020
979 Clouds 13 1019 66 10000 0.5 0 14:24 11.01.2020
980 Clouds 12 1019 71 10000 1 290 13:56 11.01.2020
981 Clouds 12 1019 71 10000 1 290 13:37 11.01.2020
982 Clouds 12 1019 71 10000 1 290 13:19 11.01.2020
983 Clouds 11 1018 76 10000 1 0 12:44 11.01.2020
984 Clouds 11 1018 76 10000 1 0 12:26 11.01.2020
985 Clouds 11 1017 76 10000 1 0 11:55 11.01.2020
986 Clouds 11 1017 76 10000 1 0 11:37 11.01.2020
987 Clouds 11 1017 76 10000 1 0 11:18 11.01.2020
988 Clouds 11 1017 76 10000 1 0 11:18 11.01.2020
989 Clouds 11 1017 76 10000 1.5 280 10:43 11.01.2020
990 Clouds 11 1017 76 10000 1.5 280 10:24 11.01.2020
991 Clouds 11 1017 76 10000 2.1 290 09:40 11.01.2020
992 Clouds 11 1017 76 10000 2.1 290 09:21 11.01.2020
993 Clouds 12 1016 66 10000 2.1 0 08:43 11.01.2020
994 Clouds 12 1016 66 10000 2.1 0 08:43 11.01.2020
995 Clouds 12 1016 66 10000 2.1 0 08:23 11.01.2020
996 Clouds 13 1016 62 10000 3.1 250 07:45 11.01.2020
997 Clouds 13 1016 62 10000 3.1 250 07:26 11.01.2020
998 Clouds 13 1016 62 10000 3.1 250 07:26 11.01.2020
999 Clouds 13 1017 58 10000 4.1 250 06:56 11.01.2020
1000 Clouds 13 1017 58 10000 4.1 250 06:22 11.01.2020
1001 Clouds 13 1017 58 10000 3.1 230 04:48 11.01.2020
1002 Clouds 13 1017 58 10000 3.1 230 04:30 11.01.2020
1003 Clouds 13 1017 58 10000 3.1 250 03:49 11.01.2020
1004 Clouds 13 1017 58 10000 3.6 260 02:41 11.01.2020
1005 Clouds 13 1017 58 10000 3.6 250 01:44 11.01.2020
1006 Clouds 13 1017 58 10000 3.6 250 01:20 11.01.2020
1007 Clouds 14 1017 54 10000 4.1 260 00:44 11.01.2020
1008 Clouds 14 1017 54 10000 4.1 260 00:20 11.01.2020
1009 Clouds 14 1017 54 10000 4.6 260 23:41 10.01.2020
1010 Clouds 14 1017 54 10000 4.6 260 23:41 10.01.2020
1011 -273 0 0 0 0 0 23:22 10.01.2020
1012 Clouds 14 1017 54 10000 6.7 260 22:59 10.01.2020
1013 Clouds 14 1017 54 10000 6.7 260 22:40 10.01.2020
1014 Clouds 14 1017 54 10000 6.7 260 22:21 10.01.2020
1015 Clouds 16 1017 48 10000 6.7 270 21:57 10.01.2020
1016 Clouds 16 1017 48 10000 6.7 270 21:37 10.01.2020
1017 Clouds 16 1017 48 10000 6.7 270 21:19 10.01.2020
1018 Clouds 15 1017 51 10000 6.7 280 20:43 10.01.2020
1019 Clouds 15 1017 51 10000 6.7 280 20:24 10.01.2020
1020 Clouds 15 1017 51 10000 6.7 280 20:24 10.01.2020
1021 Clouds 14 1017 50 10000 5.7 270 19:59 10.01.2020
1022 Clouds 14 1017 50 10000 5.7 270 19:38 10.01.2020
1023 Clouds 14 1017 50 10000 5.7 270 19:19 10.01.2020
1024 Clouds 15 1017 47 10000 6.2 270 18:43 10.01.2020
1025 Clouds 15 1017 47 10000 6.2 270 18:19 10.01.2020
1026 Clouds 15 1018 47 10000 5.7 260 17:57 10.01.2020
1027 Clouds 15 1018 47 10000 5.7 260 17:57 10.01.2020
1028 Clouds 15 1018 47 10000 5.7 260 17:39 10.01.2020
1029 Clouds 15 1018 47 10000 5.7 260 17:20 10.01.2020
1030 Clouds 12 1018 54 10000 3.1 250 16:57 10.01.2020
1031 Clouds 12 1018 54 10000 3.1 250 16:38 10.01.2020
1032 Clouds 12 1018 54 10000 3.1 250 16:19 10.01.2020
1033 Clouds 11 1018 57 10000 3.1 250 15:56 10.01.2020
1034 Clouds 11 1018 57 10000 3.1 250 15:36 10.01.2020
1035 Clouds 11 1018 57 10000 3.1 250 15:18 10.01.2020
1036 Clouds 10 1019 61 10000 3.1 260 14:54 10.01.2020
1037 Clouds 10 1019 61 10000 3.1 260 14:36 10.01.2020
1038 Clouds 10 1019 61 10000 3.1 260 14:18 10.01.2020
1039 Clouds 9 1019 61 10000 2.6 290 13:42 10.01.2020
1040 Clouds 9 1019 61 10000 2.6 290 13:23 10.01.2020
1041 Clouds 7 1019 70 10000 1 0 12:58 10.01.2020
1042 Clouds 7 1019 70 10000 1 0 12:39 10.01.2020
1043 Clouds 7 1019 70 10000 1 0 12:39 10.01.2020
1044 Clouds 7 1019 70 10000 1 0 12:19 10.01.2020
1045 Clouds 7 1018 65 10000 2.6 260 11:55 10.01.2020
1046 Clouds 7 1018 65 10000 2.6 260 11:37 10.01.2020
1047 Clouds 7 1018 65 10000 2.6 260 11:18 10.01.2020
1048 Clouds 7 1018 65 10000 2.6 260 11:18 10.01.2020
1049 Clouds 7 1018 65 10000 2.6 250 10:43 10.01.2020
1050 Clouds 7 1018 65 10000 2.6 250 10:24 10.01.2020
1051 Clouds 7 1018 65 10000 1.5 250 09:59 10.01.2020
1052 Clouds 7 1018 65 10000 1.5 250 09:40 10.01.2020
1053 Clouds 7 1018 65 10000 1.5 250 09:22 10.01.2020
1054 Clouds 8 1017 65 10000 4.1 230 08:43 10.01.2020
1055 Clouds 8 1017 65 10000 4.1 230 08:23 10.01.2020
1056 Clouds 8 1017 65 10000 4.1 230 08:23 10.01.2020
1057 Clouds 8 1017 65 10000 2.6 260 07:46 10.01.2020
1058 Clouds 8 1017 65 10000 2.6 260 07:26 10.01.2020
1059 Clouds 8 1017 65 10000 2.6 260 06:46 10.01.2020
1060 Clouds 8 1017 65 10000 2.6 260 06:26 10.01.2020
1061 Clouds 9 1017 61 10000 3.1 240 05:51 10.01.2020
1062 Clouds 9 1015 66 10000 2.1 250 03:45 10.01.2020
1063 Clouds 9 1015 66 10000 2.1 250 03:22 10.01.2020
1064 Clouds 9 1014 70 10000 4.6 280 02:49 10.01.2020
1065 Rain 9 1014 70 10000 3.1 260 01:44 10.01.2020
1066 Rain 9 1014 70 10000 3.1 260 01:26 10.01.2020
1067 Rain 9 1013 70 10000 3.6 270 00:40 10.01.2020
1068 Rain 10 1013 66 10000 4.1 270 23:58 09.01.2020
1069 Rain 10 1013 66 10000 4.1 270 23:38 09.01.2020
1070 Rain 10 1013 66 10000 4.1 270 23:20 09.01.2020
1071 Rain 10 1013 61 10000 5.7 270 22:57 09.01.2020
1072 Rain 10 1013 61 10000 5.7 270 22:39 09.01.2020
1073 Rain 10 1013 61 10000 5.7 270 22:19 09.01.2020
1074 Rain 11 1013 53 9000 6.2 270 21:57 09.01.2020
1075 Rain 11 1013 53 9000 6.2 270 21:37 09.01.2020
1076 Rain 11 1013 53 9000 6.2 270 21:37 09.01.2020
1077 Rain 11 1013 53 9000 6.2 270 21:37 09.01.2020
1078 Rain 11 1013 53 9000 6.2 270 21:37 09.01.2020
1079 Rain 11 1013 53 9000 6.2 270 21:19 09.01.2020
1080 Rain 12 1012 82 10000 6.2 270 20:56 09.01.2020
1081 Rain 12 1012 82 10000 6.2 270 20:38 09.01.2020
1082 Rain 12 1012 80 10000 6.2 270 20:19 09.01.2020
1083 Clouds 12 1012 46 10000 6.7 280 19:56 09.01.2020
1084 Clouds 12 1012 46 10000 6.7 280 19:37 09.01.2020
1085 Clouds 12 1012 46 10000 6.7 280 19:18 09.01.2020
1086 Rain 11 1012 53 9000 6.7 270 18:54 09.01.2020
1087 Rain 11 1012 53 9000 6.7 270 18:54 09.01.2020
1088 Rain 11 1012 53 9000 6.7 270 18:36 09.01.2020
1089 Rain 11 1012 53 9000 6.7 270 18:18 09.01.2020
1090 Rain 9 1011 61 9000 5.7 260 17:41 09.01.2020
1091 Rain 9 1011 61 9000 5.7 260 17:18 09.01.2020
1092 Rain 10 1011 61 10000 6.2 280 16:47 09.01.2020
1093 Rain 10 1011 61 10000 6.2 280 16:22 09.01.2020
1094 Rain 9 1010 66 10000 3.6 250 15:44 09.01.2020
1095 Rain 9 1010 66 10000 3.6 250 15:25 09.01.2020
1096 Rain 7 1010 81 9000 4.1 320 14:59 09.01.2020
1097 Rain 7 1010 81 9000 4.1 320 14:41 09.01.2020
1098 Rain 7 1010 81 9000 4.1 320 14:19 09.01.2020
1099 Rain 6 1009 87 10000 2.1 300 13:57 09.01.2020
1100 Rain 6 1009 87 10000 2.1 300 13:38 09.01.2020
1101 Rain 6 1009 87 10000 2.1 300 13:19 09.01.2020
1102 Rain 5 1008 86 10000 1.5 0 12:57 09.01.2020
1103 Rain 5 1008 86 10000 1.5 0 12:38 09.01.2020
1104 Rain 5 1008 86 10000 1.5 0 12:18 09.01.2020
1105 Rain 5 1006 93 10000 3.1 300 11:43 09.01.2020
1106 Rain 5 1006 93 10000 3.1 300 11:25 09.01.2020
1107 Rain 5 1006 93 10000 3.1 300 11:25 09.01.2020
1108 Rain 5 1005 86 10000 3.1 300 10:59 09.01.2020
1109 Rain 5 1005 86 10000 3.1 300 10:41 09.01.2020
1110 Rain 5 1005 86 10000 3.1 300 10:21 09.01.2020
1111 Rain 5 1004 86 10000 3.6 300 09:47 09.01.2020
1112 Rain 5 1004 86 10000 3.6 300 09:25 09.01.2020
1113 Rain 5 1004 86 7000 4.1 240 08:59 09.01.2020
1114 Rain 5 1004 86 7000 4.1 240 08:39 09.01.2020
1115 Rain 5 1004 86 7000 4.1 240 08:21 09.01.2020
1116 Rain 6 1003 81 8000 4.1 240 07:48 09.01.2020
1117 Rain 6 1003 81 8000 4.1 240 07:30 09.01.2020
1118 Rain 6 1004 81 7000 5.1 250 06:40 09.01.2020
1119 Rain 6 1004 81 7000 5.1 250 06:22 09.01.2020
1120 Rain 5 1004 86 6000 4.6 240 05:51 09.01.2020
1121 Rain 5 1004 86 6000 4.6 240 05:20 09.01.2020
1122 Rain 5 1004 86 8000 4.1 260 04:39 09.01.2020
1123 Rain 5 1004 86 8000 3.1 240 03:27 09.01.2020
1124 Rain 4 1004 86 7000 2.6 260 02:46 09.01.2020
1125 Rain 5 1003 86 5000 3.6 0 01:42 09.01.2020
1126 Rain 6 1002 75 10000 4.6 260 00:59 09.01.2020
1127 Rain 6 1002 75 10000 4.6 260 00:37 09.01.2020
1128 Rain 6 1002 75 10000 4.6 260 00:19 09.01.2020
1129 Rain 6 1002 81 7000 3.6 230 23:39 08.01.2020
1130 Rain 6 1002 81 7000 3.6 230 23:20 08.01.2020
1131 Rain 6 1002 81 9000 4.6 270 22:41 08.01.2020
1132 Rain 6 1002 81 9000 4.6 270 22:23 08.01.2020
1133 Rain 8 1002 65 4000 5.7 260 21:59 08.01.2020
1134 Rain 8 1002 65 4000 5.7 260 21:40 08.01.2020
1135 Rain 8 1002 65 4000 5.7 260 21:40 08.01.2020
1136 Rain 8 1002 65 4000 5.7 260 21:22 08.01.2020
1137 Rain 9 1001 66 10000 5.1 260 20:59 08.01.2020
1138 Rain 9 1001 66 10000 5.1 260 20:41 08.01.2020
1139 Rain 9 1001 66 10000 5.1 260 20:21 08.01.2020
1140 Rain 7 1001 70 0 5.7 270 19:58 08.01.2020
1141 Rain 7 1001 70 0 5.7 270 19:38 08.01.2020
1142 Rain 7 1001 70 0 5.7 270 19:19 08.01.2020
1143 Rain 7 1001 70 4000 5.7 280 18:58 08.01.2020
1144 Rain 7 1001 70 4000 5.7 280 18:39 08.01.2020
1145 Rain 7 1001 70 4000 5.7 280 18:19 08.01.2020
1146 Rain 7 1000 87 6000 3.1 250 17:56 08.01.2020
1147 Rain 7 1000 87 6000 3.1 250 17:38 08.01.2020
1148 Rain 7 1000 87 6000 3.1 250 17:19 08.01.2020
1149 Rain 7 1000 87 4000 1.5 250 16:55 08.01.2020
1150 Rain 7 1000 87 4000 1.5 250 16:37 08.01.2020
1151 Rain 7 1000 87 4000 1.5 250 16:18 08.01.2020
1152 Rain 8 1000 81 8000 6.8 303 15:44 08.01.2020
1153 Rain 8 1000 81 8000 6.8 303 15:21 08.01.2020
1154 Rain 6 1001 87 6000 1.5 0 14:58 08.01.2020
1155 Rain 6 1001 87 6000 1.5 0 14:39 08.01.2020
1156 Rain 6 1001 87 6000 1.5 0 14:20 08.01.2020
1157 Rain 8 1000 81 9000 1.5 0 13:40 08.01.2020
1158 Rain 8 1000 81 9000 1.5 0 13:19 08.01.2020
1159 Rain 7 1000 87 9000 2.1 250 12:43 08.01.2020
1160 Rain 7 1000 87 9000 2.1 250 12:20 08.01.2020
1161 Rain 6 1000 93 9000 2.1 260 11:59 08.01.2020
1162 Rain 6 1000 93 9000 2.1 260 11:40 08.01.2020
1163 Rain 6 1000 93 9000 2.1 260 11:19 08.01.2020
1164 Rain 6 999 93 10000 2.04 320 10:56 08.01.2020
1165 Rain 6 999 93 10000 2.04 320 10:37 08.01.2020
1166 Rain 6 999 93 10000 2.04 320 10:19 08.01.2020
1167 Rain 6 999 93 8000 1 0 09:42 08.01.2020
1168 Rain 6 999 93 8000 1 0 09:19 08.01.2020
1169 Rain 7 1000 87 10000 1.5 280 08:57 08.01.2020
1170 Rain 7 1000 87 10000 1.5 280 08:37 08.01.2020
1171 Rain 7 1000 87 10000 1.5 280 08:19 08.01.2020
1172 Rain 7 1000 87 8000 2.1 240 07:49 08.01.2020
1173 Rain 7 1000 87 8000 2.1 240 07:29 08.01.2020
1174 Rain 8 1001 81 8000 3.1 250 06:45 08.01.2020
1175 Rain 8 1001 81 8000 3.1 250 06:22 08.01.2020
1176 Rain 8 1001 87 10000 2.1 280 05:41 08.01.2020
1177 Rain 8 1001 87 10000 2.6 230 04:56 08.01.2020
1178 Rain 8 1001 87 10000 2.6 230 04:24 08.01.2020
1179 Rain 9 999 81 10000 1.5 250 02:45 08.01.2020
1180 Rain 9 999 81 10000 1.5 250 02:22 08.01.2020
1181 Rain 10 1000 81 8000 4.1 250 01:46 08.01.2020
1182 Rain 10 1000 81 8000 4.1 250 01:19 08.01.2020
1183 Rain 9 999 93 9000 1.5 240 00:27 08.01.2020
1184 Rain 10 999 87 7000 2.6 240 23:55 07.01.2020
1185 Rain 10 999 87 7000 2.6 240 23:37 07.01.2020
1186 Rain 10 999 87 7000 2.6 240 23:19 07.01.2020
1187 Rain 10 999 87 7000 3.1 250 22:40 07.01.2020
1188 Rain 10 999 87 7000 3.1 250 22:20 07.01.2020
1189 Rain 11 998 81 4000 3.6 240 21:55 07.01.2020
1190 Rain 11 998 81 4000 3.6 240 21:37 07.01.2020
1191 Rain 11 998 81 4000 3.6 240 21:19 07.01.2020
1192 Rain 14 998 62 10000 3.1 230 20:55 07.01.2020
1193 Rain 14 998 62 10000 3.1 230 20:36 07.01.2020
1194 Rain 14 998 62 10000 3.1 230 20:18 07.01.2020
1195 Rain 12 999 81 10000 2.6 240 19:38 07.01.2020
1196 Rain 12 999 81 10000 2.6 240 19:19 07.01.2020
1197 Rain 17 999 51 10000 5.1 260 18:58 07.01.2020
1198 Rain 17 999 51 10000 5.1 260 18:39 07.01.2020
1199 Rain 17 999 51 10000 5.1 260 18:18 07.01.2020
1200 Rain 17 999 51 10000 5.1 260 18:18 07.01.2020
1201 Rain 14 1001 67 9000 3.6 240 17:58 07.01.2020
1202 Rain 14 1001 67 9000 3.6 240 17:38 07.01.2020
1203 Rain 14 1001 67 9000 3.6 240 17:20 07.01.2020
1204 Rain 16 1001 51 10000 6.2 250 16:55 07.01.2020
1205 Rain 16 1001 51 10000 6.2 250 16:37 07.01.2020
1206 Rain 16 1001 51 10000 6.2 250 16:18 07.01.2020
1207 Clouds 16 1001 44 10000 7.2 260 15:43 07.01.2020
1208 Clouds 16 1001 44 10000 7.2 260 15:24 07.01.2020
1209 Clouds 16 1001 44 10000 7.2 260 15:24 07.01.2020
1210 Clouds 15 1003 47 10000 5.1 250 14:59 07.01.2020
1211 Clouds 15 1003 47 10000 5.1 250 14:40 07.01.2020
1212 Clouds 15 1003 47 10000 5.1 250 14:22 07.01.2020
1213 Clouds 13 1004 58 10000 4.1 220 13:46 07.01.2020
1214 Clouds 13 1004 58 10000 4.1 220 13:21 07.01.2020
1215 Rain 12 1005 62 10000 2.1 0 12:56 07.01.2020
1216 Rain 12 1005 62 10000 2.1 0 12:38 07.01.2020
1217 Rain 12 1005 62 10000 2.1 0 12:19 07.01.2020
1218 Rain 12 1006 62 10000 3.6 0 11:42 07.01.2020
1219 Rain 12 1006 62 10000 3.6 0 11:23 07.01.2020
1220 Rain 13 1006 54 10000 4.1 250 10:57 07.01.2020
1221 Rain 13 1006 54 10000 4.1 250 10:39 07.01.2020
1222 Rain 13 1006 54 10000 4.1 250 10:39 07.01.2020
1223 Rain 13 1006 54 10000 4.1 250 10:39 07.01.2020
1224 Rain 13 1006 54 10000 4.1 250 10:39 07.01.2020
1225 Rain 13 1006 54 10000 4.1 250 10:39 07.01.2020
1226 Rain 13 1006 54 10000 4.1 250 10:21 07.01.2020
1227 Rain 13 1007 54 10000 4.1 250 09:39 07.01.2020
1228 Rain 13 1007 54 10000 4.1 250 09:21 07.01.2020
1229 Rain 13 1008 62 10000 1.5 260 08:59 07.01.2020
1230 Rain 13 1008 62 10000 1.5 260 08:41 07.01.2020
1231 Rain 13 1008 62 10000 1.5 260 08:18 07.01.2020
1232 Rain 13 1008 62 10000 3.1 240 07:47 07.01.2020
1233 Rain 13 1008 62 10000 3.1 240 07:20 07.01.2020
1234 Rain 13 1009 62 10000 4.1 240 06:49 07.01.2020
1235 Rain 13 1009 62 10000 4.1 240 06:29 07.01.2020
1236 Rain 12 1010 71 10000 2.6 240 05:41 07.01.2020
1237 Rain 12 1011 71 10000 2.6 280 03:47 07.01.2020
1238 Rain 12 1011 71 10000 2.6 280 03:25 07.01.2020
1239 Rain 12 1011 71 10000 3.6 280 02:19 07.01.2020
1240 Clouds 13 1012 62 10000 4.1 260 01:40 07.01.2020
1241 Clouds 13 1011 58 10000 4.6 260 00:58 07.01.2020
1242 Clouds 13 1011 58 10000 4.6 260 00:21 07.01.2020
1243 Clouds 13 1011 58 10000 4.6 260 00:21 07.01.2020
1244 Clouds 13 1011 58 10000 4.6 260 00:21 07.01.2020
1245 Clouds 13 1012 58 10000 4.6 250 23:57 06.01.2020
1246 Clouds 13 1012 58 10000 4.6 250 23:37 06.01.2020
1247 Clouds 13 1012 58 10000 4.6 250 23:19 06.01.2020
1248 Clouds 14 1012 54 10000 4.6 250 22:44 06.01.2020
1249 Clouds 14 1012 54 10000 4.6 250 22:44 06.01.2020
1250 Clouds 14 1012 54 10000 4.6 250 22:25 06.01.2020
1251 Clouds 14 1012 54 10000 5.1 270 21:58 06.01.2020
1252 Clouds 14 1012 54 10000 5.1 270 21:39 06.01.2020
1253 Clouds 14 1012 54 10000 5.1 270 21:20 06.01.2020
1254 Clouds 14 1012 54 10000 5.1 270 21:20 06.01.2020
1255 Clouds 14 1012 54 10000 5.1 270 21:20 06.01.2020
1256 Rain 14 1013 50 10000 4.6 270 20:57 06.01.2020
1257 Rain 14 1013 50 10000 4.6 270 20:39 06.01.2020
1258 Rain 14 1013 50 10000 4.6 270 20:20 06.01.2020
1259 Rain 14 1013 50 10000 4.6 270 20:20 06.01.2020
1260 Clouds 14 1013 54 10000 5.1 270 19:57 06.01.2020
1261 Clouds 14 1013 54 10000 5.1 270 19:38 06.01.2020
1262 Clouds 14 1013 54 10000 5.1 270 19:20 06.01.2020
1263 Clouds 14 1013 50 10000 5.7 280 18:48 06.01.2020
1264 Clouds 14 1013 50 10000 5.7 280 18:23 06.01.2020
1265 Clouds 14 1014 50 10000 5.1 280 17:59 06.01.2020
1266 Clouds 14 1014 50 10000 5.1 280 17:38 06.01.2020
1267 Clouds 14 1014 50 10000 5.1 280 17:18 06.01.2020
1268 Clouds 14 1014 50 10000 5.1 280 17:18 06.01.2020
1269 Clouds 14 1014 50 10000 6.2 270 16:44 06.01.2020
1270 Clouds 14 1014 50 10000 6.2 270 16:25 06.01.2020
1271 Rain 12 1014 58 10000 4.6 270 15:59 06.01.2020
1272 Rain 12 1014 58 10000 4.6 270 15:39 06.01.2020
1273 Rain 12 1014 58 10000 4.6 270 15:18 06.01.2020
1274 Rain 11 1014 62 10000 3.6 260 14:56 06.01.2020
1275 Rain 11 1014 62 10000 3.6 260 14:37 06.01.2020
1276 Rain 11 1014 62 10000 3.6 260 14:18 06.01.2020
1277 Rain 10 1014 61 10000 4.1 250 13:41 06.01.2020
1278 Rain 10 1014 61 10000 4.1 250 13:22 06.01.2020
1279 Clouds 10 1014 61 10000 4.1 250 12:59 06.01.2020
1280 Clouds 10 1014 61 10000 4.1 250 12:41 06.01.2020
1281 Clouds 10 1014 61 10000 4.1 250 12:20 06.01.2020
1282 Clouds 10 1014 61 10000 4.1 250 12:20 06.01.2020
1283 Clouds 10 1014 61 10000 3.6 250 11:56 06.01.2020
1284 Clouds 10 1014 61 10000 3.6 250 11:37 06.01.2020
1285 Clear 10 1014 61 10000 3.6 250 11:19 06.01.2020
1286 Clear 10 1014 57 10000 4.6 260 10:42 06.01.2020
1287 Clear 10 1014 57 10000 4.6 260 10:42 06.01.2020
1288 Clear 10 1014 57 10000 4.6 260 10:21 06.01.2020
1289 Clear 10 1013 57 10000 5.1 270 09:42 06.01.2020
1290 Clear 10 1013 57 10000 5.1 270 09:24 06.01.2020
1291 Clear 10 1013 57 10000 5.1 270 09:24 06.01.2020
1292 Clear 10 1013 66 10000 5.1 270 08:58 06.01.2020
1293 Clear 10 1013 66 10000 5.1 270 08:58 06.01.2020
1294 Clear 10 1013 66 10000 5.1 270 08:39 06.01.2020
1295 Clouds 10 1013 66 10000 5.1 270 08:21 06.01.2020
1296 Clouds 10 1014 61 10000 4.1 250 07:45 06.01.2020
1297 Clouds 10 1014 61 10000 4.1 250 07:21 06.01.2020
1298 Clouds 11 1014 53 10000 4.6 270 06:38 06.01.2020
1299 Clouds 11 1013 57 10000 4.1 260 05:49 06.01.2020
1300 Clouds 11 1013 57 10000 4.1 260 05:28 06.01.2020
1301 Clouds 10 1013 66 10000 3.1 250 04:24 06.01.2020
1302 Clouds 10 1013 71 10000 3.1 260 03:51 06.01.2020
1303 Rain 10 1012 71 10000 3.6 250 02:29 06.01.2020
1304 Clouds 11 1012 62 10000 4.1 260 01:54 06.01.2020
1305 Clouds 11 1012 62 10000 4.1 260 01:31 06.01.2020
1306 Clouds 11 1011 62 10000 4.1 260 00:46 06.01.2020
1307 Clouds 11 1011 62 10000 4.1 260 00:28 06.01.2020
1308 Clouds 12 1010 58 10000 5.1 270 23:58 05.01.2020
1309 Clouds 12 1010 58 10000 5.1 270 23:39 05.01.2020
1310 Rain 12 1010 58 10000 5.1 270 23:21 05.01.2020
1311 Rain 12 1010 66 10000 4.6 270 22:40 05.01.2020
1312 Rain 12 1010 66 10000 4.6 270 22:21 05.01.2020
1313 Rain 12 1009 66 10000 5.1 270 21:58 05.01.2020
1314 Rain 12 1009 66 10000 5.1 270 21:40 05.01.2020
1315 Rain 12 1009 66 10000 5.1 270 21:20 05.01.2020
1316 Rain 13 1009 62 10000 4.1 260 20:56 05.01.2020
1317 Rain 13 1009 62 10000 4.1 260 20:38 05.01.2020
1318 Rain 13 1009 62 10000 4.1 260 20:19 05.01.2020
1319 Rain 15 1009 54 10000 7.2 280 19:58 05.01.2020
1320 Rain 15 1009 54 10000 7.2 280 19:38 05.01.2020
1321 Rain 15 1009 54 10000 7.2 280 19:20 05.01.2020
1322 Rain 13 1009 71 10000 2.6 260 18:55 05.01.2020
1323 Rain 13 1009 71 10000 2.6 260 18:37 05.01.2020
1324 Rain 13 1009 71 10000 2.6 260 18:37 05.01.2020
1325 Rain 13 1009 71 10000 2.6 260 18:19 05.01.2020
1326 Rain 12 1009 71 10000 3.6 250 17:57 05.01.2020
1327 Rain 12 1009 71 10000 3.6 250 17:38 05.01.2020
1328 Rain 12 1009 71 10000 3.6 250 17:38 05.01.2020
1329 Rain 12 1009 71 10000 3.6 250 17:19 05.01.2020
1330 Rain 12 1009 66 10000 4.1 250 16:56 05.01.2020
1331 Rain 12 1009 66 10000 4.1 250 16:37 05.01.2020
1332 Rain 12 1009 66 10000 4.1 250 16:19 05.01.2020
1333 Rain 12 1009 62 10000 3.6 260 15:37 05.01.2020
1334 Rain 12 1009 62 10000 3.6 260 15:19 05.01.2020
1335 Rain 12 1010 58 10000 3.6 250 14:55 05.01.2020
1336 Rain 12 1010 58 10000 3.6 250 14:37 05.01.2020
1337 Clouds 12 1010 58 10000 3.6 250 14:18 05.01.2020
1338 Clouds 11 1010 62 10000 2.6 250 13:54 05.01.2020
1339 Clouds 11 1010 62 10000 2.6 250 13:36 05.01.2020
1340 Clouds 11 1010 62 10000 2.6 250 13:18 05.01.2020
1341 Clouds 11 1011 57 10000 3.6 260 12:55 05.01.2020
1342 Clouds 11 1011 57 10000 3.6 260 12:36 05.01.2020
1343 Clouds 11 1011 57 10000 3.6 260 12:36 05.01.2020
1344 Clouds 11 1011 57 10000 3.6 260 12:18 05.01.2020
1345 Clouds 11 1011 53 10000 2.6 250 11:42 05.01.2020
1346 Clouds 11 1011 53 10000 2.6 250 11:41 05.01.2020
1347 Clouds 11 1011 53 10000 2.6 250 11:41 05.01.2020
1348 Clouds 11 1011 53 10000 2.6 250 11:41 05.01.2020
1349 Clouds 11 1011 53 10000 2.6 250 11:41 05.01.2020
1350 Clouds 11 1011 53 10000 2.6 250 11:19 05.01.2020
1351 Clouds 11 1011 53 10000 2.6 250 11:19 05.01.2020
1352 Clouds 11 1012 57 10000 2.6 250 10:56 05.01.2020
1353 Clouds 11 1012 57 10000 2.6 250 10:38 05.01.2020
1354 Clouds 11 1012 57 10000 2.6 250 10:38 05.01.2020
1355 Clouds 11 1012 57 10000 2.6 250 10:38 05.01.2020
1356 Clouds 11 1012 57 10000 2.6 250 10:38 05.01.2020
1357 Clouds 11 1012 57 10000 2.6 250 10:37 05.01.2020
1358 Clouds 11 1012 57 10000 2.6 250 10:18 05.01.2020
1359 Clouds 11 1012 57 10000 3.6 240 09:41 05.01.2020
1360 Clouds 11 1012 57 10000 3.6 240 09:21 05.01.2020
1361 Clouds 11 1012 57 10000 3.6 240 09:21 05.01.2020
1362 Clouds 12 1013 50 10000 3.6 250 08:48 05.01.2020
1363 Clouds 12 1013 50 10000 3.6 250 08:29 05.01.2020
1364 Clouds 12 1013 50 10000 2.6 260 07:55 05.01.2020
1365 Clouds 12 1013 50 10000 2.6 260 07:36 05.01.2020
1366 Clouds 12 1014 50 10000 3.1 260 06:59 05.01.2020
1367 Clouds 12 1015 54 10000 2.1 240 05:58 05.01.2020
1368 Clouds 12 1015 54 10000 2.1 240 05:30 05.01.2020
1369 Clouds 12 1016 54 10000 2.1 280 04:43 05.01.2020
1370 Clouds 13 1016 47 10000 2.6 240 03:52 05.01.2020
1371 Clouds 14 1017 44 10000 3.1 260 02:46 05.01.2020
1372 Clouds 14 1017 44 10000 3.1 260 02:22 05.01.2020
1373 Clear 14 1017 44 10000 3.1 270 01:46 05.01.2020
1374 Clear 14 1017 44 10000 3.1 270 01:18 05.01.2020
1375 Clear 16 1016 38 10000 4.1 270 00:41 05.01.2020
1376 Clear 16 1016 38 10000 4.1 270 00:22 05.01.2020
1377 Clear 17 1017 36 10000 5.1 280 23:59 04.01.2020
1378 Clear 17 1017 36 10000 5.1 280 23:39 04.01.2020
1379 Clear 17 1017 36 10000 5.1 280 23:19 04.01.2020
1380 Clear 18 1017 34 10000 5.1 290 22:39 04.01.2020
1381 Clear 18 1017 34 10000 5.1 290 22:21 04.01.2020
1382 Clear 18 1018 34 10000 6.2 280 21:57 04.01.2020
1383 Clear 18 1018 34 10000 6.2 280 21:38 04.01.2020
1384 Clear 18 1018 34 10000 6.2 280 21:19 04.01.2020
1385 Clear 19 1018 37 10000 5.7 280 20:57 04.01.2020
1386 Clear 19 1018 37 10000 5.7 280 20:38 04.01.2020
1387 Clear 19 1018 37 10000 5.7 280 20:19 04.01.2020
1388 Clear 19 1018 37 10000 5.1 280 19:42 04.01.2020
1389 Clear 19 1018 37 10000 5.1 280 19:24 04.01.2020
1390 Clear 19 1019 34 10000 5.7 280 18:58 04.01.2020
1391 Clear 19 1019 34 10000 5.7 280 18:39 04.01.2020
1392 Clear 19 1019 34 10000 5.7 280 18:20 04.01.2020
1393 Clear 18 1019 34 10000 3.1 0 17:58 04.01.2020
1394 Clear 18 1019 34 10000 3.1 0 17:40 04.01.2020
1395 Clear 18 1019 34 10000 3.1 0 17:21 04.01.2020
1396 Clear 17 1020 36 10000 1.5 0 16:42 04.01.2020
1397 Clear 17 1020 36 10000 1.5 0 16:24 04.01.2020
1398 Clear 15 1021 41 10000 2.6 290 15:57 04.01.2020
1399 Clear 15 1021 41 10000 2.6 290 15:39 04.01.2020
1400 Clear 15 1021 41 10000 2.6 290 15:19 04.01.2020
1401 Clear 14 1022 44 10000 2.1 260 14:56 04.01.2020
1402 -273 0 0 0 0 0 14:38 04.01.2020
1403 Clear 14 1022 44 10000 2.1 260 14:19 04.01.2020
1404 Clear 14 1022 44 10000 2.1 260 14:19 04.01.2020
1405 Clear 14 1022 44 10000 2.1 260 14:19 04.01.2020
1406 Clear 12 1023 50 10000 2.6 310 13:55 04.01.2020
1407 Clear 12 1023 50 10000 2.6 310 13:55 04.01.2020
1408 Clear 12 1023 50 10000 2.6 310 13:36 04.01.2020
1409 Clear 12 1023 50 10000 2.6 310 13:18 04.01.2020
1410 Clear 10 1023 61 10000 0.5 0 12:41 04.01.2020
1411 Clear 10 1023 61 10000 0.5 0 12:19 04.01.2020
1412 Clear 8 1022 65 10000 2.1 290 11:58 04.01.2020
1413 Clear 8 1022 65 10000 2.1 290 11:38 04.01.2020
1414 Clear 8 1022 65 10000 2.1 290 11:19 04.01.2020
1415 Clear 8 1022 65 10000 1.5 290 10:42 04.01.2020
1416 Clear 8 1022 65 10000 1.5 290 10:42 04.01.2020
1417 Clear 8 1022 65 10000 1.5 290 10:23 04.01.2020
1418 Clear 8 1022 65 10000 1.5 290 10:23 04.01.2020
1419 Clear 7 1022 70 10000 1.5 250 09:58 04.01.2020
1420 Clear 7 1022 70 10000 1.5 250 09:39 04.01.2020
1421 Clear 7 1022 70 10000 1.5 250 09:21 04.01.2020
1422 Clear 8 1021 65 10000 1 270 08:41 04.01.2020
1423 Clouds 8 1021 65 10000 1 270 08:21 04.01.2020
1424 Clouds 9 1022 61 10000 1.5 260 07:42 04.01.2020
1425 Clouds 9 1022 61 10000 1.5 260 07:20 04.01.2020
1426 Clouds 11 1022 57 10000 2.1 290 06:33 04.01.2020
1427 Clear 12 1022 58 10000 2.6 310 05:20 04.01.2020
1428 Clear 13 1021 50 10000 2.1 290 04:34 04.01.2020
1429 Clear 15 1021 44 10000 2.1 290 03:52 04.01.2020
1430 Clear 15 1021 44 10000 2.1 290 03:18 04.01.2020
1431 Rain 17 1020 33 10000 2.6 260 02:21 04.01.2020
1432 Rain 17 1020 33 10000 2.6 260 02:21 04.01.2020
1433 Rain 19 1019 48 10000 3.1 250 01:55 04.01.2020
1434 Rain 19 1019 48 10000 3.1 250 01:31 04.01.2020
1435 Rain 20 1018 52 10000 4.1 270 00:43 04.01.2020
1436 Rain 20 1018 52 10000 4.1 270 00:23 04.01.2020
1437 Rain 21 1017 52 10000 5.7 270 23:44 03.01.2020
1438 Rain 21 1017 52 10000 5.7 270 23:25 03.01.2020
1439 Clouds 23 1016 49 10000 5.7 260 22:41 03.01.2020
1440 Clouds 23 1016 49 10000 5.7 260 22:20 03.01.2020
1441 Clouds 23 1015 43 10000 5.7 260 21:58 03.01.2020
1442 Clouds 23 1015 43 10000 5.7 260 21:38 03.01.2020
1443 Clouds 23 1015 43 10000 5.7 260 21:19 03.01.2020
1444 Clouds 23 1015 43 10000 5.7 260 21:19 03.01.2020
1445 Clouds 25 1015 36 10000 6.7 260 20:58 03.01.2020
1446 Clouds 25 1015 36 10000 6.7 260 20:40 03.01.2020
1447 Clouds 25 1015 36 10000 6.7 260 20:18 03.01.2020
1448 Clear 25 1015 36 10000 6.7 270 19:55 03.01.2020
1449 Clear 25 1015 36 10000 6.7 270 19:55 03.01.2020
1450 Clear 25 1015 36 10000 6.7 270 19:37 03.01.2020
1451 Clear 25 1015 36 10000 6.7 270 19:18 03.01.2020
1452 Clouds 25 1016 38 10000 4.6 270 18:43 03.01.2020
1453 Clouds 25 1016 38 10000 4.6 270 18:24 03.01.2020
1454 Clouds 24 1016 44 10000 3.1 0 17:55 03.01.2020
1455 Clouds 24 1016 44 10000 3.1 0 17:37 03.01.2020
1456 Clouds 24 1016 44 10000 3.1 0 17:37 03.01.2020
1457 Clouds 24 1016 44 10000 3.1 0 17:18 03.01.2020
1458 Clear 24 1016 44 10000 2.1 280 16:42 03.01.2020
1459 Clear 24 1016 44 10000 2.1 280 16:22 03.01.2020
1460 Clear 22 1016 53 10000 2.1 0 15:44 03.01.2020
1461 Clear 22 1016 53 10000 2.1 0 15:19 03.01.2020
1462 Clear 19 1017 59 10000 1.5 280 14:59 03.01.2020
1463 Clear 19 1017 59 10000 1.5 280 14:38 03.01.2020
1464 Clear 19 1017 59 10000 1.5 280 14:19 03.01.2020
1465 Clear 16 1017 67 10000 1 0 13:43 03.01.2020
1466 Clear 16 1017 67 10000 1 0 13:24 03.01.2020
1467 Clear 13 1018 82 10000 1 0 12:58 03.01.2020
1468 Clear 13 1018 82 10000 1 0 12:38 03.01.2020
1469 Clear 13 1018 82 10000 1 0 12:20 03.01.2020
1470 Clear 12 1018 87 10000 0.5 0 11:44 03.01.2020
1471 Clear 12 1018 87 10000 0.5 0 11:20 03.01.2020
1472 Clear 11 1017 93 10000 1 260 10:44 03.01.2020
1473 Clear 11 1017 93 10000 1 260 10:25 03.01.2020
1474 Clear 12 1017 87 10000 1 0 09:57 03.01.2020
1475 Clear 12 1017 87 10000 1 0 09:39 03.01.2020
1476 Clear 12 1017 87 10000 1 0 09:21 03.01.2020
1477 Clear 12 1017 87 10000 1 0 09:21 03.01.2020
1478 Clear 13 1017 82 10000 1.5 270 08:56 03.01.2020
1479 Clear 13 1017 82 10000 1.5 270 08:36 03.01.2020
1480 Clear 13 1017 82 10000 1.5 270 08:18 03.01.2020
1481 Clear 15 1018 72 10000 1 0 07:39 03.01.2020
1482 Clear 15 1018 72 10000 1 0 07:18 03.01.2020
1483 Clear 16 1018 67 10000 0.5 0 06:43 03.01.2020
1484 Clear 16 1018 67 10000 0.5 0 06:24 03.01.2020
1485 Clear 17 1018 59 10000 1.5 220 05:28 03.01.2020
1486 Clear 18 1018 59 10000 1 0 03:55 03.01.2020
1487 Clear 22 1016 37 10000 1.5 250 02:55 03.01.2020
1488 Clear 24 1016 31 10000 2.1 250 01:57 03.01.2020
1489 Clear 24 1016 31 10000 2.1 250 01:38 03.01.2020
1490 Clear 26 1015 29 9000 2.6 270 00:46 03.01.2020
1491 Clear 26 1015 29 9000 2.6 270 00:26 03.01.2020
1492 Clear 27 1015 26 9000 4.6 270 23:55 02.01.2020
1493 Clear 27 1015 26 9000 4.6 270 23:37 02.01.2020
1494 Clear 27 1015 26 9000 4.6 270 23:18 02.01.2020
1495 Clear 28 1015 26 10000 4.6 280 22:42 02.01.2020
1496 Clear 28 1015 26 10000 4.6 280 22:20 02.01.2020
1497 Clear 28 1015 24 10000 5.1 280 21:57 02.01.2020
1498 Clear 28 1015 24 10000 5.1 280 21:57 02.01.2020
1499 Clear 28 1015 24 10000 5.1 280 21:38 02.01.2020
1500 Clear 28 1015 24 10000 5.1 280 21:20 02.01.2020
1501 Clear 29 1015 23 10000 3.6 270 20:56 02.01.2020
1502 Clear 29 1015 23 10000 3.6 270 20:38 02.01.2020
1503 Clear 29 1015 23 10000 3.6 270 20:20 02.01.2020
1504 Clear 28 1015 23 10000 2.1 0 19:54 02.01.2020
1505 Clear 28 1015 23 10000 2.1 0 19:36 02.01.2020
1506 Clear 28 1015 23 10000 2.1 0 19:18 02.01.2020
1507 Clear 28 1015 23 10000 2.1 0 19:18 02.01.2020
1508 Clear 27 1015 26 10000 2.1 0 18:43 02.01.2020
1509 Clear 27 1015 26 10000 2.1 0 18:25 02.01.2020
1510 Clear 25 1016 29 10000 3.1 290 17:59 02.01.2020
1511 Clear 25 1016 29 10000 3.1 290 17:39 02.01.2020
1512 Clear 25 1016 29 10000 3.1 290 17:21 02.01.2020
1513 Clear 22 1017 35 10000 2.1 290 16:59 02.01.2020
1514 Clear 22 1017 35 10000 2.1 290 16:41 02.01.2020
1515 Clear 22 1017 35 10000 2.1 290 16:20 02.01.2020
1516 Clear 20 1017 45 10000 1 0 15:58 02.01.2020
1517 Clear 20 1017 45 10000 1 0 15:58 02.01.2020
1518 Clear 20 1017 45 10000 1 0 15:40 02.01.2020
1519 Clear 20 1017 45 10000 1 0 15:21 02.01.2020
1520 Clear 17 1018 51 10000 1.5 200 14:57 02.01.2020
1521 Clear 17 1018 51 10000 1.5 200 14:36 02.01.2020
1522 Clear 17 1018 51 10000 1.5 200 14:36 02.01.2020
1523 Clear 17 1018 51 10000 1.5 200 14:18 02.01.2020
1524 Clear 15 1018 58 10000 1.5 230 13:49 02.01.2020
1525 Clear 15 1018 58 10000 1.5 230 13:31 02.01.2020
1526 Clear 13 1017 66 10000 1 0 12:46 02.01.2020
1527 Clear 13 1017 66 10000 1 0 12:26 02.01.2020
1528 Clear 10 1017 81 10000 1 0 11:58 02.01.2020
1529 Clear 10 1017 81 10000 1 0 11:40 02.01.2020
1530 Clear 10 1017 81 10000 1 0 11:19 02.01.2020
1531 Clear 11 1016 76 10000 1.5 270 10:43 02.01.2020
1532 Clear 11 1016 76 10000 1.5 270 10:25 02.01.2020
1533 Clear 12 1016 76 10000 1.5 270 09:46 02.01.2020
1534 Clear 12 1016 76 10000 1.5 270 09:28 02.01.2020
1535 Clear 14 1016 67 10000 1.5 290 08:45 02.01.2020
1536 Clear 14 1016 67 10000 1.5 290 08:27 02.01.2020
1537 Clear 14 1015 71 10000 1.5 290 07:51 02.01.2020
1538 Clear 14 1015 71 10000 1.5 290 07:30 02.01.2020
1539 Clear 15 1015 67 10000 1 0 06:45 02.01.2020
1540 Clear 15 1015 67 10000 1 0 06:26 02.01.2020
1541 Rain 17 1015 63 10000 1 0 05:21 02.01.2020
1542 Rain 19 1014 55 10000 1.5 280 04:31 02.01.2020
1543 Rain 24 1012 33 10000 2.6 280 02:37 02.01.2020
1544 Rain 27 1011 30 10000 2.6 260 01:58 02.01.2020
1545 Rain 27 1011 30 10000 2.6 260 01:33 02.01.2020
1546 Clouds 29 1010 26 10000 2.6 0 00:57 02.01.2020
1547 Clouds 29 1010 26 10000 2.6 0 00:33 02.01.2020
1548 Clouds 31 1009 23 10000 3.6 280 23:49 01.01.2020
1549 Clouds 31 1009 23 10000 3.6 280 23:27 01.01.2020
1550 Clear 32 1010 21 10000 2.1 270 22:56 01.01.2020
1551 Clear 32 1010 21 10000 2.1 270 22:38 01.01.2020
1552 Clear 32 1010 21 10000 2.1 270 22:19 01.01.2020
1553 Clear 32 1010 21 10000 1.5 0 21:55 01.01.2020
1554 Clear 32 1010 21 10000 1.5 0 21:37 01.01.2020
1555 Clear 32 1010 21 10000 1.5 0 21:18 01.01.2020
1556 Clear 30 1011 27 10000 2.1 330 20:42 01.01.2020
1557 Clear 30 1011 27 10000 2.1 330 20:22 01.01.2020
1558 Clear 29 1012 26 10000 1.5 0 19:58 01.01.2020
1559 Clear 29 1012 26 10000 1.5 0 19:39 01.01.2020
1560 Clear 29 1012 26 10000 1.5 0 19:21 01.01.2020
1561 Clear 26 1013 34 10000 1.5 300 18:59 01.01.2020
1562 Clear 26 1013 34 10000 1.5 300 18:39 01.01.2020
1563 Clear 26 1013 34 10000 1.5 300 18:20 01.01.2020
1564 Clear 24 1014 41 10000 1 0 17:59 01.01.2020
1565 Clear 24 1014 41 10000 1 0 17:40 01.01.2020
1566 Clouds 24 1014 41 10000 1 0 17:20 01.01.2020
1567 Clouds 22 1015 40 10000 1 0 16:59 01.01.2020
1568 Clouds 22 1015 40 10000 1 0 16:38 01.01.2020
1569 Clouds 22 1015 40 10000 1 0 16:20 01.01.2020
1570 Clouds 19 1016 52 10000 1 0 15:57 01.01.2020
1571 Clouds 19 1016 52 10000 1 0 15:57 01.01.2020
1572 Clouds 19 1016 52 10000 1 0 15:38 01.01.2020
1573 Clouds 19 1016 52 10000 1 0 15:20 01.01.2020
1574 Clouds 17 1016 59 10000 0.5 0 14:56 01.01.2020
1575 Clouds 17 1016 59 10000 0.5 0 14:37 01.01.2020
1576 Clear 17 1016 59 10000 0.5 0 14:19 01.01.2020
1577 Clear 14 1017 67 10000 0.5 0 13:55 01.01.2020
1578 Clear 14 1017 67 10000 0.5 0 13:36 01.01.2020
1579 Clouds 14 1017 67 10000 0.5 0 13:18 01.01.2020
1580 Clouds 10 1018 87 10000 0.77 164 12:40 01.01.2020
1581 Clouds 10 1018 87 10000 0.77 164 12:19 01.01.2020
1582 Clouds 7 1017 93 10000 0.77 164 11:57 01.01.2020
1583 Clouds 7 1017 93 10000 0.77 164 11:38 01.01.2020
1584 Clouds 7 1017 93 10000 0.58 284 11:19 01.01.2020
1585 Clouds 8 1017 87 10000 0.58 284 10:55 01.01.2020
1586 Clouds 8 1017 87 10000 0.58 284 10:36 01.01.2020
1587 Clouds 8 1017 87 10000 0.58 284 10:18 01.01.2020
1588 Clouds 8 1017 93 10000 0.58 284 09:40 01.01.2020
1589 Clouds 8 1017 93 10000 0.58 284 09:20 01.01.2020
1590 Clouds 10 1017 87 10000 1 0 08:57 01.01.2020
1591 Clouds 10 1017 87 10000 1 0 08:57 01.01.2020
1592 Clouds 10 1017 87 10000 1 0 08:38 01.01.2020
1593 Clouds 10 1017 87 10000 1 0 08:19 01.01.2020
1594 Clear 11 1017 81 9000 1 0 07:57 01.01.2020
1595 Clear 11 1017 81 9000 1 0 07:38 01.01.2020
1596 Clear 12 1018 76 9000 0.5 270 06:50 01.01.2020
1597 Clear 12 1018 76 9000 0.5 270 06:32 01.01.2020
1598 Clear 14 1018 62 10000 1.5 260 05:46 01.01.2020
1599 Clear 15 1017 58 9000 1.8 285 03:48 01.01.2020
1600 Clear 15 1017 58 9000 1.8 285 03:28 01.01.2020
1601 Clear 17 1017 51 8000 1.8 285 02:59 01.01.2020
1602 Clear 17 1017 51 8000 1.8 285 02:41 01.01.2020
1603 Clear 17 1017 51 8000 1.78 251 02:21 01.01.2020
1604 Clear 22 1016 33 9000 1 250 01:40 01.01.2020
1605 Clear 22 1016 33 9000 1 250 01:21 01.01.2020
1606 Clear 25 1016 22 10000 2.1 280 00:44 01.01.2020
1607 Clear 25 1016 22 10000 2.1 280 00:26 01.01.2020
1608 Clear 26 1016 21 10000 2.6 290 23:43 31.12.2019
1609 Clear 26 1016 21 10000 2.6 290 23:24 31.12.2019
1610 Clear 26 1016 22 10000 2.6 0 22:59 31.12.2019
1611 Clear 26 1016 22 10000 2.6 0 22:39 31.12.2019
1612 Clear 26 1016 22 10000 2.6 0 22:20 31.12.2019
1613 Clear 27 1016 21 10000 2.1 0 21:59 31.12.2019
1614 Clear 27 1016 21 10000 2.1 0 21:59 31.12.2019
1615 Clear 27 1016 21 10000 2.1 0 21:40 31.12.2019
1616 Clear 27 1016 21 10000 2.1 0 21:40 31.12.2019
1617 Clear 27 1016 21 10000 2.1 0 21:22 31.12.2019
1618 Clear 26 1017 22 10000 2.1 260 20:57 31.12.2019
1619 -273 0 0 0 0 0 20:37 31.12.2019
1620 Clear 26 1017 22 10000 2.1 260 20:19 31.12.2019
1621 Clear 25 1017 27 10000 1.5 0 19:55 31.12.2019
1622 Clear 25 1017 27 10000 1.5 0 19:36 31.12.2019
1623 Clear 25 1017 27 10000 1.5 0 19:18 31.12.2019
1624 Clear 23 1018 33 10000 2.1 320 18:54 31.12.2019
1625 Clear 23 1018 33 10000 2.1 320 18:36 31.12.2019
1626 Clear 23 1018 33 10000 2.1 320 18:18 31.12.2019
1627 Clear 23 1018 33 10000 2.1 320 18:18 31.12.2019
1628 Clear 22 1018 33 10000 1.5 300 17:54 31.12.2019
1629 Clear 22 1018 33 10000 1.5 300 17:36 31.12.2019
1630 Clear 22 1018 33 10000 1.5 300 17:18 31.12.2019
1631 Clear 19 1019 48 10000 1.5 0 16:54 31.12.2019
1632 Clear 19 1019 48 10000 1.5 0 16:36 31.12.2019
1633 Clear 19 1019 48 10000 1.5 0 16:18 31.12.2019
1634 Clear 19 1019 48 10000 1.5 0 16:18 31.12.2019
1635 Clear 17 1020 55 10000 0.5 0 15:54 31.12.2019
1636 Clear 17 1020 55 10000 0.5 0 15:36 31.12.2019
1637 Clear 17 1020 55 10000 0.5 0 15:36 31.12.2019
1638 Clear 17 1020 55 10000 0.5 0 15:18 31.12.2019
1639 Clear 15 1021 62 10000 1 0 14:54 31.12.2019
1640 Clear 15 1021 62 10000 1 0 14:36 31.12.2019
1641 Clear 15 1021 62 10000 1 0 14:18 31.12.2019
1642 Clear 13 1021 66 10000 0.72 157 13:54 31.12.2019
1643 Clear 13 1021 66 10000 0.72 157 13:36 31.12.2019
1644 Clear 13 1021 66 10000 0.83 142 13:18 31.12.2019
1645 Clear 10 1022 81 10000 0.5 0 12:40 31.12.2019
1646 Clear 10 1022 81 10000 0.5 0 12:20 31.12.2019
1647 Clear 8 1022 87 10000 1 0 11:57 31.12.2019
1648 Clear 8 1022 87 10000 1 0 11:38 31.12.2019
1649 Clear 8 1022 87 10000 1 0 11:38 31.12.2019
1650 Clear 8 1022 87 10000 1 0 11:20 31.12.2019
1651 Clear 9 1021 81 10000 1 0 10:58 31.12.2019
1652 Clear 9 1021 81 10000 1 0 10:38 31.12.2019
1653 Clear 9 1021 81 10000 1 0 10:20 31.12.2019
1654 Clear 9 1021 81 10000 1.5 270 09:59 31.12.2019
1655 Clear 9 1021 81 10000 1.5 270 09:39 31.12.2019
1656 Clear 9 1021 81 10000 1.5 270 09:20 31.12.2019
1657 Clear 10 1021 81 10000 1 260 08:57 31.12.2019
1658 Clear 10 1021 81 10000 1 260 08:39 31.12.2019
1659 Clear 10 1021 81 10000 1 260 08:19 31.12.2019
1660 Clear 11 1021 76 10000 1 0 07:43 31.12.2019
1661 Clear 11 1021 76 10000 1 0 07:20 31.12.2019
1662 Clear 12 1021 71 10000 2.1 300 06:50 31.12.2019
1663 Clear 12 1021 71 10000 1 0 05:57 31.12.2019
1664 Clear 12 1021 71 10000 1 0 04:28 31.12.2019
1665 Clear 14 1020 62 10000 0.5 0 03:28 31.12.2019
1666 Clear 18 1020 42 10000 1.5 240 02:54 31.12.2019
1667 Clear 18 1020 42 10000 1.5 240 02:54 31.12.2019
1668 Clear 18 1020 42 10000 1.5 240 02:54 31.12.2019
1669 Clear 20 1019 42 10000 3.1 270 01:58 31.12.2019
1670 Clear 20 1019 42 10000 3.1 270 01:40 31.12.2019
1671 Clouds 20 1019 42 10000 3.1 270 01:22 31.12.2019
1672 Clouds 21 1018 35 10000 3.6 320 00:45 31.12.2019
1673 Clouds 21 1018 35 10000 3.6 320 00:22 31.12.2019
1674 Clouds 22 1017 33 10000 3.6 300 23:56 30.12.2019
1675 Clouds 22 1017 33 10000 3.6 300 23:38 30.12.2019
1676 Clear 22 1017 33 10000 3.6 300 23:19 30.12.2019
1677 Clear 23 1017 33 10000 3.1 290 22:57 30.12.2019
1678 Clear 23 1017 33 10000 3.1 290 22:37 30.12.2019
1679 Clear 23 1017 33 10000 3.1 290 22:37 30.12.2019
1680 Clear 23 1017 33 10000 3.1 290 22:18 30.12.2019
1681 Clear 23 1017 31 10000 3.6 280 21:56 30.12.2019
1682 Clear 23 1017 31 10000 3.6 280 21:38 30.12.2019
1683 Clear 23 1017 31 10000 3.6 280 21:18 30.12.2019
1684 Clear 23 1017 33 10000 2.6 0 20:56 30.12.2019
1685 Clear 23 1017 33 10000 2.6 0 20:37 30.12.2019
1686 Clear 23 1017 33 10000 2.6 0 20:19 30.12.2019
1687 Clear 23 1017 33 10000 2.1 0 19:55 30.12.2019
1688 Clear 23 1017 33 10000 2.1 0 19:37 30.12.2019
1689 Clear 23 1017 33 10000 2.1 0 19:18 30.12.2019
1690 Clear 22 1018 33 10000 2.1 0 18:42 30.12.2019
1691 Clear 22 1018 33 10000 2.1 0 18:21 30.12.2019
1692 Clear 21 1018 37 10000 1 0 17:59 30.12.2019
1693 Clear 21 1018 37 10000 1 0 17:59 30.12.2019
1694 Clear 21 1018 37 10000 1 0 17:41 30.12.2019
1695 Clear 21 1018 37 10000 1 0 17:20 30.12.2019
1696 Clear 19 1018 42 10000 2.1 0 17:00 30.12.2019
1697 Clear 19 1018 42 10000 2.1 0 16:40 30.12.2019
1698 Clear 19 1018 42 10000 2.1 0 16:20 30.12.2019
1699 Clear 17 1019 48 10000 2.1 290 15:57 30.12.2019
1700 Clear 17 1019 48 10000 2.1 290 15:38 30.12.2019
1701 Clear 17 1019 48 10000 2.1 290 15:19 30.12.2019
1702 Clear 16 1019 51 10000 1 0 14:55 30.12.2019
1703 Clear 16 1019 51 10000 1 0 14:37 30.12.2019
1704 Clouds 16 1019 51 10000 1 0 14:18 30.12.2019
1705 Clouds 15 1019 58 10000 1.5 220 13:42 30.12.2019
1706 Clouds 15 1019 58 10000 1.5 220 13:23 30.12.2019
1707 Clouds 15 1019 58 10000 1.5 220 13:23 30.12.2019
1708 Clouds 12 1019 66 10000 1.5 230 12:58 30.12.2019
1709 Clouds 12 1019 66 10000 1.5 230 12:39 30.12.2019
1710 Clouds 12 1019 66 10000 1.5 230 12:19 30.12.2019
1711 Clouds 10 1019 76 10000 1 0 11:56 30.12.2019
1712 Clouds 10 1019 76 10000 1 0 11:37 30.12.2019
1713 Clouds 10 1019 76 10000 1 0 11:18 30.12.2019
1714 Clouds 11 1018 76 10000 0.5 0 10:42 30.12.2019
1715 Clouds 11 1018 76 10000 0.5 0 10:20 30.12.2019
1716 Clouds 11 1017 71 10000 1 270 09:44 30.12.2019
1717 Clouds 11 1017 71 10000 1 270 09:21 30.12.2019
1718 Clouds 12 1017 66 10000 1 280 08:57 30.12.2019
1719 Clouds 12 1017 66 10000 1 280 08:38 30.12.2019
1720 Clouds 12 1017 66 10000 1 280 08:19 30.12.2019
1721 Clouds 13 1017 62 10000 1.5 270 07:46 30.12.2019
1722 Clouds 13 1017 62 10000 1.5 270 07:23 30.12.2019
1723 Clouds 12 1016 66 10000 1 0 06:32 30.12.2019
1724 Clouds 16 1016 48 10000 1.5 290 04:31 30.12.2019
1725 Clouds 18 1015 36 10000 2.6 250 03:47 30.12.2019
1726 Clouds 20 1015 34 10000 3.1 250 02:45 30.12.2019
1727 Clouds 20 1015 34 10000 3.1 250 02:25 30.12.2019
1728 Clouds 23 1013 31 10000 4.6 270 01:27 30.12.2019
1729 Clouds 23 1013 31 10000 4.6 270 00:56 30.12.2019
1730 Clouds 23 1013 31 10000 4.6 270 00:36 30.12.2019
1731 Clouds 24 1012 29 10000 2.6 250 23:42 29.12.2019
1732 Clouds 24 1012 29 10000 2.6 250 23:24 29.12.2019
1733 Clouds 27 1011 24 10000 3.1 260 22:58 29.12.2019
1734 Clouds 27 1011 24 10000 3.1 260 22:38 29.12.2019
1735 Clouds 27 1011 24 10000 3.1 260 22:20 29.12.2019
1736 Clouds 27 1011 26 10000 2.6 0 21:55 29.12.2019
1737 Clouds 27 1011 26 10000 2.6 0 21:36 29.12.2019
1738 Clouds 27 1011 26 10000 2.6 0 21:18 29.12.2019
1739 Clouds 27 1011 26 10000 1.5 0 20:55 29.12.2019
1740 Clouds 27 1011 26 10000 1.5 0 20:36 29.12.2019
1741 Clouds 27 1011 26 10000 1.5 0 20:18 29.12.2019
1742 Clouds 25 1012 31 10000 1.5 0 19:40 29.12.2019
1743 Clouds 25 1012 31 10000 1.5 0 19:22 29.12.2019
1744 Clouds 23 1012 35 10000 2.6 300 18:59 29.12.2019
1745 Clouds 23 1012 35 10000 2.6 300 18:40 29.12.2019
1746 Clouds 23 1012 35 10000 2.6 300 18:20 29.12.2019
1747 Clouds 21 1013 43 10000 1.5 300 17:58 29.12.2019
1748 Clouds 21 1013 43 10000 1.5 300 17:58 29.12.2019
1749 Clouds 21 1013 43 10000 1.5 300 17:39 29.12.2019
1750 Clouds 21 1013 43 10000 1.5 300 17:20 29.12.2019
1751 Clouds 18 1014 48 10000 1 0 16:57 29.12.2019
1752 Clouds 18 1014 48 10000 1 0 16:38 29.12.2019
1753 Clouds 18 1014 48 10000 1 0 16:20 29.12.2019
1754 Clouds 17 1015 51 10000 1 0 15:58 29.12.2019
1755 Clouds 17 1015 51 10000 1 0 15:58 29.12.2019
1756 Clouds 17 1015 51 10000 1 0 15:39 29.12.2019
1757 Clouds 17 1015 51 10000 1 0 15:20 29.12.2019
1758 Clouds 14 1016 58 10000 1.33 171 14:58 29.12.2019
1759 Clouds 14 1016 58 10000 1.33 171 14:39 29.12.2019
1760 Clouds 14 1016 58 10000 0.98 190 14:18 29.12.2019
1761 Clouds 11 1016 76 10000 0.5 0 13:57 29.12.2019
1762 Clouds 11 1016 76 10000 0.5 0 13:38 29.12.2019
1763 Clouds 11 1016 76 10000 0.5 0 13:19 29.12.2019
1764 Clouds 8 1017 93 10000 0.82 186 12:45 29.12.2019
1765 Clouds 8 1017 93 10000 0.82 186 12:27 29.12.2019
1766 Clouds 6 1017 93 10000 0.82 186 11:57 29.12.2019
1767 Clouds 6 1017 93 10000 0.82 186 11:38 29.12.2019
1768 Clouds 6 1017 93 10000 1.07 284 11:20 29.12.2019
1769 Clouds 6 1016 93 10000 1.07 284 10:43 29.12.2019
1770 Clouds 6 1016 93 10000 1.07 284 10:24 29.12.2019
1771 Clouds 7 1016 87 10000 1 280 09:58 29.12.2019
1772 Clouds 7 1016 87 10000 1 280 09:39 29.12.2019
1773 Clouds 7 1016 87 10000 1 280 09:21 29.12.2019
1774 Clouds 8 1016 87 10000 1 0 08:47 29.12.2019
1775 Clouds 8 1016 87 10000 1 0 08:27 29.12.2019
1776 Clear 8 1017 87 10000 1 270 07:56 29.12.2019
1777 Clear 8 1017 87 10000 1 270 07:28 29.12.2019
1778 Clear 9 1017 81 10000 0.5 0 06:56 29.12.2019
1779 Clear 9 1017 81 10000 0.5 0 06:26 29.12.2019
1780 Clear 11 1017 71 10000 1 290 05:52 29.12.2019
1781 Clear 11 1017 71 10000 1 270 04:36 29.12.2019
1782 Clear 12 1017 71 10000 1 0 03:54 29.12.2019
1783 Clear 12 1017 71 10000 1 0 03:21 29.12.2019
1784 Clear 14 1017 58 10000 1 0 02:20 29.12.2019
1785 Clear 18 1016 39 10000 2.6 300 01:32 29.12.2019
1786 Clear 20 1016 32 10000 3.6 310 00:58 29.12.2019
1787 Clear 20 1016 32 10000 3.6 310 00:40 29.12.2019
1788 Clear 20 1016 32 10000 3.6 310 00:21 29.12.2019
1789 Clear 21 1015 30 10000 3.1 0 23:42 28.12.2019
1790 Clear 21 1015 30 10000 3.1 0 23:18 28.12.2019
1791 Clear 21 1015 30 10000 2.6 320 22:39 28.12.2019
1792 Clear 21 1015 30 10000 2.6 320 22:39 28.12.2019
1793 Clear 21 1015 30 10000 2.6 320 22:20 28.12.2019
1794 Clear 22 1015 28 10000 2.6 0 21:58 28.12.2019
1795 Clear 22 1015 28 10000 2.6 0 21:58 28.12.2019
1796 Clear 22 1015 28 10000 2.6 0 21:39 28.12.2019
1797 Clear 22 1015 28 10000 2.6 0 21:21 28.12.2019
1798 Clear 22 1015 28 10000 2.6 0 21:21 28.12.2019
1799 Clear 21 1016 28 10000 4.1 280 20:57 28.12.2019
1800 Clear 21 1016 28 10000 4.1 280 20:37 28.12.2019
1801 Clear 21 1016 28 10000 4.1 280 20:37 28.12.2019
1802 Clouds 21 1016 28 10000 4.1 280 20:19 28.12.2019
1803 Clouds 21 1016 28 10000 3.6 280 19:55 28.12.2019
1804 Clouds 21 1016 28 10000 3.6 280 19:37 28.12.2019
1805 Clouds 21 1016 28 10000 3.6 280 19:18 28.12.2019
1806 Clouds 19 1017 32 10000 1.5 0 18:56 28.12.2019
1807 Clouds 19 1017 32 10000 1.5 0 18:38 28.12.2019
1808 Clouds 19 1017 32 10000 1.5 0 18:18 28.12.2019
1809 Clouds 18 1017 34 10000 2.6 0 17:42 28.12.2019
1810 Clouds 18 1017 34 10000 2.6 0 17:42 28.12.2019
1811 Clouds 18 1017 34 10000 2.6 0 17:21 28.12.2019
1812 Clouds 17 1017 39 10000 1.5 0 16:58 28.12.2019
1813 Clouds 17 1017 39 10000 1.5 0 16:40 28.12.2019
1814 Clouds 17 1017 39 10000 1.5 0 16:21 28.12.2019
1815 Clouds 16 1018 41 10000 1.5 0 15:43 28.12.2019
1816 Clouds 16 1018 41 10000 1.5 0 15:23 28.12.2019
1817 Clouds 15 1018 41 10000 1 0 14:55 28.12.2019
1818 Clouds 15 1018 41 10000 1 0 14:37 28.12.2019
1819 Clouds 15 1018 41 10000 1 0 14:18 28.12.2019
1820 Clouds 13 1018 50 10000 1.5 310 13:42 28.12.2019
1821 Clouds 13 1018 50 10000 1.5 310 13:21 28.12.2019
1822 Clouds 10 1017 71 10000 1 0 12:58 28.12.2019
1823 Clouds 10 1017 71 10000 1 0 12:40 28.12.2019
1824 Clouds 10 1017 71 10000 1 0 12:21 28.12.2019
1825 Clouds 8 1017 75 10000 0.5 0 11:40 28.12.2019
1826 Clouds 8 1017 75 10000 0.5 0 11:40 28.12.2019
1827 Clouds 8 1017 75 10000 0.5 0 11:21 28.12.2019
1828 Clouds 9 1016 66 10000 2.1 260 10:56 28.12.2019
1829 Clouds 9 1016 66 10000 2.1 260 10:37 28.12.2019
1830 Clouds 9 1016 66 10000 2.1 260 10:18 28.12.2019
1831 Clouds 11 1016 57 10000 2.6 250 09:45 28.12.2019
1832 Clouds 11 1016 57 10000 2.6 250 09:24 28.12.2019
1833 Clouds 12 1015 54 10000 3.1 260 08:58 28.12.2019
1834 Clouds 12 1015 54 10000 3.1 260 08:39 28.12.2019
1835 Clouds 12 1015 54 10000 3.1 260 08:20 28.12.2019
1836 Clouds 12 1015 58 10000 3.1 260 07:43 28.12.2019
1837 Clouds 12 1015 62 10000 2.1 250 06:59 28.12.2019
1838 Clouds 13 1015 58 10000 3.1 250 05:43 28.12.2019
1839 Clear 12 1014 66 10000 1 0 03:48 28.12.2019
1840 Clear 14 1013 54 10000 3.1 250 02:50 28.12.2019
1841 Clouds 14 1013 54 10000 3.1 250 02:20 28.12.2019
1842 Clouds 14 1013 54 10000 4.6 260 01:53 28.12.2019
1843 Clouds 14 1013 54 10000 4.6 260 01:22 28.12.2019
1844 Clouds 15 1011 47 10000 4.6 250 00:44 28.12.2019
1845 Clouds 15 1011 47 10000 4.6 250 00:26 28.12.2019
1846 Clouds 16 1011 48 10000 5.7 250 23:56 27.12.2019
1847 Clouds 16 1011 48 10000 5.7 250 23:36 27.12.2019
1848 Rain 16 1011 48 10000 5.7 250 23:18 27.12.2019
1849 Rain 16 1010 55 10000 7.2 260 22:55 27.12.2019
1850 Rain 16 1010 55 10000 7.2 260 22:37 27.12.2019
1851 Rain 16 1010 55 10000 7.2 260 22:19 27.12.2019
1852 Rain 16 1009 63 10000 5.1 250 21:41 27.12.2019
1853 Rain 16 1009 63 10000 5.1 250 21:23 27.12.2019
1854 Rain 14 1008 82 4000 4.6 250 20:44 27.12.2019
1855 Rain 14 1008 82 4000 4.6 250 20:26 27.12.2019
1856 Rain 16 1006 77 8000 3.1 250 19:57 27.12.2019
1857 Rain 16 1006 77 8000 3.1 250 19:57 27.12.2019
1858 Rain 16 1006 77 8000 3.1 250 19:38 27.12.2019
1859 Rain 16 1006 77 8000 3.1 250 19:19 27.12.2019
1860 Rain 16 1006 77 4000 2.1 250 18:42 27.12.2019
1861 Rain 16 1006 77 4000 2.1 250 18:24 27.12.2019
1862 Rain 16 1006 82 5000 2.1 250 18:00 27.12.2019
1863 Rain 16 1006 82 5000 2.1 250 17:41 27.12.2019
1864 Rain 16 1006 82 5000 2.1 250 17:20 27.12.2019
1865 Rain 16 1006 82 9000 1 0 16:59 27.12.2019
1866 Rain 16 1006 82 9000 1 0 16:59 27.12.2019
1867 Rain 16 1006 82 9000 1 0 16:59 27.12.2019
1868 Rain 16 1006 82 9000 1 0 16:39 27.12.2019
1869 Rain 16 1006 82 9000 1 0 16:21 27.12.2019
1870 Rain 14 1006 87 4000 1 0 15:46 27.12.2019
1871 Rain 14 1006 87 4000 1 0 15:24 27.12.2019
1872 Rain 13 1006 81 0 3.31 312 14:59 27.12.2019
1873 Rain 13 1006 81 0 3.31 312 14:40 27.12.2019
1874 Rain 10 1008 86 0 3.11 335 14:22 27.12.2019
1875 Rain 12 1007 93 5000 0.5 0 13:58 27.12.2019
1876 Rain 12 1007 93 5000 0.5 0 13:40 27.12.2019
1877 Rain 12 1007 93 5000 0.5 0 13:21 27.12.2019
1878 Rain 12 1007 93 10000 2.73 334 12:44 27.12.2019
1879 Rain 12 1007 93 10000 2.73 334 12:26 27.12.2019
1880 Rain 12 1007 93 10000 2.73 334 12:26 27.12.2019
1881 Rain 11 1007 93 10000 0.5 0 11:55 27.12.2019
1882 Rain 11 1007 93 10000 0.5 0 11:37 27.12.2019
1883 Rain 11 1007 93 10000 0.5 0 11:18 27.12.2019
1884 Rain 12 1007 87 10000 2.86 339 10:41 27.12.2019
1885 Rain 12 1007 87 10000 2.86 339 10:23 27.12.2019
1886 Rain 12 1007 81 10000 2.86 339 09:49 27.12.2019
1887 Rain 12 1007 81 10000 2.86 339 09:22 27.12.2019
1888 Rain 12 1007 81 10000 2.86 339 09:22 27.12.2019
1889 Rain 12 1008 81 10000 2.86 339 08:59 27.12.2019
1890 Rain 12 1008 81 10000 2.86 339 08:38 27.12.2019
1891 Rain 12 1008 81 10000 1.5 340 07:57 27.12.2019
1892 Rain 12 1008 81 10000 1.5 340 07:38 27.12.2019
1893 Rain 12 1009 81 10000 3 336 06:39 27.12.2019
1894 Rain 12 1009 81 10000 3 336 06:18 27.12.2019
1895 Rain 13 1010 71 10000 1 0 04:32 27.12.2019
1896 Clouds 14 1010 62 10000 2.6 240 02:27 27.12.2019
1897 Clouds 14 1010 58 10000 3.1 270 01:42 27.12.2019
1898 Clouds 14 1010 58 10000 3.1 270 01:20 27.12.2019
1899 Clouds 15 1009 54 10000 3.1 250 00:46 27.12.2019
1900 Clouds 15 1009 54 10000 3.1 250 00:25 27.12.2019
1901 Clouds 15 1010 54 10000 5.7 250 23:42 26.12.2019
1902 Clouds 15 1010 54 10000 5.7 250 23:24 26.12.2019
1903 Clouds 15 1010 54 10000 4.6 260 22:58 26.12.2019
1904 Clouds 15 1010 54 10000 4.6 260 22:37 26.12.2019
1905 Clouds 15 1010 54 10000 4.6 260 22:18 26.12.2019
1906 Rain 15 1010 54 10000 4.1 250 21:39 26.12.2019
1907 Rain 15 1010 54 10000 4.1 250 21:21 26.12.2019
1908 Clouds 15 1010 54 10000 3.6 270 20:47 26.12.2019
1909 Clouds 15 1010 54 10000 3.6 270 20:24 26.12.2019
1910 Clouds 16 1011 48 10000 4.6 250 19:59 26.12.2019
1911 Clouds 16 1011 48 10000 4.6 250 19:40 26.12.2019
1912 Clouds 16 1011 48 10000 4.6 250 19:22 26.12.2019
1913 Clouds 15 1011 47 10000 4.1 260 18:59 26.12.2019
1914 Clouds 15 1011 47 10000 4.1 260 18:40 26.12.2019
1915 Clouds 15 1011 47 10000 4.1 260 18:20 26.12.2019
1916 Clouds 15 1011 51 10000 2.6 0 17:58 26.12.2019
1917 Clouds 15 1011 51 10000 2.6 0 17:40 26.12.2019
1918 Clouds 15 1011 51 10000 2.6 0 17:19 26.12.2019
1919 Clouds 14 1011 50 10000 3.1 260 16:46 26.12.2019
1920 Clouds 14 1011 50 10000 3.1 260 16:26 26.12.2019
1921 Clouds 14 1012 54 10000 3.6 250 15:56 26.12.2019
1922 Clouds 14 1012 54 10000 3.6 250 15:56 26.12.2019
1923 Clouds 14 1012 54 10000 3.6 250 15:38 26.12.2019
1924 Clouds 14 1012 54 10000 3.6 250 15:18 26.12.2019
1925 Clouds 13 1012 58 10000 3.1 250 14:41 26.12.2019
1926 Clouds 13 1012 58 10000 3.1 250 14:22 26.12.2019
1927 Clouds 7 1012 75 0 2.16 307 13:45 26.12.2019
1928 Clouds 10 1012 76 10000 1 0 13:23 26.12.2019
1929 Clouds 10 1012 76 10000 1 0 12:58 26.12.2019
1930 Clouds 10 1012 76 10000 1 0 12:58 26.12.2019
1931 Clouds 10 1012 76 10000 1 0 12:39 26.12.2019
1932 Clouds 10 1012 76 10000 1 0 12:21 26.12.2019
1933 Clouds 9 1012 81 10000 1 0 11:57 26.12.2019
1934 Clouds 9 1012 81 10000 1 0 11:39 26.12.2019
1935 Clouds 9 1012 81 10000 1 0 11:20 26.12.2019
1936 Clouds 9 1013 81 10000 2.07 306 10:49 26.12.2019
1937 Clouds 9 1013 81 10000 2.07 306 10:19 26.12.2019
1938 Clouds 9 1013 81 10000 2.07 306 10:19 26.12.2019
1939 Clouds 9 1013 81 10000 2.07 306 10:19 26.12.2019
1940 Clouds 9 1013 76 10000 0.5 0 09:50 26.12.2019
1941 Clouds 9 1013 76 10000 0.5 0 09:32 26.12.2019
1942 Clouds 11 1013 66 10000 2.1 270 08:55 26.12.2019
1943 Clouds 11 1013 66 10000 2.1 270 08:36 26.12.2019
1944 Clouds 11 1013 66 10000 2.1 270 08:18 26.12.2019
1945 Clouds 11 1014 66 10000 0.5 0 07:30 26.12.2019
1946 Clouds 11 1014 66 10000 0.5 0 07:30 26.12.2019
1947 Clouds 11 1014 66 10000 1.5 0 06:54 26.12.2019
1948 Clouds 11 1014 66 10000 1.5 0 06:32 26.12.2019
1949 Clouds 10 1014 76 10000 1 0 05:46 26.12.2019
1950 Clouds 12 1015 62 10000 2.6 260 04:59 26.12.2019
1951 Clouds 12 1015 62 10000 2.6 260 04:30 26.12.2019
1952 Clouds 12 1015 62 10000 3.1 280 02:58 26.12.2019
1953 Clouds 12 1015 62 10000 3.1 280 02:34 26.12.2019
1954 Clouds 13 1015 58 10000 4.1 260 01:51 26.12.2019
1955 Clouds 13 1015 58 10000 4.1 260 01:33 26.12.2019
1956 Clouds 14 1015 50 10000 4.1 260 00:50 26.12.2019
1957 Clouds 14 1015 50 10000 4.1 260 00:27 26.12.2019
1958 Clouds 15 1015 47 10000 5.7 260 23:58 25.12.2019
1959 Clouds 15 1015 47 10000 5.7 260 23:39 25.12.2019
1960 Clouds 15 1015 47 10000 5.7 260 23:21 25.12.2019
1961 Clouds 14 1016 50 10000 4.6 270 22:59 25.12.2019
1962 Clouds 14 1016 50 10000 4.6 270 22:39 25.12.2019
1963 Clouds 14 1016 50 10000 4.6 270 22:20 25.12.2019
1964 Clouds 15 1015 44 10000 6.2 270 21:58 25.12.2019
1965 Clouds 15 1015 44 10000 6.2 270 21:39 25.12.2019
1966 Clouds 15 1015 44 10000 6.2 270 21:20 25.12.2019
1967 Clouds 15 1015 47 10000 4.6 260 20:54 25.12.2019
1968 Clouds 15 1015 47 10000 4.6 260 20:36 25.12.2019
1969 Clouds 15 1015 47 10000 4.6 260 20:18 25.12.2019
1970 Clouds 15 1015 47 10000 4.6 260 20:18 25.12.2019
1971 Clouds 16 1016 44 10000 4.6 270 19:43 25.12.2019
1972 Clouds 16 1016 44 10000 4.6 270 19:23 25.12.2019
1973 Clouds 16 1016 44 10000 3.6 280 18:58 25.12.2019
1974 Clouds 16 1016 44 10000 3.6 280 18:36 25.12.2019
1975 Clouds 16 1016 44 10000 3.6 280 18:18 25.12.2019
1976 Clouds 15 1016 44 10000 3.6 260 17:40 25.12.2019
1977 Clouds 15 1016 44 10000 3.6 260 17:19 25.12.2019
1978 Clouds 14 1017 47 10000 4.6 260 16:57 25.12.2019
1979 Clouds 14 1017 47 10000 4.6 260 16:37 25.12.2019
1980 Clouds 14 1017 47 10000 4.6 260 16:18 25.12.2019
1981 Clouds 13 1017 50 10000 3.6 260 15:56 25.12.2019
1982 Clouds 13 1017 50 10000 3.6 260 15:37 25.12.2019
1983 Clouds 13 1017 50 10000 3.6 260 15:18 25.12.2019
1984 Clouds 11 1018 62 10000 2.1 260 14:56 25.12.2019
1985 Clouds 11 1018 62 10000 2.1 260 14:37 25.12.2019
1986 Clouds 11 1018 62 10000 2.1 260 14:18 25.12.2019
1987 Clouds 11 1018 62 10000 2.1 260 14:18 25.12.2019
1988 Clouds 8 1018 75 10000 2.75 294 13:42 25.12.2019
1989 Clouds 8 1018 75 10000 2.78 298 13:21 25.12.2019
1990 Clouds 7 1018 75 10000 1.5 300 12:44 25.12.2019
1991 Clouds 7 1018 75 10000 1.5 300 12:22 25.12.2019
1992 Clouds 5 1018 86 10000 2.78 298 11:58 25.12.2019
1993 Clouds 5 1018 86 10000 2.78 298 11:40 25.12.2019
1994 Clouds 5 1018 86 10000 2.53 306 11:21 25.12.2019
1995 Clouds 7 1018 70 10000 1 0 10:39 25.12.2019
1996 Clouds 7 1018 70 10000 1 0 10:21 25.12.2019
1997 Clouds 7 1018 70 10000 2.6 230 09:58 25.12.2019
1998 Clouds 7 1018 70 10000 2.6 230 09:40 25.12.2019
1999 Clouds 7 1018 70 10000 2.6 230 09:40 25.12.2019
2000 Clouds 7 1018 70 10000 2.6 230 09:21 25.12.2019
2001 Clouds 7 1018 70 10000 3.1 230 08:42 25.12.2019
2002 Clouds 7 1018 70 10000 3.1 230 08:23 25.12.2019
2003 Clouds 7 1018 70 10000 3.1 230 08:23 25.12.2019
2004 Clouds 7 1018 75 10000 3.6 240 07:42 25.12.2019
2005 Clouds 7 1018 75 10000 3.6 240 07:22 25.12.2019
2006 Rain 8 1018 70 10000 3.6 250 06:24 25.12.2019
2007 Clouds 8 1018 81 10000 3.1 270 05:49 25.12.2019
2008 Rain 8 1018 81 10000 2.1 250 04:42 25.12.2019
2009 Rain 8 1018 81 10000 2.1 250 04:24 25.12.2019
2010 Rain 9 1018 76 10000 2.1 270 03:43 25.12.2019
2011 Rain 8 1018 81 10000 2.6 280 02:58 25.12.2019
2012 Rain 8 1018 81 10000 2.6 280 02:29 25.12.2019
2013 Rain 9 1017 70 10000 2.1 250 01:42 25.12.2019
2014 Rain 9 1017 70 10000 2.1 250 01:18 25.12.2019
2015 Clear 11 1016 57 10000 3.6 260 00:41 25.12.2019
2016 Clear 11 1016 57 10000 3.6 260 00:22 25.12.2019
2017 Clear 11 1015 62 10000 4.6 270 23:39 24.12.2019
2018 Clouds 11 1015 62 10000 4.6 270 23:20 24.12.2019
2019 Clouds 11 1014 57 10000 5.7 280 22:42 24.12.2019
2020 Clouds 11 1014 57 10000 5.7 280 22:23 24.12.2019
2021 Rain 12 1014 58 10000 6.2 280 21:57 24.12.2019
2022 Rain 12 1014 58 10000 6.2 280 21:37 24.12.2019
2023 Rain 12 1014 58 10000 6.2 280 21:19 24.12.2019
2024 Rain 12 1013 58 10000 6.7 280 20:41 24.12.2019
2025 Rain 12 1013 58 10000 6.7 280 20:20 24.12.2019
2026 Clouds 13 1012 54 10000 6.2 270 19:46 24.12.2019
2027 Clouds 13 1012 54 10000 6.2 270 19:22 24.12.2019
2028 Rain 10 1012 76 9000 4.6 270 18:58 24.12.2019
2029 Rain 10 1012 76 9000 4.6 270 18:40 24.12.2019
2030 Rain 10 1012 76 9000 4.6 270 18:18 24.12.2019
2031 Rain 11 1011 66 9000 4.1 280 17:42 24.12.2019
2032 Rain 11 1011 66 9000 4.1 280 17:21 24.12.2019
2033 Rain 10 1010 71 9000 4.1 260 16:58 24.12.2019
2034 Rain 10 1010 71 9000 4.1 260 16:58 24.12.2019
2035 Rain 10 1010 71 9000 4.1 260 16:39 24.12.2019
2036 Rain 10 1010 71 9000 4.1 260 16:39 24.12.2019
2037 Rain 10 1010 71 9000 4.1 260 16:20 24.12.2019
2038 Rain 9 1010 76 9000 2.1 0 15:56 24.12.2019
2039 Rain 9 1010 76 9000 2.1 0 15:36 24.12.2019
2040 Rain 9 1010 76 9000 2.1 0 15:18 24.12.2019
2041 Rain 9 1010 70 9000 4.1 260 14:57 24.12.2019
2042 Rain 9 1010 70 9000 4.1 260 14:57 24.12.2019
2043 Rain 9 1010 70 9000 4.1 260 14:38 24.12.2019
2044 Rain 9 1010 70 9000 4.1 260 14:20 24.12.2019
2045 Clouds 8 1009 81 10000 2.1 0 13:55 24.12.2019
2046 Clouds 8 1009 81 10000 2.1 0 13:37 24.12.2019
2047 Clouds 8 1009 81 10000 2.1 0 13:19 24.12.2019
2048 Clouds 8 1009 81 10000 2.1 0 13:19 24.12.2019
2049 Rain 7 1009 93 10000 1 0 12:55 24.12.2019
2050 Rain 7 1009 93 10000 1 0 12:36 24.12.2019
2051 Rain 7 1009 93 10000 1 0 12:18 24.12.2019
2052 Rain 6 1008 93 10000 1 0 11:55 24.12.2019
2053 Rain 6 1008 93 10000 1 0 11:36 24.12.2019
2054 Rain 6 1008 93 10000 1 0 11:18 24.12.2019
2055 Rain 6 1007 93 10000 2.26 298 10:55 24.12.2019
2056 Rain 6 1007 93 10000 2.26 298 10:55 24.12.2019
2057 Rain 6 1007 93 10000 2.26 298 10:36 24.12.2019
2058 Rain 6 1007 93 10000 2.26 298 10:18 24.12.2019
2059 Rain 6 1007 93 10000 1 0 09:54 24.12.2019
2060 Rain 6 1007 93 10000 1 0 09:36 24.12.2019
2061 Rain 6 1007 93 10000 1 0 09:18 24.12.2019
2062 Rain 6 1007 93 10000 1 0 08:43 24.12.2019
2063 Rain 6 1007 93 10000 1 0 08:20 24.12.2019
2064 Rain 6 1007 93 10000 1.5 300 07:45 24.12.2019
2065 Rain 6 1007 93 10000 1.5 300 07:24 24.12.2019
2066 Rain 6 1008 93 10000 1 0 06:44 24.12.2019
2067 Rain 6 1008 93 10000 1 0 06:22 24.12.2019
2068 Rain 6 1009 93 10000 0.5 0 05:57 24.12.2019
2069 Rain 6 1009 93 10000 0.5 0 05:20 24.12.2019
2070 Rain 6 1010 93 10000 1 0 04:33 24.12.2019
2071 Mist 6 1010 93 8000 1.8 306 03:50 24.12.2019
2072 Rain 7 1010 87 10000 1.8 306 02:59 24.12.2019
2073 Rain 7 1010 87 10000 2.72 282 02:18 24.12.2019
2074 Rain 8 1010 87 10000 1 0 01:42 24.12.2019
2075 Rain 8 1010 87 10000 1 0 01:42 24.12.2019
2076 Rain 8 1010 87 10000 1 0 01:19 24.12.2019
2077 Rain 8 1011 87 10000 0.5 0 00:40 24.12.2019
2078 Rain 8 1011 87 10000 0.5 0 00:20 24.12.2019
2079 Rain 8 1010 87 10000 2.1 0 23:43 23.12.2019
2080 Rain 8 1010 87 10000 2.1 0 23:24 23.12.2019
2081 Rain 8 1010 87 10000 2.1 0 23:24 23.12.2019
2082 Rain 8 1010 81 10000 3.1 250 22:57 23.12.2019
2083 Rain 8 1010 81 10000 3.1 250 22:38 23.12.2019
2084 Rain 8 1010 81 10000 3.1 250 22:38 23.12.2019
2085 Rain 8 1010 81 10000 3.1 250 22:20 23.12.2019
2086 Rain 8 1010 81 7000 3.6 240 21:57 23.12.2019
2087 Rain 8 1010 81 7000 3.6 240 21:57 23.12.2019
2088 Rain 8 1010 81 7000 3.6 240 21:37 23.12.2019
2089 Rain 8 1010 81 7000 3.6 240 21:19 23.12.2019
2090 Rain 9 1010 76 7000 4.1 250 20:59 23.12.2019
2091 Rain 9 1010 76 7000 4.1 250 20:40 23.12.2019
2092 Rain 9 1010 76 7000 4.1 250 20:19 23.12.2019
2093 Rain 10 1010 71 7000 4.1 240 19:58 23.12.2019
2094 Rain 10 1010 71 7000 4.1 240 19:40 23.12.2019
2095 Rain 10 1010 71 7000 4.1 240 19:21 23.12.2019
2096 Rain 12 1010 58 9000 4.6 240 18:58 23.12.2019
2097 Rain 12 1010 58 9000 4.6 240 18:58 23.12.2019
2098 Rain 12 1010 58 9000 4.6 240 18:39 23.12.2019
2099 Rain 12 1010 58 9000 4.6 240 18:20 23.12.2019
2100 Rain 13 1010 50 8000 5.1 260 17:58 23.12.2019
2101 Rain 13 1010 50 8000 5.1 260 17:39 23.12.2019
2102 Rain 13 1010 50 8000 5.1 260 17:19 23.12.2019
2103 Rain 15 1010 41 10000 4.6 260 16:57 23.12.2019
2104 Rain 15 1010 41 10000 4.6 260 16:39 23.12.2019
2105 Rain 15 1010 41 10000 4.6 260 16:18 23.12.2019
2106 Clouds 15 1010 41 10000 5.7 270 15:56 23.12.2019
2107 Clouds 15 1010 41 10000 5.7 270 15:36 23.12.2019
2108 Clouds 15 1010 41 10000 5.7 270 15:18 23.12.2019
2109 Clouds 15 1011 44 10000 4.6 250 14:55 23.12.2019
2110 Clouds 15 1011 44 10000 4.6 250 14:36 23.12.2019
2111 Clouds 15 1011 44 10000 4.6 250 14:18 23.12.2019
2112 Clouds 14 1010 44 10000 3.6 230 13:41 23.12.2019
2113 Clouds 14 1010 44 10000 3.6 230 13:23 23.12.2019
2114 Clouds 13 1010 50 10000 4.1 250 12:59 23.12.2019
2115 Clouds 13 1010 50 10000 4.1 250 12:40 23.12.2019
2116 Clouds 13 1010 50 10000 4.1 250 12:21 23.12.2019
2117 Clouds 12 1011 54 10000 4.1 250 11:55 23.12.2019
2118 Clouds 12 1011 54 10000 4.1 250 11:37 23.12.2019
2119 Rain 12 1011 54 10000 4.1 250 11:18 23.12.2019
2120 Rain 12 1011 50 10000 4.1 260 10:54 23.12.2019
2121 Rain 12 1011 50 10000 4.1 260 10:36 23.12.2019
2122 Rain 12 1011 50 10000 4.1 260 10:18 23.12.2019
2123 Rain 12 1011 50 10000 4.6 250 09:40 23.12.2019
2124 Rain 12 1011 50 10000 4.6 250 09:22 23.12.2019
2125 Rain 13 1010 50 10000 4.6 250 08:59 23.12.2019
2126 Rain 13 1010 50 10000 4.6 250 08:40 23.12.2019
2127 Rain 13 1010 50 10000 4.6 250 08:22 23.12.2019
2128 Rain 13 1010 66 10000 5.7 240 07:48 23.12.2019
2129 Rain 13 1010 66 10000 5.7 240 07:21 23.12.2019
2130 Rain 14 1009 93 10000 2.1 0 06:57 23.12.2019
2131 Rain 14 1009 93 10000 2.1 0 06:27 23.12.2019
2132 Rain 13 1008 100 8000 0.5 0 05:56 23.12.2019
2133 Rain 13 1008 100 8000 0.5 0 05:29 23.12.2019
2134 Rain 13 1008 100 10000 0.5 0 04:34 23.12.2019
2135 Rain 14 1009 93 10000 1.5 70 03:26 23.12.2019
2136 Rain 14 1008 87 8000 1 0 02:42 23.12.2019
2137 Rain 14 1008 87 8000 1 0 02:19 23.12.2019
2138 Rain 15 1009 82 10000 1.5 0 01:42 23.12.2019
2139 Rain 15 1009 82 10000 1.5 0 01:23 23.12.2019
2140 Rain 16 1009 72 10000 4.1 260 00:43 23.12.2019
2141 Rain 16 1009 72 10000 4.1 260 00:23 23.12.2019
2142 Rain 18 1009 59 10000 5.7 250 23:40 22.12.2019
2143 Rain 18 1009 59 10000 5.7 250 23:21 22.12.2019
2144 Clouds 19 1009 52 10000 6.7 250 22:58 22.12.2019
2145 Clouds 19 1009 52 10000 6.7 250 22:58 22.12.2019
2146 Clouds 19 1009 52 10000 6.7 250 22:58 22.12.2019
2147 Clouds 19 1009 52 10000 6.7 250 22:40 22.12.2019
2148 Clouds 19 1009 52 10000 6.7 250 22:20 22.12.2019
2149 Clouds 19 1011 52 10000 6.7 240 21:57 22.12.2019
2150 Clouds 19 1011 52 10000 6.7 240 21:39 22.12.2019
2151 Clouds 19 1011 52 10000 6.7 240 21:21 22.12.2019
2152 Rain 19 1011 55 8000 6.2 250 20:58 22.12.2019
2153 Rain 19 1011 55 8000 6.2 250 20:38 22.12.2019
2154 Rain 19 1011 55 8000 6.2 250 20:18 22.12.2019
2155 Clouds 20 1011 49 10000 5.1 250 19:56 22.12.2019
2156 Clouds 20 1011 49 10000 5.1 250 19:37 22.12.2019
2157 Clouds 20 1011 49 10000 5.1 250 19:19 22.12.2019
2158 Clouds 20 1012 49 10000 5.7 250 18:40 22.12.2019
2159 Clouds 20 1012 49 10000 5.7 250 18:40 22.12.2019
2160 Clouds 20 1012 49 10000 5.7 250 18:22 22.12.2019
2161 Clouds 19 1012 48 10000 5.1 230 17:55 22.12.2019
2162 Clouds 19 1012 48 10000 5.1 230 17:37 22.12.2019
2163 Clouds 19 1012 48 10000 5.1 230 17:18 22.12.2019
2164 Clouds 21 1013 46 10000 4.6 240 16:56 22.12.2019
2165 Clouds 21 1013 46 10000 4.6 240 16:56 22.12.2019
2166 Clouds 21 1013 46 10000 4.6 240 16:37 22.12.2019
2167 Clouds 21 1013 46 10000 4.6 240 16:19 22.12.2019
2168 Clouds 19 1013 48 10000 1.5 0 15:56 22.12.2019
2169 Clouds 19 1013 48 10000 1.5 0 15:36 22.12.2019
2170 Clouds 19 1013 48 10000 1.5 0 15:36 22.12.2019
2171 Clouds 19 1013 48 10000 1.5 0 15:18 22.12.2019
2172 Clouds 17 1014 55 10000 1 0 14:54 22.12.2019
2173 Clouds 17 1014 55 10000 1 0 14:54 22.12.2019
2174 Clouds 17 1014 55 10000 1 0 14:36 22.12.2019
2175 Clouds 17 1014 55 10000 1 0 14:18 22.12.2019
2176 Clouds 17 1014 55 10000 1 0 14:18 22.12.2019
2177 Clouds 14 1016 62 10000 1.38 273 13:54 22.12.2019
2178 Clouds 14 1016 62 10000 1.38 273 13:36 22.12.2019
2179 Clouds 14 1016 62 10000 1.38 273 13:18 22.12.2019
2180 Clouds 11 1016 81 10000 1 0 12:54 22.12.2019
2181 Clouds 11 1016 81 10000 1 0 12:36 22.12.2019
2182 Clouds 11 1016 81 10000 1 0 12:18 22.12.2019
2183 Clouds 11 1016 76 10000 1 0 11:39 22.12.2019
2184 Clouds 11 1016 76 10000 1 0 11:20 22.12.2019
2185 Clouds 11 1016 76 10000 0.5 0 10:58 22.12.2019
2186 Clouds 11 1016 76 10000 0.5 0 10:40 22.12.2019
2187 Clouds 11 1016 76 10000 0.5 0 10:20 22.12.2019
2188 Clouds 11 1017 76 10000 0.5 0 09:58 22.12.2019
2189 Clouds 11 1017 76 10000 0.5 0 09:40 22.12.2019
2190 Clouds 11 1017 76 10000 0.5 0 09:21 22.12.2019
2191 Clouds 10 1017 81 10000 1.96 311 08:45 22.12.2019
2192 Clouds 10 1017 81 10000 1.93 316 08:23 22.12.2019
2193 Clouds 11 1017 71 10000 2.08 311 07:52 22.12.2019
2194 Clouds 11 1017 71 10000 2.08 311 07:22 22.12.2019
2195 Clouds 12 1018 66 10000 0.5 0 06:57 22.12.2019
2196 Clouds 12 1018 66 10000 0.5 0 06:30 22.12.2019
2197 Clouds 14 1018 54 10000 2.6 280 05:43 22.12.2019
2198 Clouds 14 1018 54 10000 2.6 280 05:21 22.12.2019
2199 Clouds 15 1018 47 10000 2.1 220 04:27 22.12.2019
2200 Clouds 16 1018 48 10000 3.1 250 03:24 22.12.2019
2201 Clouds 16 1017 44 10000 3.6 250 02:34 22.12.2019
2202 Clouds 17 1017 39 10000 4.6 270 01:33 22.12.2019
2203 Clouds 19 1016 34 10000 5.7 270 00:58 22.12.2019
2204 Clouds 19 1016 34 10000 5.7 270 00:39 22.12.2019
2205 Clouds 19 1016 34 10000 5.7 270 00:20 22.12.2019
2206 Clouds 19 1016 34 10000 5.7 270 23:42 21.12.2019
2207 Clouds 19 1016 34 10000 5.7 270 23:24 21.12.2019
2208 Clouds 20 1016 34 10000 6.2 280 22:57 21.12.2019
2209 Clouds 20 1016 34 10000 6.2 280 22:39 21.12.2019
2210 Clouds 20 1016 34 10000 6.2 280 22:18 21.12.2019
2211 Clouds 21 1015 32 10000 6.2 270 21:56 21.12.2019
2212 Clouds 21 1015 32 10000 6.2 270 21:36 21.12.2019
2213 Clouds 21 1015 32 10000 6.2 270 21:18 21.12.2019
2214 Clouds 21 1015 32 10000 6.2 280 20:57 21.12.2019
2215 Clouds 21 1015 32 10000 6.2 280 20:37 21.12.2019
2216 Clouds 21 1015 32 10000 6.2 280 20:19 21.12.2019
2217 Clouds 21 1015 30 10000 5.7 280 19:55 21.12.2019
2218 Clouds 21 1015 30 10000 5.7 280 19:36 21.12.2019
2219 Clouds 21 1015 30 10000 5.7 280 19:18 21.12.2019
2220 Clouds 20 1016 32 10000 4.6 270 18:41 21.12.2019
2221 Clouds 20 1016 32 10000 4.6 270 18:23 21.12.2019
2222 Clouds 20 1016 32 10000 4.6 270 18:23 21.12.2019
2223 Clouds 19 1016 37 10000 2.1 0 17:56 21.12.2019
2224 Clouds 19 1016 37 10000 2.1 0 17:38 21.12.2019
2225 Clouds 19 1016 37 10000 2.1 0 17:19 21.12.2019
2226 Clouds 17 1017 42 10000 1 0 16:55 21.12.2019
2227 Clouds 17 1017 42 10000 1 0 16:36 21.12.2019
2228 Clouds 17 1017 42 10000 1 0 16:18 21.12.2019
2229 Clouds 15 1018 47 10000 2.1 290 15:55 21.12.2019
2230 Clouds 15 1018 47 10000 2.1 290 15:36 21.12.2019
2231 Clouds 15 1018 47 10000 2.1 290 15:18 21.12.2019
2232 Clouds 13 1019 58 10000 1.5 290 14:40 21.12.2019
2233 Clouds 13 1019 58 10000 1.5 290 14:22 21.12.2019
2234 Clouds 13 1019 58 10000 1.5 290 14:22 21.12.2019
2235 Clouds 10 1019 71 10000 0.5 0 13:57 21.12.2019
2236 Clouds 10 1019 71 10000 0.5 0 13:39 21.12.2019
2237 Clouds 10 1019 71 10000 0.5 0 13:19 21.12.2019
2238 Clouds 8 1020 81 10000 1 0 12:56 21.12.2019
2239 Clouds 8 1020 81 10000 1 0 12:37 21.12.2019
2240 Clouds 8 1020 81 10000 1 0 12:19 21.12.2019
2241 Clouds 6 1020 87 10000 1 0 11:45 21.12.2019
2242 Clouds 6 1020 87 10000 1 0 11:26 21.12.2019
2243 Clouds 6 1019 87 10000 0.5 0 10:57 21.12.2019
2244 Clouds 6 1019 87 10000 0.5 0 10:39 21.12.2019
2245 Clouds 6 1019 87 10000 0.5 0 10:21 21.12.2019
2246 Clouds 6 1019 87 10000 1 300 09:56 21.12.2019
2247 Clouds 6 1019 87 10000 1 300 09:56 21.12.2019
2248 Clouds 6 1019 87 10000 1 300 09:38 21.12.2019
2249 Clouds 6 1019 87 10000 1 300 09:19 21.12.2019
2250 Clouds 6 1019 87 10000 2.19 301 08:46 21.12.2019
2251 Clouds 6 1019 87 10000 2.19 301 08:26 21.12.2019
2252 Clouds 8 1020 75 10000 1.5 260 07:47 21.12.2019
2253 Clouds 8 1020 75 10000 1.5 260 07:23 21.12.2019
2254 Clouds 8 1020 75 10000 1.5 260 07:23 21.12.2019
2255 Clouds 9 1021 70 10000 0.5 0 06:46 21.12.2019
2256 Clouds 9 1021 70 10000 0.5 0 06:28 21.12.2019
2257 Clouds 11 1021 57 10000 2.1 270 05:55 21.12.2019
2258 Clouds 12 1021 54 10000 2.6 240 04:58 21.12.2019
2259 Clouds 12 1021 54 10000 2.6 240 04:19 21.12.2019
2260 Clouds 13 1020 47 10000 2.6 240 03:56 21.12.2019
2261 Clouds 14 1020 44 10000 1 0 02:19 21.12.2019
2262 Clouds 15 1020 38 10000 2.6 270 01:41 21.12.2019
2263 Clouds 15 1020 38 10000 2.6 270 01:22 21.12.2019
2264 Clouds 16 1020 69 10000 4.6 270 00:37 21.12.2019
2265 Clouds 16 1020 69 10000 4.6 270 00:18 21.12.2019
2266 Clouds 17 1020 36 10000 4.1 280 23:38 20.12.2019
2267 Clouds 17 1020 36 10000 4.1 280 23:19 20.12.2019
2268 Clouds 17 1020 36 10000 5.1 280 22:43 20.12.2019
2269 Clouds 17 1020 36 10000 5.1 280 22:22 20.12.2019
2270 Clouds 18 1020 34 10000 4.6 280 21:59 20.12.2019
2271 Clouds 18 1020 34 10000 4.6 280 21:40 20.12.2019
2272 Clouds 18 1020 34 10000 4.6 280 21:20 20.12.2019
2273 Clouds 18 1020 34 10000 4.6 280 21:20 20.12.2019
2274 Clouds 18 1020 36 10000 3.6 270 20:55 20.12.2019
2275 Clouds 18 1020 36 10000 3.6 270 20:36 20.12.2019
2276 Clear 18 1020 36 10000 3.6 270 20:18 20.12.2019
2277 Clear 18 1021 34 10000 4.6 280 19:41 20.12.2019
2278 Clear 18 1021 34 10000 4.6 280 19:20 20.12.2019
2279 Clear 16 1021 38 10000 2.6 0 18:56 20.12.2019
2280 Clear 16 1021 38 10000 2.6 0 18:56 20.12.2019
2281 Clear 16 1021 38 10000 2.6 0 18:56 20.12.2019
2282 Clear 16 1021 38 10000 2.6 0 18:38 20.12.2019
2283 Clear 16 1021 38 10000 2.6 0 18:20 20.12.2019
2284 Clear 17 1021 39 10000 2.1 0 17:42 20.12.2019
2285 Clear 17 1021 39 10000 2.1 0 17:21 20.12.2019
2286 Clear 15 1022 41 10000 2.1 0 16:59 20.12.2019
2287 Clear 15 1022 41 10000 2.1 0 16:40 20.12.2019
2288 Clear 15 1022 41 10000 2.1 0 16:20 20.12.2019
2289 Clear 15 1022 41 10000 2.1 0 16:20 20.12.2019
2290 Clouds 15 1022 44 10000 1.5 0 15:57 20.12.2019
2291 Clouds 15 1022 44 10000 1.5 0 15:38 20.12.2019
2292 Clouds 15 1022 44 10000 1.5 0 15:19 20.12.2019
2293 Clouds 12 1023 62 10000 1.5 0 14:55 20.12.2019
2294 Clouds 12 1023 62 10000 1.5 0 14:37 20.12.2019
2295 Clouds 12 1023 62 10000 1.5 0 14:18 20.12.2019
2296 Clouds 8 1023 75 10000 1 0 13:41 20.12.2019
2297 Clouds 8 1023 75 10000 1 0 13:21 20.12.2019
2298 Clouds 7 1023 81 10000 1 0 12:58 20.12.2019
2299 Clouds 7 1023 81 10000 1 0 12:38 20.12.2019
2300 Clouds 7 1023 81 10000 1 0 12:19 20.12.2019
2301 Clouds 4 1023 93 10000 0.5 0 11:59 20.12.2019
2302 Clouds 4 1023 93 10000 0.5 0 11:59 20.12.2019
2303 Clouds 4 1023 93 10000 0.5 0 11:39 20.12.2019
2304 Clouds 4 1023 93 10000 0.5 0 11:19 20.12.2019
2305 Clouds 5 1022 86 10000 1 0 10:58 20.12.2019
2306 Clouds 5 1022 86 10000 1 0 10:40 20.12.2019
2307 Clouds 5 1022 86 10000 1 0 10:20 20.12.2019
2308 Clouds 6 1022 87 10000 1.5 270 09:54 20.12.2019
2309 Clouds 6 1022 87 10000 1.5 270 09:36 20.12.2019
2310 Clouds 6 1022 87 10000 1.5 270 09:18 20.12.2019
2311 Clouds 7 1021 81 10000 1.5 280 08:42 20.12.2019
2312 Clear 7 1021 81 10000 1.5 280 08:22 20.12.2019
2313 Clear 8 1021 75 10000 1 0 07:58 20.12.2019
2314 Clear 8 1021 75 10000 1 0 07:39 20.12.2019
2315 Clear 8 1021 75 10000 1 0 07:18 20.12.2019
2316 Clear 8 1021 81 10000 1 0 06:48 20.12.2019
2317 Clear 8 1021 81 10000 1 0 06:48 20.12.2019
2318 Clear 8 1021 81 10000 1 0 06:30 20.12.2019
2319 Clear 9 1021 70 10000 2.12 299 05:49 20.12.2019
2320 Clear 9 1021 70 10000 2.77 301 05:21 20.12.2019
2321 Clear 10 1020 66 10000 1 0 03:50 20.12.2019
2322 Clear 10 1020 66 10000 1 0 03:28 20.12.2019
2323 Clear 11 1019 62 10000 2.1 280 02:31 20.12.2019
2324 Clouds 12 1018 58 10000 2.6 280 01:36 20.12.2019
2325 Clouds 13 1018 54 10000 3.6 260 00:58 20.12.2019
2326 Clouds 13 1018 54 10000 3.6 260 00:36 20.12.2019
2327 Clouds 13 1017 54 10000 2.6 290 23:58 19.12.2019
2328 Clouds 13 1017 54 10000 2.6 290 23:40 19.12.2019
2329 Rain 13 1017 54 10000 2.6 290 23:21 19.12.2019
2330 Rain 13 1017 54 10000 2.6 290 23:21 19.12.2019
2331 Rain 13 1017 54 10000 3.6 0 22:40 19.12.2019
2332 Rain 13 1017 54 10000 3.6 0 22:22 19.12.2019
2333 Clouds 15 1016 41 10000 4.1 270 21:59 19.12.2019
2334 Clouds 15 1016 41 10000 4.1 270 21:59 19.12.2019
2335 Clouds 15 1016 41 10000 4.1 270 21:41 19.12.2019
2336 Clouds 15 1016 41 10000 4.1 270 21:19 19.12.2019
2337 Clouds 15 1016 47 10000 3.1 250 20:57 19.12.2019
2338 Clouds 15 1016 47 10000 3.1 250 20:38 19.12.2019
2339 Clouds 15 1016 47 10000 3.1 250 20:20 19.12.2019
2340 Clouds 14 1017 50 10000 3.6 270 19:58 19.12.2019
2341 Clouds 14 1017 50 10000 3.6 270 19:40 19.12.2019
2342 Clouds 14 1017 50 10000 3.6 270 19:19 19.12.2019
2343 Clouds 14 1017 50 10000 3.6 270 19:19 19.12.2019
2344 Rain 12 1016 62 9000 4.1 270 18:57 19.12.2019
2345 Rain 12 1016 62 9000 4.1 270 18:57 19.12.2019
2346 Rain 12 1016 62 9000 4.1 270 18:39 19.12.2019
2347 Rain 12 1016 62 9000 4.1 270 18:19 19.12.2019
2348 Clouds 13 1016 54 10000 1.5 0 17:55 19.12.2019
2349 Clouds 13 1016 54 10000 1.5 0 17:37 19.12.2019
2350 Clouds 13 1016 54 10000 1.5 0 17:18 19.12.2019
2351 Rain 13 1015 54 10000 1 0 16:55 19.12.2019
2352 Rain 13 1015 54 10000 1 0 16:55 19.12.2019
2353 Rain 13 1015 54 10000 1 0 16:37 19.12.2019
2354 Rain 13 1015 54 10000 1 0 16:19 19.12.2019
2355 Clouds 12 1015 62 10000 2.1 260 15:55 19.12.2019
2356 Clouds 12 1015 62 10000 2.1 260 15:37 19.12.2019
2357 Clouds 12 1015 62 10000 2.1 260 15:18 19.12.2019
2358 Rain 12 1015 58 10000 2.1 220 14:42 19.12.2019
2359 Rain 12 1015 58 10000 2.1 220 14:20 19.12.2019
2360 Rain 11 1014 57 10000 3.1 270 13:58 19.12.2019
2361 Rain 11 1014 57 10000 3.1 270 13:58 19.12.2019
2362 Rain 11 1014 57 10000 3.1 270 13:38 19.12.2019
2363 Rain 11 1014 57 10000 3.1 270 13:19 19.12.2019
2364 Clouds 10 1014 61 10000 2.1 260 12:57 19.12.2019
2365 Clouds 10 1014 61 10000 2.1 260 12:39 19.12.2019
2366 Clouds 10 1014 61 10000 2.1 260 12:39 19.12.2019
2367 Clouds 10 1014 61 10000 2.1 260 12:19 19.12.2019
2368 Clouds 10 1013 53 10000 3.6 260 11:58 19.12.2019
2369 Clouds 10 1013 53 10000 3.6 260 11:40 19.12.2019
2370 Clouds 10 1013 53 10000 3.6 260 11:18 19.12.2019
2371 Clouds 10 1013 53 10000 3.6 260 11:18 19.12.2019
2372 Clouds 9 1013 57 10000 2.1 260 10:56 19.12.2019
2373 Clouds 9 1013 57 10000 2.1 260 10:37 19.12.2019
2374 Clouds 9 1013 57 10000 2.1 260 10:19 19.12.2019
2375 Clouds 10 1012 53 10000 2.1 250 09:40 19.12.2019
2376 Clouds 10 1012 53 10000 2.1 250 09:21 19.12.2019
2377 Clouds 11 1012 50 10000 3.1 240 08:58 19.12.2019
2378 Clouds 11 1012 50 10000 3.1 240 08:40 19.12.2019
2379 Clouds 11 1012 50 10000 3.1 240 08:19 19.12.2019
2380 Clouds 9 1012 61 10000 1.5 220 07:57 19.12.2019
2381 Clouds 9 1012 61 10000 1.5 220 07:38 19.12.2019
2382 Clouds 9 1012 61 10000 1.5 220 07:19 19.12.2019
2383 Clouds 9 1012 66 10000 2.6 230 06:49 19.12.2019
2384 Clouds 9 1012 66 10000 2.6 230 06:29 19.12.2019
2385 Clouds 9 1012 66 10000 2.6 290 05:55 19.12.2019
2386 Clouds 9 1012 66 10000 2.6 290 05:33 19.12.2019
2387 Clear 10 1012 61 10000 2.6 290 04:48 19.12.2019
2388 Clear 12 1011 89 10000 2.6 270 02:54 19.12.2019
2389 Clear 12 1010 46 10000 3.6 260 01:51 19.12.2019
2390 Clear 12 1010 46 10000 3.6 260 01:22 19.12.2019
2391 Clear 14 1009 35 10000 3.6 260 00:40 19.12.2019
2392 Clear 14 1009 35 10000 3.6 260 00:21 19.12.2019
2393 Clear 15 1008 30 10000 5.1 260 23:55 18.12.2019
2394 Clear 15 1008 30 10000 5.1 260 23:36 18.12.2019
2395 Clear 15 1008 30 10000 5.1 260 23:18 18.12.2019
2396 Clear 15 1008 40 10000 4.6 260 22:55 18.12.2019
2397 Clear 15 1008 40 10000 4.6 260 22:36 18.12.2019
2398 Clear 15 1008 40 10000 4.6 260 22:18 18.12.2019
2399 Clouds 16 1007 36 10000 5.1 260 21:41 18.12.2019
2400 Clouds 16 1007 36 10000 5.1 260 21:21 18.12.2019
2401 Clouds 16 1007 41 10000 4.1 250 20:58 18.12.2019
2402 Clouds 16 1007 41 10000 4.1 250 20:39 18.12.2019
2403 Clouds 16 1007 41 10000 4.1 250 20:20 18.12.2019
2404 Clouds 16 1007 41 10000 4.1 250 20:20 18.12.2019
2405 Clouds 16 1006 41 10000 5.7 270 19:57 18.12.2019
2406 Clouds 16 1006 41 10000 5.7 270 19:39 18.12.2019
2407 Clouds 16 1006 41 10000 5.7 270 19:19 18.12.2019
2408 Clouds 16 1006 44 10000 5.1 260 18:56 18.12.2019
2409 Clouds 16 1006 44 10000 5.1 260 18:38 18.12.2019
2410 Clouds 16 1006 44 10000 5.1 260 18:20 18.12.2019
2411 Clouds 16 1006 48 10000 5.1 260 17:55 18.12.2019
2412 Clouds 16 1006 48 10000 5.1 260 17:55 18.12.2019
2413 Clouds 16 1006 48 10000 5.1 260 17:37 18.12.2019
2414 Clouds 16 1006 48 10000 5.1 260 17:19 18.12.2019
2415 Rain 16 1006 41 10000 6.2 260 16:42 18.12.2019
2416 Rain 16 1006 41 10000 6.2 260 16:24 18.12.2019
2417 Clouds 15 1006 47 10000 6.7 270 15:57 18.12.2019
2418 Clouds 15 1006 47 10000 6.7 270 15:39 18.12.2019
2419 Clouds 15 1006 47 10000 6.7 270 15:21 18.12.2019
2420 Clouds 14 1005 62 10000 5.7 250 14:56 18.12.2019
2421 Clouds 14 1005 62 10000 5.7 250 14:56 18.12.2019
2422 Clouds 14 1005 62 10000 5.7 250 14:38 18.12.2019
2423 Clouds 14 1005 62 10000 5.7 250 14:19 18.12.2019
2424 Rain 12 1004 93 9000 3.1 250 13:55 18.12.2019
2425 Rain 12 1004 93 9000 3.1 250 13:36 18.12.2019
2426 Rain 12 1004 93 9000 3.1 250 13:18 18.12.2019
2427 Rain 12 1004 93 9000 3.1 250 13:18 18.12.2019
2428 Rain 11 1003 100 8000 2.1 280 12:40 18.12.2019
2429 Rain 11 1003 100 8000 2.1 280 12:21 18.12.2019
2430 Rain 11 1003 93 8000 1 0 11:57 18.12.2019
2431 Rain 11 1003 93 8000 1 0 11:39 18.12.2019
2432 Rain 11 1003 93 8000 1 0 11:20 18.12.2019
2433 Rain 11 1003 93 9000 1 0 10:58 18.12.2019
2434 Rain 11 1003 93 9000 1 0 10:39 18.12.2019
2435 Rain 11 1003 93 9000 1 0 10:20 18.12.2019
2436 Rain 11 1003 87 9000 2.6 240 09:58 18.12.2019
2437 Rain 11 1003 87 9000 2.6 240 09:20 18.12.2019
2438 Rain 13 1003 82 8000 5.7 240 08:43 18.12.2019
2439 Rain 13 1003 82 8000 5.7 240 08:24 18.12.2019
2440 Rain 14 1004 82 9000 4.1 250 07:57 18.12.2019
2441 Rain 14 1004 82 9000 4.1 250 07:39 18.12.2019
2442 Rain 14 1004 82 9000 4.1 250 07:20 18.12.2019
2443 Rain 17 1003 63 10000 5.1 250 06:52 18.12.2019
2444 Rain 17 1003 63 10000 5.1 250 06:24 18.12.2019
2445 Clouds 17 1003 59 10000 4.6 250 05:35 18.12.2019
2446 Clouds 17 1003 59 10000 4.6 250 05:35 18.12.2019
2447 Rain 14 1006 82 10000 3.1 290 03:49 18.12.2019
2448 Rain 14 1006 82 10000 2.1 310 02:46 18.12.2019
2449 Rain 14 1006 82 10000 2.1 310 02:27 18.12.2019
2450 Rain 14 1007 82 10000 2.6 0 01:43 18.12.2019
2451 Rain 14 1007 82 10000 2.6 0 01:25 18.12.2019
2452 Rain 15 1007 77 10000 3.6 280 00:42 18.12.2019
2453 Rain 15 1007 77 10000 3.6 280 00:24 18.12.2019
2454 Rain 17 1007 63 10000 4.1 260 23:58 17.12.2019
2455 Rain 17 1007 63 10000 4.1 260 23:58 17.12.2019
2456 Rain 17 1007 63 10000 4.1 260 23:39 17.12.2019
2457 Clouds 17 1007 63 10000 4.1 260 23:21 17.12.2019
2458 Clouds 18 1008 55 10000 6.7 260 22:57 17.12.2019
2459 Clouds 18 1008 55 10000 6.7 260 22:38 17.12.2019
2460 Clouds 18 1008 55 10000 6.7 260 22:19 17.12.2019
2461 Rain 18 1008 55 10000 6.2 260 21:57 17.12.2019
2462 Rain 18 1008 55 10000 6.2 260 21:38 17.12.2019
2463 Rain 18 1008 55 10000 6.2 260 21:38 17.12.2019
2464 Rain 18 1008 55 10000 6.2 260 21:20 17.12.2019
2465 Rain 18 1009 52 10000 6.2 260 20:58 17.12.2019
2466 Rain 18 1009 52 10000 6.2 260 20:39 17.12.2019
2467 Rain 18 1009 52 10000 6.2 260 20:18 17.12.2019
2468 Rain 17 1009 51 10000 4.6 250 19:56 17.12.2019
2469 Rain 17 1009 51 10000 4.6 250 19:38 17.12.2019
2470 Rain 17 1009 51 10000 4.6 250 19:18 17.12.2019
2471 Rain 17 1010 51 10000 5.7 270 18:54 17.12.2019
2472 Rain 17 1010 51 10000 5.7 270 18:36 17.12.2019
2473 Rain 17 1010 51 10000 5.7 270 18:18 17.12.2019
2474 Clouds 15 1011 58 10000 3.6 320 17:42 17.12.2019
2475 Clouds 15 1011 58 10000 3.6 320 17:21 17.12.2019
2476 Clouds 14 1011 58 10000 2.1 290 16:57 17.12.2019
2477 Clouds 14 1011 58 10000 2.1 290 16:38 17.12.2019
2478 Clouds 14 1011 58 10000 2.1 290 16:19 17.12.2019
2479 Clouds 13 1012 62 10000 2.6 290 15:58 17.12.2019
2480 Clouds 13 1012 62 10000 2.6 290 15:37 17.12.2019
2481 Clouds 13 1012 62 10000 2.6 290 15:37 17.12.2019
2482 Clouds 13 1012 62 10000 2.6 290 15:19 17.12.2019
2483 Clouds 12 1013 66 10000 1 0 14:55 17.12.2019
2484 Clouds 12 1013 66 10000 1 0 14:55 17.12.2019
2485 Clouds 12 1013 66 10000 1 0 14:37 17.12.2019
2486 Clouds 12 1013 66 10000 1 0 14:18 17.12.2019
2487 Clouds 11 1014 66 10000 1 0 13:55 17.12.2019
2488 Clouds 11 1014 66 10000 1 0 13:37 17.12.2019
2489 Clouds 11 1014 66 10000 1 0 13:18 17.12.2019
2490 Clouds 9 1015 76 10000 1 0 12:41 17.12.2019
2491 Clouds 9 1015 76 10000 1 0 12:19 17.12.2019
2492 Clouds 7 1015 81 10000 1 0 11:59 17.12.2019
2493 Clouds 7 1015 81 10000 1 0 11:38 17.12.2019
2494 Clouds 7 1015 81 10000 1 0 11:19 17.12.2019
2495 Clouds 7 1015 81 10000 1.5 260 10:59 17.12.2019
2496 Clouds 7 1015 81 10000 1.5 260 10:41 17.12.2019
2497 Clouds 7 1015 81 10000 1.5 260 10:41 17.12.2019
2498 Clouds 7 1015 81 10000 1.5 260 10:22 17.12.2019
2499 Clouds 7 1015 81 10000 1 0 09:59 17.12.2019
2500 Clouds 7 1015 81 10000 1 0 09:41 17.12.2019
2501 Clouds 7 1015 81 10000 1 0 09:20 17.12.2019
2502 Clouds 7 1016 81 10000 1 0 08:56 17.12.2019
2503 Clouds 7 1016 81 10000 1 0 08:38 17.12.2019
2504 Clouds 7 1016 81 10000 1 0 08:19 17.12.2019
2505 Clouds 8 1016 75 10000 1 0 07:47 17.12.2019
2506 Clouds 8 1016 75 10000 1 0 07:27 17.12.2019
2507 Clouds 8 1017 75 10000 2.13 302 06:59 17.12.2019
2508 Clouds 8 1017 75 10000 2.13 302 06:35 17.12.2019
2509 Clear 8 1018 75 9000 2.13 302 05:53 17.12.2019
2510 Clear 8 1018 75 9000 2.13 302 05:35 17.12.2019
2511 Clear 10 1018 66 10000 0.5 0 04:30 17.12.2019
2512 Clear 13 1018 50 10000 2.1 280 02:34 17.12.2019
2513 Clear 14 1018 47 10000 2.6 250 01:55 17.12.2019
2514 Clear 16 1017 41 10000 5.1 270 00:58 17.12.2019
2515 Clear 16 1017 41 10000 5.1 270 00:37 17.12.2019
2516 Clear 16 1017 41 10000 5.1 270 00:19 17.12.2019
2517 Clear 16 1017 41 10000 4.6 270 23:41 16.12.2019
2518 Clear 16 1017 41 10000 4.6 270 23:19 16.12.2019
2519 Clear 16 1018 41 10000 5.7 280 22:56 16.12.2019
2520 Clear 16 1018 41 10000 5.7 280 22:37 16.12.2019
2521 Clear 16 1018 41 10000 5.7 280 22:19 16.12.2019
2522 Clouds 16 1018 44 10000 5.1 280 21:55 16.12.2019
2523 Clouds 16 1018 44 10000 5.1 280 21:37 16.12.2019
2524 Clouds 16 1018 44 10000 5.1 280 21:19 16.12.2019
2525 Clouds 16 1018 44 10000 3.6 260 20:57 16.12.2019
2526 Clouds 16 1018 44 10000 3.6 260 20:37 16.12.2019
2527 Clouds 16 1018 44 10000 3.6 260 20:19 16.12.2019
2528 Clouds 16 1019 44 10000 3.6 260 19:55 16.12.2019
2529 Clouds 16 1019 44 10000 3.6 260 19:36 16.12.2019
2530 Clouds 16 1019 44 10000 3.6 260 19:18 16.12.2019
2531 Clouds 16 1018 41 10000 4.6 270 18:55 16.12.2019
2532 Clouds 16 1018 41 10000 4.6 270 18:37 16.12.2019
2533 Clouds 16 1018 41 10000 4.6 270 18:18 16.12.2019
2534 Clouds 15 1019 44 10000 3.1 240 17:56 16.12.2019
2535 Clouds 15 1019 44 10000 3.1 240 17:37 16.12.2019
2536 Clouds 15 1019 44 10000 3.1 240 17:19 16.12.2019
2537 Clouds 15 1019 47 10000 4.6 280 16:54 16.12.2019
2538 Clouds 15 1019 47 10000 4.6 280 16:36 16.12.2019
2539 Clouds 15 1019 47 10000 4.6 280 16:18 16.12.2019
2540 Clouds 13 1020 62 10000 3.6 280 15:55 16.12.2019
2541 Clouds 13 1020 62 10000 3.6 280 15:37 16.12.2019
2542 Clouds 13 1020 62 10000 3.6 280 15:37 16.12.2019
2543 Clouds 13 1020 62 10000 3.6 280 15:18 16.12.2019
2544 Clouds 13 1020 66 10000 2.6 270 14:54 16.12.2019
2545 Clouds 13 1020 66 10000 2.6 270 14:36 16.12.2019
2546 Clouds 13 1020 66 10000 2.6 270 14:18 16.12.2019
2547 Clouds 10 1021 81 10000 1.5 230 13:38 16.12.2019
2548 Clouds 10 1021 81 10000 1.5 230 13:20 16.12.2019
2549 Rain 9 1021 87 10000 1 0 12:58 16.12.2019
2550 Rain 9 1021 87 10000 1 0 12:40 16.12.2019
2551 Rain 9 1021 87 10000 1 0 12:20 16.12.2019
2552 Rain 9 1021 81 10000 1 0 11:59 16.12.2019
2553 Rain 9 1021 81 10000 1 0 11:41 16.12.2019
2554 Rain 9 1021 81 10000 1 0 11:21 16.12.2019
2555 Clouds 9 1020 81 10000 1 0 10:58 16.12.2019
2556 Clouds 9 1020 81 10000 1 0 10:40 16.12.2019
2557 Clouds 9 1020 81 10000 1 0 10:20 16.12.2019
2558 Clouds 9 1020 76 10000 1 0 09:46 16.12.2019
2559 Clouds 9 1020 76 10000 1 0 09:28 16.12.2019
2560 Clouds 10 1020 66 10000 1.5 250 08:58 16.12.2019
2561 Clouds 10 1020 66 10000 1.5 250 08:38 16.12.2019
2562 Clouds 10 1020 66 10000 1.5 250 08:18 16.12.2019
2563 Clouds 10 1021 66 10000 2.1 280 07:47 16.12.2019
2564 Clouds 10 1021 66 10000 2.1 280 07:28 16.12.2019
2565 Clouds 10 1021 66 10000 3.6 240 06:45 16.12.2019
2566 Clouds 10 1021 66 10000 3.6 240 06:26 16.12.2019
2567 Clouds 11 1021 62 10000 3.6 240 05:52 16.12.2019
2568 Clouds 11 1021 62 10000 3.6 240 05:33 16.12.2019
2569 Clouds 11 1022 62 10000 3.1 260 04:22 16.12.2019
2570 Clouds 12 1021 62 10000 3.6 260 02:31 16.12.2019
2571 Clouds 12 1020 66 10000 4.6 280 01:45 16.12.2019
2572 Clouds 12 1020 66 10000 4.6 280 01:45 16.12.2019
2573 Clouds 13 1020 58 10000 4.1 270 00:43 16.12.2019
2574 Clouds 13 1020 58 10000 4.1 270 00:25 16.12.2019
2575 Clouds 15 1019 51 10000 4.6 260 23:59 15.12.2019
2576 Clouds 15 1019 51 10000 4.6 260 23:39 15.12.2019
2577 Clouds 15 1019 51 10000 4.6 260 23:20 15.12.2019
2578 Clouds 15 1020 51 10000 5.1 270 22:56 15.12.2019
2579 Clouds 15 1020 51 10000 5.1 270 22:37 15.12.2019
2580 Clouds 15 1020 51 10000 5.1 270 22:18 15.12.2019
2581 Clouds 15 1020 51 10000 5.1 270 22:18 15.12.2019
2582 Clouds 15 1020 51 10000 3.6 260 21:55 15.12.2019
2583 Clouds 15 1020 51 10000 3.6 260 21:37 15.12.2019
2584 Clouds 15 1020 51 10000 3.6 260 21:19 15.12.2019
2585 Clouds 16 1020 48 10000 6.2 280 20:55 15.12.2019
2586 Clouds 16 1020 48 10000 6.2 280 20:37 15.12.2019
2587 Clouds 16 1020 48 10000 6.2 280 20:18 15.12.2019
2588 Clouds 16 1020 51 10000 4.1 270 19:56 15.12.2019
2589 Clouds 16 1020 51 10000 4.1 270 19:38 15.12.2019
2590 Clouds 16 1020 51 10000 4.1 270 19:18 15.12.2019
2591 Clouds 16 1020 51 10000 4.1 270 19:18 15.12.2019
2592 Clouds 16 1020 51 10000 4.1 270 18:55 15.12.2019
2593 Clouds 16 1020 51 10000 4.1 270 18:36 15.12.2019
2594 Clouds 16 1020 51 10000 4.1 270 18:18 15.12.2019
2595 Clouds 14 1020 48 10000 5.1 260 17:55 15.12.2019
2596 Clouds 14 1020 48 10000 5.1 260 17:36 15.12.2019
2597 Rain 14 1020 48 10000 5.1 260 17:18 15.12.2019
2598 Clouds 13 1005 71 10000 7.2 270 16:42 15.12.2019
2599 Clouds 13 1005 71 10000 7.2 270 16:23 15.12.2019
2600 Clouds 13 1005 71 10000 7.2 270 15:57 15.12.2019
2601 Rain 14 1020 58 10000 3.6 250 15:39 15.12.2019
2602 Rain 14 1020 58 10000 3.6 250 15:19 15.12.2019
2603 Rain 12 1020 71 10000 1.5 290 14:56 15.12.2019
2604 Rain 12 1020 71 10000 1.5 290 14:37 15.12.2019
2605 Rain 12 1020 71 10000 1.5 290 14:19 15.12.2019
2606 Rain 12 1020 76 10000 2.1 0 13:58 15.12.2019
2607 Rain 12 1020 76 10000 2.1 0 13:38 15.12.2019
2608 Rain 12 1020 76 10000 2.1 0 13:19 15.12.2019
2609 Rain 11 1020 76 10000 2.6 280 12:57 15.12.2019
2610 Rain 11 1020 76 10000 2.6 280 12:39 15.12.2019
2611 Rain 11 1020 76 10000 2.6 280 12:21 15.12.2019
2612 Rain 11 1019 71 10000 2.1 260 11:58 15.12.2019
2613 Rain 11 1019 71 10000 2.1 260 11:37 15.12.2019
2614 Rain 11 1019 71 10000 2.1 260 11:19 15.12.2019
2615 Rain 11 1018 71 10000 2.6 260 10:55 15.12.2019
2616 Rain 11 1018 71 10000 2.6 260 10:37 15.12.2019
2617 Rain 11 1018 71 10000 2.6 260 10:19 15.12.2019
2618 Rain 10 1018 81 10000 2.1 250 09:41 15.12.2019
2619 Rain 10 1018 81 10000 2.1 250 09:20 15.12.2019
2620 Rain 10 1018 81 10000 2.6 280 08:59 15.12.2019
2621 Rain 10 1018 81 10000 2.6 280 08:39 15.12.2019
2622 Rain 10 1018 81 10000 2.6 280 08:21 15.12.2019
2623 Clouds 11 1018 71 10000 2.1 250 07:56 15.12.2019
2624 Clouds 11 1018 71 10000 2.1 250 07:34 15.12.2019
2625 Rain 11 1019 71 10000 3.1 260 06:51 15.12.2019
2626 Rain 11 1019 71 10000 3.1 260 06:20 15.12.2019
2627 Clouds 11 1019 71 10000 2.1 0 05:26 15.12.2019
2628 Clouds 12 1019 62 10000 1.5 0 04:47 15.12.2019
2629 Clouds 12 1019 62 10000 3.6 250 03:29 15.12.2019
2630 Clouds 12 1019 62 10000 2.6 250 02:34 15.12.2019
2631 Clouds 13 1018 58 10000 2.6 260 01:47 15.12.2019
2632 Clouds 13 1018 58 10000 2.6 260 01:28 15.12.2019
2633 Clouds 14 1017 50 10000 4.1 260 00:57 15.12.2019
2634 Clouds 14 1017 50 10000 4.1 260 00:38 15.12.2019
2635 Clouds 14 1017 50 10000 4.1 260 00:20 15.12.2019
2636 Clouds 14 1017 50 10000 5.7 270 23:40 14.12.2019
2637 Clouds 14 1017 50 10000 5.7 270 23:19 14.12.2019
2638 Clouds 15 1017 47 10000 6.2 270 22:57 14.12.2019
2639 Clouds 15 1017 47 10000 6.2 270 22:57 14.12.2019
2640 Clouds 15 1017 47 10000 6.2 270 22:39 14.12.2019
2641 Clouds 15 1017 47 10000 6.2 270 22:20 14.12.2019
2642 Clouds 15 1017 47 10000 6.2 270 21:55 14.12.2019
2643 Clouds 15 1017 47 10000 6.2 270 21:55 14.12.2019
2644 Clouds 15 1017 47 10000 6.2 270 21:37 14.12.2019
2645 Clouds 15 1017 47 10000 6.2 270 21:18 14.12.2019
2646 Clouds 15 1017 47 10000 5.1 280 20:54 14.12.2019
2647 Clouds 15 1017 47 10000 5.1 280 20:36 14.12.2019
2648 Clouds 15 1017 47 10000 5.1 280 20:18 14.12.2019
2649 Clear 15 1017 47 10000 5.1 280 20:18 14.12.2019
2650 Clear 16 1017 44 10000 6.2 270 19:40 14.12.2019
2651 Clear 16 1017 44 10000 6.2 270 19:21 14.12.2019
2652 Clear 16 1017 44 10000 6.2 270 19:21 14.12.2019
2653 Clear 15 1017 44 10000 5.1 280 18:57 14.12.2019
2654 Clear 15 1017 44 10000 5.1 280 18:39 14.12.2019
2655 Clear 15 1017 44 10000 5.1 280 18:21 14.12.2019
2656 Clear 15 1017 41 10000 4.6 280 17:58 14.12.2019
2657 Clear 15 1017 41 10000 4.6 280 17:40 14.12.2019
2658 Clouds 15 1017 41 10000 4.6 280 17:21 14.12.2019
2659 Clouds 15 1017 41 10000 4.6 280 16:41 14.12.2019
2660 Clouds 15 1017 41 10000 4.6 280 16:19 14.12.2019
2661 Clouds 15 1017 41 10000 5.1 280 15:55 14.12.2019
2662 Clouds 15 1017 41 10000 5.1 280 15:37 14.12.2019
2663 Clouds 15 1017 41 10000 5.1 280 15:19 14.12.2019
2664 Clouds 14 1017 47 10000 3.6 260 14:54 14.12.2019
2665 Clouds 14 1017 47 10000 3.6 260 14:36 14.12.2019
2666 Clouds 14 1017 47 10000 3.6 260 14:18 14.12.2019
2667 Clouds 13 1017 50 10000 3.1 230 13:42 14.12.2019
2668 Clouds 13 1017 50 10000 3.1 230 13:19 14.12.2019
2669 Clouds 13 1017 50 10000 3.1 230 13:19 14.12.2019
2670 Clouds 10 1017 66 10000 2.1 0 12:57 14.12.2019
2671 Clouds 10 1017 66 10000 2.1 0 12:38 14.12.2019
2672 Clouds 10 1017 66 10000 2.1 0 12:20 14.12.2019
2673 Clouds 10 1017 66 10000 2.1 0 12:20 14.12.2019
2674 Clouds 9 1017 70 10000 2.1 230 11:56 14.12.2019
2675 Clouds 9 1017 70 10000 2.1 230 11:38 14.12.2019
2676 Clouds 9 1017 70 10000 2.1 230 11:19 14.12.2019
2677 Clouds 7 1016 81 10000 1.5 270 10:56 14.12.2019
2678 Clouds 7 1016 81 10000 1.5 270 10:38 14.12.2019
2679 Clouds 7 1016 81 10000 1.5 270 10:19 14.12.2019
2680 Clouds 7 1016 81 10000 0.5 0 09:43 14.12.2019
2681 Clouds 7 1016 81 10000 0.5 0 09:23 14.12.2019
2682 Clouds 6 1016 87 10000 1.9 295 08:57 14.12.2019
2683 Clouds 6 1016 87 10000 1.9 295 08:38 14.12.2019
2684 Clear 6 1016 87 10000 2.34 291 08:19 14.12.2019
2685 Clear 8 1016 75 10000 0.5 0 07:40 14.12.2019
2686 Clear 8 1016 75 10000 0.5 0 07:20 14.12.2019
2687 Clear 8 1016 75 10000 2.1 290 06:45 14.12.2019
2688 Clear 8 1016 75 10000 2.1 290 06:22 14.12.2019
2689 Clear 9 1015 70 10000 2.1 260 05:35 14.12.2019
2690 Clear 9 1015 70 10000 2.1 290 03:34 14.12.2019
2691 Clear 11 1014 57 10000 2.1 260 02:23 14.12.2019
2692 Rain 12 1013 54 10000 2.6 250 01:44 14.12.2019
2693 Clouds 14 1012 50 10000 3.6 260 00:59 14.12.2019
2694 Clouds 14 1012 50 10000 3.6 260 00:40 14.12.2019
2695 Clouds 14 1012 50 10000 3.6 260 00:19 14.12.2019
2696 Clouds 15 1011 51 10000 4.6 270 23:41 13.12.2019
2697 Clouds 15 1011 51 10000 4.6 270 23:41 13.12.2019
2698 Rain 15 1011 51 10000 4.6 270 23:19 13.12.2019
2699 Rain 15 1011 58 10000 5.1 280 22:56 13.12.2019
2700 Rain 15 1011 58 10000 5.1 280 22:37 13.12.2019
2701 Rain 15 1011 58 10000 5.1 280 22:18 13.12.2019
2702 Rain 13 1011 76 10000 3.6 270 21:42 13.12.2019
2703 Rain 13 1011 76 10000 3.6 270 21:21 13.12.2019
2704 Rain 13 1010 76 7000 3.6 260 20:57 13.12.2019
2705 Rain 13 1010 76 7000 3.6 260 20:39 13.12.2019
2706 Rain 13 1010 76 7000 3.6 260 20:19 13.12.2019
2707 Rain 14 1010 62 7000 5.1 270 19:56 13.12.2019
2708 Rain 14 1010 62 7000 5.1 270 19:56 13.12.2019
2709 Rain 14 1010 62 7000 5.1 270 19:37 13.12.2019
2710 Rain 14 1010 62 7000 5.1 270 19:18 13.12.2019
2711 Rain 13 1010 71 9000 4.6 270 18:42 13.12.2019
2712 Rain 13 1010 71 9000 4.6 270 18:20 13.12.2019
2713 Rain 13 1010 71 9000 4.6 270 18:20 13.12.2019
2714 Rain 14 1010 58 8000 5.7 270 17:59 13.12.2019
2715 Rain 14 1010 58 8000 5.7 270 17:39 13.12.2019
2716 Rain 14 1010 58 8000 5.7 270 17:18 13.12.2019
2717 Rain 14 1010 58 8000 5.7 270 17:18 13.12.2019
2718 Clouds 13 1010 58 10000 5.7 270 16:55 13.12.2019
2719 Clouds 13 1010 58 10000 5.7 270 16:37 13.12.2019
2720 Clouds 13 1010 58 10000 5.7 270 16:18 13.12.2019
2721 Clouds 12 1010 62 10000 3.6 260 15:41 13.12.2019
2722 Clouds 12 1010 62 10000 3.6 260 15:21 13.12.2019
2723 Clouds 12 1011 62 10000 3.6 260 14:56 13.12.2019
2724 Clouds 12 1011 62 10000 3.6 260 14:36 13.12.2019
2725 Clouds 12 1011 62 10000 3.6 260 14:18 13.12.2019
2726 Rain 10 1011 76 10000 2.1 290 13:43 13.12.2019
2727 Rain 10 1011 76 10000 2.1 290 13:23 13.12.2019
2728 Rain 9 1011 87 10000 2.6 290 12:45 13.12.2019
2729 Rain 9 1011 87 10000 2.6 290 12:24 13.12.2019
2730 Rain 8 1011 93 10000 1 0 11:59 13.12.2019
2731 Rain 8 1011 93 10000 1 0 11:41 13.12.2019
2732 Rain 8 1011 93 10000 1 0 11:23 13.12.2019
2733 Rain 8 1012 93 10000 1 0 10:56 13.12.2019
2734 Rain 8 1012 93 10000 1 0 10:38 13.12.2019
2735 Rain 8 1012 93 10000 1 0 10:19 13.12.2019
2736 Rain 8 1012 93 10000 1.59 301 09:41 13.12.2019
2737 Rain 8 1012 93 10000 1.59 301 09:20 13.12.2019
2738 Rain 8 1012 93 10000 1.59 301 08:44 13.12.2019
2739 Rain 8 1012 93 10000 2 307 08:25 13.12.2019
2740 Rain 8 1013 93 10000 1 0 07:48 13.12.2019
2741 Rain 8 1013 93 10000 1 0 07:24 13.12.2019
2742 Rain 9 1014 87 10000 1.97 299 06:55 13.12.2019
2743 Rain 9 1014 87 10000 1.97 299 06:29 13.12.2019
2744 Clouds 9 1015 81 10000 1 0 05:51 13.12.2019
2745 Clouds 9 1015 81 10000 1 0 05:30 13.12.2019
2746 Clouds 10 1016 76 10000 0.5 0 04:46 13.12.2019
2747 Clouds 11 1016 66 10000 1 0 03:48 13.12.2019
2748 Clouds 11 1016 66 10000 1.77 277 02:34 13.12.2019
2749 Clouds 12 1016 58 10000 1.5 310 01:48 13.12.2019
2750 Clouds 12 1017 58 10000 2.1 240 00:57 13.12.2019
2751 Clouds 12 1017 58 10000 2.1 240 00:37 13.12.2019
2752 Clouds 13 1017 54 10000 2.6 250 23:59 12.12.2019
2753 Clouds 13 1017 54 10000 2.6 250 23:40 12.12.2019
2754 Clouds 13 1017 54 10000 2.6 250 23:22 12.12.2019
2755 Clouds 13 1018 50 10000 4.1 270 22:56 12.12.2019
2756 Clouds 13 1018 50 10000 4.1 270 22:56 12.12.2019
2757 Clouds 13 1018 50 10000 4.1 270 22:37 12.12.2019
2758 Clouds 13 1018 50 10000 4.1 270 22:19 12.12.2019
2759 Clouds 13 1018 50 10000 4.1 270 21:55 12.12.2019
2760 Clouds 13 1018 50 10000 4.1 270 21:36 12.12.2019
2761 Clouds 13 1018 50 10000 4.1 270 21:36 12.12.2019
2762 Clouds 13 1018 50 10000 4.1 270 21:18 12.12.2019
2763 Clouds 13 1018 50 10000 4.1 270 20:55 12.12.2019
2764 Clouds 13 1018 50 10000 4.1 270 20:37 12.12.2019
2765 Clouds 13 1018 50 10000 4.1 270 20:19 12.12.2019
2766 Clouds 14 1019 44 10000 4.6 270 19:42 12.12.2019
2767 -273 0 0 0 0 0 19:23 12.12.2019
2768 Clouds 14 1019 47 10000 3.1 260 18:58 12.12.2019
2769 Clouds 14 1019 47 10000 3.1 260 18:40 12.12.2019
2770 Clouds 14 1019 47 10000 3.1 260 18:20 12.12.2019
2771 Clouds 13 1017 45 0 4.33 271 17:57 12.12.2019
2772 Clouds 13 1017 45 0 4.33 271 17:39 12.12.2019
2773 Clear 13 1021 43 10000 3.1 270 17:20 12.12.2019
2774 Clear 13 1021 43 10000 3.1 270 16:57 12.12.2019
2775 Clear 13 1021 43 10000 3.1 270 16:39 12.12.2019
2776 Clear 13 1021 43 10000 3.1 270 16:20 12.12.2019
2777 Clear 12 1021 46 10000 3.6 270 15:56 12.12.2019
2778 Clear 12 1021 46 10000 3.6 270 15:38 12.12.2019
2779 Clear 12 1021 46 10000 3.6 270 15:18 12.12.2019
2780 Clouds 12 1021 46 10000 3.1 260 14:38 12.12.2019
2781 Clouds 12 1021 46 10000 3.1 260 14:20 12.12.2019
2782 Clouds 10 1022 57 10000 1.5 0 13:58 12.12.2019
2783 Clouds 10 1022 57 10000 1.5 0 13:39 12.12.2019
2784 Clouds 10 1022 57 10000 1.5 0 13:21 12.12.2019
2785 Clouds 10 1022 57 10000 1.5 0 13:21 12.12.2019
2786 Clouds 7 1022 70 10000 1.5 200 12:58 12.12.2019
2787 Clouds 7 1022 70 10000 1.5 200 12:40 12.12.2019
2788 Clouds 7 1022 70 10000 1.5 200 12:21 12.12.2019
2789 Clouds 6 1022 75 10000 1.5 250 11:56 12.12.2019
2790 Clouds 6 1022 75 10000 1.5 250 11:38 12.12.2019
2791 Clouds 6 1022 75 10000 1.5 250 11:19 12.12.2019
2792 Clouds 6 1022 70 10000 2.1 0 10:55 12.12.2019
2793 Clouds 6 1022 70 10000 2.1 0 10:55 12.12.2019
2794 Clouds 6 1022 70 10000 2.1 0 10:37 12.12.2019
2795 Clouds 6 1022 70 10000 2.1 0 10:19 12.12.2019
2796 Clouds 6 1022 70 10000 2.1 280 09:42 12.12.2019
2797 Clouds 6 1022 70 10000 2.1 280 09:24 12.12.2019
2798 Clouds 7 1022 65 10000 1 0 08:56 12.12.2019
2799 Clouds 7 1022 65 10000 1 0 08:38 12.12.2019
2800 Clear 7 1022 65 10000 1 0 08:20 12.12.2019
2801 Clear 8 1021 61 10000 3.1 240 07:43 12.12.2019
2802 Clear 8 1021 61 10000 3.1 240 07:24 12.12.2019
2803 Clear 8 1021 61 10000 3.6 240 06:50 12.12.2019
2804 Clear 8 1021 61 10000 3.6 240 06:32 12.12.2019
2805 Clear 8 1021 61 10000 4.1 250 05:39 12.12.2019
2806 Clear 8 1020 61 10000 2.6 250 04:52 12.12.2019
2807 Clear 8 1020 61 10000 3.6 270 03:24 12.12.2019
2808 Clear 8 1018 65 10000 3.6 260 02:38 12.12.2019
2809 Clouds 8 1018 65 10000 3.6 260 02:19 12.12.2019
2810 Clouds 9 1017 57 10000 3.6 260 01:37 12.12.2019
2811 Clouds 9 1017 57 10000 3.6 260 01:19 12.12.2019
2812 Clouds 10 1017 53 10000 4.6 260 00:46 12.12.2019
2813 Clouds 10 1017 53 10000 4.6 260 00:19 12.12.2019
2814 Clouds 10 1015 72 10000 7.7 270 23:44 11.12.2019
2815 Clouds 10 1015 61 10000 7.7 270 23:21 11.12.2019
2816 Clouds 10 1014 57 10000 8.2 270 22:57 11.12.2019
2817 Clouds 10 1014 57 10000 8.2 270 22:38 11.12.2019
2818 Clouds 10 1014 57 10000 8.2 270 22:19 11.12.2019
2819 Rain 10 1014 66 9000 5.1 260 21:57 11.12.2019
2820 Rain 10 1014 66 9000 5.1 260 21:37 11.12.2019
2821 Rain 10 1014 66 9000 5.1 260 21:19 11.12.2019
2822 Clouds 12 1013 50 10000 6.2 270 20:56 11.12.2019
2823 Clouds 12 1013 50 10000 6.2 270 20:56 11.12.2019
2824 Clouds 12 1013 50 10000 6.2 270 20:37 11.12.2019
2825 Clouds 12 1013 50 10000 6.2 270 20:19 11.12.2019
2826 Clouds 12 1012 46 10000 7.7 270 19:57 11.12.2019
2827 Clouds 12 1012 46 10000 7.7 270 19:38 11.12.2019
2828 Clouds 12 1012 46 10000 7.7 270 19:18 11.12.2019
2829 Clouds 14 1012 47 10000 6.2 270 18:40 11.12.2019
2830 Clouds 14 1012 47 10000 6.2 270 18:21 11.12.2019
2831 Clouds 13 1011 54 10000 6.7 270 17:57 11.12.2019
2832 Clouds 13 1011 54 10000 6.7 270 17:38 11.12.2019
2833 Clouds 13 1011 54 10000 6.7 270 17:18 11.12.2019
2834 Clouds 12 1011 62 10000 4.6 240 16:57 11.12.2019
2835 Clouds 12 1011 62 10000 4.6 240 16:38 11.12.2019
2836 Clouds 12 1011 62 10000 4.6 240 16:19 11.12.2019
2837 Rain 11 1011 71 9000 5.1 260 15:57 11.12.2019
2838 Rain 11 1011 71 9000 5.1 260 15:38 11.12.2019
2839 Rain 11 1011 71 9000 5.1 260 15:20 11.12.2019
2840 Rain 10 1010 71 8000 5.1 240 14:55 11.12.2019
2841 Rain 10 1010 71 8000 5.1 240 14:37 11.12.2019
2842 Rain 10 1010 71 8000 5.1 240 14:19 11.12.2019
2843 Rain 12 1009 54 9000 5.1 250 13:44 11.12.2019
2844 Rain 12 1009 54 9000 5.1 250 13:24 11.12.2019
2845 Clouds 11 1009 62 10000 3.6 250 12:59 11.12.2019
2846 Clouds 11 1009 62 10000 3.6 250 12:59 11.12.2019
2847 Clouds 11 1009 62 10000 3.6 250 12:40 11.12.2019
2848 Clouds 11 1009 62 10000 3.6 250 12:22 11.12.2019
2849 Clouds 11 1009 66 10000 4.1 250 11:58 11.12.2019
2850 Clouds 11 1009 66 10000 4.1 250 11:39 11.12.2019
2851 Clouds 11 1009 66 10000 4.1 250 11:39 11.12.2019
2852 Clouds 11 1009 66 10000 4.1 250 11:19 11.12.2019
2853 Clouds 10 1008 93 10000 2.6 270 10:59 11.12.2019
2854 Clouds 10 1008 93 10000 2.6 270 10:40 11.12.2019
2855 Clouds 10 1008 93 10000 2.6 270 10:21 11.12.2019
2856 Clouds 10 1008 93 10000 2.6 270 10:21 11.12.2019
2857 Rain 10 1008 93 10000 1 0 09:56 11.12.2019
2858 Rain 10 1008 93 10000 1 0 09:38 11.12.2019
2859 Rain 10 1008 93 10000 1 0 09:19 11.12.2019
2860 Rain 10 1008 93 10000 0.5 0 08:55 11.12.2019
2861 Rain 10 1008 93 10000 0.5 0 08:36 11.12.2019
2862 Rain 10 1008 93 10000 0.5 0 08:18 11.12.2019
2863 Rain 11 1008 81 10000 1 0 07:42 11.12.2019
2864 Rain 11 1008 81 10000 1 0 07:22 11.12.2019
2865 Rain 12 1009 76 10000 3.1 260 06:46 11.12.2019
2866 Rain 12 1009 76 10000 3.1 260 06:24 11.12.2019
2867 Rain 12 1010 76 10000 3.1 0 05:53 11.12.2019
2868 Rain 12 1010 76 10000 3.1 0 05:28 11.12.2019
2869 Rain 15 1009 58 10000 4.1 260 04:48 11.12.2019
2870 Clouds 15 1009 54 10000 5.1 250 03:19 11.12.2019
2871 Clouds 16 1010 51 10000 4.1 240 02:31 11.12.2019
2872 Clouds 16 1011 51 10000 4.6 250 01:21 11.12.2019
2873 Clouds 16 1011 51 10000 4.6 250 00:37 11.12.2019
2874 Clouds 16 1011 51 10000 4.6 250 00:18 11.12.2019
2875 Clouds 17 1012 55 10000 4.1 260 23:43 10.12.2019
2876 Clouds 17 1012 55 10000 4.1 260 23:22 10.12.2019
2877 Clouds 17 1012 55 10000 4.6 260 22:42 10.12.2019
2878 Clouds 17 1012 55 10000 4.6 260 22:24 10.12.2019
2879 Rain 17 1012 55 10000 4.6 250 21:58 10.12.2019
2880 Rain 17 1012 55 10000 4.6 250 21:39 10.12.2019
2881 Rain 17 1012 55 10000 4.6 250 21:21 10.12.2019
2882 Rain 18 1012 52 10000 5.7 260 20:58 10.12.2019
2883 Rain 18 1012 52 10000 5.7 260 20:38 10.12.2019
2884 Rain 18 1012 52 10000 5.7 260 20:19 10.12.2019
2885 Rain 18 1012 52 10000 5.7 260 20:19 10.12.2019
2886 Rain 18 1012 52 10000 5.7 260 20:19 10.12.2019
2887 Rain 18 1012 52 10000 5.7 260 20:19 10.12.2019
2888 Clouds 19 1013 52 10000 3.6 260 19:56 10.12.2019
2889 Clouds 19 1013 52 10000 3.6 260 19:37 10.12.2019
2890 Clouds 19 1013 52 10000 3.6 260 19:19 10.12.2019
2891 Clouds 17 1013 55 10000 3.6 270 18:42 10.12.2019
2892 Clouds 17 1013 55 10000 3.6 270 18:21 10.12.2019
2893 Clouds 17 1014 55 10000 4.1 270 17:59 10.12.2019
2894 Clouds 17 1014 55 10000 4.1 270 17:41 10.12.2019
2895 Clouds 17 1014 55 10000 4.1 270 17:22 10.12.2019
2896 Clouds 16 1014 55 10000 3.1 250 16:55 10.12.2019
2897 Clouds 16 1014 55 10000 3.1 250 16:36 10.12.2019
2898 Clouds 16 1014 55 10000 3.1 250 16:18 10.12.2019
2899 Clouds 16 1015 59 10000 2.1 0 15:38 10.12.2019
2900 Clouds 16 1015 59 10000 2.1 0 15:38 10.12.2019
2901 Clouds 16 1015 59 10000 2.1 0 15:18 10.12.2019
2902 Clouds 14 1015 62 10000 1 0 14:56 10.12.2019
2903 Clouds 14 1015 62 10000 1 0 14:38 10.12.2019
2904 Clouds 14 1015 62 10000 1 0 14:19 10.12.2019
2905 Clouds 14 1015 58 10000 2.1 0 13:57 10.12.2019
2906 Clouds 14 1015 58 10000 2.1 0 13:38 10.12.2019
2907 Clouds 14 1015 58 10000 2.1 0 13:19 10.12.2019
2908 Clouds 14 1015 58 10000 2.1 240 12:47 10.12.2019
2909 Clouds 14 1015 58 10000 2.1 240 12:27 10.12.2019
2910 Clouds 14 1015 58 10000 4.1 250 11:55 10.12.2019
2911 Clouds 14 1015 58 10000 4.1 250 11:36 10.12.2019
2912 Clouds 14 1015 58 10000 4.1 250 11:18 10.12.2019
2913 Clouds 14 1014 58 10000 3.6 250 10:42 10.12.2019
2914 Clouds 14 1014 58 10000 3.6 250 10:23 10.12.2019
2915 Clouds 14 1014 58 10000 4.1 250 09:57 10.12.2019
2916 Clouds 14 1014 58 10000 4.1 250 09:38 10.12.2019
2917 Clouds 14 1014 58 10000 4.1 250 09:38 10.12.2019
2918 Clouds 14 1014 58 10000 4.1 250 09:20 10.12.2019
2919 Clouds 14 1014 58 10000 3.6 260 08:57 10.12.2019
2920 Clouds 14 1014 58 10000 3.6 260 08:38 10.12.2019
2921 Clouds 14 1014 58 10000 3.6 260 08:19 10.12.2019
2922 Clouds 14 1014 58 10000 3.6 260 08:19 10.12.2019
2923 Clouds 14 1014 58 10000 4.1 250 07:44 10.12.2019
2924 Clouds 14 1014 58 10000 4.1 250 07:26 10.12.2019
2925 Clouds 15 1015 51 10000 3.1 260 06:49 10.12.2019
2926 Clouds 15 1015 51 10000 3.1 260 06:24 10.12.2019
2927 Clouds 15 1015 51 10000 4.1 260 05:55 10.12.2019
2928 Clouds 15 1015 47 10000 3.6 260 04:58 10.12.2019
2929 Clouds 15 1015 51 10000 4.1 270 03:40 10.12.2019
2930 Clouds 15 1015 51 10000 4.6 260 02:47 10.12.2019
2931 Clouds 16 1014 48 10000 4.1 270 01:50 10.12.2019
2932 Clouds 16 1014 48 10000 4.1 270 01:25 10.12.2019
2933 Clouds 16 1014 48 10000 5.1 280 00:43 10.12.2019
2934 Clouds 16 1014 48 10000 5.1 280 00:24 10.12.2019
2935 Clouds 18 1013 45 10000 4.6 280 23:43 09.12.2019
2936 Clouds 18 1013 45 10000 4.6 280 23:24 09.12.2019
2937 Clouds 18 1013 45 10000 6.2 270 22:58 09.12.2019
2938 Clouds 18 1013 45 10000 6.2 270 22:58 09.12.2019
2939 Clouds 18 1013 45 10000 6.2 270 22:40 09.12.2019
2940 Clouds 18 1013 45 10000 6.2 270 22:20 09.12.2019
2941 Clouds 19 1013 42 10000 6.2 270 21:57 09.12.2019
2942 Clouds 19 1013 42 10000 6.2 270 21:39 09.12.2019
2943 Clouds 19 1013 42 10000 6.2 270 21:39 09.12.2019
2944 Clouds 19 1013 42 10000 6.2 270 21:19 09.12.2019
2945 Clouds 19 1013 42 10000 6.7 270 20:57 09.12.2019
2946 Clouds 19 1013 42 10000 6.7 270 20:57 09.12.2019
2947 Clouds 19 1013 42 10000 6.7 270 20:39 09.12.2019
2948 Clouds 19 1013 42 10000 6.7 270 20:20 09.12.2019
2949 Clouds 19 1013 42 10000 6.2 270 19:56 09.12.2019
2950 Clouds 19 1013 42 10000 6.2 270 19:38 09.12.2019
2951 Clouds 19 1013 42 10000 6.2 270 19:19 09.12.2019
2952 Clouds 19 1013 42 10000 6.2 270 18:56 09.12.2019
2953 Clouds 19 1013 42 10000 6.2 270 18:38 09.12.2019
2954 Clouds 19 1013 42 10000 6.2 270 18:19 09.12.2019
2955 Clouds 18 1013 45 10000 5.1 290 17:57 09.12.2019
2956 Clouds 18 1013 45 10000 5.1 290 17:39 09.12.2019
2957 Clouds 18 1013 45 10000 5.1 290 17:20 09.12.2019
2958 Clouds 18 1013 48 10000 6.2 290 16:56 09.12.2019
2959 Clouds 18 1013 48 10000 6.2 290 16:37 09.12.2019
2960 Clouds 18 1013 48 10000 6.2 290 16:19 09.12.2019
2961 Clouds 17 1014 48 10000 4.6 270 15:55 09.12.2019
2962 Clouds 17 1014 48 10000 4.6 270 15:54 09.12.2019
2963 Clouds 17 1014 48 10000 4.6 270 15:36 09.12.2019
2964 Clouds 17 1014 48 10000 4.6 270 15:18 09.12.2019
2965 Clouds 16 1014 55 10000 2.1 0 14:41 09.12.2019
2966 Clouds 16 1014 55 10000 2.1 0 14:18 09.12.2019
2967 Clouds 14 1014 58 10000 2.6 0 13:56 09.12.2019
2968 Clouds 14 1014 58 10000 2.6 0 13:38 09.12.2019
2969 Clouds 14 1014 58 10000 2.6 0 13:19 09.12.2019
2970 Clouds 12 1015 66 10000 1.5 250 12:55 09.12.2019
2971 Clouds 12 1015 66 10000 1.5 250 12:37 09.12.2019
2972 Clouds 12 1015 66 10000 1.5 250 12:18 09.12.2019
2973 Clouds 10 1015 76 10000 2.1 300 11:41 09.12.2019
2974 Clouds 10 1015 76 10000 2.1 300 11:22 09.12.2019
2975 Clouds 10 1015 76 10000 2.1 300 11:22 09.12.2019
2976 Clouds 10 1014 76 10000 1 0 10:59 09.12.2019
2977 Clouds 10 1014 76 10000 1 0 10:39 09.12.2019
2978 Clouds 10 1014 76 10000 1 0 10:19 09.12.2019
2979 Clouds 10 1014 76 10000 1 0 09:55 09.12.2019
2980 Clouds 10 1014 76 10000 1 0 09:36 09.12.2019
2981 Clouds 10 1014 76 10000 1 0 09:18 09.12.2019
2982 Clouds 11 1015 66 10000 1.5 270 08:40 09.12.2019
2983 Clouds 11 1015 66 10000 1.5 270 08:22 09.12.2019
2984 Clouds 12 1015 66 10000 2.1 290 07:52 09.12.2019
2985 Clouds 12 1015 66 10000 2.1 290 07:34 09.12.2019
2986 Clouds 12 1016 62 10000 2.1 270 06:58 09.12.2019
2987 Clouds 12 1016 62 10000 2.1 270 06:31 09.12.2019
2988 Clouds 12 1016 62 10000 0.5 0 05:48 09.12.2019
2989 Clouds 12 1016 62 10000 0.5 0 05:48 09.12.2019
2990 Clouds 12 1016 62 10000 0.5 0 05:23 09.12.2019
2991 Clouds 15 1016 44 10000 1.5 0 04:28 09.12.2019
2992 Clouds 17 1016 39 10000 2.6 270 02:35 09.12.2019
2993 Clear 18 1015 39 10000 3.1 270 01:47 09.12.2019
2994 Clear 20 1015 37 10000 5.7 270 00:58 09.12.2019
2995 Clear 20 1015 37 10000 5.7 270 00:33 09.12.2019
2996 Clear 21 1014 35 10000 5.7 270 23:55 08.12.2019
2997 Clear 21 1014 35 10000 5.7 270 23:37 08.12.2019
2998 Clear 21 1014 35 10000 5.7 270 23:19 08.12.2019
2999 Clear 22 1014 33 10000 5.7 270 22:56 08.12.2019
3000 Clear 22 1014 33 10000 5.7 270 22:38 08.12.2019
3001 Clear 22 1014 33 10000 5.7 270 22:18 08.12.2019
3002 Clear 22 1014 35 10000 5.7 280 21:56 08.12.2019
3003 Clear 22 1014 35 10000 5.7 280 21:37 08.12.2019
3004 Clear 22 1014 35 10000 5.7 280 21:19 08.12.2019
3005 Clear 23 1014 35 10000 5.1 270 20:55 08.12.2019
3006 Clear 23 1014 35 10000 5.1 270 20:37 08.12.2019
3007 Clear 23 1014 35 10000 5.1 270 20:18 08.12.2019
3008 Clear 22 1014 37 10000 4.1 280 19:55 08.12.2019
3009 Clear 22 1014 37 10000 4.1 280 19:36 08.12.2019
3010 Clear 22 1014 37 10000 4.1 280 19:18 08.12.2019
3011 Clear 21 1015 37 10000 3.1 0 18:54 08.12.2019
3012 Clear 21 1015 37 10000 3.1 0 18:36 08.12.2019
3013 Clear 21 1015 37 10000 3.1 0 18:18 08.12.2019
3014 Clear 21 1016 37 10000 2.6 0 17:54 08.12.2019
3015 Clear 21 1016 37 10000 2.6 0 17:36 08.12.2019
3016 Clear 21 1016 37 10000 2.6 0 17:18 08.12.2019
3017 Clear 20 1016 49 10000 2.1 280 16:42 08.12.2019
3018 Clear 20 1016 49 10000 2.1 280 16:23 08.12.2019
3019 Clear 17 1017 55 10000 1.5 0 15:58 08.12.2019
3020 Clear 17 1017 55 10000 1.5 0 15:37 08.12.2019
3021 Clear 17 1017 55 10000 1.5 0 15:18 08.12.2019
3022 Clear 16 1017 59 10000 1 0 14:46 08.12.2019
3023 Clear 16 1017 59 10000 1 0 14:25 08.12.2019
3024 Clouds 13 1018 71 10000 1.5 230 13:59 08.12.2019
3025 Clouds 13 1018 71 10000 1.5 230 13:40 08.12.2019
3026 Clouds 13 1018 71 10000 1.5 230 13:22 08.12.2019
3027 Clouds 11 1019 81 10000 1.5 230 12:58 08.12.2019
3028 Clouds 11 1019 81 10000 1.5 230 12:58 08.12.2019
3029 Clouds 11 1019 81 10000 1.5 230 12:38 08.12.2019
3030 Clouds 11 1019 81 10000 1.5 230 12:19 08.12.2019
3031 Clouds 9 1018 87 10000 1.5 270 11:57 08.12.2019
3032 Clouds 9 1018 87 10000 1.5 270 11:37 08.12.2019
3033 Clouds 9 1018 87 10000 1.5 270 11:19 08.12.2019
3034 Clouds 10 1018 81 10000 1.5 300 10:40 08.12.2019
3035 Clouds 10 1018 81 10000 1.5 300 10:22 08.12.2019
3036 Clouds 10 1018 81 10000 0.5 290 09:58 08.12.2019
3037 Clouds 10 1018 81 10000 0.5 290 09:40 08.12.2019
3038 Clouds 10 1018 81 10000 0.5 290 09:21 08.12.2019
3039 Clouds 11 1018 76 10000 1 0 08:59 08.12.2019
3040 Clouds 11 1018 76 10000 1 0 08:41 08.12.2019
3041 Clouds 11 1018 76 10000 1 0 08:22 08.12.2019
3042 Clouds 11 1018 81 10000 1.5 270 07:49 08.12.2019
3043 Clouds 11 1018 81 10000 1.5 270 07:21 08.12.2019
3044 Clouds 12 1018 76 10000 0.5 0 06:53 08.12.2019
3045 Clouds 12 1018 76 10000 0.5 0 06:23 08.12.2019
3046 Clouds 14 1018 62 10000 1 0 05:58 08.12.2019
3047 Clouds 14 1018 62 10000 1 0 05:20 08.12.2019
3048 Clouds 17 1018 51 10000 2.1 290 03:55 08.12.2019
3049 Clouds 17 1018 51 10000 2.1 290 03:37 08.12.2019
3050 Clouds 17 1017 51 10000 2.1 310 02:40 08.12.2019
3051 Clouds 19 1016 45 10000 3.1 260 01:57 08.12.2019
3052 Clouds 19 1016 45 10000 3.1 260 01:33 08.12.2019
3053 Clouds 20 1016 40 10000 3.6 270 00:43 08.12.2019
3054 Clouds 20 1016 40 10000 3.6 270 00:21 08.12.2019
3055 Clouds 22 1015 33 10000 3.1 290 23:55 07.12.2019
3056 Clouds 22 1015 33 10000 3.1 290 23:36 07.12.2019
3057 Clear 22 1015 33 10000 3.1 290 23:18 07.12.2019
3058 Clear 22 1015 33 10000 3.6 0 22:54 07.12.2019
3059 Clear 22 1015 33 10000 3.6 0 22:54 07.12.2019
3060 Clear 22 1015 33 10000 3.6 0 22:36 07.12.2019
3061 Clear 22 1015 33 10000 3.6 0 22:18 07.12.2019
3062 Clear 23 1015 31 10000 2.1 0 21:54 07.12.2019
3063 Clear 23 1015 31 10000 2.1 0 21:36 07.12.2019
3064 Clear 23 1015 31 10000 2.1 0 21:18 07.12.2019
3065 Clear 23 1016 31 10000 2.6 0 20:37 07.12.2019
3066 Clear 23 1016 31 10000 2.6 0 20:19 07.12.2019
3067 Clear 22 1016 30 10000 2.6 0 19:56 07.12.2019
3068 Clear 22 1016 30 10000 2.6 0 19:38 07.12.2019
3069 Clear 22 1016 30 10000 2.6 0 19:20 07.12.2019
3070 Clear 21 1017 32 10000 2.1 0 18:44 07.12.2019
3071 Clear 21 1017 32 10000 2.1 0 18:21 07.12.2019
3072 Clear 20 1017 45 10000 2.6 280 17:59 07.12.2019
3073 Clear 20 1017 45 10000 2.6 280 17:41 07.12.2019
3074 Clear 20 1017 45 10000 2.6 280 17:23 07.12.2019
3075 Clear 18 1018 52 10000 2.1 0 16:58 07.12.2019
3076 Clear 18 1018 52 10000 2.1 0 16:39 07.12.2019
3077 Clear 18 1018 52 10000 2.1 0 16:20 07.12.2019
3078 Clear 15 1018 62 10000 2.6 300 15:57 07.12.2019
3079 Clear 15 1018 62 10000 2.6 300 15:57 07.12.2019
3080 Clear 15 1018 62 10000 2.6 300 15:38 07.12.2019
3081 Clear 15 1018 62 10000 2.6 300 15:20 07.12.2019
3082 Clear 13 1019 71 10000 1.5 0 14:42 07.12.2019
3083 Clouds 13 1019 71 10000 1.5 0 14:19 07.12.2019
3084 Clouds 11 1019 76 10000 2.1 290 13:56 07.12.2019
3085 Clouds 11 1019 76 10000 2.1 290 13:56 07.12.2019
3086 Clouds 11 1019 76 10000 2.1 290 13:37 07.12.2019
3087 Clouds 11 1019 76 10000 2.1 290 13:19 07.12.2019
3088 Clouds 10 1020 81 10000 2.1 280 12:41 07.12.2019
3089 Clouds 10 1020 81 10000 2.1 280 12:23 07.12.2019
3090 Clouds 8 1019 87 10000 1.5 290 11:58 07.12.2019
3091 Clouds 8 1019 87 10000 1.5 290 11:40 07.12.2019
3092 Clouds 8 1019 87 10000 1.5 290 11:22 07.12.2019
3093 Clouds 8 1019 87 10000 1 0 10:39 07.12.2019
3094 Clouds 8 1019 87 10000 1 0 10:39 07.12.2019
3095 Clouds 8 1019 87 10000 1 0 10:20 07.12.2019
3096 Clouds 9 1019 87 10000 1.5 300 09:58 07.12.2019
3097 Clouds 9 1019 87 10000 1.5 300 09:38 07.12.2019
3098 Clouds 9 1019 87 10000 1.5 300 09:19 07.12.2019
3099 Clouds 9 1019 87 10000 1 0 08:43 07.12.2019
3100 Clouds 9 1019 87 10000 1 0 08:21 07.12.2019
3101 Clouds 10 1019 81 10000 1.5 290 07:47 07.12.2019
3102 Clouds 10 1019 81 10000 1.5 290 07:27 07.12.2019
3103 Clouds 11 1019 76 10000 2.1 270 06:51 07.12.2019
3104 Clouds 11 1019 76 10000 2.1 270 06:25 07.12.2019
3105 Clouds 12 1019 71 10000 2.1 280 05:38 07.12.2019
3106 Clouds 13 1019 66 10000 1.5 270 04:19 07.12.2019
3107 Clouds 14 1019 62 10000 2.1 290 03:47 07.12.2019
3108 Clear 16 1019 55 10000 1.5 300 02:22 07.12.2019
3109 Clear 18 1018 48 10000 2.6 310 01:35 07.12.2019
3110 Clear 20 1017 40 10000 2.6 290 00:57 07.12.2019
3111 Clear 20 1017 40 10000 2.6 290 00:21 07.12.2019
3112 Clear 22 1017 33 10000 3.6 280 23:56 06.12.2019
3113 Clear 22 1017 33 10000 3.6 280 23:38 06.12.2019
3114 Clear 22 1017 33 10000 3.6 280 23:18 06.12.2019
3115 Clear 19 1015 46 0 3.87 251 22:39 06.12.2019
3116 Clear 19 1015 46 0 3.87 251 22:20 06.12.2019
3117 Clear 19 1015 46 0 3.87 251 21:58 06.12.2019
3118 Clear 19 1015 46 0 3.87 251 21:39 06.12.2019
3119 Clear 23 1017 28 10000 2.1 0 21:20 06.12.2019
3120 Clear 23 1017 28 10000 2.1 0 20:43 06.12.2019
3121 Clear 23 1017 28 10000 2.1 0 20:25 06.12.2019
3122 Clouds 21 1018 32 10000 2.1 0 19:59 06.12.2019
3123 Clouds 21 1018 32 10000 2.1 0 19:40 06.12.2019
3124 Clouds 21 1018 32 10000 2.1 0 19:22 06.12.2019
3125 Clouds 21 1018 32 10000 2.1 0 19:22 06.12.2019
3126 Clouds 21 1018 32 10000 2.1 0 19:22 06.12.2019
3127 Clouds 21 1018 32 10000 1.5 0 18:57 06.12.2019
3128 Clouds 21 1018 32 10000 1.5 0 18:39 06.12.2019
3129 Clouds 21 1018 32 10000 1.5 0 18:19 06.12.2019
3130 Clouds 21 1018 32 10000 1.5 0 18:19 06.12.2019
3131 Clouds 20 1019 37 10000 1.5 0 17:56 06.12.2019
3132 Clouds 20 1019 37 10000 1.5 0 17:37 06.12.2019
3133 Clouds 20 1019 37 10000 1.5 0 17:19 06.12.2019
3134 Clouds 18 1019 45 10000 3.1 290 16:43 06.12.2019
3135 Clouds 18 1019 45 10000 3.1 290 16:24 06.12.2019
3136 Clouds 15 1020 54 10000 3.1 300 15:59 06.12.2019
3137 Clouds 15 1020 54 10000 3.1 300 15:40 06.12.2019
3138 Clouds 15 1020 54 10000 3.1 300 15:18 06.12.2019
3139 Clouds 13 1021 62 10000 2.6 300 14:56 06.12.2019
3140 Clouds 13 1021 62 10000 2.6 300 14:37 06.12.2019
3141 Clouds 13 1021 62 10000 2.6 300 14:18 06.12.2019
3142 Clouds 11 1021 71 10000 2.6 280 13:42 06.12.2019
3143 Clear 11 1021 71 10000 2.6 280 13:24 06.12.2019
3144 Clear 9 1022 81 10000 1.5 270 12:42 06.12.2019
3145 Clear 9 1022 81 10000 1.5 270 12:22 06.12.2019
3146 Clear 7 1022 87 10000 1.5 260 11:57 06.12.2019
3147 Clear 7 1022 87 10000 1.5 260 11:39 06.12.2019
3148 Clear 7 1022 87 10000 1.5 260 11:19 06.12.2019
3149 Clear 7 1021 87 10000 2.1 300 10:43 06.12.2019
3150 Clear 7 1021 87 10000 2.1 300 10:21 06.12.2019
3151 Clear 8 1021 81 10000 1.5 290 09:58 06.12.2019
3152 Clear 8 1021 81 10000 1.5 290 09:37 06.12.2019
3153 Clear 8 1021 81 10000 1.5 290 09:19 06.12.2019
3154 Clear 9 1021 76 10000 1.5 260 08:45 06.12.2019
3155 Clear 9 1021 76 10000 1.5 260 08:26 06.12.2019
3156 Clouds 9 1021 81 10000 1.5 290 07:44 06.12.2019
3157 Clouds 9 1021 81 10000 1.5 290 07:24 06.12.2019
3158 Clouds 10 1021 71 10000 1.5 270 06:58 06.12.2019
3159 Clouds 10 1021 71 10000 1.5 270 06:26 06.12.2019
3160 Clouds 10 1022 76 10000 1 0 05:52 06.12.2019
3161 Clouds 12 1022 66 10000 2.1 300 04:52 06.12.2019
3162 Clouds 15 1021 51 10000 2.1 280 02:19 06.12.2019
3163 Clouds 16 1020 48 10000 3.1 310 01:22 06.12.2019
3164 Clouds 17 1020 42 10000 3.6 300 00:39 06.12.2019
3165 Clouds 17 1020 42 10000 3.6 300 00:20 06.12.2019
3166 Clouds 18 1019 39 10000 4.1 290 23:38 05.12.2019
3167 Clouds 18 1019 39 10000 4.1 290 23:18 05.12.2019
3168 Clouds 19 1018 37 10000 3.6 0 22:55 05.12.2019
3169 Clouds 19 1018 37 10000 3.6 0 22:37 05.12.2019
3170 Clouds 19 1018 37 10000 3.6 0 22:18 05.12.2019
3171 Clouds 20 1018 34 10000 3.6 270 21:42 05.12.2019
3172 Clouds 20 1018 34 10000 3.6 270 21:24 05.12.2019
3173 Clouds 16 1016 57 0 4.33 274 20:59 05.12.2019
3174 Clouds 16 1016 57 0 4.33 274 20:40 05.12.2019
3175 Clouds 16 1016 57 0 4.33 274 20:40 05.12.2019
3176 Clouds 21 1018 32 10000 3.1 0 20:20 05.12.2019
3177 Clouds 21 1018 32 10000 3.1 0 19:44 05.12.2019
3178 Clouds 21 1018 32 10000 3.1 0 19:26 05.12.2019
3179 Clouds 20 1018 34 10000 2.6 0 18:59 05.12.2019
3180 Clouds 20 1018 34 10000 2.6 0 18:39 05.12.2019
3181 Clouds 20 1018 34 10000 2.6 0 18:21 05.12.2019
3182 Clouds 19 1018 34 10000 2.1 0 17:59 05.12.2019
3183 Clouds 19 1018 34 10000 2.1 0 17:38 05.12.2019
3184 Clouds 19 1018 34 10000 2.1 0 17:18 05.12.2019
3185 Clouds 18 1019 39 10000 1 0 16:54 05.12.2019
3186 Clouds 18 1019 39 10000 1 0 16:54 05.12.2019
3187 Clouds 18 1019 39 10000 1 0 16:36 05.12.2019
3188 Clouds 18 1019 39 10000 1 0 16:18 05.12.2019
3189 Clouds 17 1019 45 10000 1.5 0 15:40 05.12.2019
3190 Clouds 17 1019 45 10000 1.5 0 15:21 05.12.2019
3191 Clouds 15 1020 51 10000 2.1 230 14:57 05.12.2019
3192 Clouds 15 1020 51 10000 2.1 230 14:39 05.12.2019
3193 Clouds 15 1020 51 10000 2.1 230 14:20 05.12.2019
3194 Clouds 13 1021 62 10000 2.6 290 13:59 05.12.2019
3195 Clouds 13 1021 62 10000 2.6 290 13:40 05.12.2019
3196 Clouds 13 1021 62 10000 2.6 290 13:21 05.12.2019
3197 Clouds 11 1021 71 10000 1 0 12:59 05.12.2019
3198 Clouds 11 1021 71 10000 1 0 12:40 05.12.2019
3199 Clouds 11 1021 71 10000 1 0 12:21 05.12.2019
3200 Clouds 9 1021 76 10000 1.5 280 11:41 05.12.2019
3201 Clouds 9 1021 76 10000 1.5 280 11:23 05.12.2019
3202 Clouds 9 1021 76 10000 1.5 280 11:23 05.12.2019
3203 Clear 9 1021 76 10000 1 0 10:59 05.12.2019
3204 Clear 9 1021 76 10000 1 0 10:41 05.12.2019
3205 Clear 9 1021 76 10000 1 0 10:19 05.12.2019
3206 Clear 10 1021 71 10000 1 0 09:57 05.12.2019
3207 Clear 10 1021 71 10000 1 0 09:39 05.12.2019
3208 Clear 10 1021 71 10000 1 0 09:20 05.12.2019
3209 Clear 12 1021 62 10000 2.1 300 08:56 05.12.2019
3210 Clear 12 1021 62 10000 2.1 300 08:37 05.12.2019
3211 Clouds 12 1021 62 10000 2.1 300 08:19 05.12.2019
3212 Clouds 12 1021 62 10000 2.1 300 08:19 05.12.2019
3213 Clouds 13 1021 58 10000 1.5 260 07:41 05.12.2019
3214 Clouds 13 1021 58 10000 1.5 260 07:22 05.12.2019
3215 Clouds 14 1021 54 10000 2.1 290 06:48 05.12.2019
3216 Clouds 14 1021 54 10000 2.1 290 06:24 05.12.2019
3217 Clouds 14 1021 50 10000 2.6 280 05:54 05.12.2019
3218 Clouds 14 1021 50 10000 2.6 280 05:24 05.12.2019
3219 Clouds 15 1021 47 10000 2.1 300 04:40 05.12.2019
3220 Clouds 16 1021 48 10000 3.1 310 03:40 05.12.2019
3221 Clouds 16 1020 41 10000 3.1 240 02:42 05.12.2019
3222 Clouds 16 1020 41 10000 3.1 240 02:22 05.12.2019
3223 Clouds 17 1020 42 10000 2.6 250 01:50 05.12.2019
3224 Clouds 17 1020 42 10000 2.6 250 01:50 05.12.2019
3225 Clouds 17 1020 42 10000 2.6 250 01:23 05.12.2019
3226 Clouds 18 1019 36 10000 3.6 290 00:43 05.12.2019
3227 Clouds 18 1019 36 10000 3.6 290 00:20 05.12.2019
3228 Clouds 20 1019 32 10000 4.1 290 23:46 04.12.2019
3229 Clouds 20 1019 32 10000 4.1 290 23:22 04.12.2019
3230 Clouds 21 1019 30 10000 3.6 0 22:59 04.12.2019
3231 Clouds 21 1019 30 10000 3.6 0 22:38 04.12.2019
3232 Clouds 21 1019 30 10000 3.6 0 22:19 04.12.2019
3233 Clouds 22 1018 28 10000 2.1 0 21:56 04.12.2019
3234 Clouds 22 1018 28 10000 2.1 0 21:56 04.12.2019
3235 Clouds 22 1018 28 10000 2.1 0 21:37 04.12.2019
3236 Clouds 22 1018 28 10000 2.1 0 21:18 04.12.2019
3237 Clouds 22 1019 30 10000 2.6 0 20:56 04.12.2019
3238 Clouds 22 1019 30 10000 2.6 0 20:38 04.12.2019
3239 Clouds 22 1019 30 10000 2.6 0 20:19 04.12.2019
3240 Clouds 22 1019 33 10000 2.6 0 19:41 04.12.2019
3241 Clouds 22 1019 33 10000 2.6 0 19:22 04.12.2019
3242 Clouds 21 1019 32 10000 2.1 0 18:59 04.12.2019
3243 Clouds 21 1019 32 10000 2.1 0 18:41 04.12.2019
3244 Clouds 21 1019 32 10000 2.1 0 18:22 04.12.2019
3245 Clouds 20 1021 32 10000 2.1 0 17:58 04.12.2019
3246 Clouds 20 1021 32 10000 2.1 0 17:39 04.12.2019
3247 Clouds 20 1021 32 10000 2.1 0 17:18 04.12.2019
3248 Clouds 18 1021 45 10000 2.6 300 16:41 04.12.2019
3249 Clouds 18 1021 45 10000 2.6 300 16:21 04.12.2019
3250 Clouds 15 1022 58 10000 1.5 260 15:59 04.12.2019
3251 Clouds 15 1022 58 10000 1.5 260 15:41 04.12.2019
3252 Clouds 15 1022 58 10000 1.5 260 15:21 04.12.2019
3253 Clouds 13 1023 62 10000 1.5 220 14:59 04.12.2019
3254 Clouds 13 1023 62 10000 1.5 220 14:41 04.12.2019
3255 Clear 13 1023 62 10000 1.5 220 14:21 04.12.2019
3256 Clear 10 1024 76 10000 1.5 230 13:56 04.12.2019
3257 Clear 10 1024 76 10000 1.5 230 13:36 04.12.2019
3258 Clear 10 1024 76 10000 1.5 230 13:18 04.12.2019
3259 Clear 7 1024 87 10000 1 0 12:41 04.12.2019
3260 Clear 7 1024 87 10000 1 0 12:23 04.12.2019
3261 Clear 5 1024 93 10000 1 0 11:44 04.12.2019
3262 Clear 5 1024 93 10000 1 0 11:25 04.12.2019
3263 Clear 5 1024 93 10000 1 0 10:58 04.12.2019
3264 Clear 5 1024 93 10000 1 0 10:39 04.12.2019
3265 Clear 5 1024 93 10000 1 0 10:21 04.12.2019
3266 Clear 5 1024 93 10000 0.5 290 09:43 04.12.2019
3267 Clear 5 1024 93 10000 0.5 290 09:23 04.12.2019
3268 Clear 6 1024 87 10000 0.5 0 08:44 04.12.2019
3269 Clear 6 1024 87 10000 0.5 0 08:44 04.12.2019
3270 Clear 6 1024 87 10000 0.5 0 08:25 04.12.2019
3271 Clear 7 1024 81 10000 1 0 07:51 04.12.2019
3272 Clear 7 1024 81 10000 1 0 07:31 04.12.2019
3273 Clear 8 1024 81 10000 1 0 06:59 04.12.2019
3274 Clear 8 1024 81 10000 1 0 06:31 04.12.2019
3275 Clear 8 1024 75 10000 1 0 05:46 04.12.2019
3276 Clear 9 1024 76 10000 1 0 04:34 04.12.2019
3277 Clear 10 1023 71 10000 1 0 03:51 04.12.2019
3278 Clear 15 1022 47 10000 1 0 01:49 04.12.2019
3279 Clouds 17 1021 36 10000 2.6 280 00:48 04.12.2019
3280 Clouds 17 1021 36 10000 2.6 280 00:22 04.12.2019
3281 Clouds 18 1020 34 10000 2.1 0 23:43 03.12.2019
3282 Clouds 18 1020 34 10000 2.1 0 23:43 03.12.2019
3283 Clear 18 1020 34 10000 2.1 0 23:20 03.12.2019
3284 Clear 18 1020 31 10000 2.1 0 22:59 03.12.2019
3285 Clear 18 1020 31 10000 2.1 0 22:38 03.12.2019
3286 Clear 18 1020 31 10000 2.1 0 22:38 03.12.2019
3287 Clear 18 1020 31 10000 2.1 0 22:18 03.12.2019
3288 Clear 17 1020 33 10000 2.1 0 21:56 03.12.2019
3289 Clear 17 1020 33 10000 2.1 0 21:37 03.12.2019
3290 Clear 17 1020 33 10000 2.1 0 21:18 03.12.2019
3291 Clear 18 1020 31 10000 1.5 0 20:41 03.12.2019
3292 Clear 18 1020 31 10000 1.5 0 20:20 03.12.2019
3293 Clear 17 1020 38 10000 2.1 0 19:57 03.12.2019
3294 Clear 17 1020 38 10000 2.1 0 19:38 03.12.2019
3295 Clear 17 1020 38 10000 2.1 0 19:20 03.12.2019
3296 Clear 16 1020 38 10000 2.1 0 18:58 03.12.2019
3297 Clear 16 1020 38 10000 2.1 0 18:40 03.12.2019
3298 Clear 16 1020 38 10000 2.1 0 18:21 03.12.2019
3299 Clouds 15 1021 38 10000 3.6 290 17:57 03.12.2019
3300 Clouds 15 1021 38 10000 3.6 290 17:57 03.12.2019
3301 Clouds 15 1021 38 10000 3.6 290 17:38 03.12.2019
3302 Clouds 15 1021 38 10000 3.6 290 17:18 03.12.2019
3303 Clouds 13 1021 43 10000 1.5 340 16:57 03.12.2019
3304 Clouds 13 1021 43 10000 1.5 340 16:57 03.12.2019
3305 Clouds 13 1021 43 10000 1.5 340 16:39 03.12.2019
3306 Clouds 13 1021 43 10000 1.5 340 16:20 03.12.2019
3307 Clouds 13 1021 43 10000 2.1 300 15:56 03.12.2019
3308 Clouds 13 1021 43 10000 2.1 300 15:56 03.12.2019
3309 Clouds 13 1021 43 10000 2.1 300 15:38 03.12.2019
3310 Clouds 13 1021 43 10000 2.1 300 15:18 03.12.2019
3311 Clouds 12 1022 46 10000 1.5 0 14:42 03.12.2019
3312 Clouds 12 1022 46 10000 1.5 0 14:20 03.12.2019
3313 Clouds 9 1022 61 10000 1.5 270 13:56 03.12.2019
3314 Clouds 9 1022 61 10000 1.5 270 13:37 03.12.2019
3315 Clouds 9 1022 61 10000 1.5 270 13:18 03.12.2019
3316 Clouds 8 1022 65 10000 1.5 250 12:41 03.12.2019
3317 Clouds 8 1022 65 10000 1.5 250 12:19 03.12.2019
3318 Clouds 6 1022 75 10000 1 0 11:58 03.12.2019
3319 -273 0 0 0 0 0 11:39 03.12.2019
3320 Clouds 6 1022 75 10000 1 0 11:21 03.12.2019
3321 Clouds 6 1021 75 10000 2.1 280 10:58 03.12.2019
3322 Clouds 6 1021 75 10000 2.1 280 10:40 03.12.2019
3323 Clouds 6 1021 75 10000 2.1 280 10:19 03.12.2019
3324 Clouds 8 1021 65 10000 1 0 09:46 03.12.2019
3325 Clouds 8 1021 65 10000 1 0 09:25 03.12.2019
3326 Clouds 8 1021 65 10000 1 0 08:59 03.12.2019
3327 Clouds 8 1021 65 10000 1 0 08:40 03.12.2019
3328 Clear 8 1021 65 10000 1 0 08:21 03.12.2019
3329 Clear 9 1021 57 10000 1.5 250 07:53 03.12.2019
3330 Clear 9 1021 57 10000 1.5 250 07:29 03.12.2019
3331 Clear 9 1021 57 10000 1.5 250 07:29 03.12.2019
3332 Clear 9 1021 57 10000 2.6 240 06:56 03.12.2019
3333 Clear 9 1021 57 10000 2.6 240 06:20 03.12.2019
3334 Clear 10 1021 53 10000 3.6 250 05:55 03.12.2019
3335 Clear 11 1021 57 10000 3.1 250 03:44 03.12.2019
3336 Clear 11 1021 57 10000 3.1 250 03:22 03.12.2019
3337 Clear 11 1020 57 10000 3.1 240 02:54 03.12.2019
3338 Clear 11 1020 57 10000 3.1 240 02:32 03.12.2019
3339 Clear 13 1020 50 10000 4.6 270 01:59 03.12.2019
3340 Clear 13 1020 50 10000 4.6 270 01:39 03.12.2019
3341 Clear 13 1020 50 10000 4.6 270 01:19 03.12.2019
3342 Clear 14 1019 44 10000 5.7 280 00:42 03.12.2019
3343 Clear 14 1019 44 10000 5.7 280 00:23 03.12.2019
3344 Clear 14 1019 44 10000 5.7 280 00:23 03.12.2019
3345 Clear 14 1018 47 10000 6.2 280 23:44 02.12.2019
3346 Clear 14 1018 47 10000 6.2 280 23:22 02.12.2019
3347 Clear 14 1019 54 10000 5.7 280 22:56 02.12.2019
3348 Clear 14 1019 54 10000 5.7 280 22:37 02.12.2019
3349 Clear 14 1019 54 10000 5.7 280 22:19 02.12.2019
3350 Rain 14 1018 58 10000 5.7 270 21:39 02.12.2019
3351 Rain 14 1018 58 10000 5.7 270 21:20 02.12.2019
3352 Rain 15 1018 47 9000 5.7 270 20:57 02.12.2019
3353 Rain 15 1018 47 9000 5.7 270 20:39 02.12.2019
3354 Rain 15 1018 47 9000 5.7 270 20:20 02.12.2019
3355 Clouds 15 1018 44 10000 6.7 270 19:56 02.12.2019
3356 Clouds 15 1018 44 10000 6.7 270 19:38 02.12.2019
3357 Clouds 15 1018 44 10000 6.7 270 19:20 02.12.2019
3358 Clouds 16 1018 38 10000 6.7 280 18:48 02.12.2019
3359 Clouds 16 1018 38 10000 6.7 280 18:24 02.12.2019
3360 Clouds 16 1018 44 10000 5.7 280 17:59 02.12.2019
3361 Clouds 16 1018 44 10000 5.7 280 17:41 02.12.2019
3362 Clouds 16 1018 44 10000 5.7 280 17:20 02.12.2019
3363 Clouds 16 1018 44 10000 5.7 280 17:20 02.12.2019
3364 Clouds 13 1018 71 10000 2.6 250 16:57 02.12.2019
3365 Clouds 13 1018 71 10000 2.6 250 16:39 02.12.2019
3366 Clouds 13 1018 71 10000 2.6 250 16:18 02.12.2019
3367 Clouds 13 1018 71 10000 2.6 250 16:18 02.12.2019
3368 Rain 12 1018 76 8000 3.1 310 15:55 02.12.2019
3369 Rain 12 1018 76 8000 3.1 310 15:37 02.12.2019
3370 Rain 12 1018 76 8000 3.1 310 15:19 02.12.2019
3371 Rain 12 1017 71 9000 2.6 290 14:39 02.12.2019
3372 Rain 12 1017 71 9000 2.6 290 14:20 02.12.2019
3373 Clouds 11 1016 76 10000 1.5 250 13:58 02.12.2019
3374 Clouds 11 1016 76 10000 1.5 250 13:39 02.12.2019
3375 Clouds 11 1016 76 10000 1.5 250 13:20 02.12.2019
3376 Clouds 10 1017 81 10000 1 0 12:57 02.12.2019
3377 Clouds 10 1017 81 10000 1 0 12:38 02.12.2019
3378 Clouds 10 1017 81 10000 1 0 12:20 02.12.2019
3379 Clouds 8 1017 87 10000 1 0 11:56 02.12.2019
3380 Clouds 8 1017 87 10000 1 0 11:37 02.12.2019
3381 Clouds 8 1017 87 10000 1 0 11:18 02.12.2019
3382 Clouds 8 1017 87 10000 1 0 10:55 02.12.2019
3383 Clouds 8 1017 87 10000 1 0 10:36 02.12.2019
3384 Clouds 8 1017 87 10000 1 0 10:18 02.12.2019
3385 Clouds 8 1017 87 10000 1.5 280 09:40 02.12.2019
3386 Clouds 8 1017 87 10000 1.5 280 09:19 02.12.2019
3387 Clouds 9 1018 81 10000 1 0 08:56 02.12.2019
3388 Clouds 9 1018 81 10000 1 0 08:38 02.12.2019
3389 Clouds 9 1018 81 10000 1 0 08:20 02.12.2019
3390 Clouds 10 1018 76 10000 0.5 0 07:42 02.12.2019
3391 Clouds 10 1018 76 10000 0.5 0 07:21 02.12.2019
3392 Clouds 11 1018 76 10000 1.5 280 06:52 02.12.2019
3393 Clouds 11 1018 76 10000 1.5 280 06:34 02.12.2019
3394 Clouds 11 1018 76 10000 0.5 0 05:25 02.12.2019
3395 Clouds 14 1018 62 10000 1 0 04:20 02.12.2019
3396 Clouds 16 1018 59 10000 1 0 02:51 02.12.2019
3397 Clouds 16 1018 59 10000 1 0 02:23 02.12.2019
3398 Clouds 19 1017 48 10000 1.5 290 01:24 02.12.2019
3399 Clouds 22 1017 33 10000 1.5 260 00:45 02.12.2019
3400 Clouds 22 1017 33 10000 1.5 260 00:23 02.12.2019
3401 Clouds 23 1017 25 10000 2.1 260 23:45 01.12.2019
3402 Clouds 23 1017 25 10000 2.1 260 23:23 01.12.2019
3403 Clouds 24 1017 25 10000 3.6 270 22:58 01.12.2019
3404 Clouds 24 1017 25 10000 3.6 270 22:39 01.12.2019
3405 Clouds 24 1017 25 10000 3.6 270 22:20 01.12.2019
3406 Clouds 24 1017 25 10000 3.6 270 22:20 01.12.2019
3407 Clouds 25 1017 22 10000 3.1 260 21:58 01.12.2019
3408 Clouds 25 1017 22 10000 3.1 260 21:40 01.12.2019
3409 Clouds 25 1017 22 10000 3.1 260 21:21 01.12.2019
3410 Clouds 25 1017 27 10000 1.5 0 20:58 01.12.2019
3411 Clouds 25 1017 27 10000 1.5 0 20:40 01.12.2019
3412 Clear 25 1017 27 10000 1.5 0 20:21 01.12.2019
3413 Clear 22 1018 35 10000 2.1 310 19:58 01.12.2019
3414 Clear 22 1018 35 10000 2.1 310 19:39 01.12.2019
3415 Clear 22 1018 35 10000 2.1 310 19:39 01.12.2019
3416 Clear 22 1018 35 10000 2.1 310 19:39 01.12.2019
3417 Clear 22 1018 35 10000 2.1 310 19:21 01.12.2019
3418 Clear 21 1019 37 10000 1 0 18:57 01.12.2019
3419 Clear 21 1019 37 10000 1 0 18:38 01.12.2019
3420 Clear 21 1019 37 10000 1 0 18:19 01.12.2019
3421 Clear 18 1020 42 10000 1.5 310 17:57 01.12.2019
3422 Clear 18 1020 42 10000 1.5 310 17:39 01.12.2019
3423 Clear 18 1020 42 10000 1.5 310 17:20 01.12.2019
3424 Clear 18 1020 42 10000 1.5 310 17:20 01.12.2019
3425 Clear 18 1020 42 10000 1.5 310 17:20 01.12.2019
3426 Clear 16 1021 51 10000 1 0 16:55 01.12.2019
3427 Clear 16 1021 51 10000 1 0 16:36 01.12.2019
3428 Clear 16 1021 51 10000 1 0 16:18 01.12.2019
3429 Clear 13 1021 62 10000 1 0 15:44 01.12.2019
3430 Clear 13 1021 62 10000 1 0 15:26 01.12.2019
3431 Clear 13 1021 62 10000 1 0 15:26 01.12.2019
3432 Clear 13 1021 62 10000 1 0 15:25 01.12.2019
3433 Clear 13 1021 62 10000 1 0 15:25 01.12.2019
3434 Clear 13 1021 62 10000 1 0 15:25 01.12.2019
3435 Clear 11 1022 66 10000 1 0 14:38 01.12.2019
3436 Clear 11 1022 66 10000 1 0 14:19 01.12.2019
3437 Clear 8 1023 75 10000 1 0 13:42 01.12.2019
3438 Clear 8 1023 75 10000 1 0 13:24 01.12.2019
3439 Clear 8 1023 75 10000 1 0 13:24 01.12.2019
3440 Clear 8 1023 75 10000 1 0 13:23 01.12.2019
3441 Clear 6 1024 93 10000 0.5 0 12:59 01.12.2019
3442 Clear 6 1024 93 10000 0.5 0 12:40 01.12.2019
3443 Clear 6 1024 93 10000 0.5 0 12:40 01.12.2019
3444 Clear 3 1023 100 9000 0.84 143 11:54 01.12.2019
3445 Clear 3 1023 100 9000 0.84 143 11:36 01.12.2019
3446 Clear 3 1023 100 9000 1.07 300 11:18 01.12.2019
3447 Clear 3 1023 100 10000 1 0 10:42 01.12.2019
3448 Clear 3 1023 100 10000 1 0 10:20 01.12.2019
3449 Mist 3 1023 100 9000 0.5 0 09:41 01.12.2019
3450 Mist 3 1023 100 9000 0.5 0 09:23 01.12.2019
3451 Clear 4 1023 93 10000 1.07 300 08:55 01.12.2019
3452 Clear 4 1023 93 10000 1.07 300 08:55 01.12.2019
3453 Clear 4 1023 93 10000 1.07 300 08:36 01.12.2019
3454 Clouds 4 1023 93 10000 1.34 311 08:18 01.12.2019
3455 Clouds 5 1023 86 10000 1.34 311 07:43 01.12.2019
3456 Clouds 5 1023 86 10000 1.34 311 07:23 01.12.2019
3457 Clouds 6 1023 87 10000 1.34 311 06:51 01.12.2019
3458 Clouds 7 1023 81 10000 0.5 0 05:58 01.12.2019
3459 Clouds 7 1023 81 10000 1 270 04:55 01.12.2019
3460 Clouds 7 1023 81 10000 1 270 04:27 01.12.2019
3461 Clouds 11 1022 62 10000 2.1 260 02:44 01.12.2019
3462 Clouds 11 1022 62 10000 2.1 260 02:26 01.12.2019
3463 Clear 12 1021 58 10000 2.6 260 01:53 01.12.2019
3464 Clear 12 1021 58 10000 2.6 260 01:30 01.12.2019
3465 Clear 14 1020 47 10000 4.1 260 00:45 01.12.2019
3466 Clear 14 1020 47 10000 4.1 260 00:26 01.12.2019
3467 Clear 15 1020 44 10000 5.7 270 23:47 30.11.2019
3468 Clear 15 1020 44 10000 5.7 270 23:25 30.11.2019
3469 Clear 15 1019 44 10000 5.7 280 22:59 30.11.2019
3470 Clear 15 1019 44 10000 5.7 280 22:39 30.11.2019
3471 Clear 15 1019 44 10000 5.7 280 22:20 30.11.2019
3472 Clear 14 1019 44 10000 4.6 270 21:47 30.11.2019
3473 Clear 14 1019 44 10000 4.6 270 21:28 30.11.2019
3474 Clear 14 1019 44 10000 4.6 270 21:28 30.11.2019
3475 Clear 14 1018 47 10000 5.1 270 20:58 30.11.2019
3476 Clear 14 1018 47 10000 5.1 270 20:39 30.11.2019
3477 Clouds 14 1018 47 10000 5.1 270 20:19 30.11.2019
3478 Clouds 14 1018 47 10000 6.2 280 19:56 30.11.2019
3479 Clouds 14 1018 47 10000 6.2 280 19:38 30.11.2019
3480 Clouds 14 1018 47 10000 6.2 280 19:20 30.11.2019
3481 Clouds 14 1018 47 10000 6.2 270 18:58 30.11.2019
3482 Clouds 14 1018 47 10000 6.2 270 18:38 30.11.2019
3483 Clouds 14 1018 47 10000 6.2 270 18:20 30.11.2019
3484 Clouds 13 1018 50 10000 6.2 270 17:58 30.11.2019
3485 Clouds 13 1018 50 10000 6.2 270 17:39 30.11.2019
3486 Clouds 13 1018 50 10000 6.2 270 17:20 30.11.2019
3487 Clouds 12 1018 54 10000 4.6 270 16:56 30.11.2019
3488 Clouds 12 1018 54 10000 4.6 270 16:38 30.11.2019
3489 Clouds 12 1018 54 10000 4.6 270 16:20 30.11.2019
3490 Clouds 11 1018 57 10000 3.6 260 15:42 30.11.2019
3491 Clouds 11 1018 57 10000 3.6 260 15:19 30.11.2019
3492 Clouds 10 1017 61 10000 3.1 260 14:57 30.11.2019
3493 Clouds 10 1017 61 10000 3.1 260 14:38 30.11.2019
3494 Clouds 10 1017 61 10000 3.1 260 14:38 30.11.2019
3495 Clouds 10 1017 61 10000 3.1 260 14:19 30.11.2019
3496 Clouds 9 1017 66 10000 3.6 290 13:57 30.11.2019
3497 Clouds 9 1017 66 10000 3.6 290 13:37 30.11.2019
3498 Clouds 9 1017 66 10000 3.6 290 13:19 30.11.2019
3499 Clouds 8 1016 65 10000 4.1 290 12:46 30.11.2019
3500 Clouds 8 1016 65 10000 4.1 290 12:27 30.11.2019
3501 Clouds 8 1016 65 10000 1.5 260 11:55 30.11.2019
3502 Clouds 8 1016 65 10000 1.5 260 11:37 30.11.2019
3503 Rain 8 1016 65 10000 1.5 260 11:18 30.11.2019
3504 Rain 8 1015 65 10000 3.1 240 10:42 30.11.2019
3505 Rain 8 1015 65 10000 3.1 240 10:21 30.11.2019
3506 Rain 8 1015 65 10000 3.1 240 09:49 30.11.2019
3507 Rain 8 1015 65 10000 3.1 240 09:29 30.11.2019
3508 Rain 8 1014 65 10000 4.1 250 08:55 30.11.2019
3509 Rain 8 1014 65 10000 4.1 250 08:55 30.11.2019
3510 Rain 8 1014 65 10000 4.1 250 08:37 30.11.2019
3511 Clouds 8 1014 65 10000 4.1 250 08:18 30.11.2019
3512 Clouds 8 1014 70 10000 3.6 270 07:42 30.11.2019
3513 Clouds 8 1014 70 10000 3.6 270 07:23 30.11.2019
3514 Clouds 8 1014 70 10000 3.6 260 06:45 30.11.2019
3515 Clouds 8 1014 70 10000 3.6 260 06:26 30.11.2019
3516 Clouds 9 1014 66 10000 3.6 250 03:56 30.11.2019
3517 Clouds 9 1014 66 10000 3.6 250 03:18 30.11.2019
3518 Clouds 9 1013 66 10000 4.1 250 02:25 30.11.2019
3519 Rain 10 1013 61 10000 4.6 270 01:47 30.11.2019
3520 Rain 10 1013 61 10000 4.6 270 01:24 30.11.2019
3521 Rain 10 1012 61 10000 4.6 260 00:38 30.11.2019
3522 Rain 10 1012 61 10000 4.6 260 00:20 30.11.2019
3523 Rain 10 1011 66 10000 4.6 260 23:44 29.11.2019
3524 Rain 10 1011 66 10000 4.6 260 23:44 29.11.2019
3525 Rain 10 1011 66 10000 4.6 260 23:23 29.11.2019
3526 -273 0 0 0 0 0 23:23 29.11.2019
3527 Rain 10 1010 71 10000 5.1 270 22:48 29.11.2019
3528 Rain 10 1010 71 10000 5.1 270 22:26 29.11.2019
3529 Rain 9 1010 76 10000 5.1 260 21:47 29.11.2019
3530 Rain 9 1010 76 10000 5.1 260 21:26 29.11.2019
3531 Rain 9 1009 76 6000 5.1 260 20:59 29.11.2019
3532 Rain 9 1009 76 6000 5.1 260 20:40 29.11.2019
3533 Rain 9 1009 76 6000 5.1 260 20:21 29.11.2019
3534 Rain 8 1009 81 4000 4.6 260 19:58 29.11.2019
3535 Rain 8 1009 81 4000 4.6 260 19:40 29.11.2019
3536 Rain 8 1009 81 4000 4.6 260 19:20 29.11.2019
3537 Rain 7 1009 81 4000 4.6 250 18:58 29.11.2019
3538 Rain 7 1009 81 4000 4.6 250 18:40 29.11.2019
3539 Rain 7 1009 81 4000 4.6 250 18:21 29.11.2019
3540 Rain 7 1008 81 4000 5.7 240 17:44 29.11.2019
3541 Rain 7 1008 81 4000 5.7 240 17:26 29.11.2019
3542 Rain 7 1007 81 4000 3.6 250 16:58 29.11.2019
3543 Rain 7 1007 81 4000 3.6 250 16:39 29.11.2019
3544 Rain 7 1007 81 4000 3.6 250 16:39 29.11.2019
3545 Rain 7 1007 81 4000 3.6 250 16:19 29.11.2019
3546 Rain 7 1006 81 5000 4.6 250 15:41 29.11.2019
3547 Rain 7 1006 81 5000 4.6 250 15:23 29.11.2019
3548 Rain 8 1005 75 8000 2.6 230 14:57 29.11.2019
3549 Rain 8 1005 75 8000 2.6 230 14:38 29.11.2019
3550 Rain 8 1005 75 8000 2.6 230 14:20 29.11.2019
3551 Rain 7 1004 87 9000 3.6 280 13:42 29.11.2019
3552 Rain 7 1004 87 9000 3.6 280 13:21 29.11.2019
3553 Rain 6 1004 87 10000 2.6 260 12:58 29.11.2019
3554 Rain 6 1004 87 10000 2.6 260 12:58 29.11.2019
3555 Rain 6 1004 87 10000 2.6 260 12:39 29.11.2019
3556 Rain 6 1004 87 10000 2.6 260 12:21 29.11.2019
3557 Rain 6 1003 87 10000 3.6 240 11:55 29.11.2019
3558 Rain 6 1003 87 10000 3.6 240 11:55 29.11.2019
3559 Rain 6 1003 87 10000 3.6 240 11:36 29.11.2019
3560 Rain 6 1003 87 10000 3.6 240 11:18 29.11.2019
3561 Rain 7 1003 81 10000 3.1 240 10:55 29.11.2019
3562 Rain 7 1003 81 10000 3.1 240 10:55 29.11.2019
3563 Rain 7 1003 81 10000 3.1 240 10:36 29.11.2019
3564 Rain 7 1003 81 10000 3.1 240 10:18 29.11.2019
3565 Rain 6 1002 87 10000 2.6 280 09:41 29.11.2019
3566 Rain 6 1002 87 10000 2.6 280 09:22 29.11.2019
3567 Rain 7 1002 75 10000 2.1 250 08:59 29.11.2019
3568 Rain 7 1002 75 10000 2.1 250 08:38 29.11.2019
3569 Rain 7 1002 75 10000 2.1 250 08:20 29.11.2019
3570 Rain 7 1002 81 10000 1.5 290 07:50 29.11.2019
3571 Rain 7 1002 81 10000 1.5 290 07:24 29.11.2019
3572 Rain 6 1002 93 10000 1 0 06:58 29.11.2019
3573 Rain 6 1002 93 10000 1 0 06:37 29.11.2019
3574 Rain 6 1002 100 9000 0.5 0 05:47 29.11.2019
3575 Rain 6 1002 93 10000 1 0 05:23 29.11.2019
3576 Rain 7 1003 93 10000 0.5 0 03:58 29.11.2019
3577 Rain 7 1003 93 10000 0.5 0 03:19 29.11.2019
3578 Rain 8 1003 81 10000 2.1 230 02:25 29.11.2019
3579 Rain 8 1003 93 9000 1 0 01:50 29.11.2019
3580 Rain 8 1003 93 9000 1 0 01:24 29.11.2019
3581 Rain 9 1003 87 10000 1.5 40 00:41 29.11.2019
3582 Rain 9 1003 87 10000 1.5 40 00:20 29.11.2019
3583 Rain 9 1004 87 10000 0.5 0 23:44 28.11.2019
3584 Rain 9 1004 87 10000 0.5 0 23:21 28.11.2019
3585 Rain 9 1004 87 10000 0.5 0 23:21 28.11.2019
3586 Rain 8 1006 87 9000 2.1 250 22:57 28.11.2019
3587 Rain 8 1006 87 9000 2.1 250 22:37 28.11.2019
3588 Rain 8 1006 87 9000 2.1 250 22:19 28.11.2019
3589 Rain 8 1006 87 4000 3.1 230 21:55 28.11.2019
3590 Rain 8 1006 87 4000 3.1 230 21:36 28.11.2019
3591 Rain 8 1006 87 4000 3.1 230 21:18 28.11.2019
3592 Rain 9 1006 87 4000 1.5 0 20:42 28.11.2019
3593 Rain 9 1006 87 4000 1.5 0 20:22 28.11.2019
3594 Rain 10 1007 81 4000 3.1 250 19:58 28.11.2019
3595 Rain 10 1007 81 4000 3.1 250 19:40 28.11.2019
3596 Rain 10 1007 81 4000 3.1 250 19:21 28.11.2019
3597 Rain 10 1007 87 4000 3.1 250 18:58 28.11.2019
3598 Rain 10 1007 87 4000 3.1 250 18:39 28.11.2019
3599 Rain 10 1007 87 4000 3.1 250 18:18 28.11.2019
3600 Rain 10 1007 81 4000 3.1 260 17:58 28.11.2019
3601 Rain 10 1007 81 4000 3.1 260 17:58 28.11.2019
3602 Rain 10 1007 81 4000 3.1 260 17:40 28.11.2019
3603 Rain 10 1007 81 4000 3.1 260 17:20 28.11.2019
3604 Rain 12 1007 81 5000 4.1 270 16:40 28.11.2019
3605 Rain 12 1007 81 5000 4.1 270 16:19 28.11.2019
3606 Rain 12 1007 81 8000 3.6 270 15:58 28.11.2019
3607 Rain 12 1007 81 8000 3.6 270 15:39 28.11.2019
3608 Rain 12 1007 81 8000 3.6 270 15:19 28.11.2019
3609 Rain 12 1007 76 9000 3.1 300 14:58 28.11.2019
3610 Rain 12 1007 76 9000 3.1 300 14:39 28.11.2019
3611 Rain 12 1007 76 9000 3.1 300 14:19 28.11.2019
3612 Rain 12 1007 71 9000 2.1 0 13:42 28.11.2019
3613 Rain 12 1007 71 9000 2.1 0 13:23 28.11.2019
3614 Rain 12 1007 66 10000 3.6 280 12:56 28.11.2019
3615 Rain 12 1007 66 10000 3.6 280 12:37 28.11.2019
3616 Rain 12 1007 66 10000 3.6 280 12:19 28.11.2019
3617 Rain 10 1008 76 10000 2.6 250 11:54 28.11.2019
3618 Rain 10 1008 76 10000 2.6 250 11:36 28.11.2019
3619 Rain 10 1008 76 10000 2.6 250 11:36 28.11.2019
3620 Rain 10 1008 76 10000 2.6 250 11:18 28.11.2019
3621 Rain 11 1008 66 10000 2.6 0 10:41 28.11.2019
3622 Rain 11 1008 66 10000 2.6 0 10:20 28.11.2019
3623 Rain 9 1008 76 10000 2.6 290 09:55 28.11.2019
3624 Rain 9 1008 76 10000 2.6 290 09:37 28.11.2019
3625 Rain 9 1008 76 10000 2.6 290 09:18 28.11.2019
3626 Rain 8 1009 87 10000 1 0 08:40 28.11.2019
3627 Clouds 8 1009 87 10000 1 0 08:21 28.11.2019
3628 Rain 8 1011 81 10000 2.6 0 07:43 28.11.2019
3629 Rain 8 1011 81 10000 2.6 0 07:25 28.11.2019
3630 Rain 9 1012 70 10000 3.1 250 06:57 28.11.2019
3631 Rain 9 1012 70 10000 3.1 250 06:36 28.11.2019
3632 Clouds 9 1012 66 10000 2.6 0 05:53 28.11.2019
3633 Clear 9 1012 66 10000 2.6 0 05:18 28.11.2019
3634 Clear 9 1012 66 10000 2.6 0 05:18 28.11.2019
3635 Clear 10 1013 57 10000 5.1 250 02:51 28.11.2019
3636 Clouds 10 1013 57 10000 6.2 240 01:57 28.11.2019
3637 Clouds 10 1013 61 10000 5.7 240 00:49 28.11.2019
3638 Clouds 10 1013 61 10000 5.7 240 00:25 28.11.2019
3639 Clouds 10 1014 61 10000 5.1 250 23:56 27.11.2019
3640 Clouds 10 1014 61 10000 5.1 250 23:38 27.11.2019
3641 Rain 10 1014 61 10000 5.1 250 23:19 27.11.2019
3642 Rain 11 1014 62 10000 5.1 250 22:39 27.11.2019
3643 Rain 11 1014 62 10000 5.1 250 22:20 27.11.2019
3644 Rain 11 1014 62 10000 5.1 250 22:20 27.11.2019
3645 Rain 11 1014 62 10000 6.7 270 21:57 27.11.2019
3646 Rain 11 1014 62 10000 6.7 270 21:38 27.11.2019
3647 Rain 11 1014 62 10000 6.7 270 21:19 27.11.2019
3648 Rain 12 1014 58 10000 5.1 260 20:59 27.11.2019
3649 Rain 12 1014 58 10000 5.1 260 20:59 27.11.2019
3650 Rain 12 1014 58 10000 5.1 260 20:40 27.11.2019
3651 Rain 12 1014 58 10000 5.1 260 20:22 27.11.2019
3652 Clouds 11 1014 62 10000 6.2 260 19:58 27.11.2019
3653 Clouds 11 1014 62 10000 6.2 260 19:40 27.11.2019
3654 Clouds 11 1014 62 10000 6.2 260 19:22 27.11.2019
3655 Rain 10 1015 71 5000 5.7 250 18:59 27.11.2019
3656 Rain 10 1015 71 5000 5.7 250 18:37 27.11.2019
3657 Rain 10 1015 71 5000 5.7 250 18:19 27.11.2019
3658 Rain 9 1015 76 5000 5.1 250 17:58 27.11.2019
3659 Rain 9 1015 76 5000 5.1 250 17:40 27.11.2019
3660 Rain 9 1015 76 5000 5.1 250 17:20 27.11.2019
3661 Rain 9 1014 76 4000 4.6 250 16:56 27.11.2019
3662 Rain 9 1014 76 4000 4.6 250 16:56 27.11.2019
3663 Rain 9 1014 76 4000 4.6 250 16:37 27.11.2019
3664 Rain 9 1014 76 4000 4.6 250 16:19 27.11.2019
3665 Rain 9 1014 76 5000 4.6 240 15:57 27.11.2019
3666 Rain 9 1014 76 5000 4.6 240 15:38 27.11.2019
3667 Rain 9 1014 76 5000 4.6 240 15:20 27.11.2019
3668 Rain 8 1014 81 5000 3.1 260 14:56 27.11.2019
3669 Rain 8 1014 81 5000 3.1 260 14:38 27.11.2019
3670 Rain 8 1014 81 5000 3.1 260 14:20 27.11.2019
3671 Rain 6 1015 87 5000 2.6 260 13:56 27.11.2019
3672 Rain 6 1015 87 5000 2.6 260 13:37 27.11.2019
3673 Rain 6 1015 87 5000 2.6 260 13:18 27.11.2019
3674 Rain 6 1015 87 10000 2.1 250 12:41 27.11.2019
3675 Rain 6 1015 87 10000 2.1 250 12:22 27.11.2019
3676 Rain 6 1015 87 10000 2.1 250 12:22 27.11.2019
3677 Rain 6 1015 87 10000 2.6 280 11:57 27.11.2019
3678 Rain 6 1015 87 10000 2.6 280 11:37 27.11.2019
3679 Rain 6 1015 87 10000 2.6 280 11:18 27.11.2019
3680 Clouds 0 1015 95 0 2.46 289 10:46 27.11.2019
3681 Clouds 0 1015 95 0 2.46 289 10:46 27.11.2019
3682 Rain 6 1014 87 10000 3.6 250 10:24 27.11.2019
3683 Rain 6 1014 87 10000 3.6 250 09:57 27.11.2019
3684 Rain 6 1014 87 10000 3.6 250 09:39 27.11.2019
3685 Rain 6 1014 87 10000 3.6 250 09:18 27.11.2019
3686 Rain 7 1014 75 10000 4.1 250 08:42 27.11.2019
3687 Rain 7 1014 75 10000 4.1 250 08:23 27.11.2019
3688 Rain 8 1014 70 10000 4.6 250 07:48 27.11.2019
3689 Rain 8 1014 70 10000 4.6 250 07:29 27.11.2019
3690 Rain 8 1014 65 10000 4.6 250 06:54 27.11.2019
3691 Rain 8 1014 65 10000 4.6 250 06:36 27.11.2019
3692 Rain 6 1014 81 10000 4.1 250 05:47 27.11.2019
3693 Rain 6 1014 81 10000 4.1 250 05:21 27.11.2019
3694 Rain 7 1014 75 10000 4.6 260 04:48 27.11.2019
3695 Rain 7 1014 75 10000 4.6 260 04:29 27.11.2019
3696 Rain 7 1014 75 10000 4.6 250 03:40 27.11.2019
3697 Rain 7 1014 75 10000 4.6 250 03:19 27.11.2019
3698 Rain 7 1014 70 10000 4.6 250 02:21 27.11.2019
3699 Rain 7 1014 81 10000 4.1 250 00:50 27.11.2019
3700 Rain 7 1014 81 10000 4.1 250 00:30 27.11.2019
3701 Rain 7 1014 81 10000 4.1 250 23:55 26.11.2019
3702 Rain 7 1014 81 10000 4.1 250 23:37 26.11.2019
3703 Rain 7 1014 81 10000 4.1 250 23:18 26.11.2019
3704 Rain 6 1014 87 5000 4.1 240 22:39 26.11.2019
3705 Rain 6 1014 87 5000 4.1 240 22:19 26.11.2019
3706 Rain 7 1013 81 4000 4.1 260 21:59 26.11.2019
3707 Rain 7 1013 81 4000 4.1 260 21:38 26.11.2019
3708 Rain 7 1013 81 4000 4.1 260 21:20 26.11.2019
3709 Rain 6 1012 87 4000 5.7 300 20:57 26.11.2019
3710 Rain 6 1012 87 4000 5.7 300 20:37 26.11.2019
3711 Rain 6 1012 87 4000 5.7 300 20:37 26.11.2019
3712 Rain 6 1012 87 4000 5.7 300 20:37 26.11.2019
3713 Rain 6 1012 87 4000 5.7 300 20:19 26.11.2019
3714 Rain 7 1012 81 5000 3.6 240 19:55 26.11.2019
3715 Rain 7 1012 81 5000 3.6 240 19:55 26.11.2019
3716 Rain 7 1012 81 5000 3.6 240 19:37 26.11.2019
3717 Rain 7 1012 81 5000 3.6 240 19:19 26.11.2019
3718 Rain 7 1012 81 5000 3.6 240 19:19 26.11.2019
3719 Rain 6 1012 87 4000 3.1 270 18:56 26.11.2019
3720 Rain 6 1012 87 4000 3.1 270 18:38 26.11.2019
3721 Rain 6 1012 87 4000 3.1 270 18:38 26.11.2019
3722 Rain 6 1012 87 4000 3.1 270 18:20 26.11.2019
3723 Rain 5 1012 86 4000 2.6 0 17:56 26.11.2019
3724 Rain 5 1012 86 4000 2.6 0 17:56 26.11.2019
3725 Rain 5 1012 86 4000 2.6 0 17:37 26.11.2019
3726 Rain 5 1012 86 4000 2.6 0 17:37 26.11.2019
3727 Rain 5 1012 86 4000 2.6 0 17:19 26.11.2019
3728 Rain 5 1013 86 4000 2.1 0 16:56 26.11.2019
3729 Rain 5 1013 86 4000 2.1 0 16:37 26.11.2019
3730 Rain 5 1013 86 4000 2.1 0 16:18 26.11.2019
3731 Rain 5 1013 80 4000 3.1 240 15:57 26.11.2019
3732 Rain 5 1013 80 4000 3.1 240 15:37 26.11.2019
3733 Rain 5 1013 80 4000 3.1 240 15:19 26.11.2019
3734 Rain 8 1012 65 0 7.84 301 14:45 26.11.2019
3735 Rain 8 1014 52 9000 4.1 250 14:24 26.11.2019
3736 Rain 8 1014 52 9000 4.1 250 13:45 26.11.2019
3737 Rain 8 1014 52 9000 4.1 250 13:25 26.11.2019
3738 Clear 7 1014 52 10000 4.6 250 12:58 26.11.2019
3739 Clear 7 1014 52 10000 4.6 250 12:37 26.11.2019
3740 Clear 7 1014 52 10000 4.6 250 12:19 26.11.2019
3741 Rain 5 1015 75 10000 3.6 260 11:56 26.11.2019
3742 Rain 5 1015 75 10000 3.6 260 11:37 26.11.2019
3743 Rain 5 1015 75 10000 3.6 260 11:19 26.11.2019
3744 Rain 5 1015 75 10000 2.1 0 10:56 26.11.2019
3745 Rain 5 1015 75 10000 2.1 0 10:38 26.11.2019
3746 Rain 5 1015 75 10000 2.1 0 10:19 26.11.2019
3747 Rain 5 1016 75 8000 3.6 280 09:43 26.11.2019
3748 Rain 5 1016 75 8000 3.6 280 09:24 26.11.2019
3749 Clear 5 1015 94 10000 3.1 230 08:56 26.11.2019
3750 Clear 5 1015 94 10000 3.1 230 08:38 26.11.2019
3751 Clouds 5 1015 93 10000 3.1 230 08:18 26.11.2019
3752 Rain 5 1015 75 10000 4.1 260 07:43 26.11.2019
3753 Rain 5 1015 75 10000 4.1 260 07:24 26.11.2019
3754 Clouds 6 1015 60 10000 3.1 260 06:51 26.11.2019
3755 Rain 5 1015 75 10000 3.1 260 05:59 26.11.2019
3756 Rain 5 1015 75 10000 3.1 260 05:26 26.11.2019
3757 Rain 6 1014 81 10000 3.6 240 03:22 26.11.2019
3758 Rain 6 1014 81 10000 3.6 240 03:22 26.11.2019
3759 Rain 3 1013 92 0 3.63 298 01:42 26.11.2019
3760 Rain 7 1012 81 10000 3.1 250 01:22 26.11.2019
3761 Rain 7 1012 81 10000 3.1 250 00:41 26.11.2019
3762 Rain 7 1012 81 10000 3.1 250 00:18 26.11.2019
3763 Rain 7 1012 81 10000 4.1 260 23:38 25.11.2019
3764 Rain 7 1012 81 10000 4.1 260 23:19 25.11.2019
3765 Rain 8 1012 87 10000 2.6 240 22:40 25.11.2019
3766 Rain 8 1012 87 10000 2.6 240 22:19 25.11.2019
3767 Rain 7 1011 87 4000 4.1 290 21:59 25.11.2019
3768 Rain 7 1011 87 4000 4.1 290 21:41 25.11.2019
3769 Rain 7 1011 87 4000 4.1 290 21:23 25.11.2019
3770 -273 0 0 0 0 0 20:58 25.11.2019
3771 Rain 9 1010 76 9000 3.6 260 20:40 25.11.2019
3772 Rain 9 1010 76 9000 3.6 260 20:20 25.11.2019
3773 Rain 8 1010 75 4000 3.6 240 19:57 25.11.2019
3774 Rain 8 1010 75 4000 3.6 240 19:38 25.11.2019
3775 Rain 8 1010 75 4000 3.6 240 19:20 25.11.2019
3776 Rain 9 1009 70 4000 3.6 260 18:57 25.11.2019
3777 Rain 9 1009 70 4000 3.6 260 18:39 25.11.2019
3778 Rain 9 1009 70 4000 3.6 260 18:21 25.11.2019
3779 Rain 10 1008 71 10000 4.1 240 17:58 25.11.2019
3780 Rain 10 1008 71 10000 4.1 240 17:39 25.11.2019
3781 Rain 10 1008 71 10000 4.1 240 17:20 25.11.2019
3782 Clouds 12 1008 54 10000 4.6 270 16:57 25.11.2019
3783 Clouds 12 1008 54 10000 4.6 270 16:57 25.11.2019
3784 Clouds 12 1008 54 10000 4.6 270 16:39 25.11.2019
3785 Clouds 12 1008 54 10000 4.6 270 16:21 25.11.2019
3786 Rain 10 1008 71 9000 1.5 250 15:55 25.11.2019
3787 Rain 10 1008 71 9000 1.5 250 15:37 25.11.2019
3788 Rain 10 1008 71 9000 1.5 250 15:18 25.11.2019
3789 Rain 8 1008 81 4000 1 0 14:42 25.11.2019
3790 Rain 8 1008 81 4000 1 0 14:23 25.11.2019
3791 Rain 9 1007 70 9000 1 0 13:56 25.11.2019
3792 Rain 9 1007 70 9000 1 0 13:36 25.11.2019
3793 Rain 9 1007 70 9000 1 0 13:18 25.11.2019
3794 Rain 9 1007 70 9000 1 0 13:18 25.11.2019
3795 Rain 7 1007 81 10000 1 0 12:55 25.11.2019
3796 Rain 7 1007 81 10000 1 0 12:36 25.11.2019
3797 Rain 7 1007 81 10000 1 0 12:18 25.11.2019
3798 Rain 6 1007 87 10000 0.5 0 11:40 25.11.2019
3799 Rain 6 1007 87 10000 0.5 0 11:40 25.11.2019
3800 Rain 6 1007 87 10000 0.5 0 11:21 25.11.2019
3801 Rain 6 1007 81 10000 2.78 329 10:54 25.11.2019
3802 Rain 6 1007 81 10000 2.78 329 10:36 25.11.2019
3803 Rain 6 1007 81 10000 2.78 329 10:18 25.11.2019
3804 Rain 6 1007 75 10000 2.1 70 09:41 25.11.2019
3805 Rain 6 1007 75 10000 2.1 70 09:23 25.11.2019
3806 Rain 6 1006 75 10000 2.1 70 08:42 25.11.2019
3807 Clouds 6 1006 75 10000 2.1 70 08:23 25.11.2019
3808 Clouds 6 1007 81 10000 1.5 270 07:47 25.11.2019
3809 Clouds 6 1007 81 10000 1.5 270 07:28 25.11.2019
3810 Clouds 5 1007 80 10000 2.83 336 06:58 25.11.2019
3811 Clouds 5 1007 80 10000 2.83 336 06:23 25.11.2019
3812 Clouds 6 1008 75 10000 2.83 336 05:50 25.11.2019
3813 Clouds 6 1008 75 10000 2.83 336 05:31 25.11.2019
3814 Rain 8 1009 65 10000 1 0 04:35 25.11.2019
3815 Rain 9 1009 70 10000 5.7 260 02:35 25.11.2019
3816 Rain 11 1006 71 10000 3.6 270 01:43 25.11.2019
3817 Rain 11 1006 71 10000 3.6 270 01:24 25.11.2019
3818 Rain 15 1005 47 10000 5.7 270 00:39 25.11.2019
3819 Rain 15 1005 47 10000 5.7 270 00:18 25.11.2019
3820 Rain 17 1005 42 10000 1.5 0 23:43 24.11.2019
3821 Rain 17 1005 42 10000 1.5 0 23:20 24.11.2019
3822 Rain 16 1005 51 10000 6.2 280 22:56 24.11.2019
3823 Rain 16 1005 51 10000 6.2 280 22:37 24.11.2019
3824 Rain 16 1005 51 10000 6.2 280 22:19 24.11.2019
3825 Rain 18 1005 39 10000 5.7 280 21:54 24.11.2019
3826 Rain 18 1005 39 10000 5.7 280 21:36 24.11.2019
3827 Rain 18 1005 39 10000 5.7 280 21:18 24.11.2019
3828 Rain 19 1005 34 10000 5.7 270 20:55 24.11.2019
3829 Rain 19 1005 34 10000 5.7 270 20:36 24.11.2019
3830 Rain 19 1005 34 10000 5.7 270 20:18 24.11.2019
3831 Rain 20 1005 32 10000 6.2 270 19:54 24.11.2019
3832 Rain 20 1005 32 10000 6.2 270 19:36 24.11.2019
3833 Rain 20 1005 32 10000 6.2 270 19:18 24.11.2019
3834 Rain 19 1006 37 10000 5.1 270 18:54 24.11.2019
3835 Rain 19 1006 37 10000 5.1 270 18:36 24.11.2019
3836 Rain 19 1006 37 10000 5.1 270 18:18 24.11.2019
3837 Rain 19 1007 34 10000 4.6 290 17:42 24.11.2019
3838 Rain 19 1007 34 10000 4.6 290 17:23 24.11.2019
3839 Rain 17 1008 42 10000 3.6 270 16:59 24.11.2019
3840 Rain 17 1008 42 10000 3.6 270 16:41 24.11.2019
3841 Rain 17 1008 42 10000 3.6 270 16:23 24.11.2019
3842 Rain 17 1008 42 10000 3.6 270 16:23 24.11.2019
3843 Rain 16 1009 44 10000 1 0 15:56 24.11.2019
3844 Rain 16 1009 44 10000 1 0 15:38 24.11.2019
3845 Rain 16 1009 44 10000 1 0 15:38 24.11.2019
3846 Rain 16 1009 44 10000 1 0 15:20 24.11.2019
3847 Rain 14 1010 58 10000 1 0 14:40 24.11.2019
3848 Rain 14 1010 58 10000 1 0 14:20 24.11.2019
3849 Rain 14 1010 58 10000 1 0 14:20 24.11.2019
3850 Rain 12 1010 76 10000 1.5 270 13:59 24.11.2019
3851 Rain 12 1010 76 10000 1.5 270 13:38 24.11.2019
3852 Rain 12 1010 76 10000 1.5 270 13:20 24.11.2019
3853 Rain 10 1010 93 10000 1.39 246 12:56 24.11.2019
3854 Rain 10 1010 93 10000 1.39 246 12:56 24.11.2019
3855 Rain 10 1010 93 10000 1.39 246 12:38 24.11.2019
3856 Rain 10 1010 93 10000 1.39 246 12:18 24.11.2019
3857 Rain 10 1010 93 10000 1.39 246 12:18 24.11.2019
3858 Rain 10 1010 87 10000 0.5 0 11:38 24.11.2019
3859 Rain 10 1010 87 10000 0.5 0 11:19 24.11.2019
3860 Rain 10 1010 87 10000 0.5 0 10:57 24.11.2019
3861 Rain 10 1010 87 10000 0.5 0 10:38 24.11.2019
3862 Rain 10 1010 87 10000 0.5 0 10:38 24.11.2019
3863 Rain 10 1010 87 10000 0.5 0 10:20 24.11.2019
3864 Rain 10 1010 87 10000 0.5 0 10:20 24.11.2019
3865 Rain 11 1009 93 10000 1.5 280 09:39 24.11.2019
3866 Rain 11 1009 93 10000 1.5 280 09:20 24.11.2019
3867 Rain 11 1009 93 10000 1 0 08:57 24.11.2019
3868 Rain 11 1009 93 10000 1 0 08:57 24.11.2019
3869 Rain 11 1009 93 10000 1 0 08:39 24.11.2019
3870 Rain 11 1009 93 10000 1 0 08:20 24.11.2019
3871 Rain 11 1009 93 10000 2.14 315 07:47 24.11.2019
3872 Rain 11 1009 93 10000 2.14 315 07:22 24.11.2019
3873 Rain 11 1009 93 10000 2.14 315 06:51 24.11.2019
3874 Clouds 12 1009 87 10000 0.5 0 05:24 24.11.2019
3875 Clouds 12 1009 81 10000 2.29 293 04:40 24.11.2019
3876 Rain 15 1010 62 10000 2.1 0 02:36 24.11.2019
3877 Clouds 15 1009 62 10000 1.5 180 01:55 24.11.2019
3878 Clouds 15 1009 62 10000 1.5 180 01:32 24.11.2019
3879 Clouds 17 1009 55 10000 4.1 270 00:50 24.11.2019
3880 Clouds 17 1009 55 10000 4.1 270 00:25 24.11.2019
3881 Clouds 17 1009 55 10000 4.6 270 23:56 23.11.2019
3882 Clouds 17 1009 55 10000 4.6 270 23:56 23.11.2019
3883 Clouds 17 1009 55 10000 4.6 270 23:38 23.11.2019
3884 Clouds 17 1009 55 10000 4.6 270 23:19 23.11.2019
3885 Clouds 18 1009 52 10000 5.7 270 22:55 23.11.2019
3886 Clouds 18 1009 52 10000 5.7 270 22:37 23.11.2019
3887 Clouds 18 1009 52 10000 5.7 270 22:18 23.11.2019
3888 Clouds 19 1008 45 10000 4.1 270 21:43 23.11.2019
3889 Clouds 19 1008 45 10000 4.1 270 21:23 23.11.2019
3890 Clouds 19 1008 45 10000 4.1 270 21:23 23.11.2019
3891 Clouds 19 1008 45 10000 3.1 250 20:59 23.11.2019
3892 Clouds 19 1008 45 10000 3.1 250 20:37 23.11.2019
3893 Clouds 19 1008 45 10000 3.1 250 20:19 23.11.2019
3894 Clouds 18 1009 55 10000 2.1 280 19:56 23.11.2019
3895 Clouds 18 1009 55 10000 2.1 280 19:37 23.11.2019
3896 Clouds 18 1009 55 10000 2.1 280 19:37 23.11.2019
3897 Clouds 18 1009 55 10000 2.1 280 19:37 23.11.2019
3898 Clouds 18 1009 55 10000 2.1 280 19:37 23.11.2019
3899 Clouds 18 1009 55 10000 2.1 280 19:18 23.11.2019
3900 Clouds 18 1009 55 10000 2.1 280 19:18 23.11.2019
3901 Clouds 18 1009 55 10000 2.1 280 19:18 23.11.2019
3902 Clouds 17 1009 59 10000 1 0 18:40 23.11.2019
3903 Clouds 17 1009 59 10000 1 0 18:21 23.11.2019
3904 Clouds 17 1009 59 10000 1 0 18:21 23.11.2019
3905 Clouds 17 1009 59 10000 1 0 18:21 23.11.2019
3906 Clouds 17 1009 55 10000 0.5 0 17:58 23.11.2019
3907 Clouds 17 1009 55 10000 0.5 0 17:40 23.11.2019
3908 Clouds 17 1009 55 10000 0.5 0 17:20 23.11.2019
3909 Clouds 16 1009 59 10000 1 0 16:56 23.11.2019
3910 Clouds 16 1009 59 10000 1 0 16:38 23.11.2019
3911 Clouds 16 1009 59 10000 1 0 16:20 23.11.2019
3912 Clouds 15 1010 62 10000 1.4 345 15:56 23.11.2019
3913 Clouds 15 1010 62 10000 1.4 345 15:38 23.11.2019
3914 Clouds 15 1010 62 10000 1.4 345 15:18 23.11.2019
3915 Clouds 12 1011 71 10000 1 0 14:43 23.11.2019
3916 Clouds 12 1011 71 10000 1 0 14:22 23.11.2019
3917 Clouds 10 1011 81 10000 1.5 80 13:59 23.11.2019
3918 Clouds 10 1011 81 10000 1.5 80 13:40 23.11.2019
3919 Clouds 10 1011 81 10000 1.5 80 13:19 23.11.2019
3920 Clouds 9 1011 87 10000 0.5 0 12:44 23.11.2019
3921 Clouds 9 1011 87 10000 0.5 0 12:24 23.11.2019
3922 Clouds 8 1011 87 10000 0.5 0 11:58 23.11.2019
3923 -273 0 0 0 0 0 11:40 23.11.2019
3924 Clouds 8 1011 87 10000 0.5 0 11:18 23.11.2019
3925 Clouds 8 1011 87 10000 0.5 0 11:18 23.11.2019
3926 Clouds 7 1011 87 10000 1.97 317 10:43 23.11.2019
3927 Clouds 7 1011 87 10000 1.97 317 10:20 23.11.2019
3928 Clouds 7 1011 93 10000 0.5 0 09:41 23.11.2019
3929 Clouds 7 1011 93 10000 0.5 0 09:19 23.11.2019
3930 Clouds 8 1011 87 10000 1 0 08:41 23.11.2019
3931 Clouds 8 1011 87 10000 1 0 08:19 23.11.2019
3932 Clouds 9 1011 81 10000 2.23 320 07:44 23.11.2019
3933 Clouds 9 1011 81 10000 2.23 320 07:26 23.11.2019
3934 Clouds 10 1012 81 10000 1 0 06:42 23.11.2019
3935 Clouds 10 1012 81 10000 1 0 06:19 23.11.2019
3936 Clouds 12 1012 71 10000 0.5 270 05:45 23.11.2019
3937 Clouds 12 1012 71 10000 0.5 270 05:27 23.11.2019
3938 Clouds 13 1013 66 10000 1 0 04:40 23.11.2019
3939 Clouds 13 1013 66 10000 1 0 04:21 23.11.2019
3940 Clouds 16 1013 51 10000 0.5 0 02:39 23.11.2019
3941 Clouds 16 1013 51 10000 0.5 0 02:39 23.11.2019
3942 Clouds 18 1013 48 10000 0.58 270 01:42 23.11.2019
3943 Clouds 22 1012 37 10000 0.71 282 00:49 23.11.2019
3944 Clouds 22 1012 37 10000 0.71 282 00:23 23.11.2019
3945 Clouds 22 1012 37 10000 0.71 282 00:23 23.11.2019
3946 Clouds 22 1012 37 10000 0.71 282 00:22 23.11.2019
3947 Clouds 22 1012 37 10000 0.71 282 00:22 23.11.2019
3948 Clouds 26 1013 68 10000 1 0 23:56 22.11.2019
3949 Clouds 26 1013 68 10000 1 0 23:37 22.11.2019
3950 Clear 26 1013 34 10000 1 0 23:18 22.11.2019
3951 Clear 26 1013 16 10000 1 0 22:56 22.11.2019
3952 Clear 26 1013 16 10000 1 0 22:37 22.11.2019
3953 Clear 26 1013 16 10000 1 0 22:18 22.11.2019
3954 Clear 25 1014 16 10000 1 0 21:41 22.11.2019
3955 Clear 25 1014 16 10000 1 0 21:21 22.11.2019
3956 Clear 24 1015 17 10000 0.5 0 20:56 22.11.2019
3957 Clear 24 1015 17 10000 0.5 0 20:38 22.11.2019
3958 Clear 24 1015 17 10000 0.5 0 20:20 22.11.2019
3959 Clear 24 1016 34 10000 1 0 19:40 22.11.2019
3960 Clear 24 1016 34 10000 1 0 19:21 22.11.2019
3961 Clear 21 1017 19 10000 2.1 0 18:59 22.11.2019
3962 Clear 21 1017 19 10000 2.1 0 18:38 22.11.2019
3963 Clear 21 1017 19 10000 2.1 0 18:20 22.11.2019
3964 Clear 18 1019 34 10000 2.6 130 17:42 22.11.2019
3965 Clear 18 1019 38 10000 2.6 130 17:23 22.11.2019
3966 Clear 16 1020 44 10000 1 0 16:55 22.11.2019
3967 Clear 16 1020 44 10000 1 0 16:37 22.11.2019
3968 Clear 16 1020 44 10000 1 0 16:18 22.11.2019
3969 Clear 13 1020 50 10000 1.5 100 15:39 22.11.2019
3970 Clear 13 1020 50 10000 1.5 100 15:20 22.11.2019
3971 Clear 10 1021 66 10000 2.1 130 14:54 22.11.2019
3972 Clear 10 1021 66 10000 2.1 130 14:36 22.11.2019
3973 Clouds 10 1021 66 10000 2.1 130 14:18 22.11.2019
3974 Clouds 7 1019 52 0 0.91 137 13:38 22.11.2019
3975 Clear 5 1023 86 10000 1.01 132 13:19 22.11.2019
3976 Clear 5 1023 86 10000 1.01 132 12:58 22.11.2019
3977 Clear 5 1023 86 10000 1.01 132 12:40 22.11.2019
3978 Clear 5 1023 86 10000 1.01 132 12:40 22.11.2019
3979 Clear 5 1023 86 10000 1.01 132 12:19 22.11.2019
3980 Clear 2 1023 93 10000 1.01 132 11:57 22.11.2019
3981 Clear 2 1023 93 10000 1.01 132 11:37 22.11.2019
3982 Clear 2 1023 93 10000 1.1 299 11:18 22.11.2019
3983 Clear 2 1023 93 10000 1.1 299 10:43 22.11.2019
3984 Clear 2 1023 93 10000 1.1 299 10:23 22.11.2019
3985 Clear 4 1022 86 10000 1.1 299 09:59 22.11.2019
3986 Clear 4 1022 86 10000 1.1 299 09:40 22.11.2019
3987 Clear 4 1022 86 10000 1.1 299 09:21 22.11.2019
3988 Clear 5 1022 80 10000 1 0 08:57 22.11.2019
3989 Clear 5 1022 80 10000 1 0 08:37 22.11.2019
3990 Clouds 5 1022 80 10000 1 0 08:19 22.11.2019
3991 Clouds 1 1021 84 0 1.5 295 07:40 22.11.2019
3992 Clouds 1 1021 84 0 1.5 295 07:19 22.11.2019
3993 Clouds 1 1021 84 0 1.5 295 06:42 22.11.2019
3994 Clouds 8 1022 70 10000 1 0 06:21 22.11.2019
3995 Clouds 8 1022 70 10000 1 0 05:32 22.11.2019
3996 Clouds 9 1022 70 10000 0.5 0 03:25 22.11.2019
3997 Clouds 9 1022 70 10000 0.5 0 03:25 22.11.2019
3998 Clouds 10 1021 66 10000 0.5 0 02:39 22.11.2019
3999 Clouds 10 1021 66 10000 0.5 0 02:19 22.11.2019
4000 Clouds 8 1020 71 0 2.12 259 01:42 22.11.2019
4001 Clouds 16 1020 74 10000 3.6 290 01:18 22.11.2019
4002 Clouds 16 1020 74 10000 3.6 290 00:26 22.11.2019
4003 Clouds 16 1019 74 10000 3.6 310 23:59 21.11.2019
4004 Clouds 16 1019 74 10000 3.6 310 23:41 21.11.2019
4005 Clouds 16 1019 37 10000 3.6 310 23:23 21.11.2019
4006 Clouds 18 1019 31 10000 3.6 260 22:54 21.11.2019
4007 Clouds 18 1019 31 10000 3.6 260 22:36 21.11.2019
4008 Clouds 18 1019 31 10000 3.6 260 22:18 21.11.2019
4009 Clouds 18 1019 37 10000 3.6 270 21:54 21.11.2019
4010 Clouds 18 1019 37 10000 3.6 270 21:36 21.11.2019
4011 Clouds 18 1019 37 10000 3.6 270 21:18 21.11.2019
4012 Clouds 18 1019 37 10000 4.1 270 20:54 21.11.2019
4013 Clouds 18 1019 37 10000 4.1 270 20:36 21.11.2019
4014 Clear 18 1019 35 10000 4.1 270 20:18 21.11.2019
4015 Clear 16 1018 35 0 2.32 159 19:41 21.11.2019
4016 Clear 16 1019 35 10000 2.1 0 19:23 21.11.2019
4017 Clear 16 1019 35 10000 2.1 0 18:58 21.11.2019
4018 Clear 16 1019 35 10000 2.1 0 18:40 21.11.2019
4019 Clear 16 1019 35 10000 2.1 0 18:21 21.11.2019
4020 Clear 15 1020 38 10000 3.1 280 17:58 21.11.2019
4021 Clear 15 1020 38 10000 3.1 280 17:39 21.11.2019
4022 Clear 15 1020 38 10000 3.1 280 17:21 21.11.2019
4023 Clear 14 1020 44 10000 2.1 0 16:56 21.11.2019
4024 Clear 14 1020 44 10000 2.1 0 16:56 21.11.2019
4025 Clear 14 1020 44 10000 2.1 0 16:37 21.11.2019
4026 Clear 14 1020 44 10000 2.1 0 16:19 21.11.2019
4027 Clear 12 1020 44 10000 2.1 0 15:42 21.11.2019
4028 Clear 12 1020 44 10000 2.1 0 15:21 21.11.2019
4029 Clear 12 1020 46 10000 2.1 270 14:57 21.11.2019
4030 Clear 12 1020 46 10000 2.1 270 14:37 21.11.2019
4031 Clear 12 1020 46 10000 2.1 270 14:19 21.11.2019
4032 Clear 6 1020 63 0 0.59 215 13:40 21.11.2019
4033 Clear 8 1020 61 10000 1 0 13:21 21.11.2019
4034 Clear 8 1020 61 10000 1 0 12:59 21.11.2019
4035 Clear 8 1020 61 10000 1 0 12:39 21.11.2019
4036 Clear 8 1020 61 10000 1 0 12:21 21.11.2019
4037 Clear 8 1019 64 10000 3.1 280 11:54 21.11.2019
4038 Clear 8 1019 64 10000 3.1 280 11:36 21.11.2019
4039 Clear 8 1019 93 10000 3.1 280 11:18 21.11.2019
4040 Clear 9 1019 93 10000 3.1 230 10:42 21.11.2019
4041 Clear 9 1019 93 10000 3.1 230 10:23 21.11.2019
4042 Clear 9 1019 93 10000 2.6 240 09:57 21.11.2019
4043 Clear 9 1019 93 10000 2.6 240 09:39 21.11.2019
4044 Clear 9 1019 93 10000 2.6 240 09:20 21.11.2019
4045 Clear 8 1019 61 10000 2.1 250 08:43 21.11.2019
4046 Clouds 8 1019 61 10000 2.1 250 08:21 21.11.2019
4047 Clouds 1 1020 90 0 2.69 299 07:43 21.11.2019
4048 Clouds 8 1019 61 10000 2.6 250 07:19 21.11.2019
4049 Clouds 8 1019 61 10000 2.6 250 06:58 21.11.2019
4050 Clouds 8 1019 61 10000 2.6 250 06:34 21.11.2019
4051 Clouds 9 1019 57 10000 2.6 260 05:39 21.11.2019
4052 Clouds 9 1019 82 10000 1.5 270 03:34 21.11.2019
4053 Clouds 9 1019 82 10000 1 0 02:42 21.11.2019
4054 Clouds 9 1019 65 10000 1 0 02:21 21.11.2019
4055 Clouds 6 1018 65 0 2.47 277 01:42 21.11.2019
4056 Clouds 14 1018 30 10000 3.1 230 01:19 21.11.2019
4057 Clouds 14 1018 30 10000 3.1 230 00:37 21.11.2019
4058 Clouds 14 1018 30 10000 3.1 230 00:18 21.11.2019
4059 Clouds 15 1017 28 10000 2.6 0 23:40 20.11.2019
4060 Clouds 15 1017 28 10000 2.6 0 23:21 20.11.2019
4061 Clouds 16 1017 29 10000 3.6 0 22:55 20.11.2019
4062 Clouds 16 1017 29 10000 3.6 0 22:37 20.11.2019
4063 Clouds 16 1017 29 10000 3.6 0 22:18 20.11.2019
4064 Clouds 16 1017 26 10000 4.6 250 21:55 20.11.2019
4065 Clouds 16 1017 26 10000 4.6 250 21:37 20.11.2019
4066 Clouds 16 1017 26 10000 4.6 250 21:19 20.11.2019
4067 Clouds 16 1017 29 10000 4.1 270 20:54 20.11.2019
4068 Clouds 16 1017 29 10000 4.1 270 20:36 20.11.2019
4069 Clear 16 1017 29 10000 4.1 270 20:18 20.11.2019
4070 Clear 15 1016 30 0 3.86 279 19:54 20.11.2019
4071 Clear 15 1016 30 0 3.86 279 19:36 20.11.2019
4072 Clear 15 1016 30 0 3.86 279 19:36 20.11.2019
4073 Clear 14 1018 33 10000 3.1 0 19:18 20.11.2019
4074 Clear 14 1018 33 10000 3.1 0 19:18 20.11.2019
4075 Clear 14 1018 33 10000 3.1 0 18:41 20.11.2019
4076 Clear 14 1018 33 10000 3.1 0 18:23 20.11.2019
4077 Clear 14 1018 35 10000 3.6 300 17:59 20.11.2019
4078 Clear 14 1018 35 10000 3.6 300 17:40 20.11.2019
4079 Clear 14 1018 35 10000 3.6 300 17:21 20.11.2019
4080 Clear 13 1018 37 10000 5.1 280 16:59 20.11.2019
4081 Clear 13 1018 37 10000 5.1 280 16:59 20.11.2019
4082 Clear 13 1018 37 10000 5.1 280 16:41 20.11.2019
4083 Clear 13 1018 37 10000 5.1 280 16:20 20.11.2019
4084 Clear 12 1019 40 10000 4.6 280 15:57 20.11.2019
4085 Clear 12 1019 40 10000 4.6 280 15:38 20.11.2019
4086 Clear 12 1019 40 10000 4.6 280 15:19 20.11.2019
4087 Clear 11 1019 43 10000 4.1 280 14:55 20.11.2019
4088 Clear 11 1019 43 10000 4.1 280 14:37 20.11.2019
4089 Clear 11 1019 43 10000 4.1 280 14:18 20.11.2019
4090 Clear 6 1018 76 0 2.33 282 13:55 20.11.2019
4091 Clear 6 1018 76 0 2.33 282 13:36 20.11.2019
4092 Clear 6 1019 75 10000 1 0 13:18 20.11.2019
4093 Clear 6 1019 75 10000 1 0 12:38 20.11.2019
4094 Clear 6 1019 75 10000 1 0 12:19 20.11.2019
4095 Clear 3 1018 86 10000 1.5 260 11:46 20.11.2019
4096 Clear 3 1018 86 10000 1.5 260 11:23 20.11.2019
4097 Clear 4 1017 86 10000 1.5 0 10:58 20.11.2019
4098 Clear 4 1017 86 10000 1.5 0 10:39 20.11.2019
4099 Clear 4 1017 86 10000 1.5 0 10:20 20.11.2019
4100 Clear 4 1017 86 10000 1 0 09:56 20.11.2019
4101 Clear 4 1017 86 10000 1 0 09:37 20.11.2019
4102 Clear 4 1017 86 10000 1 0 09:37 20.11.2019
4103 Clear 4 1017 86 10000 1 0 09:19 20.11.2019
4104 Clear 4 1017 86 10000 0.5 0 08:42 20.11.2019
4105 Clear 4 1017 86 10000 0.5 0 08:24 20.11.2019
4106 Clear 1 1015 94 0 3.05 296 07:50 20.11.2019
4107 Clear 4 1016 86 10000 0.5 0 07:30 20.11.2019
4108 Clear 4 1016 86 10000 0.5 0 06:55 20.11.2019
4109 Clear 4 1016 86 10000 0.5 0 06:55 20.11.2019
4110 Clear 4 1016 86 10000 0.5 0 06:37 20.11.2019
4111 Clear 4 1016 86 10000 0.5 0 06:18 20.11.2019
4112 Clear 8 1016 65 10000 2.6 270 04:40 20.11.2019
4113 Rain 9 1013 66 10000 2.6 250 02:23 20.11.2019
4114 Rain 5 1011 91 0 2.08 294 01:35 20.11.2019
4115 Rain 11 1009 66 10000 4.1 260 00:44 20.11.2019
4116 Rain 11 1009 66 10000 4.1 260 00:18 20.11.2019
4117 Rain 12 1006 71 10000 5.7 260 23:39 19.11.2019
4118 Rain 12 1006 71 10000 5.7 260 23:20 19.11.2019
4119 Rain 10 1004 87 8000 2.1 260 22:42 19.11.2019
4120 Rain 10 1004 87 8000 2.1 260 22:19 19.11.2019
4121 Rain 10 1003 81 5000 2.1 0 21:58 19.11.2019
4122 Rain 10 1003 81 5000 2.1 0 21:38 19.11.2019
4123 Rain 10 1003 81 5000 2.1 0 21:20 19.11.2019
4124 Rain 10 1003 81 5000 2.1 0 21:20 19.11.2019
4125 Rain 12 1004 66 7000 5.1 240 20:58 19.11.2019
4126 Rain 12 1004 66 7000 5.1 240 20:39 19.11.2019
4127 Rain 12 1004 66 7000 5.1 240 20:21 19.11.2019
4128 Rain 14 1003 58 0 8.34 280 19:59 19.11.2019
4129 Rain 14 1003 58 0 8.34 280 19:41 19.11.2019
4130 Clouds 19 1002 25 10000 5.7 260 19:19 19.11.2019
4131 Clouds 19 1002 25 10000 5.7 260 18:57 19.11.2019
4132 Clouds 19 1002 25 10000 5.7 260 18:38 19.11.2019
4133 Clouds 19 1002 25 10000 5.7 260 18:18 19.11.2019
4134 Clouds 19 1003 58 10000 6.2 260 17:56 19.11.2019
4135 Clouds 19 1003 58 10000 6.2 260 17:37 19.11.2019
4136 Clouds 19 1003 43 10000 6.2 260 17:18 19.11.2019
4137 Clouds 18 1005 27 10000 6.7 250 16:55 19.11.2019
4138 Clouds 18 1005 27 10000 6.7 250 16:37 19.11.2019
4139 Clouds 18 1005 27 10000 6.7 250 16:18 19.11.2019
4140 Clouds 19 1005 43 10000 6.7 270 15:41 19.11.2019
4141 Clouds 19 1005 43 10000 6.7 270 15:23 19.11.2019
4142 Clouds 17 1007 42 10000 1 0 14:56 19.11.2019
4143 Clouds 17 1007 42 10000 1 0 14:37 19.11.2019
4144 Clouds 17 1007 42 10000 1 0 14:19 19.11.2019
4145 Clouds 10 1008 75 0 2.57 321 13:41 19.11.2019
4146 Clouds 10 1008 75 0 2.57 321 13:41 19.11.2019
4147 Clouds 9 1009 87 10000 0.5 0 13:20 19.11.2019
4148 Clouds 9 1009 87 10000 0.5 0 12:41 19.11.2019
4149 Clouds 9 1009 87 10000 0.5 0 12:23 19.11.2019
4150 Clouds 9 1009 87 10000 0.5 0 12:23 19.11.2019
4151 Clouds 7 1010 93 10000 0.5 0 11:58 19.11.2019
4152 Clouds 7 1010 93 10000 0.5 0 11:38 19.11.2019
4153 Clouds 7 1010 93 10000 0.5 0 11:19 19.11.2019
4154 Clouds 6 1011 93 10000 0.5 0 10:48 19.11.2019
4155 Clouds 6 1011 93 10000 0.5 0 10:23 19.11.2019
4156 Clouds 8 1012 87 10000 2 320 09:58 19.11.2019
4157 Clouds 8 1012 87 10000 2 320 09:40 19.11.2019
4158 Clouds 8 1012 87 10000 2 320 09:19 19.11.2019
4159 Clouds 9 1013 81 10000 0.5 0 08:41 19.11.2019
4160 Clouds 9 1013 81 10000 0.5 0 08:23 19.11.2019
4161 Clouds 4 1013 93 0 2.66 322 07:57 19.11.2019
4162 Clouds 4 1013 93 0 2.66 322 07:39 19.11.2019
4163 Clouds 10 1015 81 10000 1 0 07:20 19.11.2019
4164 Clouds 10 1015 81 10000 1 0 06:50 19.11.2019
4165 Clouds 10 1015 81 10000 1 0 06:30 19.11.2019
4166 Clouds 11 1016 76 10000 0.5 0 05:28 19.11.2019
4167 Clouds 13 1017 62 10000 1.5 270 03:50 19.11.2019
4168 Clouds 13 1017 62 10000 1.5 270 03:31 19.11.2019
4169 Clouds 14 1018 58 10000 2.6 250 02:55 19.11.2019
4170 Clouds 8 1016 83 0 3.02 301 01:59 19.11.2019
4171 Clouds 14 1018 58 10000 3.1 270 01:27 19.11.2019
4172 Clouds 14 1018 58 10000 3.1 270 00:21 19.11.2019
4173 Clouds 15 1018 58 10000 4.1 270 23:56 18.11.2019
4174 Clouds 15 1018 58 10000 4.1 270 23:37 18.11.2019
4175 Clouds 15 1018 58 10000 4.1 270 23:18 18.11.2019
4176 Clouds 15 1018 58 10000 4.6 270 22:42 18.11.2019
4177 Clouds 15 1018 58 10000 4.6 270 22:23 18.11.2019
4178 Clouds 16 1018 51 10000 5.7 270 21:54 18.11.2019
4179 Clouds 16 1018 51 10000 5.7 270 21:54 18.11.2019
4180 Clouds 16 1018 51 10000 5.7 270 21:36 18.11.2019
4181 Clouds 16 1018 51 10000 5.7 270 21:18 18.11.2019
4182 Rain 15 1018 54 9000 5.1 270 20:41 18.11.2019
4183 Rain 15 1018 54 9000 5.1 270 20:20 18.11.2019
4184 Rain 14 1016 49 0 3.67 281 19:58 18.11.2019
4185 Rain 14 1016 49 0 3.67 281 19:58 18.11.2019
4186 Rain 14 1016 49 0 3.67 281 19:39 18.11.2019
4187 Clouds 15 1017 54 10000 5.1 270 19:21 18.11.2019
4188 Clouds 15 1017 54 10000 5.1 270 18:56 18.11.2019
4189 Clouds 15 1017 54 10000 5.1 270 18:56 18.11.2019
4190 Clouds 15 1017 54 10000 5.1 270 18:38 18.11.2019
4191 Clouds 15 1017 54 10000 5.1 270 18:19 18.11.2019
4192 Clouds 16 1017 51 10000 5.1 270 17:59 18.11.2019
4193 Clouds 16 1017 51 10000 5.1 270 17:37 18.11.2019
4194 Clouds 16 1017 51 10000 5.1 270 17:19 18.11.2019
4195 Rain 10 1017 77 0 1.6 287 16:43 18.11.2019
4196 Rain 10 1017 77 0 1.6 287 16:43 18.11.2019
4197 Rain 12 1017 76 10000 2.1 260 16:24 18.11.2019
4198 Rain 12 1017 76 10000 2.1 260 15:59 18.11.2019
4199 Rain 12 1017 76 10000 2.1 260 15:40 18.11.2019
4200 Rain 12 1017 76 10000 2.1 260 15:21 18.11.2019
4201 Rain 11 1018 81 8000 2.6 280 14:58 18.11.2019
4202 Rain 11 1018 81 8000 2.6 280 14:38 18.11.2019
4203 Rain 11 1018 81 8000 2.6 280 14:18 18.11.2019
4204 Rain 7 1017 86 0 1 305 13:42 18.11.2019
4205 Rain 9 1017 76 10000 2.1 250 13:24 18.11.2019
4206 Rain 9 1017 76 10000 2.1 250 12:43 18.11.2019
4207 Rain 9 1017 76 10000 2.1 250 12:20 18.11.2019
4208 Rain 9 1017 70 10000 3.1 270 11:57 18.11.2019
4209 Rain 9 1017 70 10000 3.1 270 11:38 18.11.2019
4210 Rain 9 1017 70 10000 3.1 270 11:20 18.11.2019
4211 Clouds 10 1016 61 10000 2.1 250 10:43 18.11.2019
4212 Clouds 10 1016 61 10000 2.1 250 10:25 18.11.2019
4213 Clouds 10 1016 57 10000 3.6 260 09:57 18.11.2019
4214 Clouds 10 1016 57 10000 3.6 260 09:38 18.11.2019
4215 Clouds 10 1016 57 10000 3.6 260 09:20 18.11.2019
4216 Clouds 10 1016 53 10000 4.6 260 08:47 18.11.2019
4217 Rain 10 1016 53 10000 4.6 260 08:24 18.11.2019
4218 Clear 2 1015 93 0 2.89 310 07:58 18.11.2019
4219 Clear 2 1015 93 0 2.89 310 07:39 18.11.2019
4220 Clear 11 1016 43 10000 4.6 250 07:20 18.11.2019
4221 Clear 11 1016 43 10000 4.6 250 06:43 18.11.2019
4222 Clear 11 1016 43 10000 4.6 250 06:25 18.11.2019
4223 Clear 11 1016 93 10000 3.6 250 05:41 18.11.2019
4224 Clouds 11 1015 50 10000 4.1 0 03:53 18.11.2019
4225 Clouds 6 1013 80 0 2.59 290 01:40 18.11.2019
4226 Clouds 12 1014 50 10000 4.6 250 00:53 18.11.2019
4227 Clouds 12 1014 50 10000 4.6 250 00:18 18.11.2019
4228 Clouds 10 1014 61 10000 5.7 260 23:40 17.11.2019
4229 Clear 10 1014 61 10000 5.7 260 23:21 17.11.2019
4230 Rain 11 1013 62 10000 5.7 270 22:57 17.11.2019
4231 Rain 11 1013 62 10000 5.7 270 22:38 17.11.2019
4232 Rain 11 1013 62 10000 5.7 270 22:20 17.11.2019
4233 Rain 11 1012 62 10000 4.6 260 21:42 17.11.2019
4234 Rain 11 1012 62 10000 4.6 260 21:20 17.11.2019
4235 Rain 11 1013 62 10000 5.7 270 20:59 17.11.2019
4236 Rain 11 1013 62 10000 5.7 270 20:39 17.11.2019
4237 Rain 11 1013 62 10000 5.7 270 20:20 17.11.2019
4238 Rain 11 1010 57 0 6.92 279 19:57 17.11.2019
4239 Rain 11 1010 57 0 6.92 279 19:39 17.11.2019
4240 Rain 10 1012 66 10000 4.1 260 19:20 17.11.2019
4241 Rain 10 1012 66 10000 4.1 260 18:56 17.11.2019
4242 Rain 10 1012 66 10000 4.1 260 18:38 17.11.2019
4243 Rain 10 1012 66 10000 4.1 260 18:19 17.11.2019
4244 Rain 10 1012 66 10000 4.1 260 18:19 17.11.2019
4245 Rain 8 1011 87 10000 3.6 270 17:58 17.11.2019
4246 Rain 8 1011 87 10000 3.6 270 17:40 17.11.2019
4247 Rain 8 1011 87 10000 3.6 270 17:20 17.11.2019
4248 Rain 12 1009 66 10000 4.6 250 16:59 17.11.2019
4249 Rain 12 1009 66 10000 4.6 250 16:41 17.11.2019
4250 Rain 12 1009 66 10000 4.6 250 16:21 17.11.2019
4251 Rain 8 1008 87 8000 4.1 250 15:56 17.11.2019
4252 Rain 8 1008 87 8000 4.1 250 15:38 17.11.2019
4253 Rain 8 1008 87 8000 4.1 250 15:18 17.11.2019
4254 Rain 9 1007 87 9000 3.6 250 14:56 17.11.2019
4255 Rain 9 1007 87 9000 3.6 250 14:37 17.11.2019
4256 Rain 9 1007 87 9000 3.6 250 14:19 17.11.2019
4257 Rain 8 1006 85 0 3.09 301 13:56 17.11.2019
4258 Rain 8 1006 85 0 3.09 301 13:56 17.11.2019
4259 Rain 8 1006 85 0 3.09 301 13:38 17.11.2019
4260 Rain 9 1005 87 8000 2.6 250 13:19 17.11.2019
4261 Rain 9 1005 87 8000 2.6 250 12:44 17.11.2019
4262 Rain 9 1005 87 8000 2.6 250 12:22 17.11.2019
4263 Rain 9 1004 81 9000 4.6 240 11:57 17.11.2019
4264 Rain 9 1004 81 9000 4.6 240 11:39 17.11.2019
4265 Rain 9 1004 81 9000 4.6 240 11:20 17.11.2019
4266 Rain 9 1004 81 10000 2.6 260 10:44 17.11.2019
4267 Rain 9 1004 81 10000 2.6 260 10:23 17.11.2019
4268 Rain 10 1003 76 9000 5.1 240 09:57 17.11.2019
4269 Rain 10 1003 76 9000 5.1 240 09:39 17.11.2019
4270 Rain 10 1003 76 9000 5.1 240 09:20 17.11.2019
4271 Rain 10 1003 76 6000 5.7 250 08:40 17.11.2019
4272 Rain 10 1003 76 6000 5.7 250 08:20 17.11.2019
4273 Rain 7 1004 91 0 2.88 326 07:47 17.11.2019
4274 Rain 7 1004 91 0 2.88 326 07:24 17.11.2019
4275 Rain 7 1004 91 0 2.88 326 06:57 17.11.2019
4276 Rain 10 1003 76 10000 3.6 250 06:32 17.11.2019
4277 Rain 10 1003 76 10000 3.6 250 05:40 17.11.2019
4278 Rain 9 1004 81 10000 2.1 230 04:23 17.11.2019
4279 Rain 9 1005 81 10000 2.1 0 03:43 17.11.2019
4280 Rain 9 1005 81 10000 2.1 0 03:23 17.11.2019
4281 Rain 9 1005 81 10000 1.5 260 02:25 17.11.2019
4282 Clouds 12 1005 54 10000 5.7 250 01:25 17.11.2019
4283 Clouds 12 1005 54 10000 5.7 250 00:49 17.11.2019
4284 Clouds 12 1005 54 10000 5.7 250 00:22 17.11.2019
4285 Clouds 13 1005 43 10000 4.6 250 23:43 16.11.2019
4286 Clouds 13 1005 43 10000 4.6 250 23:19 16.11.2019
4287 Clouds 14 1006 45 10000 4.6 260 22:58 16.11.2019
4288 Clouds 14 1006 45 10000 4.6 260 22:40 16.11.2019
4289 Clouds 14 1006 45 10000 4.6 260 22:18 16.11.2019
4290 Clouds 14 1006 44 10000 6.2 260 21:41 16.11.2019
4291 Clouds 14 1006 44 10000 6.2 260 21:23 16.11.2019
4292 Clouds 15 1007 45 10000 7.2 270 20:58 16.11.2019
4293 Clouds 15 1007 45 10000 7.2 270 20:39 16.11.2019
4294 Clouds 15 1007 33 10000 7.2 270 20:20 16.11.2019
4295 Clouds 15 1005 33 0 6.27 292 19:56 16.11.2019
4296 Clouds 15 1005 33 0 6.27 292 19:38 16.11.2019
4297 Clouds 15 1008 30 10000 5.7 260 19:19 16.11.2019
4298 Clouds 15 1008 30 10000 5.7 260 18:43 16.11.2019
4299 Clouds 15 1008 30 10000 5.7 260 18:43 16.11.2019
4300 Clouds 15 1008 30 10000 5.7 260 18:25 16.11.2019
4301 Clouds 16 1008 31 10000 4.6 270 17:56 16.11.2019
4302 Clouds 16 1008 31 10000 4.6 270 17:37 16.11.2019
4303 Clouds 16 1008 31 10000 4.6 270 17:18 16.11.2019
4304 Clouds 15 1009 38 10000 5.7 260 16:46 16.11.2019
4305 Clouds 15 1009 38 10000 5.7 260 16:46 16.11.2019
4306 Clouds 15 1009 38 10000 5.7 260 16:28 16.11.2019
4307 Clouds 14 1010 38 10000 6.2 260 15:56 16.11.2019
4308 Clouds 14 1010 38 10000 6.2 260 15:38 16.11.2019
4309 Clouds 14 1010 38 10000 6.2 260 15:19 16.11.2019
4310 Clouds 13 1011 37 10000 4.6 0 14:41 16.11.2019
4311 Clear 13 1011 37 10000 4.6 0 14:21 16.11.2019
4312 Clear 8 1010 58 0 3.37 285 13:57 16.11.2019
4313 Clear 8 1010 58 0 3.37 285 13:39 16.11.2019
4314 Clear 8 1010 58 0 3.37 285 13:39 16.11.2019
4315 Clear 11 1011 59 10000 2.1 0 13:19 16.11.2019
4316 Clear 11 1011 59 10000 2.1 0 12:59 16.11.2019
4317 Clear 11 1011 59 10000 2.1 0 12:40 16.11.2019
4318 Clear 11 1011 59 10000 2.1 0 12:20 16.11.2019
4319 Clear 11 1011 59 10000 4.1 250 11:45 16.11.2019
4320 Clear 11 1011 59 10000 4.1 250 11:26 16.11.2019
4321 Clear 11 1012 43 10000 4.1 240 10:57 16.11.2019
4322 Clear 11 1012 43 10000 4.1 240 10:39 16.11.2019
4323 Clear 11 1012 43 10000 4.1 240 10:21 16.11.2019
4324 Clear 11 1012 43 10000 2.6 0 09:44 16.11.2019
4325 Clear 11 1012 43 10000 2.6 0 09:21 16.11.2019
4326 Clear 11 1012 43 10000 2.6 270 08:59 16.11.2019
4327 Clear 11 1012 43 10000 2.6 270 08:39 16.11.2019
4328 Clear 11 1012 43 10000 2.6 270 08:19 16.11.2019
4329 Clear 3 1011 91 0 3.3 302 07:43 16.11.2019
4330 Clear 3 1011 91 0 3.3 302 07:43 16.11.2019
4331 Clear 11 1012 50 10000 1.5 0 07:21 16.11.2019
4332 Clear 11 1012 50 10000 1.5 0 06:52 16.11.2019
4333 Clear 11 1012 50 10000 1.5 0 06:33 16.11.2019
4334 Clear 11 1013 53 10000 4.1 250 05:30 16.11.2019
4335 Rain 9 1013 70 10000 4.1 250 03:49 16.11.2019
4336 Rain 9 1013 70 10000 4.1 250 03:25 16.11.2019
4337 Clouds 6 1011 77 0 3.24 299 01:51 16.11.2019
4338 Clear 13 1012 47 10000 4.1 250 01:20 16.11.2019
4339 Clear 13 1012 47 10000 4.1 250 00:44 16.11.2019
4340 Clear 13 1012 47 10000 4.1 250 00:25 16.11.2019
4341 Clear 13 1011 43 10000 4.1 260 23:40 15.11.2019
4342 Clear 13 1011 43 10000 4.1 260 23:21 15.11.2019
4343 -273 0 0 0 0 0 22:55 15.11.2019
4344 Clear 15 1011 41 10000 3.1 260 22:55 15.11.2019
4345 Clear 15 1011 41 10000 3.1 260 22:37 15.11.2019
4346 Clear 15 1011 41 10000 3.1 260 22:18 15.11.2019
4347 Clear 14 1011 50 10000 5.7 270 21:41 15.11.2019
4348 Clear 14 1011 50 10000 5.7 270 21:21 15.11.2019
4349 Clouds 15 1009 44 10000 4.1 260 20:59 15.11.2019
4350 Clouds 15 1009 44 10000 4.1 260 20:40 15.11.2019
4351 Clouds 15 1009 44 10000 4.1 260 20:21 15.11.2019
4352 Clouds 14 1007 39 0 6.82 283 19:58 15.11.2019
4353 Clouds 14 1007 39 0 6.82 283 19:40 15.11.2019
4354 Clouds 13 1009 62 10000 5.1 280 19:20 15.11.2019
4355 Clouds 13 1009 62 10000 5.1 280 18:58 15.11.2019
4356 Clouds 13 1009 62 10000 5.1 280 18:39 15.11.2019
4357 Clouds 13 1009 62 10000 5.1 280 18:21 15.11.2019
4358 Rain 11 1008 62 4000 5.1 240 17:43 15.11.2019
4359 Rain 11 1008 62 4000 5.1 240 17:24 15.11.2019
4360 Rain 11 1008 62 4000 5.1 240 17:24 15.11.2019
4361 Clouds 12 1005 71 10000 7.2 270 16:57 15.11.2019
4362 Rain 12 1007 71 8000 5.1 270 16:38 15.11.2019
4363 Rain 12 1007 71 8000 5.1 270 16:19 15.11.2019
4364 Rain 14 1003 82 4000 6.2 280 15:39 15.11.2019
4365 Rain 14 1003 82 4000 6.2 280 15:20 15.11.2019
4366 Rain 13 1001 71 8000 7.7 290 14:57 15.11.2019
4367 Rain 13 1000 82 4000 3.6 260 14:38 15.11.2019
4368 Rain 13 1000 82 4000 3.6 260 14:19 15.11.2019
4369 Rain 11 1001 93 0 5.04 342 13:58 15.11.2019
4370 Rain 11 1001 93 0 5.04 342 13:39 15.11.2019
4371 Rain 12 1000 93 7000 1 0 13:20 15.11.2019
4372 Rain 12 1000 93 7000 1 0 12:57 15.11.2019
4373 Rain 12 1000 93 7000 1 0 12:39 15.11.2019
4374 Rain 12 1000 93 7000 1 0 12:20 15.11.2019
4375 Rain 12 1000 93 8000 1 0 11:57 15.11.2019
4376 Rain 12 1000 93 8000 1 0 11:38 15.11.2019
4377 Rain 12 1000 93 8000 1 0 11:19 15.11.2019
4378 Rain 12 1001 93 9000 1 0 10:41 15.11.2019
4379 Rain 12 1001 93 9000 1 0 10:41 15.11.2019
4380 Rain 12 1001 93 9000 1 0 10:22 15.11.2019
4381 Rain 12 1003 93 10000 3.48 350 09:58 15.11.2019
4382 Rain 12 1003 93 10000 3.48 350 09:40 15.11.2019
4383 Rain 12 1003 93 10000 3.48 350 09:19 15.11.2019
4384 Rain 13 1004 76 10000 0.5 0 08:44 15.11.2019
4385 Clouds 13 1004 76 10000 0.5 0 08:22 15.11.2019
4386 Clouds 9 1007 89 0 2.94 322 07:47 15.11.2019
4387 Clouds 13 1008 76 10000 1 0 07:28 15.11.2019
4388 Clouds 13 1008 76 10000 1 0 06:38 15.11.2019
4389 Clouds 12 1009 81 10000 1 0 05:59 15.11.2019
4390 Clouds 12 1009 81 10000 1 0 05:39 15.11.2019
4391 Clouds 12 1009 81 10000 1 0 05:20 15.11.2019
4392 Clouds 13 1012 76 10000 1.5 110 03:48 15.11.2019
4393 Clouds 15 1012 62 10000 1 0 02:52 15.11.2019
4394 Clouds 15 1012 62 10000 1 0 02:18 15.11.2019
4395 Clouds 16 1013 59 10000 3.1 270 01:32 15.11.2019
4396 Clouds 16 1013 59 10000 3.1 270 00:48 15.11.2019
4397 Clouds 16 1013 59 10000 3.1 270 00:29 15.11.2019
4398 Clouds 17 1013 51 10000 4.6 270 23:49 14.11.2019
4399 Clouds 17 1013 51 10000 4.6 270 23:27 14.11.2019
4400 Clouds 17 1013 51 10000 4.1 260 22:57 14.11.2019
4401 Clouds 17 1013 51 10000 4.1 260 22:39 14.11.2019
4402 Clouds 17 1013 51 10000 4.1 260 22:19 14.11.2019
4403 Clouds 18 1014 48 10000 4.6 270 21:42 14.11.2019
4404 Clouds 18 1014 48 10000 4.6 270 21:23 14.11.2019
4405 Clouds 18 1014 48 10000 3.6 260 20:56 14.11.2019
4406 Clouds 18 1014 48 10000 3.6 260 20:37 14.11.2019
4407 Clouds 18 1014 48 10000 3.6 260 20:19 14.11.2019
4408 Clouds 14 1014 60 0 4.03 284 19:57 14.11.2019
4409 Clouds 14 1014 60 0 4.03 284 19:38 14.11.2019
4410 Clouds 16 1016 55 10000 1 0 19:18 14.11.2019
4411 Clouds 16 1016 55 10000 1 0 18:43 14.11.2019
4412 Clouds 16 1016 55 10000 1 0 18:24 14.11.2019
4413 Clouds 15 1016 54 10000 1 0 17:58 14.11.2019
4414 Clouds 15 1016 54 10000 1 0 17:38 14.11.2019
4415 Clouds 15 1016 54 10000 1 0 17:20 14.11.2019
4416 Clouds 13 1017 62 10000 0.5 0 16:58 14.11.2019
4417 Clouds 13 1017 62 10000 0.5 0 16:58 14.11.2019
4418 Clouds 13 1017 62 10000 0.5 0 16:37 14.11.2019
4419 Clouds 13 1017 62 10000 0.5 0 16:19 14.11.2019
4420 Clouds 13 1017 62 10000 1.18 343 15:58 14.11.2019
4421 Clouds 13 1017 62 10000 1.18 343 15:38 14.11.2019
4422 Clouds 13 1017 62 10000 1.18 343 15:20 14.11.2019
4423 Clouds 11 1018 66 10000 1.18 343 14:55 14.11.2019
4424 Clouds 11 1018 66 10000 1.18 343 14:55 14.11.2019
4425 Clouds 11 1018 66 10000 1.18 343 14:37 14.11.2019
4426 Clouds 11 1018 66 10000 0.98 317 14:18 14.11.2019
4427 Clouds 9 1018 68 0 0.98 317 13:41 14.11.2019
4428 Clouds 8 1018 81 10000 1 0 13:22 14.11.2019
4429 Clouds 8 1018 81 10000 1 0 12:57 14.11.2019
4430 Clouds 8 1018 81 10000 1 0 12:38 14.11.2019
4431 Clouds 8 1018 81 10000 1 0 12:19 14.11.2019
4432 Clouds 6 1018 87 10000 1.5 280 11:54 14.11.2019
4433 Clouds 6 1018 87 10000 1.5 280 11:36 14.11.2019
4434 Clear 6 1018 87 10000 1.5 280 11:18 14.11.2019
4435 Clear 6 1018 87 10000 1.5 280 11:18 14.11.2019
4436 Clear 6 1018 87 10000 1 0 10:41 14.11.2019
4437 Clear 6 1018 87 10000 1 0 10:41 14.11.2019
4438 Clear 6 1018 87 10000 1 0 10:21 14.11.2019
4439 Clear 7 1019 81 10000 2.26 312 09:59 14.11.2019
4440 Clear 7 1019 81 10000 2.26 312 09:41 14.11.2019
4441 Clear 7 1019 81 10000 2.26 312 09:22 14.11.2019
4442 Clear 8 1019 75 10000 1.5 260 08:48 14.11.2019
4443 Clear 8 1019 75 10000 1.5 260 08:26 14.11.2019
4444 Clear 4 1018 91 0 2.18 304 07:57 14.11.2019
4445 Clear 4 1018 91 0 2.18 304 07:38 14.11.2019
4446 Clear 4 1018 91 0 2.18 304 07:20 14.11.2019
4447 Clear 4 1018 91 0 2.18 304 06:44 14.11.2019
4448 Clear 11 1019 62 10000 1.5 250 06:19 14.11.2019
4449 Clear 13 1019 50 10000 3.1 270 04:48 14.11.2019
4450 Clear 13 1019 50 10000 3.1 270 04:26 14.11.2019
4451 Clear 12 1020 66 10000 2.46 298 02:49 14.11.2019
4452 Clear 12 1020 66 10000 2.46 298 02:28 14.11.2019
4453 Clear 9 1017 72 0 3.11 284 01:33 14.11.2019
4454 Clear 16 1019 41 10000 2.1 250 00:55 14.11.2019
4455 Clear 16 1019 41 10000 2.1 250 00:33 14.11.2019
4456 Clear 17 1018 36 10000 4.6 280 23:44 13.11.2019
4457 Clear 17 1018 36 10000 4.6 280 23:25 13.11.2019
4458 Clear 18 1018 34 10000 4.6 270 22:57 13.11.2019
4459 Clear 18 1018 34 10000 4.6 270 22:39 13.11.2019
4460 Clear 18 1018 34 10000 4.6 270 22:21 13.11.2019
4461 Clear 18 1017 34 10000 4.6 270 21:56 13.11.2019
4462 Clear 18 1017 34 10000 4.6 270 21:38 13.11.2019
4463 Clear 18 1017 34 10000 4.6 270 21:19 13.11.2019
4464 Clouds 18 1017 36 10000 5.1 270 20:57 13.11.2019
4465 Clouds 18 1017 36 10000 5.1 270 20:37 13.11.2019
4466 Clouds 18 1017 36 10000 5.1 270 20:37 13.11.2019
4467 Clouds 18 1017 36 10000 5.1 270 20:37 13.11.2019
4468 Clouds 18 1017 36 10000 5.1 270 20:18 13.11.2019
4469 Clear 17 1015 39 0 4.53 280 19:44 13.11.2019
4470 Clouds 18 1017 39 10000 6.2 270 19:20 13.11.2019
4471 Clouds 18 1017 39 10000 6.2 270 18:58 13.11.2019
4472 Clouds 18 1017 39 10000 6.2 270 18:58 13.11.2019
4473 Clouds 18 1017 39 10000 6.2 270 18:39 13.11.2019
4474 Clouds 18 1017 39 10000 6.2 270 18:39 13.11.2019
4475 Clouds 18 1017 39 10000 6.2 270 18:21 13.11.2019
4476 Clouds 18 1017 42 10000 4.1 260 17:58 13.11.2019
4477 Clouds 18 1017 42 10000 4.1 260 17:40 13.11.2019
4478 Clouds 18 1017 42 10000 4.1 260 17:21 13.11.2019
4479 Clouds 17 1017 45 10000 5.7 280 16:58 13.11.2019
4480 Clouds 17 1017 45 10000 5.7 280 16:58 13.11.2019
4481 Clouds 17 1017 45 10000 5.7 280 16:40 13.11.2019
4482 Clouds 17 1017 45 10000 5.7 280 16:21 13.11.2019
4483 Clear 17 1017 45 10000 6.2 280 15:58 13.11.2019
4484 Clear 17 1017 45 10000 6.2 280 15:39 13.11.2019
4485 Clear 17 1017 45 10000 6.2 280 15:20 13.11.2019
4486 Clouds 17 1017 45 10000 6.2 280 15:20 13.11.2019
4487 Clear 16 1015 43 0 4.27 288 14:43 13.11.2019
4488 Clouds 12 1017 67 0 2.89 293 14:22 13.11.2019
4489 Clouds 11 1016 69 0 2.58 292 13:58 13.11.2019
4490 Clouds 11 1016 69 0 2.58 292 13:36 13.11.2019
4491 Clouds 12 1017 76 10000 2.1 310 13:18 13.11.2019
4492 Clouds 12 1017 76 10000 2.1 310 12:54 13.11.2019
4493 Clouds 12 1017 76 10000 2.1 310 12:36 13.11.2019
4494 Clouds 12 1017 76 10000 2.1 310 12:18 13.11.2019
4495 Rain 12 1016 71 10000 1.5 300 11:40 13.11.2019
4496 Rain 12 1016 71 10000 1.5 300 11:20 13.11.2019
4497 Clouds 13 1016 62 10000 1.5 0 10:58 13.11.2019
4498 Clouds 13 1016 62 10000 1.5 0 10:39 13.11.2019
4499 Clouds 13 1016 62 10000 1.5 0 10:19 13.11.2019
4500 Clouds 13 1016 62 10000 2.1 280 09:45 13.11.2019
4501 Clouds 13 1016 62 10000 2.1 280 09:22 13.11.2019
4502 Clouds 13 1016 58 10000 2.1 270 08:57 13.11.2019
4503 Clouds 13 1016 58 10000 2.1 270 08:36 13.11.2019
4504 Clouds 13 1016 58 10000 2.1 270 08:18 13.11.2019
4505 Clouds 7 1015 78 0 2.41 302 07:42 13.11.2019
4506 Clouds 7 1015 78 0 2.41 302 07:42 13.11.2019
4507 Clouds 15 1016 44 10000 3.6 240 07:20 13.11.2019
4508 Clouds 15 1016 44 10000 3.6 240 06:43 13.11.2019
4509 Clouds 15 1016 44 10000 3.6 240 06:19 13.11.2019
4510 Clouds 15 1016 44 10000 3.6 240 06:19 13.11.2019
4511 Clouds 15 1016 44 10000 3.6 240 06:19 13.11.2019
4512 Clouds 15 1016 44 10000 3.6 240 06:19 13.11.2019
4513 Clouds 15 1016 44 10000 3.6 240 06:19 13.11.2019
4514 Clouds 14 1016 47 10000 1.5 280 05:51 13.11.2019
4515 Clouds 14 1016 47 10000 1.5 280 05:30 13.11.2019
4516 Clouds 12 1015 54 10000 2.72 295 04:20 13.11.2019
4517 Clouds 12 1014 62 0 3.02 282 01:54 13.11.2019
4518 Clouds 12 1014 62 0 3.02 282 01:35 13.11.2019
4519 Clouds 19 1013 25 10000 4.6 280 00:43 13.11.2019
4520 Clouds 21 1013 21 10000 4.6 260 23:58 12.11.2019
4521 Clouds 21 1013 21 10000 4.6 260 23:40 12.11.2019
4522 Clouds 21 1013 21 10000 4.6 260 23:40 12.11.2019
4523 Clouds 21 1013 21 10000 4.6 260 23:20 12.11.2019
4524 Clouds 22 1012 19 10000 4.6 270 22:43 12.11.2019
4525 Clouds 22 1012 19 10000 4.6 270 22:19 12.11.2019
4526 Clouds 24 1012 16 10000 3.6 250 21:57 12.11.2019
4527 Clouds 24 1012 16 10000 3.6 250 21:38 12.11.2019
4528 Clouds 24 1012 16 10000 3.6 250 21:20 12.11.2019
4529 Clouds 23 1013 17 10000 4.1 280 20:55 12.11.2019
4530 Clouds 23 1013 17 10000 4.1 280 20:37 12.11.2019
4531 Clear 23 1013 17 10000 4.1 280 20:18 12.11.2019
4532 Clear 22 1011 25 0 1.32 236 19:55 12.11.2019
4533 Clear 22 1011 25 0 1.32 236 19:55 12.11.2019
4534 Clear 22 1011 25 0 1.32 236 19:37 12.11.2019
4535 Clear 24 1013 19 10000 1.5 0 19:18 12.11.2019
4536 Clear 24 1013 19 10000 1.5 0 18:55 12.11.2019
4537 Clear 24 1013 19 10000 1.5 0 18:36 12.11.2019
4538 Clear 24 1013 19 10000 1.5 0 18:18 12.11.2019
4539 Clear 21 1014 30 10000 2.1 310 17:55 12.11.2019
4540 Clear 21 1014 30 10000 2.1 310 17:36 12.11.2019
4541 Clear 21 1014 30 10000 2.1 310 17:18 12.11.2019
4542 Clear 19 1015 37 10000 2.1 280 16:41 12.11.2019
4543 Clear 19 1015 37 10000 2.1 280 16:23 12.11.2019
4544 Clear 17 1015 45 10000 2.1 210 15:42 12.11.2019
4545 Clear 17 1015 45 10000 2.1 210 15:23 12.11.2019
4546 Clear 14 1016 58 10000 0.5 0 14:58 12.11.2019
4547 Clear 14 1016 58 10000 0.5 0 14:39 12.11.2019
4548 Clear 14 1016 58 10000 0.5 0 14:19 12.11.2019
4549 Clear 12 1014 62 0 0.41 271 13:57 12.11.2019
4550 Clear 12 1014 62 0 0.41 271 13:39 12.11.2019
4551 Clear 8 1017 75 10000 1 0 13:19 12.11.2019
4552 Clear 8 1017 75 10000 1 0 12:43 12.11.2019
4553 Clear 8 1017 75 10000 1 0 12:43 12.11.2019
4554 Clear 8 1017 75 10000 1 0 12:20 12.11.2019
4555 Clear 8 1017 75 10000 1 0 12:20 12.11.2019
4556 Clear 6 1017 81 10000 0.52 243 11:59 12.11.2019
4557 Clear 6 1017 81 10000 0.38 237 11:41 12.11.2019
4558 Clear 6 1017 81 10000 1.68 298 11:22 12.11.2019
4559 Clear 7 1016 75 10000 1.81 299 10:57 12.11.2019
4560 Clear 7 1016 75 10000 1.68 298 10:38 12.11.2019
4561 Clear 7 1016 75 10000 1.81 299 10:20 12.11.2019
4562 Clear 8 1016 75 10000 1 0 09:56 12.11.2019
4563 Clear 8 1016 75 10000 1 0 09:38 12.11.2019
4564 Clear 8 1016 75 10000 1 0 09:38 12.11.2019
4565 Clear 8 1016 75 10000 1 0 09:18 12.11.2019
4566 Clear 8 1016 75 10000 1 0 08:41 12.11.2019
4567 Clear 8 1016 75 10000 1 0 08:41 12.11.2019
4568 Clear 8 1016 75 10000 1 0 08:22 12.11.2019
4569 Clear 8 1014 87 0 1.9 290 07:41 12.11.2019
4570 Clear 11 1016 62 10000 1 0 07:23 12.11.2019
4571 Clear 11 1016 62 10000 1 0 06:45 12.11.2019
4572 Clear 11 1016 62 10000 1 0 06:23 12.11.2019
4573 Clear 12 1016 58 10000 0.5 0 05:46 12.11.2019
4574 Clear 14 1016 50 10000 2.1 310 04:50 12.11.2019
4575 Clear 15 1016 47 10000 1 0 03:48 12.11.2019
4576 Clouds 14 1013 76 0 1.85 262 01:47 12.11.2019
4577 Clouds 21 1013 35 10000 3.1 240 01:22 12.11.2019
4578 Clouds 21 1013 35 10000 3.1 240 00:47 12.11.2019
4579 Clouds 21 1013 35 10000 3.1 240 00:28 12.11.2019
4580 Clouds 23 1013 28 10000 4.1 270 23:44 11.11.2019
4581 Clouds 23 1013 28 10000 4.1 270 23:23 11.11.2019
4582 Clouds 24 1012 27 10000 4.1 280 22:57 11.11.2019
4583 Clouds 24 1012 27 10000 4.1 280 22:36 11.11.2019
4584 Clouds 24 1012 27 10000 4.1 280 22:18 11.11.2019
4585 Clouds 24 1012 27 10000 4.1 280 22:18 11.11.2019
4586 Clouds 23 1013 33 10000 2.6 290 21:56 11.11.2019
4587 Clouds 23 1013 33 10000 2.6 290 21:38 11.11.2019
4588 Clouds 23 1013 33 10000 2.6 290 21:19 11.11.2019
4589 Clouds 23 1013 33 10000 2.1 290 20:42 11.11.2019
4590 Clouds 23 1013 33 10000 2.1 290 20:20 11.11.2019
4591 Clouds 23 1013 33 10000 2.1 290 20:20 11.11.2019
4592 Clouds 21 1011 49 0 2.11 151 19:57 11.11.2019
4593 Clouds 21 1011 49 0 2.11 151 19:57 11.11.2019
4594 Clouds 21 1011 49 0 2.11 151 19:39 11.11.2019
4595 Clouds 23 1013 38 10000 2.1 280 19:18 11.11.2019
4596 Clouds 23 1013 38 10000 2.1 280 18:54 11.11.2019
4597 Clouds 23 1013 38 10000 2.1 280 18:36 11.11.2019
4598 Clouds 23 1013 38 10000 2.1 280 18:18 11.11.2019
4599 Clouds 22 1014 37 10000 0.5 0 17:41 11.11.2019
4600 Clouds 22 1014 37 10000 0.5 0 17:23 11.11.2019
4601 Clouds 20 1014 49 10000 1.5 0 16:41 11.11.2019
4602 Clouds 20 1014 49 10000 1.5 0 16:22 11.11.2019
4603 Clouds 18 1015 52 10000 1 0 15:57 11.11.2019
4604 Clouds 18 1015 52 10000 1 0 15:39 11.11.2019
4605 Clouds 18 1015 52 10000 1 0 15:19 11.11.2019
4606 Clouds 18 1015 52 10000 1 0 15:19 11.11.2019
4607 Clouds 10 1016 59 10000 1 0 14:43 11.11.2019
4608 Clouds 10 1016 59 10000 1 0 14:25 11.11.2019
4609 Fog 5 1008 100 3000 1 70 13:58 11.11.2019
4610 Fog 5 1008 100 3000 1 70 13:37 11.11.2019
4611 Fog 9 1008 100 3000 1 70 13:19 11.11.2019
4612 Fog 9 1008 100 3000 1 70 12:56 11.11.2019
4613 Fog 9 1008 100 3000 1 70 12:38 11.11.2019
4614 Fog 8 1008 100 3000 1 70 12:20 11.11.2019
4615 Clouds 9 1017 87 10000 0.92 149 11:42 11.11.2019
4616 Clouds 9 1017 87 10000 0.92 289 11:22 11.11.2019
4617 Clouds 10 1016 81 10000 1 0 10:56 11.11.2019
4618 Clouds 10 1016 81 10000 1 0 10:38 11.11.2019
4619 Clouds 10 1016 81 10000 1 0 10:18 11.11.2019
4620 Clouds 11 1016 81 10000 0.92 289 09:43 11.11.2019
4621 Clouds 11 1016 81 10000 0.92 289 09:21 11.11.2019
4622 Clouds 12 1016 71 10000 1 0 08:43 11.11.2019
4623 Clouds 12 1016 71 10000 1 0 08:23 11.11.2019
4624 Clouds 7 1015 89 0 0.74 269 07:58 11.11.2019
4625 Clouds 7 1015 89 0 0.74 269 07:39 11.11.2019
4626 Clouds 7 1015 89 0 0.74 269 07:39 11.11.2019
4627 Clouds 13 1017 66 10000 1 0 07:20 11.11.2019
4628 Clouds 13 1017 66 10000 1 0 06:56 11.11.2019
4629 Clouds 13 1017 66 10000 1 0 06:38 11.11.2019
4630 Clouds 13 1017 66 10000 1 0 06:19 11.11.2019
4631 Clouds 13 1017 71 10000 1 0 05:48 11.11.2019
4632 Clouds 14 1018 67 10000 1.74 278 03:34 11.11.2019
4633 Clouds 15 1017 62 10000 1.74 278 02:39 11.11.2019
4634 Clouds 12 1017 78 0 1.77 238 01:58 11.11.2019
4635 Clouds 12 1017 78 0 1.77 238 01:36 11.11.2019
4636 Clouds 21 1017 40 10000 1.5 230 00:55 11.11.2019
4637 Clouds 21 1017 40 10000 1.5 230 00:33 11.11.2019
4638 Clouds 21 1017 40 10000 3.1 0 23:58 10.11.2019
4639 Clouds 21 1017 40 10000 3.1 0 23:37 10.11.2019
4640 Clouds 21 1017 40 10000 3.1 0 23:19 10.11.2019
4641 Clouds 21 1017 40 10000 3.1 0 23:19 10.11.2019
4642 Clouds 20 1015 45 0 1.74 267 22:55 10.11.2019
4643 Clouds 20 1015 45 0 1.74 267 22:37 10.11.2019
4644 Clouds 20 1015 45 0 1.74 267 22:37 10.11.2019
4645 Clouds 20 1015 45 0 1.74 267 22:18 10.11.2019
4646 Clouds 20 1015 45 0 1.74 267 21:55 10.11.2019
4647 Clouds 20 1015 45 0 1.74 267 21:36 10.11.2019
4648 Clouds 20 1015 45 0 1.74 267 21:18 10.11.2019
4649 Clouds 20 1015 45 0 1.74 267 20:40 10.11.2019
4650 Clouds 20 1016 45 0 1.44 174 20:21 10.11.2019
4651 Clouds 20 1016 45 0 1.44 174 19:56 10.11.2019
4652 Clouds 20 1016 45 0 1.44 174 19:37 10.11.2019
4653 Clouds 20 1016 45 0 1.44 174 19:18 10.11.2019
4654 Clouds 20 1016 45 0 1.44 174 18:56 10.11.2019
4655 Clouds 20 1016 45 0 1.44 174 18:56 10.11.2019
4656 Clouds 20 1016 45 0 1.44 174 18:38 10.11.2019
4657 Clouds 20 1016 45 0 1.44 174 18:19 10.11.2019
4658 Clouds 20 1016 45 0 1.44 174 17:55 10.11.2019
4659 Clouds 20 1016 45 0 1.44 174 17:55 10.11.2019
4660 Clouds 20 1016 45 0 1.44 174 17:37 10.11.2019
4661 Clouds 18 1017 50 0 1.36 155 17:19 10.11.2019
4662 Clouds 18 1017 50 0 1.36 155 16:44 10.11.2019
4663 Clouds 18 1017 50 0 1.36 155 16:26 10.11.2019
4664 Clouds 18 1017 50 0 1.36 155 15:57 10.11.2019
4665 Clouds 18 1017 50 0 1.36 155 15:38 10.11.2019
4666 Clouds 18 1017 50 0 1.36 155 15:19 10.11.2019
4667 Clouds 18 1017 50 0 1.36 155 14:59 10.11.2019
4668 Clouds 18 1017 50 0 1.36 155 14:39 10.11.2019
4669 Clouds 12 1020 64 0 0.59 175 14:21 10.11.2019
4670 Clouds 12 1020 64 0 0.59 175 13:56 10.11.2019
4671 Clouds 12 1020 64 0 0.59 175 13:38 10.11.2019
4672 Clouds 12 1019 65 0 0.51 159 13:19 10.11.2019
4673 Clouds 12 1019 65 0 0.51 159 12:41 10.11.2019
4674 Clouds 12 1019 65 0 0.51 159 12:20 10.11.2019
4675 Clouds 12 1019 65 0 0.51 159 11:56 10.11.2019
4676 Clouds 12 1019 65 0 0.51 159 11:38 10.11.2019
4677 Clouds 6 1020 89 0 1.43 298 11:19 10.11.2019
4678 Clouds 6 1020 89 0 1.43 298 10:42 10.11.2019
4679 Clouds 6 1020 89 0 1.43 298 10:42 10.11.2019
4680 Clouds 6 1020 89 0 1.43 298 10:22 10.11.2019
4681 Clouds 6 1020 89 0 1.43 298 09:59 10.11.2019
4682 Clouds 6 1020 89 0 1.43 298 09:39 10.11.2019
4683 Clouds 6 1020 89 0 1.43 298 09:19 10.11.2019
4684 Clouds 6 1020 89 0 1.43 298 08:39 10.11.2019
4685 Clouds 8 1019 90 0 1.65 267 08:20 10.11.2019
4686 Clouds 8 1019 90 0 1.65 267 07:47 10.11.2019
4687 Clouds 8 1019 90 0 1.65 267 07:27 10.11.2019
4688 Clouds 8 1019 90 0 1.65 267 06:59 10.11.2019
4689 Clouds 8 1019 90 0 1.65 267 05:57 10.11.2019
4690 Clouds 10 1019 86 0 1.72 288 03:33 10.11.2019
4691 Clouds 10 1019 86 0 1.72 288 02:27 10.11.2019
4692 Clouds 11 1020 84 0 1.49 262 01:36 10.11.2019
4693 Clouds 11 1019 82 0 1.45 249 01:18 10.11.2019
4694 -273 0 0 0 0 0 00:23 10.11.2019
4695 Clouds 11 1019 82 0 1.45 249 00:23 10.11.2019
4696 Clouds 11 1019 82 0 1.45 249 23:40 09.11.2019
4697 Clouds 17 1017 53 0 2.82 215 23:19 09.11.2019
4698 Clouds 17 1017 53 0 2.82 215 22:42 09.11.2019
4699 Clouds 17 1017 53 0 2.82 215 22:42 09.11.2019
4700 Clouds 17 1017 53 0 2.82 215 22:22 09.11.2019
4701 Clouds 17 1017 53 0 2.82 215 21:58 09.11.2019
4702 Clouds 17 1017 53 0 2.82 215 21:39 09.11.2019
4703 Clouds 17 1017 53 0 2.82 215 21:20 09.11.2019
4704 Clouds 17 1017 53 0 2.82 215 20:44 09.11.2019
4705 Clouds 17 1017 52 0 2.84 212 20:24 09.11.2019
4706 Clouds 17 1018 43 0 1.62 168 19:59 09.11.2019
4707 Clouds 17 1018 43 0 1.62 168 19:40 09.11.2019
4708 Clouds 17 1018 43 0 1.62 168 19:22 09.11.2019
4709 Clouds 17 1018 43 0 1.62 168 18:57 09.11.2019
4710 Clouds 17 1018 43 0 1.62 168 18:38 09.11.2019
4711 Clouds 17 1018 43 0 1.62 168 18:18 09.11.2019
4712 Clouds 17 1018 43 0 1.62 168 17:42 09.11.2019
4713 Clear 14 1019 48 0 1.33 176 17:22 09.11.2019
4714 Clear 14 1019 48 0 1.33 176 16:57 09.11.2019
4715 Clear 14 1019 48 0 1.33 176 16:37 09.11.2019
4716 Clear 14 1019 48 0 1.33 176 16:18 09.11.2019
4717 Clear 14 1019 48 0 1.33 176 15:42 09.11.2019
4718 Clear 14 1019 48 0 1.33 176 15:23 09.11.2019
4719 Clear 14 1019 48 0 1.33 176 14:46 09.11.2019
4720 Clouds 8 1021 60 0 0.56 231 14:23 09.11.2019
4721 Clouds 8 1021 60 0 0.56 231 13:58 09.11.2019
4722 Clouds 8 1021 60 0 0.56 231 13:40 09.11.2019
4723 Clouds 7 1021 59 0 0.67 216 13:21 09.11.2019
4724 Clouds 7 1021 59 0 0.67 216 12:58 09.11.2019
4725 Clouds 7 1021 59 0 0.67 216 12:40 09.11.2019
4726 Clouds 7 1021 59 0 0.67 216 12:21 09.11.2019
4727 Clouds 7 1021 59 0 0.67 216 11:48 09.11.2019
4728 Clouds 1 1021 78 0 1.57 293 11:22 09.11.2019
4729 Clouds 1 1021 78 0 1.57 293 10:58 09.11.2019
4730 Clouds 1 1021 78 0 1.57 293 10:39 09.11.2019
4731 Clouds 1 1021 78 0 1.57 293 10:19 09.11.2019
4732 Clouds 1 1021 78 0 1.57 293 09:44 09.11.2019
4733 Clouds 1 1021 78 0 1.57 293 09:21 09.11.2019
4734 Clouds 1 1021 78 0 1.57 293 08:56 09.11.2019
4735 Clouds 1 1021 78 0 1.57 293 08:37 09.11.2019
4736 Clouds 4 1019 76 0 1.77 286 08:18 09.11.2019
4737 Clouds 4 1019 76 0 1.77 286 07:42 09.11.2019
4738 Clouds 4 1019 76 0 1.77 286 07:22 09.11.2019
4739 Clouds 4 1019 76 0 1.77 286 06:47 09.11.2019
4740 Clouds 4 1019 76 0 1.77 286 06:28 09.11.2019
4741 Clouds 4 1019 76 0 1.77 286 05:42 09.11.2019
4742 Clouds 5 1019 84 0 1.99 288 04:48 09.11.2019
4743 Clouds 5 1019 84 0 1.99 288 02:57 09.11.2019
4744 Clouds 5 1019 84 0 1.99 288 02:38 09.11.2019
4745 Clear 7 1018 81 0 2.33 270 01:40 09.11.2019
4746 Clear 7 1017 81 0 2.37 267 00:46 09.11.2019
4747 Clear 7 1017 81 0 2.37 267 00:27 09.11.2019
4748 Clear 7 1017 81 0 2.37 267 23:42 08.11.2019
4749 Clear 16 1014 42 0 3.69 242 23:23 08.11.2019
4750 Clear 16 1014 42 0 3.69 242 22:59 08.11.2019
4751 Clear 16 1014 42 0 3.69 242 22:40 08.11.2019
4752 Clear 16 1014 42 0 3.69 242 22:21 08.11.2019
4753 Clear 16 1014 42 0 3.69 242 21:42 08.11.2019
4754 Clear 20 1016 16 10000 2.6 0 21:24 08.11.2019
4755 Clear 20 1016 16 10000 2.6 0 20:58 08.11.2019
4756 Clear 20 1016 16 10000 2.6 0 20:40 08.11.2019
4757 Clouds 20 1016 16 10000 2.6 0 20:20 08.11.2019
4758 Clouds 19 1016 20 10000 2.1 0 19:55 08.11.2019
4759 Clouds 19 1016 20 10000 2.1 0 19:36 08.11.2019
4760 Clouds 19 1016 20 10000 2.1 0 19:18 08.11.2019
4761 Clouds 18 1017 25 10000 2.6 290 18:54 08.11.2019
4762 Clouds 18 1017 25 10000 2.6 290 18:36 08.11.2019
4763 Clouds 18 1017 25 10000 2.6 290 18:18 08.11.2019
4764 Clouds 18 1017 25 10000 2.6 290 18:18 08.11.2019
4765 Clouds 15 1017 38 10000 1.5 300 17:54 08.11.2019
4766 Clouds 15 1017 38 10000 1.5 300 17:36 08.11.2019
4767 Clouds 15 1017 38 10000 1.5 300 17:36 08.11.2019
4768 Clouds 15 1017 38 10000 1.5 300 17:18 08.11.2019
4769 Clouds 15 1017 38 10000 1.5 300 17:18 08.11.2019
4770 Clouds 13 1018 43 10000 1.5 0 16:56 08.11.2019
4771 Clouds 13 1018 43 10000 1.5 0 16:37 08.11.2019
4772 Clouds 13 1018 43 10000 1.5 0 16:18 08.11.2019
4773 Clouds 11 1019 53 10000 1 0 15:41 08.11.2019
4774 Clouds 11 1019 53 10000 1 0 15:22 08.11.2019
4775 Clouds 9 1019 61 10000 2.1 0 14:57 08.11.2019
4776 Clouds 9 1019 61 10000 2.1 0 14:57 08.11.2019
4777 Clouds 9 1019 61 10000 2.1 0 14:38 08.11.2019
4778 Clouds 9 1019 61 10000 2.1 0 14:20 08.11.2019
4779 Clouds 6 1020 75 10000 1.5 210 13:58 08.11.2019
4780 Clouds 6 1020 75 10000 1.5 210 13:39 08.11.2019
4781 Clouds 6 1020 75 10000 1.5 210 13:20 08.11.2019
4782 Clouds 5 1017 43 0 0.8 174 12:45 08.11.2019
4783 Clouds 5 1017 43 0 0.8 174 12:27 08.11.2019
4784 Clouds 5 1017 43 0 0.8 174 11:58 08.11.2019
4785 Clouds 5 1017 43 0 0.8 174 11:39 08.11.2019
4786 Clouds -1 1018 64 0 1.03 283 11:20 08.11.2019
4787 Clouds -1 1018 64 0 1.03 283 10:57 08.11.2019
4788 Clouds -1 1018 64 0 1.03 283 10:39 08.11.2019
4789 Clouds -1 1018 64 0 1.03 283 10:21 08.11.2019
4790 Clouds -1 1018 64 0 1.03 283 09:55 08.11.2019
4791 Clouds -1 1018 64 0 1.03 283 09:36 08.11.2019
4792 Clouds -1 1018 64 0 1.03 283 09:18 08.11.2019
4793 Clouds -1 1018 64 0 1.03 283 08:38 08.11.2019
4794 Clouds -1 1019 71 0 1.4 286 08:19 08.11.2019
4795 Clouds -1 1018 74 0 1.32 284 07:41 08.11.2019
4796 Clouds -1 1018 74 0 1.32 284 07:22 08.11.2019
4797 Clouds -1 1018 74 0 1.32 284 07:22 08.11.2019
4798 Clouds -1 1018 74 0 1.32 284 06:42 08.11.2019
4799 Clouds -1 1018 74 0 1.32 284 06:23 08.11.2019
4800 Clouds -1 1018 74 0 1.32 284 05:55 08.11.2019
4801 Clouds -1 1018 74 0 1.32 284 05:24 08.11.2019
4802 Clouds 1 1019 88 0 2.53 297 03:46 08.11.2019
4803 Clouds 1 1019 88 0 2.53 297 03:24 08.11.2019
4804 Clouds 1 1019 88 0 2.53 297 02:47 08.11.2019
4805 Clouds 4 1018 86 0 2.59 281 01:48 08.11.2019
4806 Clouds 5 1018 86 0 2.51 279 01:30 08.11.2019
4807 Clouds 5 1018 86 0 2.51 279 00:25 08.11.2019
4808 Clouds 5 1018 86 0 2.51 279 23:59 07.11.2019
4809 Clouds 5 1018 86 0 2.51 279 23:59 07.11.2019
4810 Clouds 5 1018 86 0 2.51 279 23:41 07.11.2019
4811 Clouds 12 1016 47 0 3.73 263 23:22 07.11.2019
4812 Clouds 12 1016 47 0 3.73 263 22:43 07.11.2019
4813 Clouds 12 1016 47 0 3.73 263 22:22 07.11.2019
4814 Clouds 12 1016 47 0 3.73 263 21:56 07.11.2019
4815 Clouds 12 1016 47 0 3.73 263 21:37 07.11.2019
4816 Clouds 12 1016 47 0 3.73 263 21:19 07.11.2019
4817 Clouds 12 1016 47 0 3.73 263 20:58 07.11.2019
4818 Clouds 12 1016 47 0 3.73 263 20:39 07.11.2019
4819 Clouds 13 1017 37 0 3.34 266 20:21 07.11.2019
4820 Clouds 13 1017 37 0 3.34 266 19:55 07.11.2019
4821 Clouds 13 1017 37 0 3.34 266 19:36 07.11.2019
4822 Clouds 13 1017 37 0 3.34 266 19:18 07.11.2019
4823 Clouds 13 1017 37 0 3.34 266 18:55 07.11.2019
4824 Clouds 13 1017 37 0 3.34 266 18:37 07.11.2019
4825 Clouds 13 1017 37 0 3.34 266 18:37 07.11.2019
4826 Clouds 13 1017 37 0 3.34 266 18:19 07.11.2019
4827 Clouds 13 1017 37 0 3.34 266 17:40 07.11.2019
4828 Clouds 9 1019 42 0 1.96 276 17:21 07.11.2019
4829 Clouds 9 1019 42 0 1.96 276 16:58 07.11.2019
4830 Clouds 9 1019 42 0 1.96 276 16:40 07.11.2019
4831 Clouds 9 1019 42 0 1.96 276 16:20 07.11.2019
4832 Clouds 9 1019 42 0 1.96 276 15:57 07.11.2019
4833 Clouds 9 1019 42 0 1.96 276 15:37 07.11.2019
4834 Clouds 9 1019 42 0 1.96 276 15:18 07.11.2019
4835 Clouds 9 1019 42 0 1.96 276 14:44 07.11.2019
4836 Clouds 9 1019 42 0 1.96 276 14:26 07.11.2019
4837 Clouds 3 1022 71 0 1.96 267 13:56 07.11.2019
4838 Clouds 3 1022 71 0 1.96 267 13:56 07.11.2019
4839 Clouds 3 1022 71 0 1.96 267 13:38 07.11.2019
4840 Clouds 3 1022 71 0 2.04 272 13:20 07.11.2019
4841 Clouds 3 1022 71 0 2.04 272 12:58 07.11.2019
4842 Clouds 3 1022 71 0 2.04 272 12:39 07.11.2019
4843 Clouds 3 1022 71 0 2.04 272 12:20 07.11.2019
4844 Clouds 3 1022 71 0 2.04 272 12:20 07.11.2019
4845 Clouds 3 1022 71 0 2.04 272 11:44 07.11.2019
4846 Clouds 3 1022 71 0 2.04 272 11:24 07.11.2019
4847 Clouds -1 1021 89 0 2.12 272 10:59 07.11.2019
4848 Clouds -1 1021 89 0 2.12 272 10:40 07.11.2019
4849 Clouds -1 1021 89 0 2.12 272 10:18 07.11.2019
4850 Clouds -1 1021 89 0 2.12 272 09:42 07.11.2019
4851 Clouds -1 1021 89 0 2.12 272 09:22 07.11.2019
4852 Clouds -1 1021 89 0 2.12 272 08:55 07.11.2019
4853 Clouds -1 1021 89 0 2.12 272 08:37 07.11.2019
4854 Clouds 2 1020 82 0 1.88 278 08:18 07.11.2019
4855 Clouds 2 1020 82 0 1.88 278 07:41 07.11.2019
4856 Clouds 2 1020 82 0 1.88 278 07:21 07.11.2019
4857 Clouds 2 1020 82 0 1.88 278 07:21 07.11.2019
4858 Clouds 2 1020 82 0 1.88 278 06:48 07.11.2019
4859 Clouds 2 1020 82 0 1.88 278 06:47 07.11.2019
4860 Clouds 2 1020 82 0 1.88 278 06:27 07.11.2019
4861 Clouds 2 1020 82 0 1.88 278 05:51 07.11.2019
4862 Clouds 2 1020 82 0 1.88 278 05:33 07.11.2019
4863 Clouds 1 1018 94 0 2.26 293 04:53 07.11.2019
4864 Clouds 1 1018 94 0 2.26 293 04:52 07.11.2019
4865 Clouds 1 1018 94 0 2.26 293 04:31 07.11.2019
4866 Clouds 5 1015 85 0 3.62 290 01:50 07.11.2019
4867 Clouds 5 1015 85 0 3.62 290 01:49 07.11.2019
4868 Clouds 4 1015 85 0 3.72 286 00:46 07.11.2019
4869 Clouds 4 1015 85 0 3.72 286 00:18 07.11.2019
4870 Clouds 4 1015 85 0 3.72 286 23:45 06.11.2019
4871 Clouds 10 1012 68 0 5.43 291 23:20 06.11.2019
4872 Clouds 10 1012 68 0 5.43 291 22:41 06.11.2019
4873 Clouds 13 1013 54 10000 7.2 270 22:22 06.11.2019
4874 Clouds 13 1013 54 10000 7.2 270 21:59 06.11.2019
4875 Clouds 13 1013 54 10000 7.2 270 21:41 06.11.2019
4876 Clouds 13 1013 54 10000 7.2 270 21:20 06.11.2019
4877 Clouds 13 1013 54 10000 7.2 270 21:20 06.11.2019
4878 Clouds 11 1013 71 10000 6.2 270 20:58 06.11.2019
4879 Clouds 11 1013 71 10000 6.2 270 20:39 06.11.2019
4880 Clouds 11 1013 71 10000 6.2 270 20:20 06.11.2019
4881 Rain 10 1013 76 7000 4.1 250 19:58 06.11.2019
4882 Rain 10 1013 76 7000 4.1 250 19:37 06.11.2019
4883 Rain 10 1013 76 7000 4.1 250 19:19 06.11.2019
4884 Rain 11 1012 71 8000 5.1 260 18:55 06.11.2019
4885 Rain 11 1012 71 8000 5.1 260 18:37 06.11.2019
4886 Rain 11 1012 71 8000 5.1 260 18:18 06.11.2019
4887 Rain 12 1011 66 8000 5.7 250 17:42 06.11.2019
4888 Rain 12 1011 66 8000 5.7 250 17:23 06.11.2019
4889 Rain 9 1010 73 0 4.95 303 16:57 06.11.2019
4890 Rain 9 1010 73 0 4.95 303 16:39 06.11.2019
4891 Rain 13 1010 54 10000 6.2 260 16:21 06.11.2019
4892 Rain 13 1010 54 10000 6.2 260 15:58 06.11.2019
4893 Rain 13 1010 54 10000 6.2 260 15:38 06.11.2019
4894 Rain 13 1010 54 10000 6.2 260 15:38 06.11.2019
4895 Rain 13 1010 54 10000 6.2 260 15:19 06.11.2019
4896 Rain 12 1010 54 10000 6.7 260 14:57 06.11.2019
4897 Rain 12 1010 54 10000 6.7 260 14:39 06.11.2019
4898 Rain 12 1010 54 10000 6.7 260 14:20 06.11.2019
4899 Clouds 11 1011 53 10000 6.2 250 13:58 06.11.2019
4900 Clouds 11 1011 53 10000 6.2 250 13:37 06.11.2019
4901 Clouds 11 1011 53 10000 6.2 250 13:18 06.11.2019
4902 Clouds 8 1011 69 0 4.61 289 12:55 06.11.2019
4903 Clouds 8 1011 69 0 4.61 289 12:37 06.11.2019
4904 Clouds 8 1011 69 0 4.61 289 12:18 06.11.2019
4905 Clouds 8 1011 69 0 4.61 289 11:55 06.11.2019
4906 Clouds 8 1011 69 0 4.61 289 11:36 06.11.2019
4907 Clouds 4 1012 91 0 3.08 295 11:18 06.11.2019
4908 Clouds 4 1012 91 0 3.08 295 10:42 06.11.2019
4909 Clouds 4 1012 91 0 3.08 295 10:24 06.11.2019
4910 Clouds 4 1012 91 0 3.08 295 10:24 06.11.2019
4911 Clouds 4 1012 91 0 3.08 295 09:58 06.11.2019
4912 Clouds 4 1012 91 0 3.08 295 09:39 06.11.2019
4913 Clouds 4 1012 91 0 3.08 295 09:20 06.11.2019
4914 Clouds 4 1012 91 0 3.08 295 08:55 06.11.2019
4915 Clouds 4 1012 91 0 3.08 295 08:37 06.11.2019
4916 Clouds 4 1012 91 0 3.08 295 08:37 06.11.2019
4917 Clouds 4 1013 91 0 3.31 313 08:18 06.11.2019
4918 Clouds 4 1013 91 0 3.31 313 07:43 06.11.2019
4919 Clouds 4 1013 91 0 3.31 313 07:24 06.11.2019
4920 Clouds 4 1013 91 0 3.31 313 06:48 06.11.2019
4921 Clouds 4 1013 91 0 3.31 313 06:28 06.11.2019
4922 Clouds 4 1013 91 0 3.31 313 05:32 06.11.2019
4923 Clouds 5 1014 87 0 3.53 317 02:54 06.11.2019
4924 Clouds 5 1015 90 0 3.19 308 01:41 06.11.2019
4925 Clouds 5 1015 90 0 3.24 307 00:46 06.11.2019
4926 Clouds 5 1015 90 0 3.24 307 00:46 06.11.2019
4927 Clouds 5 1015 90 0 3.24 307 23:59 05.11.2019
4928 Clouds 5 1015 90 0 3.24 307 23:39 05.11.2019
4929 Clouds 9 1015 72 0 4.27 294 23:21 05.11.2019
4930 Clouds 9 1015 72 0 4.27 294 22:55 05.11.2019
4931 Clouds 9 1015 72 0 4.27 294 22:36 05.11.2019
4932 Clouds 12 1015 50 10000 6.7 270 22:18 05.11.2019
4933 Clouds 12 1015 50 10000 6.7 270 21:42 05.11.2019
4934 Clouds 12 1015 50 10000 6.7 270 21:21 05.11.2019
4935 Clouds 13 1016 50 10000 6.2 270 20:59 05.11.2019
4936 Clouds 13 1016 50 10000 6.2 270 20:39 05.11.2019
4937 Clouds 13 1016 50 10000 6.2 270 20:20 05.11.2019
4938 Clouds 13 1017 47 10000 7.2 270 19:57 05.11.2019
4939 Clouds 13 1017 47 10000 7.2 270 19:38 05.11.2019
4940 Clouds 13 1017 47 10000 7.2 270 19:38 05.11.2019
4941 Clouds 13 1017 47 10000 7.2 270 19:38 05.11.2019
4942 Clouds 13 1017 47 10000 7.2 270 19:20 05.11.2019
4943 Clouds 13 1017 47 10000 7.2 270 18:57 05.11.2019
4944 Clouds 13 1017 47 10000 7.2 270 18:39 05.11.2019
4945 Clouds 13 1017 47 10000 7.2 270 18:20 05.11.2019
4946 Clouds 13 1017 47 10000 7.2 270 18:20 05.11.2019
4947 Clouds 12 1018 50 10000 6.2 260 17:57 05.11.2019
4948 Clouds 12 1018 50 10000 6.2 260 17:38 05.11.2019
4949 Clouds 12 1018 50 10000 6.2 260 17:18 05.11.2019
4950 Clouds 11 1018 53 10000 6.7 260 16:42 05.11.2019
4951 Clouds 11 1018 53 10000 6.7 260 16:22 05.11.2019
4952 Clouds 10 1018 57 10000 6.2 260 15:59 05.11.2019
4953 Clouds 10 1018 57 10000 6.2 260 15:37 05.11.2019
4954 Clouds 10 1018 57 10000 6.2 260 15:18 05.11.2019
4955 Rain 9 1019 61 10000 4.1 260 14:55 05.11.2019
4956 Rain 9 1019 61 10000 4.1 260 14:37 05.11.2019
4957 Rain 9 1019 61 10000 4.1 260 14:19 05.11.2019
4958 Clouds 5 1018 73 0 3.22 301 13:43 05.11.2019
4959 Clouds 5 1018 74 0 3.24 297 13:24 05.11.2019
4960 Clouds 5 1018 74 0 3.24 297 12:43 05.11.2019
4961 Clouds 5 1018 74 0 3.24 297 12:24 05.11.2019
4962 Clouds 5 1018 74 0 3.24 297 11:59 05.11.2019
4963 Clouds 5 1018 74 0 3.24 297 11:40 05.11.2019
4964 Clouds 0 1017 90 0 3.16 288 11:21 05.11.2019
4965 Clouds 0 1017 90 0 3.16 288 10:59 05.11.2019
4966 Clouds 0 1017 90 0 3.16 288 10:40 05.11.2019
4967 Clouds 0 1017 90 0 3.16 288 10:22 05.11.2019
4968 Clouds 0 1017 90 0 3.16 288 09:55 05.11.2019
4969 Clouds 0 1017 90 0 3.16 288 09:37 05.11.2019
4970 Clouds 0 1017 90 0 3.16 288 09:18 05.11.2019
4971 Clouds 0 1017 90 0 3.16 288 08:39 05.11.2019
4972 Clouds 2 1017 87 0 3.17 281 08:20 05.11.2019
4973 Clouds 1 1017 87 0 3.24 282 08:20 05.11.2019
4974 Clouds 1 1017 87 0 3.24 282 07:57 05.11.2019
4975 Clouds 1 1017 87 0 3.24 282 07:39 05.11.2019
4976 Clouds 1 1017 87 0 3.24 282 07:19 05.11.2019
4977 Clouds 1 1017 87 0 3.24 282 07:19 05.11.2019
4978 Clouds 1 1017 87 0 3.24 282 06:46 05.11.2019
4979 Clouds 1 1017 87 0 3.24 282 05:51 05.11.2019
4980 Clouds 1 1017 91 0 3.19 304 05:22 05.11.2019
4981 Clouds 1 1017 91 0 3.19 304 04:25 05.11.2019
4982 Clouds 1 1017 91 0 3.19 304 03:49 05.11.2019
4983 Clouds 1 1017 91 0 3.19 304 02:44 05.11.2019
4984 Clouds 2 1016 89 0 3.4 284 01:59 05.11.2019
4985 Clouds 2 1016 91 0 3.24 282 00:50 05.11.2019
4986 Clouds 2 1016 91 0 3.24 282 00:29 05.11.2019
4987 Clouds 2 1016 91 0 3.24 282 23:55 04.11.2019
4988 Clouds 2 1016 91 0 3.24 282 23:36 04.11.2019
4989 Clouds 8 1013 59 0 5.65 285 23:18 04.11.2019
4990 Clouds 8 1013 59 0 5.65 285 22:40 04.11.2019
4991 Clouds 8 1013 59 0 5.65 285 22:22 04.11.2019
4992 Clouds 8 1013 59 0 5.65 285 21:56 04.11.2019
4993 Clouds 8 1013 59 0 5.65 285 21:37 04.11.2019
4994 Clouds 8 1013 59 0 5.65 285 21:19 04.11.2019
4995 Clouds 8 1013 59 0 5.65 285 20:57 04.11.2019
4996 Clouds 8 1013 59 0 5.65 285 20:38 04.11.2019
4997 Clear 9 1012 48 0 5.98 286 20:20 04.11.2019
4998 Clear 9 1012 48 0 5.98 286 19:57 04.11.2019
4999 Clear 9 1012 48 0 5.98 286 19:39 04.11.2019
5000 Clear 9 1012 48 0 5.98 286 19:21 04.11.2019
5001 Clear 9 1012 48 0 5.98 286 18:55 04.11.2019
5002 Clear 9 1012 48 0 5.98 286 18:37 04.11.2019
5003 Clear 9 1012 48 0 5.98 286 18:18 04.11.2019
5004 Clear 9 1012 48 0 5.98 286 17:38 04.11.2019
5005 Clear 9 1010 50 0 6.14 289 17:20 04.11.2019
5006 Clear 9 1010 50 0 6.14 289 16:55 04.11.2019
5007 Clear 9 1010 50 0 6.14 289 16:36 04.11.2019
5008 Clear 9 1010 50 0 6.14 289 16:18 04.11.2019
5009 Clear 9 1010 50 0 6.14 289 15:41 04.11.2019
5010 Rain 7 1011 70 10000 3.1 290 15:22 04.11.2019
5011 Rain 7 1011 70 10000 3.1 290 14:59 04.11.2019
5012 Rain 7 1011 70 10000 3.1 290 14:40 04.11.2019
5013 Rain 7 1011 70 10000 3.1 290 14:21 04.11.2019
5014 Rain 6 1010 75 10000 3.6 270 13:58 04.11.2019
5015 Rain 6 1010 75 10000 3.6 270 13:40 04.11.2019
5016 Rain 6 1010 75 10000 3.6 270 13:21 04.11.2019
5017 Rain 5 1009 86 10000 2.1 280 12:57 04.11.2019
5018 Rain 5 1009 86 10000 2.1 280 12:38 04.11.2019
5019 Rain 5 1009 86 10000 2.1 280 12:18 04.11.2019
5020 Rain 4 1009 86 10000 2.1 270 11:43 04.11.2019
5021 Rain 4 1009 86 10000 2.1 270 11:23 04.11.2019
5022 Rain 4 1008 93 10000 1.5 290 10:59 04.11.2019
5023 Rain 4 1008 93 10000 1.5 290 10:41 04.11.2019
5024 Rain 4 1008 93 10000 1.5 290 10:23 04.11.2019
5025 Rain 5 1007 80 10000 2.6 270 09:45 04.11.2019
5026 Rain 5 1007 80 10000 2.6 270 09:27 04.11.2019
5027 Rain 4 1006 93 10000 1.5 0 08:57 04.11.2019
5028 Rain 4 1006 93 10000 1.5 0 08:38 04.11.2019
5029 Rain 4 1006 93 10000 1.5 0 08:18 04.11.2019
5030 Rain 4 1006 93 10000 1.5 0 07:43 04.11.2019
5031 Rain 4 1006 93 10000 1.5 0 07:21 04.11.2019
5032 Rain 5 1005 86 10000 3.6 270 06:56 04.11.2019
5033 Rain 5 1005 86 10000 3.6 270 06:18 04.11.2019
5034 Rain 5 1006 86 9000 3.1 250 05:42 04.11.2019
5035 Rain 5 1005 86 10000 3.6 250 04:43 04.11.2019
5036 Rain 5 1005 86 10000 3.6 250 04:21 04.11.2019
5037 Rain 5 1005 86 10000 3.6 250 04:21 04.11.2019
5038 Rain 8 1004 61 10000 5.1 250 01:46 04.11.2019
5039 Rain 8 1004 61 10000 5.1 250 01:20 04.11.2019
5040 Rain 9 1004 66 10000 7.2 260 00:39 04.11.2019
5041 Rain 9 1004 66 10000 7.2 260 00:19 04.11.2019
5042 Rain 11 1001 66 10000 5.1 250 23:40 03.11.2019
5043 Rain 11 1001 66 10000 5.1 250 23:21 03.11.2019
5044 Rain 11 1001 66 10000 5.7 260 22:57 03.11.2019
5045 Rain 11 1001 66 10000 5.7 260 22:39 03.11.2019
5046 Rain 11 1001 66 10000 5.7 260 22:19 03.11.2019
5047 Rain 12 1001 66 10000 6.7 260 21:43 03.11.2019
5048 Rain 12 1001 66 10000 6.7 260 21:22 03.11.2019
5049 Rain 15 1001 47 10000 6.2 260 20:59 03.11.2019
5050 Rain 15 1001 47 10000 6.2 260 20:38 03.11.2019
5051 Rain 15 1001 47 10000 6.2 260 20:19 03.11.2019
5052 Rain 14 1001 58 10000 4.6 240 19:58 03.11.2019
5053 Rain 14 1001 58 10000 4.6 240 19:39 03.11.2019
5054 Rain 14 1001 58 10000 4.6 240 19:20 03.11.2019
5055 Rain 14 1001 50 10000 5.7 240 18:58 03.11.2019
5056 Rain 14 1001 50 10000 5.7 240 18:37 03.11.2019
5057 Rain 14 1001 50 10000 5.7 240 18:18 03.11.2019
5058 Rain 14 1002 50 10000 6.2 240 17:43 03.11.2019
5059 Rain 14 1002 50 10000 6.2 240 17:22 03.11.2019
5060 Rain 14 1002 47 10000 6.7 0 16:59 03.11.2019
5061 Rain 14 1002 47 10000 6.7 0 16:41 03.11.2019
5062 Rain 14 1002 47 10000 6.7 0 16:22 03.11.2019
5063 Rain 13 1003 50 10000 7.2 250 15:58 03.11.2019
5064 Rain 13 1003 50 10000 7.2 250 15:40 03.11.2019
5065 Rain 13 1003 50 10000 7.2 250 15:21 03.11.2019
5066 Rain 13 1003 50 10000 7.2 260 14:44 03.11.2019
5067 Clouds 13 1003 50 10000 7.2 260 14:20 03.11.2019
5068 Clouds 12 1004 50 10000 6.2 260 13:59 03.11.2019
5069 Clouds 12 1004 50 10000 6.2 260 13:59 03.11.2019
5070 Clouds 12 1004 50 10000 6.2 260 13:41 03.11.2019
5071 Clouds 12 1004 50 10000 6.2 260 13:18 03.11.2019
5072 Clouds 11 1005 50 10000 7.2 250 12:54 03.11.2019
5073 Clouds 11 1005 50 10000 7.2 250 12:36 03.11.2019
5074 Clouds 11 1005 50 10000 7.2 250 12:36 03.11.2019
5075 Clouds 11 1005 50 10000 7.2 250 12:18 03.11.2019
5076 Clouds 10 1006 53 10000 5.1 260 11:42 03.11.2019
5077 Clouds 10 1006 53 10000 5.1 260 11:21 03.11.2019
5078 Clouds 10 1007 53 10000 5.7 260 10:55 03.11.2019
5079 Clouds 10 1007 53 10000 5.7 260 10:37 03.11.2019
5080 Clouds 10 1007 53 10000 5.7 260 10:18 03.11.2019
5081 Clouds 10 1007 53 10000 5.7 260 10:18 03.11.2019
5082 Clouds 10 1007 53 10000 5.7 260 10:18 03.11.2019
5083 Clouds 10 1008 53 10000 3.6 260 09:42 03.11.2019
5084 Clouds 10 1008 53 10000 3.6 260 09:24 03.11.2019
5085 Clouds 9 1010 61 10000 3.6 260 08:56 03.11.2019
5086 Clouds 9 1010 61 10000 3.6 260 08:56 03.11.2019
5087 Clouds 9 1010 61 10000 3.6 260 08:36 03.11.2019
5088 Clouds 9 1010 61 10000 3.6 260 08:18 03.11.2019
5089 Clouds 9 1011 61 10000 3.6 260 07:44 03.11.2019
5090 Clouds 9 1011 61 10000 3.6 260 07:20 03.11.2019
5091 Clouds 9 1011 61 10000 3.6 260 07:20 03.11.2019
5092 Clouds 9 1012 61 10000 4.6 270 06:39 03.11.2019
5093 Clouds 10 1013 53 10000 3.6 260 05:52 03.11.2019
5094 Clouds 10 1013 53 10000 3.6 260 05:32 03.11.2019
5095 Clouds 9 1014 57 10000 4.6 240 04:51 03.11.2019
5096 Clouds 9 1015 57 10000 4.1 300 03:54 03.11.2019
5097 Clouds 9 1015 57 10000 4.1 300 03:19 03.11.2019
5098 Clouds 10 1016 53 10000 4.1 250 02:23 03.11.2019
5099 Clouds 10 1017 53 10000 4.6 270 01:49 03.11.2019
5100 Clouds 10 1017 53 10000 4.6 270 01:24 03.11.2019
5101 Clouds 11 1018 50 10000 5.1 260 00:57 03.11.2019
5102 Clouds 11 1018 50 10000 5.1 260 00:37 03.11.2019
5103 Clouds 11 1018 50 10000 5.1 260 00:18 03.11.2019
5104 Clouds 12 1018 46 10000 6.7 270 23:39 02.11.2019
5105 Clear 12 1018 46 10000 6.7 270 23:20 02.11.2019
5106 Clear 12 1018 46 10000 6.2 270 22:56 02.11.2019
5107 Clear 12 1018 46 10000 6.2 270 22:38 02.11.2019
5108 Clear 12 1018 46 10000 6.2 270 22:19 02.11.2019
5109 Clear 13 1018 43 10000 6.2 280 21:57 02.11.2019
5110 Clear 13 1018 43 10000 6.2 280 21:38 02.11.2019
5111 Clear 13 1018 43 10000 6.2 280 21:18 02.11.2019
5112 Clear 13 1018 43 10000 6.2 280 21:18 02.11.2019
5113 Clear 13 1018 43 10000 6.2 280 21:18 02.11.2019
5114 Clear 13 1018 43 10000 6.2 280 21:18 02.11.2019
5115 Clear 14 1019 41 10000 6.2 270 20:59 02.11.2019
5116 Clear 14 1019 41 10000 6.2 270 20:40 02.11.2019
5117 Clouds 14 1019 41 10000 6.2 270 20:20 02.11.2019
5118 Clouds 13 1020 43 10000 6.2 280 19:55 02.11.2019
5119 Clouds 13 1020 43 10000 6.2 280 19:36 02.11.2019
5120 Clouds 13 1020 43 10000 6.2 280 19:18 02.11.2019
5121 Clouds 13 1021 43 10000 5.7 280 18:42 02.11.2019
5122 Clouds 13 1021 43 10000 5.7 280 18:24 02.11.2019
5123 Clouds 12 1022 46 10000 5.7 280 17:59 02.11.2019
5124 Clouds 12 1022 46 10000 5.7 280 17:40 02.11.2019
5125 Clouds 12 1022 46 10000 5.7 280 17:22 02.11.2019
5126 Clouds 11 1023 50 10000 5.1 260 16:58 02.11.2019
5127 Clouds 11 1023 50 10000 5.1 260 16:38 02.11.2019
5128 Clouds 11 1023 50 10000 5.1 260 16:20 02.11.2019
5129 Clouds 9 1023 63 10000 4.6 270 15:42 02.11.2019
5130 Clouds 9 1023 63 10000 4.6 270 15:20 02.11.2019
5131 Clouds 9 1023 63 10000 3.6 250 14:43 02.11.2019
5132 Clouds 9 1023 63 10000 3.6 250 14:24 02.11.2019
5133 Clouds 8 1024 52 10000 2.6 250 13:58 02.11.2019
5134 Clouds 8 1024 52 10000 2.6 250 13:39 02.11.2019
5135 Clouds 8 1024 52 10000 2.6 250 13:19 02.11.2019
5136 Clouds 4 1024 76 10000 2.39 275 12:41 02.11.2019
5137 Clouds 4 1024 76 10000 2.39 275 12:23 02.11.2019
5138 Clouds 5 1024 60 10000 2.1 260 11:59 02.11.2019
5139 Clouds 5 1024 60 10000 2.1 260 11:40 02.11.2019
5140 Clouds 5 1024 60 10000 2.1 260 11:22 02.11.2019
5141 Clouds 5 1024 60 10000 2.6 250 10:51 02.11.2019
5142 Clouds 5 1024 60 10000 2.6 250 10:29 02.11.2019
5143 Clouds 5 1024 60 10000 2.1 250 09:59 02.11.2019
5144 Clouds 5 1024 60 10000 2.1 250 09:40 02.11.2019
5145 Clouds 5 1024 60 10000 2.1 250 09:20 02.11.2019
5146 Clouds 5 1024 60 10000 3.1 270 08:47 02.11.2019
5147 Clouds 5 1024 60 10000 3.1 270 08:22 02.11.2019
5148 Clouds 6 1024 56 10000 3.1 250 07:51 02.11.2019
5149 Clouds 6 1024 56 10000 3.1 250 07:33 02.11.2019
5150 Clouds 6 1023 56 10000 3.1 250 06:58 02.11.2019
5151 Clouds 6 1023 56 10000 3.1 250 06:39 02.11.2019
5152 Clouds 7 1023 56 10000 3.6 260 05:59 02.11.2019
5153 Clouds 7 1023 56 10000 3.6 260 05:29 02.11.2019
5154 Clouds 7 1022 85 10000 3.6 260 04:23 02.11.2019
5155 Clouds 7 1021 65 10000 3.6 250 03:50 02.11.2019
5156 Clouds 8 1020 65 10000 3.1 260 02:44 02.11.2019
5157 Clouds 9 1018 66 10000 3.1 250 01:55 02.11.2019
5158 Clouds 9 1018 66 10000 3.1 250 01:24 02.11.2019
5159 Clouds 9 1017 70 10000 3.6 250 00:51 02.11.2019
5160 Clouds 9 1017 70 10000 3.6 250 00:26 02.11.2019
5161 Clouds 10 1016 71 10000 3.1 260 23:48 01.11.2019
5162 Rain 10 1016 71 10000 3.1 260 23:22 01.11.2019
5163 Rain 10 1015 71 10000 3.6 260 22:58 01.11.2019
5164 Rain 10 1015 71 10000 3.6 260 22:39 01.11.2019
5165 Rain 10 1015 71 10000 3.6 260 22:20 01.11.2019
5166 Rain 10 1014 71 10000 2.6 280 21:41 01.11.2019
5167 Rain 10 1014 71 10000 2.6 280 21:23 01.11.2019
5168 Rain 8 1014 75 10000 2.6 290 20:57 01.11.2019
5169 Rain 8 1014 75 10000 2.6 290 20:39 01.11.2019
5170 Rain 8 1014 75 10000 2.6 290 20:19 01.11.2019
5171 Rain 7 1014 81 10000 2.6 280 19:55 01.11.2019
5172 Rain 7 1014 81 10000 2.6 280 19:36 01.11.2019
5173 Rain 7 1014 81 10000 2.6 280 19:18 01.11.2019
5174 Rain 6 1013 87 10000 1.5 280 18:39 01.11.2019
5175 Rain 6 1013 87 10000 1.5 280 18:20 01.11.2019
5176 Rain 5 1013 86 10000 1 0 17:55 01.11.2019
5177 Rain 5 1013 86 10000 1 0 17:36 01.11.2019
5178 Rain 5 1013 86 10000 1 0 17:18 01.11.2019
5179 Rain 3 1014 93 10000 1.5 270 16:37 01.11.2019
5180 Rain 3 1014 93 10000 1.5 270 16:18 01.11.2019
5181 Rain 2 1013 100 10000 0.5 0 15:41 01.11.2019
5182 Rain 2 1013 100 10000 0.5 0 15:22 01.11.2019
5183 Snow 1 1013 100 5000 0.39 315 14:58 01.11.2019
5184 Snow 1 1013 100 5000 0.39 315 14:40 01.11.2019
5185 Snow 1 1013 100 5000 1.52 237 14:21 01.11.2019
5186 Snow 1 1013 96 4100 1 240 13:56 01.11.2019
5187 Snow 1 1013 96 4100 1 240 13:37 01.11.2019
5188 Snow 1 1013 96 4100 1 240 13:18 01.11.2019
5189 Snow 1 1013 96 4100 1 240 13:18 01.11.2019
5190 Rain 0 1013 96 9000 1.71 239 12:43 01.11.2019
5191 Rain 0 1013 96 9000 1.71 239 12:24 01.11.2019
5192 Snow 0 1012 96 3600 0.5 0 11:43 01.11.2019
5193 Snow 0 1012 96 3600 0.5 0 11:43 01.11.2019
5194 Snow 0 1012 96 3600 0.5 0 11:25 01.11.2019
5195 Rain 0 1012 96 6000 0.5 0 10:57 01.11.2019
5196 Rain 0 1012 96 6000 0.5 0 10:38 01.11.2019
5197 Rain 0 1012 96 6000 0.5 0 10:20 01.11.2019
5198 Clouds 0 1011 96 5000 1 270 09:45 01.11.2019
5199 Clouds 0 1011 96 5000 1 270 09:26 01.11.2019
5200 Rain 0 1011 96 6000 0.5 0 08:57 01.11.2019
5201 Rain 0 1011 96 6000 0.5 0 08:39 01.11.2019
5202 Rain 0 1011 97 6000 0.5 0 08:20 01.11.2019
5203 Clouds 0 1012 97 6000 0.95 198 07:51 01.11.2019
5204 Clouds 0 1012 97 6000 0.95 198 07:24 01.11.2019
5205 Rain 2 1012 93 8000 1 0 06:56 01.11.2019
5206 Rain 2 1012 93 8000 1 0 06:23 01.11.2019
5207 Rain 3 1013 93 10000 2.1 250 05:58 01.11.2019
5208 Rain 3 1013 93 10000 2.1 250 05:38 01.11.2019
5209 Rain 4 1013 93 8000 1.16 234 03:32 01.11.2019
5210 Rain 5 1013 86 10000 0.5 0 01:48 01.11.2019
5211 Rain 5 1013 86 10000 0.5 0 01:19 01.11.2019
5212 Rain 5 1013 93 10000 0.5 0 00:20 01.11.2019
5213 Rain 6 1012 87 10000 1.5 270 23:45 31.10.2019
5214 Rain 6 1012 87 10000 1.5 270 23:25 31.10.2019
5215 Rain 7 1011 87 10000 2.1 300 22:58 31.10.2019
5216 Rain 7 1011 87 10000 2.1 300 22:40 31.10.2019
5217 Rain 7 1011 87 10000 2.1 300 22:22 31.10.2019
5218 Rain 7 1011 87 10000 2.1 300 21:45 31.10.2019
5219 Rain 7 1011 87 10000 2.1 300 21:23 31.10.2019
5220 Rain 7 1011 87 10000 2.1 300 21:23 31.10.2019
5221 Rain 8 1011 81 10000 3.1 290 20:59 31.10.2019
5222 Rain 8 1011 81 10000 3.1 290 20:40 31.10.2019
5223 Rain 8 1011 81 10000 3.1 290 20:22 31.10.2019
5224 Rain 8 1010 81 10000 2.1 300 19:45 31.10.2019
5225 Rain 8 1010 81 10000 2.1 300 19:27 31.10.2019
5226 Rain 8 1010 81 10000 1.5 260 18:58 31.10.2019
5227 Rain 8 1010 81 10000 1.5 260 18:39 31.10.2019
5228 Rain 8 1010 81 10000 1.5 260 18:21 31.10.2019
5229 Rain 9 1009 70 10000 4.1 250 17:43 31.10.2019
5230 Rain 9 1009 70 10000 4.1 250 17:24 31.10.2019
5231 Clear 13 1007 50 10000 5.7 260 16:59 31.10.2019
5232 Clear 13 1007 50 10000 5.7 260 16:40 31.10.2019
5233 Clear 13 1007 50 10000 5.7 260 16:20 31.10.2019
5234 Clear 12 1007 50 10000 6.2 260 15:57 31.10.2019
5235 Clear 12 1007 50 10000 6.2 260 15:38 31.10.2019
5236 Clear 12 1007 50 10000 6.2 260 15:20 31.10.2019
5237 Clear 8 1008 61 10000 3.1 80 14:56 31.10.2019
5238 Clear 8 1008 61 10000 3.1 80 14:38 31.10.2019
5239 Clear 8 1008 61 10000 3.1 80 14:38 31.10.2019
5240 Clouds 8 1008 61 10000 3.1 80 14:20 31.10.2019
5241 Clouds 4 1008 80 10000 3.1 80 13:55 31.10.2019
5242 Clouds 4 1008 80 10000 3.1 80 13:37 31.10.2019
5243 Clear 4 1008 80 10000 3.1 80 13:19 31.10.2019
5244 Clear 1 1009 59 10000 1 0 12:43 31.10.2019
5245 Clear 1 1009 59 10000 1 0 12:23 31.10.2019
5246 Clear 1 1009 59 10000 2.1 70 11:57 31.10.2019
5247 Clear 1 1009 59 10000 2.1 70 11:38 31.10.2019
5248 Clouds 1 1009 93 10000 2.1 70 11:18 31.10.2019
5249 Clouds 0 1010 93 10000 0.5 0 10:57 31.10.2019
5250 Clouds 0 1010 93 10000 0.5 0 10:57 31.10.2019
5251 Clouds 0 1010 93 10000 0.5 0 10:38 31.10.2019
5252 Clouds 0 1010 93 10000 0.5 0 10:19 31.10.2019
5253 Clouds 0 1010 93 10000 2.87 325 09:42 31.10.2019
5254 Clouds 0 1010 93 10000 2.87 325 09:18 31.10.2019
5255 Clouds 1 1011 93 10000 0.5 0 08:49 31.10.2019
5256 Clouds 1 1011 93 10000 0.5 0 08:30 31.10.2019
5257 Clouds 2 1012 93 10000 0.5 0 07:55 31.10.2019
5258 Clouds 2 1012 93 10000 0.5 0 07:36 31.10.2019
5259 Clouds 2 1012 93 10000 0.5 0 07:18 31.10.2019
5260 Clear 3 1012 93 7000 0.5 0 06:38 31.10.2019
5261 Clear 3 1012 93 7000 0.5 0 06:18 31.10.2019
5262 Clear 3 1012 93 7000 0.5 0 06:18 31.10.2019
5263 Clear 4 1014 86 10000 0.5 0 03:30 31.10.2019
5264 Clear 5 1014 80 10000 2.35 308 02:38 31.10.2019
5265 Clouds 9 1014 57 10000 2.26 290 01:50 31.10.2019
5266 Clouds 12 1014 40 10000 2.6 250 00:36 31.10.2019
5267 Clouds 13 1014 35 10000 3.1 260 23:56 30.10.2019
5268 Clouds 13 1014 35 10000 3.1 260 23:28 30.10.2019
5269 Clouds 14 1014 33 10000 4.1 260 22:43 30.10.2019
5270 Clouds 14 1014 33 10000 4.1 260 22:21 30.10.2019
5271 Clouds 14 1015 35 10000 3.1 260 21:56 30.10.2019
5272 Clouds 14 1015 35 10000 3.1 260 21:37 30.10.2019
5273 Clouds 14 1015 35 10000 3.1 260 21:18 30.10.2019
5274 Clouds 13 1016 37 10000 4.6 270 20:58 30.10.2019
5275 Clouds 13 1016 37 10000 4.6 270 20:40 30.10.2019
5276 Clouds 13 1016 37 10000 4.6 270 20:22 30.10.2019
5277 Clouds 13 1016 37 10000 4.6 270 19:58 30.10.2019
5278 Clouds 13 1016 37 10000 4.6 270 19:38 30.10.2019
5279 Clouds 13 1016 37 10000 4.6 270 19:19 30.10.2019
5280 Clouds 13 1016 37 10000 4.6 270 19:19 30.10.2019
5281 Clouds 13 1017 37 10000 4.1 270 18:39 30.10.2019
5282 Clouds 13 1017 37 10000 4.1 270 18:39 30.10.2019
5283 Clouds 13 1017 37 10000 4.1 270 18:39 30.10.2019
5284 Clouds 13 1017 37 10000 4.1 270 18:20 30.10.2019
5285 Clouds 12 1017 37 10000 4.1 260 17:59 30.10.2019
5286 Clouds 12 1017 37 10000 4.1 260 17:41 30.10.2019
5287 Clouds 12 1017 37 10000 4.1 260 17:19 30.10.2019
5288 Clouds 12 1017 37 10000 4.1 260 17:19 30.10.2019
5289 Clouds 11 1018 40 10000 3.6 260 16:55 30.10.2019
5290 Clouds 11 1018 40 10000 3.6 260 16:37 30.10.2019
5291 Clouds 11 1018 40 10000 3.6 260 16:19 30.10.2019
5292 Clouds 10 1018 37 10000 3.1 270 15:55 30.10.2019
5293 Clouds 10 1018 37 10000 3.1 270 15:37 30.10.2019
5294 Clouds 10 1018 37 10000 3.1 270 15:19 30.10.2019
5295 Clouds 9 1019 39 10000 3.6 260 14:42 30.10.2019
5296 Clouds 9 1019 39 10000 3.6 260 14:22 30.10.2019
5297 Clouds 8 1019 49 10000 2.6 250 13:58 30.10.2019
5298 Clouds 8 1019 49 10000 2.6 250 13:40 30.10.2019
5299 Clouds 8 1019 49 10000 2.6 250 13:20 30.10.2019
5300 Clouds 5 1018 65 10000 1 0 12:56 30.10.2019
5301 Clouds 5 1018 65 10000 1 0 12:37 30.10.2019
5302 Clouds 5 1018 65 10000 1 0 12:19 30.10.2019
5303 Clouds 5 1018 65 10000 3.1 240 11:41 30.10.2019
5304 Clouds 5 1018 65 10000 3.1 240 11:22 30.10.2019
5305 Clouds 5 1017 65 10000 2.6 250 10:45 30.10.2019
5306 Clouds 5 1017 65 10000 2.6 250 10:26 30.10.2019
5307 Clouds 6 1017 60 10000 3.1 240 09:57 30.10.2019
5308 Clouds 6 1017 60 10000 3.1 240 09:39 30.10.2019
5309 Clouds 6 1017 60 10000 3.1 240 09:19 30.10.2019
5310 Clouds 6 1017 93 10000 3.1 250 08:41 30.10.2019
5311 Clouds 6 1017 93 10000 3.1 250 08:22 30.10.2019
5312 Clouds 5 1017 93 10000 2.1 250 07:51 30.10.2019
5313 Clouds 5 1017 93 10000 2.1 250 07:32 30.10.2019
5314 Clouds 5 1017 75 10000 2.1 260 06:43 30.10.2019
5315 Clouds 5 1017 75 10000 2.1 260 06:22 30.10.2019
5316 Clouds 6 1016 70 10000 3.1 240 05:46 30.10.2019
5317 Clouds 6 1016 70 10000 3.1 240 05:24 30.10.2019
5318 Rain 7 1015 70 10000 3.1 0 03:45 30.10.2019
5319 Rain 7 1015 70 10000 3.1 0 03:18 30.10.2019
5320 Rain 7 1014 70 10000 3.6 260 02:19 30.10.2019
5321 Rain 7 1014 70 10000 3.1 270 01:32 30.10.2019
5322 Rain 7 1013 70 10000 3.6 250 00:31 30.10.2019
5323 Rain 8 1012 70 10000 4.1 270 23:46 29.10.2019
5324 Rain 8 1012 70 10000 4.1 270 23:25 29.10.2019
5325 Rain 9 1011 66 10000 5.1 270 22:49 29.10.2019
5326 Rain 9 1011 66 10000 5.1 270 22:49 29.10.2019
5327 Rain 9 1011 66 10000 5.1 270 22:20 29.10.2019
5328 Rain 9 1010 66 10000 4.1 270 21:59 29.10.2019
5329 Rain 9 1010 66 10000 4.1 270 21:41 29.10.2019
5330 Rain 9 1010 66 10000 4.1 270 21:20 29.10.2019
5331 Clouds 8 1010 75 10000 1.5 230 20:58 29.10.2019
5332 Clouds 8 1010 75 10000 1.5 230 20:40 29.10.2019
5333 Clouds 8 1010 75 10000 1.5 230 20:21 29.10.2019
5334 Rain 7 1010 81 6000 3.1 250 19:57 29.10.2019
5335 Rain 7 1010 81 6000 3.1 250 19:38 29.10.2019
5336 Rain 7 1010 81 6000 3.1 250 19:19 29.10.2019
5337 Rain 7 1009 87 6000 3.1 310 18:55 29.10.2019
5338 Rain 7 1009 87 6000 3.1 310 18:37 29.10.2019
5339 Rain 7 1009 87 6000 3.1 310 18:19 29.10.2019
5340 Rain 8 1008 75 8000 1 0 17:54 29.10.2019
5341 Rain 8 1008 75 8000 1 0 17:54 29.10.2019
5342 Rain 8 1008 75 8000 1 0 17:36 29.10.2019
5343 Rain 8 1008 75 8000 1 0 17:18 29.10.2019
5344 Rain 7 1008 81 7000 2.6 0 16:39 29.10.2019
5345 Rain 7 1008 81 7000 2.6 0 16:39 29.10.2019
5346 Rain 7 1008 81 7000 2.6 0 16:19 29.10.2019
5347 Rain 8 1007 75 10000 1.5 270 15:55 29.10.2019
5348 Rain 8 1007 75 10000 1.5 270 15:37 29.10.2019
5349 Rain 8 1007 75 10000 1.5 270 15:37 29.10.2019
5350 Rain 8 1007 75 10000 1.5 270 15:19 29.10.2019
5351 Rain 6 1007 87 8000 2.1 240 14:54 29.10.2019
5352 Rain 6 1007 87 8000 2.1 240 14:54 29.10.2019
5353 Rain 6 1007 87 8000 2.1 240 14:36 29.10.2019
5354 Rain 6 1007 87 8000 2.1 240 14:18 29.10.2019
5355 Clouds 6 1006 87 10000 1.5 310 13:40 29.10.2019
5356 Clouds 6 1006 87 10000 1.5 310 13:21 29.10.2019
5357 Rain 6 1006 87 10000 1 0 12:45 29.10.2019
5358 Rain 6 1006 87 10000 1 0 12:25 29.10.2019
5359 Rain 6 1006 87 10000 1 0 12:25 29.10.2019
5360 Rain 5 1005 93 10000 2.6 280 11:57 29.10.2019
5361 Rain 5 1005 93 10000 2.6 280 11:38 29.10.2019
5362 Rain 5 1005 93 10000 2.6 280 11:19 29.10.2019
5363 Rain 5 1004 93 9000 1 0 10:57 29.10.2019
5364 Rain 5 1004 93 9000 1 0 10:38 29.10.2019
5365 Rain 5 1004 93 9000 1 0 10:19 29.10.2019
5366 Rain 5 1003 93 10000 1.5 300 09:43 29.10.2019
5367 Rain 5 1003 93 10000 1.5 300 09:23 29.10.2019
5368 Rain 5 1003 93 10000 1.5 300 09:23 29.10.2019
5369 Rain 5 1003 93 10000 1.5 300 09:23 29.10.2019
5370 Rain 5 1003 93 10000 0.5 0 08:58 29.10.2019
5371 Rain 5 1003 93 10000 0.5 0 08:39 29.10.2019
5372 Rain 5 1003 93 10000 0.5 0 08:21 29.10.2019
5373 Rain 5 1002 93 10000 0.5 0 07:48 29.10.2019
5374 Rain 5 1002 93 10000 0.5 0 07:21 29.10.2019
5375 Rain 5 1002 93 10000 0.5 0 06:54 29.10.2019
5376 Rain 5 1002 93 10000 0.5 0 06:33 29.10.2019
5377 Rain 6 1002 81 10000 1 0 05:59 29.10.2019
5378 Rain 6 1002 81 10000 1 0 05:39 29.10.2019
5379 Rain 6 1001 87 10000 0.5 0 04:52 29.10.2019
5380 Clouds 6 1001 87 10000 1 0 03:23 29.10.2019
5381 Rain 8 1002 70 10000 2.6 240 01:57 29.10.2019
5382 Rain 8 1002 70 10000 2.6 240 01:36 29.10.2019
5383 Rain 10 1001 57 10000 2.6 240 00:53 29.10.2019
5384 Rain 10 1001 57 10000 2.6 240 00:26 29.10.2019
5385 Rain 10 1001 61 10000 3.6 280 23:38 28.10.2019
5386 Rain 10 1001 61 10000 3.6 280 23:20 28.10.2019
5387 Clouds 11 1001 62 10000 3.1 250 22:40 28.10.2019
5388 Clouds 11 1001 62 10000 3.1 250 22:20 28.10.2019
5389 Clouds 10 1001 62 0 2.94 289 21:58 28.10.2019
5390 Clouds 10 1001 62 0 2.94 289 21:39 28.10.2019
5391 Clouds 13 1001 50 10000 2.6 260 21:21 28.10.2019
5392 Clouds 13 1001 50 10000 2.6 260 20:58 28.10.2019
5393 Clouds 13 1001 50 10000 2.6 260 20:39 28.10.2019
5394 Clouds 13 1001 50 10000 2.6 260 20:20 28.10.2019
5395 Clouds 13 1002 50 10000 3.6 270 19:54 28.10.2019
5396 Clouds 13 1002 50 10000 3.6 270 19:36 28.10.2019
5397 Clouds 13 1002 50 10000 3.6 270 19:18 28.10.2019
5398 Clouds 13 1003 50 10000 3.6 260 18:55 28.10.2019
5399 Clouds 13 1003 50 10000 3.6 260 18:36 28.10.2019
5400 Clouds 13 1003 50 10000 3.6 260 18:18 28.10.2019
5401 Clouds 11 1004 62 10000 2.1 320 17:54 28.10.2019
5402 Clouds 11 1004 62 10000 2.1 320 17:36 28.10.2019
5403 Clouds 11 1004 62 10000 2.1 320 17:36 28.10.2019
5404 Clouds 11 1004 62 10000 2.1 320 17:18 28.10.2019
5405 Clouds 10 1005 66 10000 1 0 16:43 28.10.2019
5406 Clouds 10 1005 66 10000 1 0 16:24 28.10.2019
5407 Rain 9 1006 76 10000 1 0 15:59 28.10.2019
5408 Rain 9 1006 76 10000 1 0 15:40 28.10.2019
5409 Rain 9 1006 76 10000 1 0 15:21 28.10.2019
5410 Rain 7 1006 87 10000 0.5 0 14:58 28.10.2019
5411 Rain 7 1006 87 10000 0.5 0 14:40 28.10.2019
5412 Rain 7 1006 87 10000 0.5 0 14:19 28.10.2019
5413 Rain 6 1007 93 9000 0.5 0 13:58 28.10.2019
5414 Rain 6 1007 93 9000 0.5 0 13:40 28.10.2019
5415 Rain 6 1007 93 9000 0.5 0 13:18 28.10.2019
5416 Clouds 5 1007 93 10000 1 0 12:43 28.10.2019
5417 Clouds 5 1007 93 10000 1 0 12:21 28.10.2019
5418 Rain 5 1007 93 10000 2.67 341 11:54 28.10.2019
5419 Rain 5 1007 93 10000 2.67 341 11:36 28.10.2019
5420 Rain 5 1007 93 10000 1.76 334 11:18 28.10.2019
5421 Clouds 5 1008 86 10000 1 0 10:39 28.10.2019
5422 Clouds 5 1008 86 10000 1 0 10:21 28.10.2019
5423 Clouds 6 1008 87 10000 1.76 334 09:57 28.10.2019
5424 Clouds 6 1008 87 10000 1.76 334 09:38 28.10.2019
5425 Clouds 6 1008 87 10000 1.76 334 09:19 28.10.2019
5426 Clouds 5 1009 93 10000 1.5 60 08:56 28.10.2019
5427 Clouds 5 1009 93 10000 1.5 60 08:37 28.10.2019
5428 Clouds 5 1009 93 10000 1.5 60 08:18 28.10.2019
5429 Clouds 6 1009 87 10000 1 0 07:55 28.10.2019
5430 Clouds 6 1009 87 10000 1 0 07:36 28.10.2019
5431 Clouds 6 1009 87 10000 1 0 07:18 28.10.2019
5432 Clouds 6 1011 87 10000 1.8 330 06:39 28.10.2019
5433 Clouds 6 1011 81 10000 1.8 330 05:33 28.10.2019
5434 Clouds 6 1011 81 10000 0.5 0 03:45 28.10.2019
5435 Clouds 7 1012 70 10000 2.09 317 02:46 28.10.2019
5436 Clouds 8 1011 65 10000 2.1 250 01:52 28.10.2019
5437 Clouds 9 1011 61 10000 2.6 290 00:47 28.10.2019
5438 Clouds 9 1011 61 10000 2.6 290 00:26 28.10.2019
5439 Clouds 11 1011 86 10000 3.1 280 23:45 27.10.2019
5440 Clouds 11 1011 68 10000 3.1 280 23:22 27.10.2019
5441 Clouds 12 1011 40 10000 3.1 250 22:57 27.10.2019
5442 Clouds 12 1011 40 10000 3.1 250 22:37 27.10.2019
5443 Clouds 12 1011 40 10000 3.1 250 22:19 27.10.2019
5444 Clouds 11 1011 43 10000 3.1 270 21:56 27.10.2019
5445 Clouds 11 1011 43 10000 3.1 270 21:38 27.10.2019
5446 Clouds 11 1011 43 10000 3.1 270 21:20 27.10.2019
5447 Rain 12 1011 70 10000 5.1 280 20:41 27.10.2019
5448 Rain 12 1011 68 10000 5.1 280 20:23 27.10.2019
5449 Rain 11 1011 68 10000 3.1 260 19:58 27.10.2019
5450 Rain 11 1011 68 10000 3.1 260 19:37 27.10.2019
5451 Rain 11 1011 68 10000 3.1 260 19:19 27.10.2019
5452 Rain 11 1011 68 10000 4.1 270 18:56 27.10.2019
5453 Rain 11 1011 68 10000 4.1 270 18:38 27.10.2019
5454 Rain 11 1011 68 10000 4.1 270 18:20 27.10.2019
5455 Rain 11 1011 68 10000 4.1 270 18:20 27.10.2019
5456 Rain 11 1011 50 10000 5.1 280 17:55 27.10.2019
5457 Rain 11 1011 50 10000 5.1 280 17:36 27.10.2019
5458 Rain 11 1011 50 10000 5.1 280 17:18 27.10.2019
5459 Rain 9 1011 66 10000 2.1 0 16:55 27.10.2019
5460 Rain 9 1011 66 10000 2.1 0 16:55 27.10.2019
5461 Rain 9 1011 66 10000 2.1 0 16:37 27.10.2019
5462 Rain 9 1011 66 10000 2.1 0 16:18 27.10.2019
5463 Rain 7 1011 81 10000 1.5 0 15:55 27.10.2019
5464 Rain 7 1011 81 10000 1.5 0 15:36 27.10.2019
5465 Rain 7 1011 81 10000 1.5 0 15:18 27.10.2019
5466 Rain 5 1011 86 10000 3.1 310 14:41 27.10.2019
5467 Rain 5 1011 86 10000 3.1 310 14:19 27.10.2019
5468 Rain 5 1011 86 10000 1.5 220 13:55 27.10.2019
5469 Rain 5 1011 86 10000 1.5 220 13:36 27.10.2019
5470 Rain 5 1011 86 10000 1.5 220 13:18 27.10.2019
5471 Rain 4 1010 93 10000 2.1 270 12:42 27.10.2019
5472 Rain 4 1010 93 10000 2.1 270 12:23 27.10.2019
5473 Rain 4 1010 86 10000 2.6 270 11:44 27.10.2019
5474 Rain 4 1010 86 10000 2.6 270 11:25 27.10.2019
5475 Rain 4 1010 86 10000 2.6 270 11:25 27.10.2019
5476 Rain 5 1009 86 10000 3.1 0 10:59 27.10.2019
5477 Rain 5 1009 86 10000 3.1 0 10:41 27.10.2019
5478 Rain 5 1009 86 10000 3.1 0 10:41 27.10.2019
5479 Rain 5 1009 86 10000 3.1 0 10:22 27.10.2019
5480 Rain 6 1009 75 10000 3.6 0 09:43 27.10.2019
5481 Rain 6 1009 75 10000 3.6 0 09:19 27.10.2019
5482 Rain 5 1008 80 10000 3.6 260 08:57 27.10.2019
5483 Rain 5 1008 80 10000 3.6 260 08:38 27.10.2019
5484 Rain 5 1008 80 10000 3.6 260 08:19 27.10.2019
5485 Rain 5 1008 80 10000 4.1 0 07:47 27.10.2019
5486 Rain 5 1008 80 10000 4.1 0 07:28 27.10.2019
5487 Clear 6 1009 75 10000 5.1 280 06:55 27.10.2019
5488 Clear 6 1009 75 10000 5.1 280 06:29 27.10.2019
5489 Clear 5 1010 80 10000 4.6 290 05:57 27.10.2019
5490 Clear 5 1010 80 10000 4.6 290 05:36 27.10.2019
5491 Rain 5 1010 86 10000 4.1 250 04:25 27.10.2019
5492 Rain 6 1011 81 10000 3.6 240 02:29 27.10.2019
5493 Clear 7 1010 75 10000 2.6 270 01:27 27.10.2019
5494 Rain 7 1010 81 8000 3.6 240 00:53 27.10.2019
5495 Rain 7 1010 81 8000 3.6 240 00:35 27.10.2019
5496 Rain 8 1009 70 10000 4.6 250 23:58 26.10.2019
5497 Rain 8 1009 70 10000 4.6 250 23:40 26.10.2019
5498 Rain 8 1009 70 10000 4.6 250 23:21 26.10.2019
5499 Clear 11 1008 50 10000 5.7 270 22:57 26.10.2019
5500 Clear 11 1008 50 10000 5.7 270 22:38 26.10.2019
5501 Clear 11 1008 50 10000 5.7 270 22:19 26.10.2019
5502 Clear 12 1007 46 10000 5.1 240 21:55 26.10.2019
5503 Clear 12 1007 46 10000 5.1 240 21:36 26.10.2019
5504 Clouds 12 1007 46 10000 5.1 240 21:18 26.10.2019
5505 Clouds 13 1007 43 10000 6.2 260 20:42 26.10.2019
5506 Clouds 13 1007 43 10000 6.2 260 20:19 26.10.2019
5507 Clouds 14 1006 41 10000 5.1 270 19:42 26.10.2019
5508 Clouds 14 1006 41 10000 5.1 270 19:21 26.10.2019
5509 Clouds 13 1006 50 10000 3.6 260 18:58 26.10.2019
5510 Clouds 13 1006 50 10000 3.6 260 18:39 26.10.2019
5511 Rain 13 1006 50 10000 3.6 260 18:20 26.10.2019
5512 Rain 12 1006 62 10000 3.6 0 17:57 26.10.2019
5513 Rain 12 1006 62 10000 3.6 0 17:38 26.10.2019
5514 Rain 12 1006 62 10000 3.6 0 17:20 26.10.2019
5515 Rain 10 1006 76 10000 2.6 270 16:45 26.10.2019
5516 Rain 10 1006 76 10000 2.6 270 16:25 26.10.2019
5517 Rain 8 1006 87 10000 2.1 280 15:59 26.10.2019
5518 Rain 8 1006 87 10000 2.1 280 15:38 26.10.2019
5519 Rain 8 1006 87 10000 2.1 280 15:18 26.10.2019
5520 Rain 7 1006 87 10000 2.1 250 14:39 26.10.2019
5521 Rain 7 1006 87 10000 2.1 250 14:19 26.10.2019
5522 Rain 6 1005 87 0 2.56 279 13:56 26.10.2019
5523 Rain 6 1005 87 0 2.56 279 13:56 26.10.2019
5524 Rain 8 1006 81 10000 2.6 260 13:36 26.10.2019
5525 Rain 6 1005 87 0 2.56 279 13:18 26.10.2019
5526 Rain 6 1005 87 0 2.56 279 13:18 26.10.2019
5527 Rain 8 1004 87 10000 1 0 12:42 26.10.2019
5528 Rain 8 1004 87 10000 1 0 12:18 26.10.2019
5529 Rain 8 1004 87 10000 0.5 0 11:45 26.10.2019
5530 Rain 8 1004 87 10000 0.5 0 11:24 26.10.2019
5531 Rain 9 1004 76 10000 2.6 270 10:46 26.10.2019
5532 Rain 9 1004 76 10000 2.6 270 10:25 26.10.2019
5533 Rain 8 1005 100 10000 0.5 0 09:49 26.10.2019
5534 Rain 8 1005 100 10000 0.5 0 09:30 26.10.2019
5535 Rain 9 1006 93 9000 1 0 08:50 26.10.2019
5536 Rain 9 1006 93 9000 1 0 08:27 26.10.2019
5537 Rain 9 1006 93 8000 1.81 309 07:57 26.10.2019
5538 Rain 9 1006 93 8000 1.81 309 07:34 26.10.2019
5539 Rain 9 1006 100 9000 0.5 0 06:56 26.10.2019
5540 Rain 9 1006 100 9000 0.5 0 06:38 26.10.2019
5541 Rain 10 1007 93 7000 1.5 0 05:24 26.10.2019
5542 Rain 10 1007 93 7000 0.5 0 04:59 26.10.2019
5543 Mist 10 1008 100 9000 0.5 0 03:25 26.10.2019
5544 Rain 11 1008 93 6000 1.65 295 02:23 26.10.2019
5545 Rain 12 1008 87 10000 1.65 295 01:44 26.10.2019
5546 Rain 12 1009 93 10000 0.5 0 00:33 26.10.2019
5547 Rain 13 1009 87 10000 2.46 252 23:47 25.10.2019
5548 Rain 13 1009 87 10000 2.46 252 23:21 25.10.2019
5549 Rain 14 1010 71 10000 2.1 310 22:54 25.10.2019
5550 Rain 14 1010 71 10000 2.1 310 22:36 25.10.2019
5551 Rain 14 1010 71 10000 2.1 310 22:18 25.10.2019
5552 Clouds 15 1010 62 10000 1 0 21:54 25.10.2019
5553 Clouds 15 1010 62 10000 1 0 21:54 25.10.2019
5554 Clouds 15 1010 62 10000 1 0 21:36 25.10.2019
5555 Clouds 15 1010 62 10000 1 0 21:18 25.10.2019
5556 Rain 13 1010 61 0 1.41 278 20:42 25.10.2019
5557 Rain 15 1011 54 9000 1.5 0 20:19 25.10.2019
5558 Rain 15 1011 54 9000 1.5 0 19:45 25.10.2019
5559 Rain 15 1011 54 9000 1.5 0 19:27 25.10.2019
5560 Rain 16 1012 48 10000 2.1 310 18:47 25.10.2019
5561 Rain 16 1012 48 10000 2.1 310 18:28 25.10.2019
5562 Rain 11 1012 70 0 1.43 265 17:54 25.10.2019
5563 Rain 11 1012 70 0 1.43 265 17:36 25.10.2019
5564 Rain 12 1014 66 10000 0.5 0 17:18 25.10.2019
5565 Rain 12 1014 66 10000 0.5 0 16:42 25.10.2019
5566 Rain 12 1014 66 10000 0.5 0 16:21 25.10.2019
5567 Clouds 9 1015 81 10000 1.5 70 15:41 25.10.2019
5568 Clouds 9 1015 81 10000 1.5 70 15:23 25.10.2019
5569 Fog 7 1016 93 10000 0.5 0 14:59 25.10.2019
5570 Fog 7 1016 93 10000 0.5 0 14:40 25.10.2019
5571 Fog 7 1016 93 10000 0.5 0 14:22 25.10.2019
5572 Mist 6 1016 100 10000 0.5 0 13:44 25.10.2019
5573 Mist 6 1016 100 10000 0.5 0 13:25 25.10.2019
5574 Mist 6 1016 100 6000 1.54 324 12:58 25.10.2019
5575 Mist 6 1016 100 6000 1.54 324 12:39 25.10.2019
5576 Mist 6 1016 100 6000 1.57 322 12:20 25.10.2019
5577 Mist 6 1016 93 5000 1.57 322 11:41 25.10.2019
5578 Mist 6 1016 93 5000 1.57 322 11:23 25.10.2019
5579 Clouds 5 1016 100 10000 1 70 10:59 25.10.2019
5580 Clouds 5 1016 100 10000 1 70 10:39 25.10.2019
5581 Clouds 5 1016 100 10000 1 70 10:20 25.10.2019
5582 Mist 6 1017 93 7000 1.57 322 09:55 25.10.2019
5583 Mist 6 1017 93 7000 1.49 308 09:36 25.10.2019
5584 Mist 6 1017 93 7000 1.62 308 09:18 25.10.2019
5585 Clear 6 1017 93 9000 1.62 308 08:42 25.10.2019
5586 Clear 6 1017 93 9000 1.62 308 08:23 25.10.2019
5587 Clouds 6 1018 93 10000 0.5 270 07:49 25.10.2019
5588 Clouds 6 1018 93 10000 0.5 270 07:49 25.10.2019
5589 Clouds 6 1018 93 10000 0.5 270 07:49 25.10.2019
5590 Clouds 6 1018 93 10000 0.5 270 07:30 25.10.2019
5591 Clouds 7 1018 93 10000 1.62 308 06:38 25.10.2019
5592 Clouds 8 1018 87 10000 1 0 05:50 25.10.2019
5593 Clouds 8 1018 87 10000 1 0 05:32 25.10.2019
5594 Clouds 8 1018 87 10000 1.94 308 04:37 25.10.2019
5595 Clouds 9 1018 81 10000 1 0 02:42 25.10.2019
5596 Rain 10 1018 76 10000 1.5 260 01:53 25.10.2019
5597 Clouds 10 1018 76 10000 2.1 300 00:36 25.10.2019
5598 Rain 10 1017 76 10000 1.5 0 23:55 24.10.2019
5599 Rain 10 1017 76 10000 1.5 0 23:36 24.10.2019
5600 Rain 10 1017 76 10000 1.5 0 23:18 24.10.2019
5601 Rain 11 1016 66 8000 3.6 260 22:39 24.10.2019
5602 Rain 11 1016 66 8000 3.6 260 22:19 24.10.2019
5603 Rain 14 1014 47 10000 4.1 270 21:57 24.10.2019
5604 Rain 14 1014 47 10000 4.1 270 21:38 24.10.2019
5605 Rain 14 1014 47 10000 4.1 270 21:20 24.10.2019
5606 Clouds 15 1014 41 10000 3.6 260 20:59 24.10.2019
5607 Clouds 15 1014 41 10000 3.6 260 20:39 24.10.2019
5608 Clouds 15 1014 41 10000 3.6 260 20:21 24.10.2019
5609 Clouds 15 1014 38 0 5.1 280 19:56 24.10.2019
5610 Clouds 15 1014 38 0 5.1 280 19:37 24.10.2019
5611 Clouds 15 1014 38 0 5.1 280 19:18 24.10.2019
5612 Clouds 16 1014 40 10000 3.6 270 18:41 24.10.2019
5613 Clouds 16 1014 42 10000 3.6 270 18:23 24.10.2019
5614 Clouds 14 1014 50 10000 1.5 340 17:59 24.10.2019
5615 Clouds 14 1014 50 10000 1.5 340 17:41 24.10.2019
5616 Clouds 14 1014 50 10000 1.5 340 17:20 24.10.2019
5617 Clouds 10 1014 66 10000 1 0 16:56 24.10.2019
5618 Clouds 10 1014 66 10000 1 0 16:38 24.10.2019
5619 Clouds 10 1014 66 10000 1 0 16:19 24.10.2019
5620 Clouds 8 1015 75 10000 1 0 15:56 24.10.2019
5621 Clouds 8 1015 75 10000 1 0 15:56 24.10.2019
5622 Clouds 8 1015 75 10000 1 0 15:38 24.10.2019
5623 Clouds 8 1015 75 10000 1 0 15:19 24.10.2019
5624 Clouds 7 1015 75 10000 1 0 14:55 24.10.2019
5625 Clouds 7 1015 75 10000 1 0 14:36 24.10.2019
5626 Clouds 7 1015 75 10000 1 0 14:18 24.10.2019
5627 Clouds 5 1014 86 10000 0.5 0 13:40 24.10.2019
5628 Clouds 5 1014 86 10000 0.5 0 13:19 24.10.2019
5629 Clouds 5 1014 86 10000 1 0 12:57 24.10.2019
5630 Clouds 5 1014 86 10000 1 0 12:38 24.10.2019
5631 Clouds 5 1014 86 10000 1 0 12:19 24.10.2019
5632 Clouds 6 1014 75 10000 1 270 11:56 24.10.2019
5633 Clouds 6 1014 75 10000 1 270 11:36 24.10.2019
5634 Clouds 6 1014 75 10000 1 270 11:36 24.10.2019
5635 Clouds 6 1014 75 10000 1 270 11:18 24.10.2019
5636 Clouds 6 1014 75 10000 1 0 10:42 24.10.2019
5637 Clouds 6 1014 75 10000 1 0 10:23 24.10.2019
5638 Clouds 6 1014 81 10000 0.5 0 09:41 24.10.2019
5639 Clouds 6 1014 81 10000 0.5 0 09:19 24.10.2019
5640 Clouds 7 1014 75 10000 1 0 08:59 24.10.2019
5641 Clouds 7 1014 75 10000 1 0 08:41 24.10.2019
5642 Clouds 7 1014 75 10000 1 0 08:20 24.10.2019
5643 Clear 8 1014 70 9000 1 0 07:47 24.10.2019
5644 Clear 8 1014 70 9000 1 0 07:23 24.10.2019
5645 Clouds 7 1014 81 10000 0.5 0 06:54 24.10.2019
5646 Clouds 7 1014 81 10000 0.5 0 06:36 24.10.2019
5647 Clouds 8 1014 70 10000 0.5 0 05:55 24.10.2019
5648 Clouds 8 1014 70 10000 0.5 0 05:31 24.10.2019
5649 Clouds 8 1014 70 10000 0.5 0 05:31 24.10.2019
5650 Clouds 9 1014 70 10000 2.81 304 04:22 24.10.2019
5651 Clouds 9 1014 70 10000 2.81 304 04:22 24.10.2019
5652 Clouds 11 1014 62 10000 2.81 304 03:33 24.10.2019
5653 Clouds 15 1014 44 10000 1.5 280 02:37 24.10.2019
5654 Clouds 15 1014 44 10000 1.5 280 02:18 24.10.2019
5655 Clouds 18 1013 31 10000 2.1 270 01:30 24.10.2019
5656 Clouds 21 1013 22 10000 2.6 250 00:55 24.10.2019
5657 Clouds 21 1013 22 10000 2.6 250 00:25 24.10.2019
5658 Clear 22 1013 18 10000 4.6 280 23:45 23.10.2019
5659 Clear 22 1013 18 10000 4.6 280 23:27 23.10.2019
5660 Clear 22 1013 18 10000 4.6 280 23:27 23.10.2019
5661 Clear 22 1013 14 10000 4.1 270 22:58 23.10.2019
5662 Clear 22 1013 14 10000 4.1 270 22:39 23.10.2019
5663 Clear 22 1013 14 10000 4.1 270 22:19 23.10.2019
5664 Clear 22 1013 14 10000 4.1 270 22:19 23.10.2019
5665 Clear 22 1013 21 10000 2.1 0 21:58 23.10.2019
5666 Clear 22 1013 21 10000 2.1 0 21:40 23.10.2019
5667 Clear 22 1013 21 10000 2.1 0 21:40 23.10.2019
5668 Clear 22 1013 21 10000 2.1 0 21:40 23.10.2019
5669 Clear 22 1013 21 10000 2.1 0 21:21 23.10.2019
5670 Clear 20 1014 34 10000 1.5 340 20:59 23.10.2019
5671 Clear 20 1014 34 10000 1.5 340 20:39 23.10.2019
5672 Clear 20 1014 34 10000 1.5 340 20:21 23.10.2019
5673 Clear 20 1014 34 10000 1.5 340 20:21 23.10.2019
5674 Clear 19 1015 29 10000 1 0 19:58 23.10.2019
5675 Clear 19 1015 29 10000 1 0 19:40 23.10.2019
5676 Clear 19 1015 29 10000 1 0 19:19 23.10.2019
5677 Clear 16 1017 41 10000 1 0 18:56 23.10.2019
5678 Clear 16 1017 41 10000 1 0 18:38 23.10.2019
5679 Clear 16 1017 41 10000 1 0 18:18 23.10.2019
5680 Clear 14 1018 47 10000 1 0 17:45 23.10.2019
5681 Clear 14 1018 47 10000 1 0 17:20 23.10.2019
5682 Clear 11 1019 57 10000 1.5 350 16:58 23.10.2019
5683 Clear 11 1019 57 10000 1.5 350 16:39 23.10.2019
5684 Clear 11 1019 57 10000 1.5 350 16:19 23.10.2019
5685 Clear 8 1020 70 10000 1 0 15:42 23.10.2019
5686 Clear 8 1020 70 10000 1 0 15:22 23.10.2019
5687 Clear 5 1021 80 10000 1 0 14:58 23.10.2019
5688 Clear 5 1021 80 10000 1 0 14:38 23.10.2019
5689 Clear 5 1021 80 10000 1 0 14:20 23.10.2019
5690 Clear 1 1021 100 10000 0.58 161 13:58 23.10.2019
5691 Clear 1 1021 100 10000 0.58 161 13:40 23.10.2019
5692 Clear 1 1021 100 10000 0.58 161 13:22 23.10.2019
5693 Clear 1 1021 74 10000 1 0 12:55 23.10.2019
5694 Clear 1 1021 74 10000 1 0 12:37 23.10.2019
5695 Clear 1 1021 94 10000 1 0 12:18 23.10.2019
5696 Clear 1 1021 94 10000 0.81 288 11:56 23.10.2019
5697 Clear 1 1021 94 10000 0.81 288 11:56 23.10.2019
5698 Clear 1 1021 94 10000 0.81 288 11:37 23.10.2019
5699 Clear 1 1021 94 10000 0.81 288 11:37 23.10.2019
5700 Clear 1 1021 94 10000 0.81 288 11:19 23.10.2019
5701 Clear 3 1021 93 10000 1 0 10:45 23.10.2019
5702 Clear 3 1021 93 10000 1 0 10:25 23.10.2019
5703 Clear 3 1021 93 10000 0.5 280 09:42 23.10.2019
5704 Clear 3 1021 93 10000 0.5 280 09:24 23.10.2019
5705 Clear 4 1021 86 10000 1 0 08:59 23.10.2019
5706 Clear 4 1021 86 10000 1 0 08:41 23.10.2019
5707 Clear 4 1021 86 10000 1 0 08:23 23.10.2019
5708 Clear 5 1022 80 10000 1 0 07:46 23.10.2019
5709 Clear 5 1022 80 10000 1 0 07:22 23.10.2019
5710 Clear 6 1022 75 10000 1 0 06:46 23.10.2019
5711 Clear 6 1022 75 10000 1 0 06:22 23.10.2019
5712 Clear 7 1022 70 10000 1.5 280 05:41 23.10.2019
5713 Clear 8 1022 65 10000 1 0 04:38 23.10.2019
5714 Clear 9 1021 66 10000 1 0 03:34 23.10.2019
5715 Clear 10 1021 57 10000 1 0 02:37 23.10.2019
5716 Clear 14 1020 41 10000 1 0 01:28 23.10.2019
5717 Clear 17 1020 23 10000 1.5 0 00:48 23.10.2019
5718 Clear 17 1020 23 10000 1.5 0 00:28 23.10.2019
5719 Clear 18 1020 22 10000 1.5 0 23:39 22.10.2019
5720 Clear 18 1020 22 10000 1.5 0 23:18 22.10.2019
5721 Clear 18 1020 23 10000 1.5 0 22:56 22.10.2019
5722 Clear 18 1020 23 10000 1.5 0 22:37 22.10.2019
5723 Clear 18 1020 23 10000 1.5 0 22:19 22.10.2019
5724 Clear 18 1020 25 10000 1.5 0 21:56 22.10.2019
5725 Clear 18 1020 25 10000 1.5 0 21:56 22.10.2019
5726 Clear 18 1020 25 10000 1.5 0 21:36 22.10.2019
5727 Clear 18 1020 25 10000 1.5 0 21:36 22.10.2019
5728 Clear 18 1020 25 10000 1.5 0 21:18 22.10.2019
5729 Clear 17 1021 27 10000 1.5 0 20:55 22.10.2019
5730 Clear 17 1021 27 10000 1.5 0 20:37 22.10.2019
5731 Clear 17 1021 27 10000 1.5 0 20:18 22.10.2019
5732 Clear 15 1022 45 10000 2.1 280 19:42 22.10.2019
5733 Clear 15 1022 45 10000 2.1 280 19:24 22.10.2019
5734 Clear 13 1023 43 10000 2.1 0 18:57 22.10.2019
5735 Clear 13 1023 43 10000 2.1 0 18:39 22.10.2019
5736 Clear 13 1023 43 10000 2.1 0 18:20 22.10.2019
5737 Clear 11 1024 50 10000 2.1 320 17:56 22.10.2019
5738 Clear 11 1024 50 10000 2.1 320 17:56 22.10.2019
5739 Clear 11 1024 50 10000 2.1 320 17:38 22.10.2019
5740 Clear 11 1024 50 10000 2.1 320 17:19 22.10.2019
5741 Clear 9 1025 57 10000 1.5 270 16:56 22.10.2019
5742 Clear 9 1025 57 10000 1.5 270 16:37 22.10.2019
5743 Clear 9 1025 57 10000 1.5 270 16:18 22.10.2019
5744 Clear 7 1026 65 10000 2.1 290 15:42 22.10.2019
5745 Clear 7 1026 65 10000 2.1 290 15:20 22.10.2019
5746 Clear 5 1026 62 10000 1 0 14:50 22.10.2019
5747 Clear 5 1026 59 10000 1 0 14:22 22.10.2019
5748 Clear 2 1026 59 10000 0.5 0 13:59 22.10.2019
5749 Clear 2 1026 59 10000 0.5 0 13:41 22.10.2019
5750 Clear 2 1026 59 10000 0.5 0 13:19 22.10.2019
5751 Clear 1 1026 59 10000 1 0 12:55 22.10.2019
5752 Clear 1 1026 59 10000 1 0 12:37 22.10.2019
5753 Clear 1 1026 78 10000 1 0 12:19 22.10.2019
5754 Clear 2 1026 78 10000 1 0 11:40 22.10.2019
5755 Clear 2 1026 78 10000 1 0 11:22 22.10.2019
5756 Clear 2 1026 78 10000 1.5 270 10:59 22.10.2019
5757 Clear 2 1026 78 10000 1.5 270 10:38 22.10.2019
5758 Clear 2 1026 78 10000 1.5 270 10:38 22.10.2019
5759 Clear 2 1026 78 10000 1.5 270 10:19 22.10.2019
5760 Clear 3 1026 78 10000 1 0 09:57 22.10.2019
5761 Clear 3 1026 78 10000 1 0 09:39 22.10.2019
5762 Clear 3 1026 78 10000 1 0 09:39 22.10.2019
5763 Clear 3 1026 81 10000 1 0 09:21 22.10.2019
5764 Clear 4 1026 81 10000 1.5 270 08:44 22.10.2019
5765 Clear 4 1026 81 10000 1.5 270 08:22 22.10.2019
5766 Clear 5 1027 81 10000 1 0 07:57 22.10.2019
5767 Clear 5 1027 81 10000 1 0 07:39 22.10.2019
5768 Clear 5 1027 81 10000 1 0 07:20 22.10.2019
5769 Clear 5 1027 65 10000 1 260 06:37 22.10.2019
5770 Clear 5 1027 65 10000 1 260 06:19 22.10.2019
5771 Clear 7 1027 56 10000 1 0 05:27 22.10.2019
5772 Clear 8 1027 52 10000 1.5 280 04:19 22.10.2019
5773 Clear 9 1026 49 10000 3.1 270 02:29 22.10.2019
5774 Clear 10 1025 46 10000 3.6 270 01:36 22.10.2019
5775 Clear 10 1025 46 10000 3.6 270 01:18 22.10.2019
5776 Clear 11 1025 43 10000 4.6 270 00:41 22.10.2019
5777 Clear 11 1025 43 10000 4.6 270 00:22 22.10.2019
5778 Clear 11 1025 40 10000 5.7 280 23:58 21.10.2019
5779 Clear 11 1025 40 10000 5.7 280 23:37 21.10.2019
5780 Clear 11 1025 40 10000 5.7 280 23:19 21.10.2019
5781 Clouds 11 1024 43 10000 5.7 280 22:57 21.10.2019
5782 Clouds 11 1024 43 10000 5.7 280 22:38 21.10.2019
5783 Clouds 11 1024 43 10000 5.7 280 22:19 21.10.2019
5784 Clear 12 1024 54 10000 6.2 280 21:55 21.10.2019
5785 Clear 12 1024 54 10000 6.2 280 21:55 21.10.2019
5786 Clear 12 1024 55 10000 6.2 280 21:37 21.10.2019
5787 Clouds 12 1024 48 10000 6.2 280 21:19 21.10.2019
5788 Clouds 11 1025 37 10000 3.1 260 20:55 21.10.2019
5789 Clouds 11 1025 37 10000 3.1 260 20:37 21.10.2019
5790 Clouds 11 1025 37 10000 3.1 260 20:18 21.10.2019
5791 Clouds 11 1025 40 10000 4.1 270 19:41 21.10.2019
5792 Clouds 11 1025 40 10000 4.1 270 19:22 21.10.2019
5793 Clouds 10 1025 46 10000 3.1 270 18:57 21.10.2019
5794 Clouds 10 1025 46 10000 3.1 270 18:38 21.10.2019
5795 Clouds 10 1025 46 10000 3.1 270 18:19 21.10.2019
5796 Clouds 9 1026 49 10000 2.6 0 17:57 21.10.2019
5797 Clouds 9 1026 49 10000 2.6 0 17:38 21.10.2019
5798 Clouds 9 1026 49 10000 2.6 0 17:19 21.10.2019
5799 Clouds 8 1026 48 10000 2.1 0 16:57 21.10.2019
5800 Clouds 8 1026 48 10000 2.1 0 16:38 21.10.2019
5801 Clouds 8 1026 48 10000 2.1 0 16:20 21.10.2019
5802 Clouds 8 1026 48 10000 2.1 0 16:20 21.10.2019
5803 Clouds 7 1025 65 10000 1.5 0 15:46 21.10.2019
5804 Clouds 7 1025 65 10000 1.5 0 15:25 21.10.2019
5805 Clouds 6 1025 70 10000 3.1 300 14:58 21.10.2019
5806 Clouds 6 1025 70 10000 3.1 300 14:39 21.10.2019
5807 Clouds 6 1025 70 10000 3.1 300 14:20 21.10.2019
5808 Clouds 5 1024 75 10000 1.5 310 13:56 21.10.2019
5809 Clouds 5 1024 75 10000 1.5 310 13:38 21.10.2019
5810 Clouds 5 1024 75 10000 1.5 310 13:19 21.10.2019
5811 Clouds 6 1023 75 10000 3.6 240 12:41 21.10.2019
5812 Clear 6 1023 93 10000 3.6 240 12:22 21.10.2019
5813 Clear 6 1021 70 10000 4.6 240 11:56 21.10.2019
5814 Clear 6 1021 70 10000 4.6 240 11:38 21.10.2019
5815 Clear 6 1021 70 10000 4.6 240 11:19 21.10.2019
5816 Clouds 5 1021 80 10000 3.6 280 10:56 21.10.2019
5817 Clouds 5 1021 80 10000 3.6 280 10:37 21.10.2019
5818 Clouds 5 1021 80 10000 3.6 280 10:18 21.10.2019
5819 Clouds 6 1019 75 10000 3.1 280 09:44 21.10.2019
5820 Clouds 6 1019 75 10000 3.1 280 09:25 21.10.2019
5821 Rain 6 1018 75 10000 3.1 270 08:44 21.10.2019
5822 Rain 6 1018 75 10000 3.1 270 08:24 21.10.2019
5823 Rain 6 1018 75 10000 3.1 270 08:24 21.10.2019
5824 Clear 5 1017 86 10000 2.1 280 07:59 21.10.2019
5825 Clear 5 1017 86 10000 2.1 280 07:38 21.10.2019
5826 Clear 5 1017 86 10000 2.1 280 07:19 21.10.2019
5827 Clear 5 1017 80 10000 0.5 0 06:53 21.10.2019
5828 Clear 5 1017 80 10000 0.5 0 06:35 21.10.2019
5829 Clear 6 1017 70 10000 3.1 240 05:55 21.10.2019
5830 Clear 6 1016 81 10000 2.6 270 04:44 21.10.2019
5831 Rain 7 1014 81 10000 4.1 250 02:50 21.10.2019
5832 Rain 7 1014 81 10000 4.1 250 02:23 21.10.2019
5833 Rain 10 1011 61 10000 2.6 240 01:55 21.10.2019
5834 Rain 10 1011 61 10000 2.6 240 01:23 21.10.2019
5835 Clear 11 1011 62 10000 3.6 250 00:43 21.10.2019
5836 Clear 11 1011 62 10000 3.6 250 00:24 21.10.2019
5837 Rain 11 1011 62 10000 3.6 250 23:41 20.10.2019
5838 Rain 11 1011 62 10000 3.6 250 23:22 20.10.2019
5839 Clear 13 1011 47 10000 2.6 0 22:56 20.10.2019
5840 Clear 13 1011 47 10000 2.6 0 22:37 20.10.2019
5841 Clear 13 1011 47 10000 2.6 0 22:18 20.10.2019
5842 Clear 15 1012 41 10000 3.6 260 21:56 20.10.2019
5843 Clear 15 1012 41 10000 3.6 260 21:38 20.10.2019
5844 Clear 15 1012 41 10000 3.6 260 21:19 20.10.2019
5845 Clear 14 1013 47 10000 5.1 260 20:39 20.10.2019
5846 Clear 14 1013 47 10000 5.1 260 20:18 20.10.2019
5847 Clear 15 1013 41 10000 4.6 260 19:56 20.10.2019
5848 Clear 15 1013 41 10000 4.6 260 19:56 20.10.2019
5849 Clear 15 1013 41 10000 4.6 260 19:37 20.10.2019
5850 Clear 15 1013 41 10000 4.6 260 19:19 20.10.2019
5851 Clear 15 1013 38 10000 3.6 270 18:42 20.10.2019
5852 Clear 15 1013 38 10000 3.6 270 18:23 20.10.2019
5853 Clear 14 1013 44 10000 4.6 250 17:59 20.10.2019
5854 Clear 14 1013 44 10000 4.6 250 17:40 20.10.2019
5855 Clear 14 1013 44 10000 4.6 250 17:21 20.10.2019
5856 Clear 15 1014 41 10000 5.7 260 16:55 20.10.2019
5857 Clear 15 1014 41 10000 5.7 260 16:37 20.10.2019
5858 Clear 15 1014 41 10000 5.7 260 16:18 20.10.2019
5859 Clear 14 1014 44 10000 4.6 260 15:42 20.10.2019
5860 Clear 14 1014 44 10000 4.6 260 15:23 20.10.2019
5861 Clear 13 1014 47 10000 3.6 260 14:59 20.10.2019
5862 Clear 13 1014 47 10000 3.6 260 14:38 20.10.2019
5863 Clear 13 1014 47 10000 3.6 260 14:38 20.10.2019
5864 Clear 13 1014 47 10000 3.6 260 14:38 20.10.2019
5865 Clear 13 1014 47 10000 3.6 260 14:20 20.10.2019
5866 Clear 12 1014 54 10000 2.6 260 13:56 20.10.2019
5867 Clear 12 1014 54 10000 2.6 260 13:37 20.10.2019
5868 Clear 12 1014 54 10000 2.6 260 13:19 20.10.2019
5869 Clouds 12 1014 58 10000 2.6 260 12:57 20.10.2019
5870 Clouds 12 1014 58 10000 2.6 260 12:39 20.10.2019
5871 Clouds 12 1014 58 10000 2.6 260 12:21 20.10.2019
5872 Clouds 12 1014 54 10000 2.1 0 11:57 20.10.2019
5873 Clouds 12 1014 54 10000 2.1 0 11:39 20.10.2019
5874 Clouds 12 1014 54 10000 2.1 0 11:21 20.10.2019
5875 Clear 11 1014 57 10000 2.1 0 10:54 20.10.2019
5876 Clear 11 1014 57 10000 2.1 0 10:54 20.10.2019
5877 Clear 11 1014 57 10000 2.1 0 10:36 20.10.2019
5878 Clear 11 1014 57 10000 2.1 0 10:18 20.10.2019
5879 Clear 8 1013 70 10000 1 0 09:42 20.10.2019
5880 Clear 8 1013 70 10000 1 0 09:22 20.10.2019
5881 Clear 8 1014 70 10000 1.5 270 08:49 20.10.2019
5882 Clear 8 1014 70 10000 1.5 270 08:27 20.10.2019
5883 Clear 9 1014 66 10000 1 0 07:57 20.10.2019
5884 Clear 9 1014 66 10000 1 0 07:39 20.10.2019
5885 Clear 9 1014 66 10000 1 0 07:20 20.10.2019
5886 Clear 10 1013 61 10000 1 0 06:23 20.10.2019
5887 Clear 13 1013 54 10000 1.5 290 04:28 20.10.2019
5888 Clear 14 1012 50 10000 1.5 270 03:47 20.10.2019
5889 Clear 14 1012 50 10000 1.5 270 03:20 20.10.2019
5890 Clear 18 1012 34 10000 2.6 310 02:43 20.10.2019
5891 Clear 21 1011 26 10000 3.1 280 01:58 20.10.2019
5892 Clear 21 1011 26 10000 3.1 280 01:24 20.10.2019
5893 Clear 23 1010 23 10000 4.1 260 00:57 20.10.2019
5894 Clear 23 1010 23 10000 4.1 260 00:39 20.10.2019
5895 Clear 23 1010 23 10000 4.1 260 00:19 20.10.2019
5896 Clear 25 1010 20 10000 3.1 270 23:42 19.10.2019
5897 Clear 25 1010 20 10000 3.1 270 23:22 19.10.2019
5898 Clear 25 1010 20 10000 2.1 0 22:56 19.10.2019
5899 Clear 25 1010 20 10000 2.1 0 22:38 19.10.2019
5900 Clear 25 1010 20 10000 2.1 0 22:20 19.10.2019
5901 Clear 24 1011 25 10000 2.1 320 21:46 19.10.2019
5902 Clear 24 1011 25 10000 2.1 320 21:23 19.10.2019
5903 Clear 23 1012 25 10000 1.5 310 20:46 19.10.2019
5904 Clear 23 1012 25 10000 1.5 310 20:23 19.10.2019
5905 Clear 23 1012 25 10000 1.5 310 20:23 19.10.2019
5906 Clear 20 1014 32 10000 1 0 19:59 19.10.2019
5907 Clear 20 1014 32 10000 1 0 19:40 19.10.2019
5908 Clear 20 1014 32 10000 1 0 19:22 19.10.2019
5909 Clear 18 1015 45 10000 0.5 0 18:43 19.10.2019
5910 Clear 18 1015 45 10000 0.5 0 18:24 19.10.2019
5911 Clear 18 1015 45 10000 0.5 0 18:24 19.10.2019
5912 Clear 15 1017 51 10000 1.5 50 17:57 19.10.2019
5913 Clear 15 1017 51 10000 1.5 50 17:37 19.10.2019
5914 Clear 15 1017 51 10000 1.5 50 17:19 19.10.2019
5915 Clear 11 1018 62 10000 1 0 16:39 19.10.2019
5916 Clear 11 1018 62 10000 1 0 16:20 19.10.2019
5917 Clear 9 1019 70 10000 1 0 15:45 19.10.2019
5918 Clear 9 1019 70 10000 1 0 15:26 19.10.2019
5919 Clear 5 1020 86 10000 1.5 90 14:56 19.10.2019
5920 Clear 5 1020 86 10000 1.5 90 14:56 19.10.2019
5921 Clear 5 1020 86 10000 1.5 90 14:38 19.10.2019
5922 Clear 5 1020 86 10000 1.5 90 14:19 19.10.2019
5923 Clear 2 1021 93 10000 0.31 93.19 13:54 19.10.2019
5924 Clear 2 1021 93 10000 0.31 93.19 13:36 19.10.2019
5925 Clear 2 1021 93 10000 0.08 358.55 13:18 19.10.2019
5926 Clear 1 1021 100 10000 0.08 358.55 12:39 19.10.2019
5927 Clear 1 1021 100 10000 1.21 298.592 12:21 19.10.2019
5928 Clear 2 1021 93 10000 1.21 298.592 11:56 19.10.2019
5929 Clear 2 1021 93 10000 1.21 298.592 11:56 19.10.2019
5930 Clear 2 1021 93 10000 1.21 298.592 11:36 19.10.2019
5931 Clear 2 1021 93 10000 1.21 298.592 11:18 19.10.2019
5932 Clear 3 1021 93 10000 1.21 298.592 10:40 19.10.2019
5933 Clear 3 1021 93 10000 1.21 298.592 10:22 19.10.2019
5934 Clear 3 1021 93 10000 1 0 09:57 19.10.2019
5935 Clear 3 1021 93 10000 1 0 09:39 19.10.2019
5936 Clear 3 1021 93 10000 1 0 09:20 19.10.2019
5937 Clear 5 1022 86 10000 0.5 0 08:41 19.10.2019
5938 Clear 5 1022 86 10000 0.5 0 08:21 19.10.2019
5939 Clear 6 1023 87 10000 1 300 07:46 19.10.2019
5940 Clear 6 1023 87 10000 1 300 07:26 19.10.2019
5941 Clear 7 1023 81 10000 1.23 288.642 06:49 19.10.2019
5942 Clear 7 1023 81 10000 1.23 288.642 06:30 19.10.2019
5943 Clear 8 1023 75 10000 0.5 0 05:35 19.10.2019
5944 Clear 9 1023 70 10000 1 0 04:26 19.10.2019
5945 Clear 13 1022 50 10000 2.1 250 02:56 19.10.2019
5946 Clear 16 1022 41 10000 1 0 01:56 19.10.2019
5947 Clear 16 1022 41 10000 1 0 01:37 19.10.2019
5948 Clear 18 1022 34 10000 2.1 310 00:49 19.10.2019
5949 Clear 18 1022 34 10000 2.1 310 00:28 19.10.2019
5950 Clear 19 1022 29 10000 2.1 0 23:56 18.10.2019
5951 Clear 19 1022 29 10000 2.1 0 23:37 18.10.2019
5952 Clear 19 1022 29 10000 2.1 0 23:19 18.10.2019
5953 Clear 19 1022 29 10000 2.1 0 22:44 18.10.2019
5954 Clear 19 1022 29 10000 2.1 0 22:21 18.10.2019
5955 Clear 19 1023 32 10000 3.1 290 21:59 18.10.2019
5956 Clear 19 1023 32 10000 3.1 290 21:39 18.10.2019
5957 Clear 19 1023 32 10000 3.1 290 21:21 18.10.2019
5958 Clear 17 1023 36 10000 3.1 290 20:59 18.10.2019
5959 Clear 17 1023 36 10000 3.1 290 20:41 18.10.2019
5960 Clear 17 1023 36 10000 3.1 290 20:22 18.10.2019
5961 Clear 16 1024 38 10000 2.6 0 19:58 18.10.2019
5962 Clear 16 1024 38 10000 2.6 0 19:58 18.10.2019
5963 Clear 16 1024 38 10000 2.6 0 19:39 18.10.2019
5964 Clear 16 1024 38 10000 2.6 0 19:39 18.10.2019
5965 Clear 16 1024 38 10000 2.6 0 19:39 18.10.2019
5966 Clear 16 1024 38 10000 2.6 0 19:21 18.10.2019
5967 Clear 14 1025 44 10000 1.5 270 18:57 18.10.2019
5968 Clear 14 1025 44 10000 1.5 270 18:39 18.10.2019
5969 Clear 14 1025 44 10000 1.5 270 18:20 18.10.2019
5970 Clear 14 1025 44 10000 1.5 270 18:20 18.10.2019
5971 Clear 12 1026 50 10000 2.6 300 17:39 18.10.2019
5972 Clear 12 1026 50 10000 2.6 300 17:20 18.10.2019
5973 Clouds 11 1026 57 10000 2.1 310 16:59 18.10.2019
5974 Clouds 11 1026 57 10000 2.1 310 16:38 18.10.2019
5975 Clouds 11 1026 57 10000 2.1 310 16:19 18.10.2019
5976 Clouds 9 1027 66 10000 1 0 15:41 18.10.2019
5977 Clouds 9 1027 66 10000 1 0 15:21 18.10.2019
5978 Clouds 6 1027 81 10000 1 0 14:59 18.10.2019
5979 Clouds 6 1027 81 10000 1 0 14:41 18.10.2019
5980 Clouds 6 1027 81 10000 1 0 14:22 18.10.2019
5981 Clear 4 1026 86 10000 1.5 260 13:59 18.10.2019
5982 Clear 4 1026 86 10000 1.5 260 13:59 18.10.2019
5983 Clear 4 1026 86 10000 1.5 260 13:41 18.10.2019
5984 Clear 4 1026 86 10000 1.5 260 13:23 18.10.2019
5985 Clear 3 1026 93 10000 1.5 280 12:56 18.10.2019
5986 Clear 3 1026 93 10000 1.5 280 12:38 18.10.2019
5987 Clear 3 1026 93 10000 1.5 280 12:20 18.10.2019
5988 Clear 4 1025 86 10000 1 0 11:56 18.10.2019
5989 Clear 4 1025 86 10000 1 0 11:37 18.10.2019
5990 Clear 4 1025 86 10000 1 0 11:18 18.10.2019
5991 Clear 5 1025 80 10000 1 0 10:43 18.10.2019
5992 Clear 5 1025 80 10000 1 0 10:43 18.10.2019
5993 Clear 5 1025 80 10000 1 0 10:23 18.10.2019
5994 Clear 5 1025 80 10000 1 0 09:59 18.10.2019
5995 Clear 5 1025 80 10000 1 0 09:40 18.10.2019
5996 Clear 5 1025 80 10000 1 0 09:20 18.10.2019
5997 Clear 5 1025 80 10000 0.5 0 08:58 18.10.2019
5998 Clear 5 1025 80 10000 0.5 0 08:39 18.10.2019
5999 Clear 5 1025 80 10000 0.5 0 08:20 18.10.2019
6000 Clear 6 1026 75 10000 1 0 07:42 18.10.2019
6001 Clear 6 1026 75 10000 1 0 07:20 18.10.2019
6002 Clear 6 1026 75 10000 1 0 06:39 18.10.2019
6003 Clear 6 1026 75 10000 1 0 06:20 18.10.2019
6004 Haze 6 1026 81 6000 0.5 0 05:55 18.10.2019
6005 Haze 6 1026 81 6000 0.5 0 05:22 18.10.2019
6006 Clouds 10 1026 61 10000 2.1 290 03:56 18.10.2019
6007 Clouds 10 1026 61 10000 2.1 290 03:24 18.10.2019
6008 Clear 11 1025 53 10000 2.6 270 02:33 18.10.2019
6009 Clear 11 1024 57 10000 4.1 280 01:43 18.10.2019
6010 Clear 11 1024 57 10000 4.1 280 01:25 18.10.2019
6011 Clear 13 1024 50 10000 4.1 270 00:44 18.10.2019
6012 Clear 13 1024 50 10000 4.1 270 00:20 18.10.2019
6013 Clear 13 1023 50 10000 5.1 280 23:42 17.10.2019
6014 Clear 13 1023 50 10000 5.1 280 23:21 17.10.2019
6015 Clouds 14 1023 47 10000 5.7 280 22:58 17.10.2019
6016 Clouds 14 1023 47 10000 5.7 280 22:39 17.10.2019
6017 Clouds 14 1023 47 10000 5.7 280 22:20 17.10.2019
6018 Clouds 13 1023 47 10000 4.6 270 21:58 17.10.2019
6019 Clouds 13 1023 47 10000 4.6 270 21:40 17.10.2019
6020 Clouds 13 1023 47 10000 4.6 270 21:21 17.10.2019
6021 Clouds 14 1022 44 10000 4.6 280 20:58 17.10.2019
6022 Clouds 14 1022 44 10000 4.6 280 20:40 17.10.2019
6023 Clouds 14 1022 44 10000 4.6 280 20:19 17.10.2019
6024 Clouds 14 1022 44 10000 4.6 280 20:19 17.10.2019
6025 Clouds 14 1022 44 10000 4.6 280 20:19 17.10.2019
6026 Clouds 14 1022 44 10000 4.6 280 20:19 17.10.2019
6027 Clouds 13 1022 47 10000 3.6 270 19:59 17.10.2019
6028 Clouds 13 1022 47 10000 3.6 270 19:39 17.10.2019
6029 Clouds 13 1022 47 10000 3.6 270 19:19 17.10.2019
6030 Clouds 13 1022 47 10000 3.6 260 18:58 17.10.2019
6031 Clouds 13 1022 47 10000 3.6 260 18:38 17.10.2019
6032 Clouds 13 1022 47 10000 3.6 260 18:19 17.10.2019
6033 Clouds 12 1023 54 10000 2.6 0 17:42 17.10.2019
6034 Clouds 12 1023 54 10000 2.6 0 17:23 17.10.2019
6035 Clouds 10 1022 57 10000 2.1 320 16:57 17.10.2019
6036 Clouds 10 1022 57 10000 2.1 320 16:38 17.10.2019
6037 Clouds 10 1022 57 10000 2.1 320 16:18 17.10.2019
6038 Clouds 11 1022 53 10000 1.5 0 15:55 17.10.2019
6039 Clouds 11 1022 53 10000 1.5 0 15:37 17.10.2019
6040 Clouds 11 1022 53 10000 1.5 0 15:19 17.10.2019
6041 Clouds 9 1021 61 0 1 0 14:42 17.10.2019
6042 Clouds 9 1021 61 0 1 0 14:24 17.10.2019
6043 Clouds 9 1021 61 10000 2.6 290 13:56 17.10.2019
6044 Clouds 9 1021 61 10000 2.6 290 13:38 17.10.2019
6045 Clouds 9 1021 61 10000 2.6 290 13:19 17.10.2019
6046 Clouds 8 1020 61 10000 1 0 12:41 17.10.2019
6047 Clouds 8 1020 61 10000 1 0 12:21 17.10.2019
6048 Clouds 9 1020 57 10000 1.5 280 11:59 17.10.2019
6049 Clouds 9 1020 57 10000 1.5 280 11:59 17.10.2019
6050 Clouds 9 1020 57 10000 1.5 280 11:40 17.10.2019
6051 Clouds 9 1020 57 10000 1.5 280 11:19 17.10.2019
6052 Clouds 9 1020 57 10000 1.5 280 11:19 17.10.2019
6053 Clouds 9 1020 57 10000 1.5 0 10:55 17.10.2019
6054 Clouds 9 1020 57 10000 1.5 0 10:37 17.10.2019
6055 Clouds 9 1020 57 10000 1.5 0 10:18 17.10.2019
6056 Clouds 10 1020 92 10000 2.6 260 09:42 17.10.2019
6057 Clouds 10 1020 89 10000 2.6 260 09:22 17.10.2019
6058 Clouds 10 1019 46 10000 2.6 250 08:59 17.10.2019
6059 Clouds 10 1019 46 10000 2.6 250 08:41 17.10.2019
6060 Clouds 10 1019 46 10000 2.6 250 08:21 17.10.2019
6061 Clouds 10 1020 89 10000 2.6 240 07:56 17.10.2019
6062 Clouds 10 1020 89 10000 2.6 240 07:37 17.10.2019
6063 Clouds 10 1020 89 10000 2.6 240 07:18 17.10.2019
6064 Clouds 10 1019 89 10000 2.6 240 06:40 17.10.2019
6065 Clouds 10 1019 87 10000 2.6 240 06:20 17.10.2019
6066 Clouds 10 1019 53 10000 2.6 250 05:51 17.10.2019
6067 Clouds 10 1019 53 10000 2.6 250 05:31 17.10.2019
6068 Clouds 11 1019 50 10000 2.1 250 04:52 17.10.2019
6069 Clouds 9 1019 61 10000 2.53 297 03:54 17.10.2019
6070 Clear 11 1018 50 10000 1.5 270 02:36 17.10.2019
6071 Clear 13 1016 85 10000 3.6 260 00:56 17.10.2019
6072 Clear 13 1016 85 10000 3.6 260 00:38 17.10.2019
6073 Rain 13 1016 45 10000 3.6 260 00:18 17.10.2019
6074 Rain 14 1015 41 10000 3.6 260 23:42 16.10.2019
6075 Rain 14 1015 41 10000 3.6 260 23:20 16.10.2019
6076 Clouds 15 1015 41 10000 3.6 260 22:55 16.10.2019
6077 Clouds 15 1015 41 10000 3.6 260 22:36 16.10.2019
6078 Clouds 15 1015 41 10000 3.6 260 22:18 16.10.2019
6079 Clouds 16 1015 45 10000 4.1 270 21:55 16.10.2019
6080 Clouds 16 1015 44 10000 4.1 270 21:37 16.10.2019
6081 Clouds 16 1015 53 10000 4.1 270 21:18 16.10.2019
6082 Clouds 15 1015 38 10000 2.6 280 20:56 16.10.2019
6083 Clouds 15 1015 38 10000 2.6 280 20:56 16.10.2019
6084 Clouds 15 1015 38 10000 2.6 280 20:38 16.10.2019
6085 Clouds 15 1015 38 10000 2.6 280 20:20 16.10.2019
6086 Clouds 15 1015 38 10000 2.6 280 20:20 16.10.2019
6087 Clouds 15 1016 47 10000 1 0 19:42 16.10.2019
6088 Clouds 15 1016 47 10000 1 0 19:21 16.10.2019
6089 Clouds 12 1016 62 10000 2.6 310 18:59 16.10.2019
6090 Clouds 12 1016 62 10000 2.6 310 18:39 16.10.2019
6091 Clouds 12 1016 62 10000 2.6 310 18:19 16.10.2019
6092 Clouds 11 1017 62 10000 1 0 17:56 16.10.2019
6093 Clouds 11 1017 62 10000 1 0 17:37 16.10.2019
6094 Clouds 11 1017 62 10000 1 0 17:19 16.10.2019
6095 Clear 9 1018 70 10000 0.759 145 16:58 16.10.2019
6096 Clear 9 1018 70 10000 0.759 145 16:38 16.10.2019
6097 Clear 9 1018 70 10000 0.759 145 16:20 16.10.2019
6098 -273 0 0 0 0 0 15:42 16.10.2019
6099 Clouds 7 1018 81 10000 1.5 300 15:41 16.10.2019
6100 Clouds 7 1018 81 10000 1.5 300 15:41 16.10.2019
6101 Clouds 7 1018 81 10000 1.5 300 15:20 16.10.2019
6102 Clouds 6 1019 93 10000 2.1 110 14:59 16.10.2019
6103 Clouds 6 1019 93 10000 2.1 110 14:41 16.10.2019
6104 Clouds 6 1019 93 10000 2.1 110 14:23 16.10.2019
6105 Clouds 5 1019 93 10000 1 0 13:59 16.10.2019
6106 Clouds 5 1019 93 10000 1 0 13:41 16.10.2019
6107 Clouds 5 1019 93 10000 1 0 13:22 16.10.2019
6108 Rain 5 1018 93 10000 1.5 110 12:44 16.10.2019
6109 Rain 5 1018 93 10000 1.5 110 12:20 16.10.2019
6110 Clouds 5 1019 100 10000 1.024 307 11:58 16.10.2019
6111 Clouds 5 1019 100 10000 1.024 307 11:40 16.10.2019
6112 Clouds 5 1019 100 10000 1.024 307 11:18 16.10.2019
6113 Clouds 5 1019 100 10000 1.024 307 10:37 16.10.2019
6114 Clouds 5 1019 100 10000 1.024 307 10:19 16.10.2019
6115 Clouds 5 1019 100 10000 0.5 0 09:41 16.10.2019
6116 Clouds 5 1019 100 10000 0.5 0 09:22 16.10.2019
6117 Clouds 5 1019 100 10000 0.5 0 08:57 16.10.2019
6118 Clouds 5 1019 100 10000 0.5 0 08:39 16.10.2019
6119 Clouds 5 1019 100 10000 0.5 0 08:39 16.10.2019
6120 Clouds 5 1019 100 10000 0.5 0 08:20 16.10.2019
6121 Clouds 5 1020 100 10000 0.853 278 07:43 16.10.2019
6122 Clouds 5 1020 100 10000 0.853 278 07:24 16.10.2019
6123 Clouds 0 1019 95 0 0.853 278 06:51 16.10.2019
6124 Clouds 0 1019 95 0 0.853 278 06:30 16.10.2019
6125 Clouds 3 1020 91 0 0.532 85 04:48 16.10.2019
6126 Clouds 7 1021 81 10000 1.593 203 02:51 16.10.2019
6127 Clouds 8 1020 75 10000 0.5 0 01:21 16.10.2019
6128 Clouds 9 1021 66 10000 1.54 192 00:59 16.10.2019
6129 Clouds 9 1021 66 10000 1.54 192 00:40 16.10.2019
6130 Clouds 9 1021 66 10000 2.6 110 23:59 15.10.2019
6131 Clouds 9 1021 66 10000 2.6 110 23:39 15.10.2019
6132 Clouds 9 1021 66 10000 2.6 110 23:21 15.10.2019
6133 Clouds 8 1021 70 10000 3.6 100 22:55 15.10.2019
6134 Clouds 8 1021 70 10000 3.6 100 22:37 15.10.2019
6135 Clouds 8 1021 70 10000 3.6 100 22:18 15.10.2019
6136 Clouds 8 1021 70 10000 3.6 110 21:55 15.10.2019
6137 Clouds 8 1021 70 10000 3.6 110 21:55 15.10.2019
6138 Clouds 8 1021 70 10000 3.6 110 21:36 15.10.2019
6139 Clouds 8 1021 70 10000 3.6 110 21:36 15.10.2019
6140 Clouds 8 1021 70 10000 3.6 110 21:18 15.10.2019
6141 -273 0 0 0 0 0 20:55 15.10.2019
6142 Rain 7 1022 75 8000 4.1 110 20:55 15.10.2019
6143 Rain 7 1022 75 8000 4.1 110 20:37 15.10.2019
6144 Rain 7 1022 75 8000 4.1 110 20:19 15.10.2019
6145 Rain 7 1022 75 8000 5.1 90 19:55 15.10.2019
6146 Rain 7 1022 75 8000 5.1 90 19:36 15.10.2019
6147 Rain 7 1022 75 8000 5.1 90 19:36 15.10.2019
6148 Rain 7 1022 75 8000 5.1 90 19:18 15.10.2019
6149 Rain 7 1022 70 8000 6.7 90 18:41 15.10.2019
6150 Rain 7 1022 70 8000 6.7 90 18:23 15.10.2019
6151 Clouds 8 1022 61 10000 7.2 100 17:54 15.10.2019
6152 Clouds 8 1022 61 10000 7.2 100 17:36 15.10.2019
6153 Clouds 8 1022 61 10000 7.2 100 17:18 15.10.2019
6154 Rain 4 1022 83 0 1.739 86 16:43 15.10.2019
6155 Clouds 7 1022 83 10000 7.7 90 16:22 15.10.2019
6156 Clouds 7 1022 83 10000 7.7 90 15:57 15.10.2019
6157 Clouds 7 1022 83 10000 7.7 90 15:38 15.10.2019
6158 Clouds 7 1022 67 10000 7.7 90 15:19 15.10.2019
6159 Clouds 7 1023 56 10000 5.7 90 14:55 15.10.2019
6160 Clouds 7 1023 56 10000 5.7 90 14:55 15.10.2019
6161 Clouds 7 1023 56 10000 5.7 90 14:36 15.10.2019
6162 Clouds 7 1023 56 10000 5.7 90 14:18 15.10.2019
6163 Clouds 7 1023 52 10000 7.7 90 13:43 15.10.2019
6164 Clouds 7 1023 52 10000 7.7 90 13:43 15.10.2019
6165 Clouds 7 1023 52 10000 7.7 90 13:20 15.10.2019
6166 Clouds 7 1023 52 10000 7.7 90 13:20 15.10.2019
6167 Clouds 7 1023 52 10000 6.7 70 12:56 15.10.2019
6168 Clouds 7 1023 52 10000 6.7 70 12:37 15.10.2019
6169 Clouds 7 1023 52 10000 6.7 70 12:37 15.10.2019
6170 Clouds 7 1023 52 10000 6.7 70 12:18 15.10.2019
6171 Clouds 7 1023 52 10000 6.2 90 11:42 15.10.2019
6172 Clouds 7 1023 52 10000 6.2 90 11:42 15.10.2019
6173 Clouds 7 1023 52 10000 6.2 90 11:20 15.10.2019
6174 Clouds 7 1023 52 10000 7.7 90 10:55 15.10.2019
6175 Clear 7 1023 52 10000 7.7 90 10:37 15.10.2019
6176 Clear 7 1023 52 10000 7.7 90 10:18 15.10.2019
6177 Clear 8 1023 49 10000 7.2 90 09:40 15.10.2019
6178 Clear 8 1023 49 10000 7.2 90 09:40 15.10.2019
6179 Clear 8 1023 49 10000 7.2 90 09:21 15.10.2019
6180 Clear 8 1024 49 10000 5.7 70 08:58 15.10.2019
6181 Clear 8 1024 49 10000 5.7 70 08:40 15.10.2019
6182 Clear 8 1024 49 10000 5.7 70 08:20 15.10.2019
6183 Clear 8 1024 49 10000 5.7 70 08:19 15.10.2019
6184 Clear 8 1025 49 10000 5.7 70 07:43 15.10.2019
6185 Clear 8 1025 49 10000 5.7 70 07:43 15.10.2019
6186 Clear 8 1025 49 10000 5.7 70 07:22 15.10.2019
6187 Clear 9 1025 45 10000 6.2 60 06:56 15.10.2019
6188 Clear 9 1025 45 10000 6.2 60 06:37 15.10.2019
6189 Clear 10 1024 39 10000 5.7 60 05:56 15.10.2019
6190 Clear 10 1024 39 10000 5.7 60 05:36 15.10.2019
6191 Clear 11 1024 34 10000 4.6 40 04:48 15.10.2019
6192 Clear 12 1024 32 10000 4.1 60 03:59 15.10.2019
6193 Clear 12 1024 32 10000 4.1 60 03:34 15.10.2019
6194 Clear 12 1024 32 10000 4.1 60 03:34 15.10.2019
6195 Clear 14 1024 24 10000 4.1 80 01:51 15.10.2019
6196 Clear 14 1024 24 10000 4.1 80 01:26 15.10.2019
6197 Clear 14 1023 24 10000 6.2 90 00:58 15.10.2019
6198 Clear 14 1023 24 10000 6.2 90 00:24 15.10.2019
6199 Clear 15 1023 22 10000 10.3 90 23:55 14.10.2019
6200 Clear 15 1023 22 10000 10.3 90 23:36 14.10.2019
6201 Clear 15 1023 22 10000 10.3 90 23:18 14.10.2019
6202 Clear 16 1023 23 10000 9.3 100 22:39 14.10.2019
6203 Clear 16 1023 23 10000 9.3 100 22:19 14.10.2019
6204 Clear 16 1024 21 10000 9.8 100 21:57 14.10.2019
6205 Clear 16 1024 21 10000 9.8 100 21:39 14.10.2019
6206 -273 0 0 0 0 0 21:20 14.10.2019
6207 Clear 15 1024 21 10000 10.3 100 20:56 14.10.2019
6208 Clear 15 1024 21 10000 10.3 100 20:37 14.10.2019
6209 Clear 15 1024 21 10000 10.3 100 20:18 14.10.2019
6210 Clear 14 1024 22 10000 9.8 80 19:43 14.10.2019
6211 Clear 14 1024 22 10000 9.8 80 19:24 14.10.2019
6212 Clear 14 1024 22 10000 9.8 80 19:24 14.10.2019
6213 -273 0 0 0 0 0 18:59 14.10.2019
6214 Clear 13 1025 20 10000 10.8 90 18:39 14.10.2019
6215 Clear 13 1025 20 10000 10.8 90 18:20 14.10.2019
6216 Clear 13 1025 20 10000 10.8 90 18:20 14.10.2019
6217 Clear 13 1025 20 10000 10.8 90 18:20 14.10.2019
6218 Clear 13 1025 20 10000 10.8 90 18:20 14.10.2019
6219 Clear 11 1027 23 10000 10.8 90 17:57 14.10.2019
6220 Clear 11 1027 23 10000 10.8 90 17:39 14.10.2019
6221 Clear 11 1027 23 10000 10.8 90 17:21 14.10.2019
6222 Clear 10 1027 23 10000 11.3 100 16:44 14.10.2019
6223 Clear 10 1027 23 10000 11.3 100 16:21 14.10.2019
6224 Clear 9 1028 24 10000 10.8 100 15:54 14.10.2019
6225 Clear 9 1028 24 10000 10.8 100 15:36 14.10.2019
6226 Clear 9 1028 24 10000 10.8 100 15:18 14.10.2019
6227 Clear 7 1029 26 10000 5.7 80 14:43 14.10.2019
6228 Clear 7 1029 26 10000 5.7 80 14:23 14.10.2019
6229 Clear 7 1029 24 10000 5.7 60 13:44 14.10.2019
6230 Clear 7 1029 24 10000 5.7 60 13:22 14.10.2019
6231 Clear 7 1029 24 10000 6.7 50 12:56 14.10.2019
6232 Clear 7 1029 24 10000 6.7 50 12:56 14.10.2019
6233 Clear 7 1029 24 10000 6.7 50 12:37 14.10.2019
6234 Clear 7 1029 24 10000 6.7 50 12:18 14.10.2019
6235 Clear 7 1029 24 10000 6.2 50 11:45 14.10.2019
6236 Clear 7 1029 24 10000 6.2 50 11:26 14.10.2019
6237 Clear 8 1029 20 10000 6.2 50 10:57 14.10.2019
6238 Clear 8 1029 20 10000 6.2 50 10:38 14.10.2019
6239 Clear 8 1029 20 10000 6.2 50 10:19 14.10.2019
6240 Clear 8 1029 22 10000 4.6 80 09:42 14.10.2019
6241 Clear 8 1029 22 10000 4.6 80 09:21 14.10.2019
6242 Clear 8 1029 22 10000 4.6 70 08:51 14.10.2019
6243 Clear 8 1029 22 10000 4.6 70 08:23 14.10.2019
6244 Clear 9 1030 19 10000 5.1 50 07:59 14.10.2019
6245 Clear 9 1030 19 10000 5.1 50 07:39 14.10.2019
6246 Clear 9 1030 19 10000 5.1 50 07:18 14.10.2019
6247 Clear 9 1029 21 10000 2.6 60 06:29 14.10.2019
6248 Clear 9 1029 21 10000 2.6 0 05:57 14.10.2019
6249 Clear 9 1029 21 10000 2.6 0 05:29 14.10.2019
6250 Clear 11 1029 17 10000 3.1 60 04:34 14.10.2019
6251 Clear 12 1028 17 10000 3.1 60 03:26 14.10.2019
6252 Clear 11 1027 23 10000 2.1 0 02:34 14.10.2019
6253 Clear 13 1026 19 10000 1 0 01:22 14.10.2019
6254 Clear 14 1026 15 10000 5.1 90 00:44 14.10.2019
6255 Clear 14 1026 15 10000 5.1 90 00:19 14.10.2019
6256 Clear 14 1026 17 10000 6.2 90 23:43 13.10.2019
6257 Clear 14 1026 17 10000 6.2 90 23:20 13.10.2019
6258 Clear 15 1025 19 10000 3.6 80 22:57 13.10.2019
6259 Clear 15 1025 19 10000 3.6 80 22:39 13.10.2019
6260 Clear 15 1025 19 10000 3.6 80 22:39 13.10.2019
6261 Clear 15 1025 19 10000 3.6 80 22:20 13.10.2019
6262 Clear 14 1026 20 10000 5.1 90 21:57 13.10.2019
6263 Clear 14 1026 20 10000 5.1 90 21:36 13.10.2019
6264 Clear 14 1026 20 10000 5.1 90 21:18 13.10.2019
6265 Clear 14 1026 22 10000 4.1 50 20:56 13.10.2019
6266 Clear 14 1026 22 10000 4.1 50 20:37 13.10.2019
6267 Clear 14 1026 22 10000 4.1 50 20:37 13.10.2019
6268 Clear 14 1026 22 10000 4.1 50 20:19 13.10.2019
6269 Clear 12 1026 27 10000 3.6 120 19:55 13.10.2019
6270 Clear 12 1026 27 10000 3.6 120 19:36 13.10.2019
6271 Clear 12 1026 27 10000 3.6 120 19:36 13.10.2019
6272 Clear 12 1026 27 10000 3.6 120 19:18 13.10.2019
6273 Clear 12 1027 32 10000 7.7 100 18:41 13.10.2019
6274 Clear 12 1027 32 10000 7.7 100 18:21 13.10.2019
6275 Clear 12 1027 32 10000 7.7 100 18:21 13.10.2019
6276 Clear 11 1027 37 10000 6.7 90 17:59 13.10.2019
6277 -273 0 0 0 0 0 17:41 13.10.2019
6278 Clear 11 1027 37 10000 6.7 90 17:23 13.10.2019
6279 Clear 9 1027 45 10000 3.6 120 16:44 13.10.2019
6280 Clear 9 1027 45 10000 3.6 120 16:20 13.10.2019
6281 Clear 9 1027 45 10000 3.6 120 16:20 13.10.2019
6282 Clear 5 1027 42 10000 1 0 15:58 13.10.2019
6283 Clear 5 1027 42 10000 1 0 15:58 13.10.2019
6284 Clear 5 1027 42 10000 1 0 15:39 13.10.2019
6285 Clear 5 1027 70 10000 1 0 15:20 13.10.2019
6286 Clear 3 1027 70 10000 0.5 0 14:58 13.10.2019
6287 Clear 3 1027 70 10000 0.5 0 14:39 13.10.2019
6288 Clear 3 1027 70 10000 0.5 0 14:21 13.10.2019
6289 Clear 0 1026 70 10000 1 0 13:56 13.10.2019
6290 Clear 0 1026 70 10000 1 0 13:37 13.10.2019
6291 Clear 0 1026 71 10000 1 0 13:18 13.10.2019
6292 Clear 0 1025 71 10000 0.5 0 12:55 13.10.2019
6293 Clear 0 1025 71 10000 0.5 0 12:37 13.10.2019
6294 Clear 0 1025 82 10000 0.5 0 12:18 13.10.2019
6295 Clear 1 1025 86 10000 0.5 0 11:55 13.10.2019
6296 Clear 1 1025 86 10000 0.5 0 11:36 13.10.2019
6297 Clear 1 1025 86 10000 0.5 0 11:18 13.10.2019
6298 Clear 1 1025 86 10000 1 0 10:41 13.10.2019
6299 Clear 1 1025 86 10000 1 0 10:22 13.10.2019
6300 Clear 2 1025 82 10000 1.5 270 09:40 13.10.2019
6301 Clear 2 1025 90 10000 1.5 270 09:21 13.10.2019
6302 Clear 2 1025 90 10000 1.5 270 09:21 13.10.2019
6303 Clear 2 1025 86 10000 1 0 08:57 13.10.2019
6304 Clear 2 1025 86 10000 1 0 08:37 13.10.2019
6305 Clear 2 1025 86 10000 1 0 08:18 13.10.2019
6306 Clear 3 1025 86 8000 1.5 290 07:45 13.10.2019
6307 Clear 3 1025 86 8000 1.5 290 07:45 13.10.2019
6308 Clear 3 1024 86 10000 1.85 285.618 06:55 13.10.2019
6309 Clear 3 1024 86 10000 1.85 285.618 06:26 13.10.2019
6310 Clear 6 1024 60 10000 1 0 05:34 13.10.2019
6311 Clear 7 1023 56 10000 3.1 240 04:38 13.10.2019
6312 Clear 8 1022 52 10000 3.1 240 03:37 13.10.2019
6313 Clear 8 1021 52 10000 3.1 250 02:32 13.10.2019
6314 Clear 9 1020 49 10000 4.1 270 01:47 13.10.2019
6315 Clear 9 1020 49 10000 4.1 270 01:21 13.10.2019
6316 Clear 11 1019 40 10000 4.1 260 00:42 13.10.2019
6317 Clear 11 1019 40 10000 4.1 260 00:19 13.10.2019
6318 Clear 12 1018 37 10000 5.7 280 23:42 12.10.2019
6319 Clear 12 1018 37 10000 5.7 280 23:23 12.10.2019
6320 Clear 13 1017 35 10000 5.7 280 22:59 12.10.2019
6321 Clear 13 1017 35 10000 5.7 280 22:40 12.10.2019
6322 Clear 13 1017 35 10000 5.7 280 22:22 12.10.2019
6323 Clear 13 1017 37 10000 6.7 280 21:58 12.10.2019
6324 Clear 13 1017 37 10000 6.7 280 21:40 12.10.2019
6325 Clear 13 1017 37 10000 6.7 280 21:40 12.10.2019
6326 Clear 13 1017 37 10000 6.7 280 21:21 12.10.2019
6327 Clear 12 1016 34 10000 5.7 280 20:54 12.10.2019
6328 Clear 12 1016 34 10000 5.7 280 20:54 12.10.2019
6329 Clear 12 1016 34 10000 5.7 280 20:54 12.10.2019
6330 Clear 12 1016 34 10000 5.7 280 20:36 12.10.2019
6331 Clear 12 1016 34 10000 5.7 280 20:18 12.10.2019
6332 Clear 11 1016 40 10000 4.6 270 19:36 12.10.2019
6333 Clear 11 1016 40 10000 4.6 270 19:18 12.10.2019
6334 Clear 11 1016 43 10000 5.7 280 18:42 12.10.2019
6335 Clear 11 1016 43 10000 5.7 280 18:24 12.10.2019
6336 Clear 11 1016 43 10000 4.6 270 17:46 12.10.2019
6337 Clear 11 1016 43 10000 4.6 270 17:21 12.10.2019
6338 -273 0 0 0 0 0 16:59 12.10.2019
6339 Clear 9 1015 57 10000 3.6 280 16:40 12.10.2019
6340 Clear 9 1015 57 10000 3.6 280 16:20 12.10.2019
6341 Clear 8 1015 61 10000 2.1 0 15:46 12.10.2019
6342 Clear 8 1015 61 10000 2.1 0 15:27 12.10.2019
6343 Clear 7 1014 65 10000 2.1 290 14:59 12.10.2019
6344 Clear 7 1014 65 10000 2.1 290 14:38 12.10.2019
6345 Clear 7 1014 65 10000 2.1 290 14:20 12.10.2019
6346 Clear 5 1013 80 10000 1 0 13:49 12.10.2019
6347 Clear 5 1013 80 10000 1 0 13:31 12.10.2019
6348 Clear 5 1012 80 10000 2.6 270 12:55 12.10.2019
6349 Clear 5 1012 80 10000 2.6 270 12:36 12.10.2019
6350 Clear 5 1012 80 10000 2.6 270 12:18 12.10.2019
6351 Clear 6 1011 81 10000 2.1 280 11:40 12.10.2019
6352 Clear 6 1011 81 10000 2.1 280 11:22 12.10.2019
6353 Clouds 7 1010 81 10000 1.5 0 10:56 12.10.2019
6354 Clouds 7 1010 81 10000 1.5 0 10:56 12.10.2019
6355 Clouds 7 1010 81 10000 1.5 0 10:37 12.10.2019
6356 Clouds 7 1010 81 10000 1.5 0 10:18 12.10.2019
6357 Clouds 8 1010 81 10000 1.5 0 09:56 12.10.2019
6358 Clouds 8 1010 81 10000 1.5 0 09:55 12.10.2019
6359 Clouds 8 1010 81 10000 1.5 0 09:37 12.10.2019
6360 Rain 8 1010 81 10000 1.5 0 09:18 12.10.2019
6361 Rain 8 1010 87 10000 1 0 08:41 12.10.2019
6362 Rain 8 1010 87 10000 1 0 08:41 12.10.2019
6363 Rain 8 1010 87 10000 1 0 08:20 12.10.2019
6364 Rain 8 1010 87 10000 1 0 08:20 12.10.2019
6365 Rain 8 1010 93 10000 3.6 300 07:36 12.10.2019
6366 Clear 9 1009 87 10000 3.1 300 06:59 12.10.2019
6367 Clear 9 1009 87 10000 2.1 290 05:49 12.10.2019
6368 Clear 9 1009 87 10000 2.1 290 05:24 12.10.2019
6369 Clear 9 1009 87 10000 2.1 270 04:26 12.10.2019
6370 Clear 9 1009 87 10000 2.1 270 04:26 12.10.2019
6371 Rain 9 1009 93 10000 2.1 280 03:41 12.10.2019
6372 Rain 11 1009 76 10000 3.6 290 01:56 12.10.2019
6373 Rain 11 1009 76 10000 3.6 290 01:29 12.10.2019
6374 Rain 12 1008 66 10000 2.6 0 00:43 12.10.2019
6375 Rain 12 1008 66 10000 2.6 0 00:19 12.10.2019
6376 Clear 14 1008 54 10000 4.1 270 23:40 11.10.2019
6377 Clear 14 1008 54 10000 4.1 270 23:20 11.10.2019
6378 Clear 14 1008 54 10000 4.6 270 22:41 11.10.2019
6379 Clear 14 1008 54 10000 4.6 270 22:22 11.10.2019
6380 Clouds 15 1008 54 10000 4.1 260 21:59 11.10.2019
6381 Clouds 15 1008 54 10000 4.1 260 21:39 11.10.2019
6382 Clouds 15 1008 54 10000 4.1 260 21:21 11.10.2019
6383 Clouds 14 1009 54 10000 5.1 260 20:45 11.10.2019
6384 Clouds 14 1009 54 10000 5.1 260 20:27 11.10.2019
6385 Clouds 14 1009 54 10000 5.1 260 20:27 11.10.2019
6386 Clouds 14 1009 54 10000 5.1 270 19:59 11.10.2019
6387 Clouds 14 1009 54 10000 5.1 270 19:39 11.10.2019
6388 Clouds 14 1009 54 10000 5.1 270 19:18 11.10.2019
6389 Clouds 14 1009 54 10000 5.1 270 19:18 11.10.2019
6390 Clouds 14 1009 54 10000 5.1 270 19:18 11.10.2019
6391 Clouds 13 1009 62 10000 5.7 270 18:59 11.10.2019
6392 Clouds 13 1009 62 10000 5.7 270 18:59 11.10.2019
6393 Clouds 13 1009 62 10000 5.7 270 18:59 11.10.2019
6394 Clouds 13 1009 62 10000 5.7 270 18:38 11.10.2019
6395 Clouds 13 1009 62 10000 5.7 270 18:19 11.10.2019
6396 Clouds 12 1010 71 10000 2.1 0 17:58 11.10.2019
6397 Clouds 12 1010 71 10000 2.1 0 17:38 11.10.2019
6398 Clouds 12 1010 71 10000 2.1 0 17:19 11.10.2019
6399 Clouds 10 1010 87 10000 2.1 280 16:58 11.10.2019
6400 Clouds 10 1010 87 10000 2.1 280 16:39 11.10.2019
6401 Clouds 10 1010 87 10000 2.1 280 16:19 11.10.2019
6402 Fog 7 1010 87 8000 1.5 290 15:41 11.10.2019
6403 Fog 7 1010 87 8000 1.5 290 15:20 11.10.2019
6404 Fog 7 1008 100 3000 1 70 14:58 11.10.2019
6405 Fog 7 1008 100 3000 1 70 14:38 11.10.2019
6406 Fog 7 1008 100 3000 1 70 14:19 11.10.2019
6407 Fog 6 1008 100 200 2.6 50 13:43 11.10.2019
6408 Fog 6 1008 100 200 2.6 50 13:24 11.10.2019
6409 Rain 7 1010 100 10000 1.5 312.513 12:56 11.10.2019
6410 Rain 7 1010 100 10000 1.5 312.513 12:38 11.10.2019
6411 Rain 7 1010 100 10000 1.07 302.8 12:20 11.10.2019
6412 Rain 7 1009 100 9000 1.07 302.8 11:55 11.10.2019
6413 Rain 7 1009 100 9000 1.07 302.8 11:55 11.10.2019
6414 Rain 7 1009 100 9000 1.07 302.8 11:36 11.10.2019
6415 Rain 7 1009 100 9000 1.07 302.8 11:18 11.10.2019
6416 Rain 8 1010 93 8000 1.07 302.8 10:41 11.10.2019
6417 Rain 8 1010 93 8000 1.07 302.8 10:23 11.10.2019
6418 Rain 8 1010 93 10000 1.07 302.8 09:57 11.10.2019
6419 Rain 8 1010 93 10000 0.93 298.792 09:38 11.10.2019
6420 Rain 8 1010 93 10000 1.43 315.085 09:20 11.10.2019
6421 Rain 8 1010 93 10000 1.43 315.085 08:55 11.10.2019
6422 Rain 8 1010 93 10000 1.43 315.085 08:37 11.10.2019
6423 Rain 8 1010 93 10000 1.43 315.085 08:19 11.10.2019
6424 Rain 8 1010 93 10000 0.5 0 07:44 11.10.2019
6425 Rain 8 1010 93 10000 0.5 0 07:44 11.10.2019
6426 Rain 8 1010 93 10000 0.5 0 07:25 11.10.2019
6427 Rain 8 1010 87 10000 0.5 0 06:49 11.10.2019
6428 Rain 8 1010 87 10000 0.5 0 06:24 11.10.2019
6429 Rain 9 1010 81 10000 1 0 05:41 11.10.2019
6430 Rain 9 1010 81 10000 1 0 04:59 11.10.2019
6431 Rain 9 1010 81 10000 1 0 04:25 11.10.2019
6432 Clouds 10 1009 71 10000 2.1 280 02:40 11.10.2019
6433 Clouds 11 1008 62 10000 3.6 0 00:50 11.10.2019
6434 Clouds 11 1008 62 10000 3.6 0 00:29 11.10.2019
6435 Clear 11 1008 66 10000 4.6 240 23:44 10.10.2019
6436 Clear 11 1008 66 10000 4.6 240 23:22 10.10.2019
6437 Rain 11 1008 66 10000 5.1 270 22:58 10.10.2019
6438 Rain 11 1008 66 10000 5.1 270 22:39 10.10.2019
6439 Rain 11 1008 66 10000 5.1 270 22:20 10.10.2019
6440 Clouds 12 1007 66 10000 3.6 270 21:57 10.10.2019
6441 Clouds 12 1007 66 10000 3.6 270 21:39 10.10.2019
6442 Clouds 12 1007 66 10000 3.6 270 21:20 10.10.2019
6443 Rain 9 1008 81 10000 4.6 300 20:43 10.10.2019
6444 Rain 9 1008 81 10000 4.6 300 20:22 10.10.2019
6445 Rain 9 1008 81 10000 4.6 300 20:22 10.10.2019
6446 Rain 9 1008 81 10000 4.1 290 19:59 10.10.2019
6447 Rain 9 1008 81 10000 4.1 290 19:40 10.10.2019
6448 Rain 9 1008 81 10000 4.1 290 19:20 10.10.2019
6449 Rain 8 1008 87 5000 4.1 280 18:57 10.10.2019
6450 Rain 8 1008 87 5000 4.1 280 18:39 10.10.2019
6451 Rain 8 1008 87 5000 4.1 280 18:20 10.10.2019
6452 Rain 10 1007 76 10000 3.1 290 17:54 10.10.2019
6453 Rain 10 1007 76 10000 3.1 290 17:36 10.10.2019
6454 Rain 10 1007 76 10000 3.1 290 17:36 10.10.2019
6455 Rain 10 1007 76 10000 3.1 290 17:18 10.10.2019
6456 Rain 10 1007 76 10000 3.1 290 17:18 10.10.2019
6457 Rain 9 1007 81 10000 3.6 270 16:41 10.10.2019
6458 Rain 9 1007 81 10000 3.6 270 16:22 10.10.2019
6459 Rain 9 1008 81 9000 4.1 280 15:44 10.10.2019
6460 Rain 9 1008 81 9000 4.1 280 15:25 10.10.2019
6461 Rain 9 1007 81 9000 2.1 280 14:59 10.10.2019
6462 Rain 9 1007 81 9000 2.1 280 14:38 10.10.2019
6463 Rain 9 1007 81 9000 2.1 280 14:38 10.10.2019
6464 Rain 9 1007 81 9000 2.1 280 14:19 10.10.2019
6465 Rain 10 1006 76 10000 3.1 290 13:59 10.10.2019
6466 Rain 10 1006 76 10000 3.1 290 13:41 10.10.2019
6467 Rain 10 1006 76 10000 3.1 290 13:19 10.10.2019
6468 Rain 10 1006 76 10000 3.1 290 13:19 10.10.2019
6469 Clear 11 1006 66 10000 4.1 260 12:55 10.10.2019
6470 Clear 11 1006 66 10000 4.1 260 12:37 10.10.2019
6471 Clear 11 1006 66 10000 4.1 260 12:18 10.10.2019
6472 Rain 11 1006 66 10000 4.1 250 11:42 10.10.2019
6473 Rain 11 1006 66 10000 4.1 250 11:21 10.10.2019
6474 Clear 11 1006 66 10000 3.6 270 10:59 10.10.2019
6475 Clear 11 1006 66 10000 3.6 270 10:41 10.10.2019
6476 Clear 11 1006 66 10000 3.6 270 10:22 10.10.2019
6477 Rain 11 1007 66 10000 3.6 270 09:54 10.10.2019
6478 Rain 11 1007 66 10000 3.6 270 09:36 10.10.2019
6479 Rain 11 1007 66 10000 3.6 270 09:18 10.10.2019
6480 Rain 10 1008 76 10000 3.1 250 08:41 10.10.2019
6481 Rain 10 1008 76 10000 3.1 250 08:21 10.10.2019
6482 Rain 9 1009 87 10000 2.6 240 07:57 10.10.2019
6483 Rain 9 1009 87 10000 2.6 240 07:36 10.10.2019
6484 Rain 9 1009 87 10000 2.6 240 07:18 10.10.2019
6485 Rain 10 1010 76 10000 2.1 260 06:39 10.10.2019
6486 Rain 10 1010 76 10000 3.1 260 05:56 10.10.2019
6487 Rain 10 1010 76 10000 3.1 260 05:21 10.10.2019
6488 Rain 10 1011 81 10000 2.6 250 04:36 10.10.2019
6489 Rain 10 1012 76 10000 3.1 240 02:42 10.10.2019
6490 Rain 11 1012 71 10000 3.6 240 01:38 10.10.2019
6491 Rain 11 1012 71 10000 3.6 240 01:18 10.10.2019
6492 Rain 11 1012 71 10000 3.6 240 01:18 10.10.2019
6493 Rain 11 1013 76 10000 3.6 250 00:39 10.10.2019
6494 Rain 12 1013 66 10000 3.6 250 23:55 09.10.2019
6495 Rain 12 1013 66 10000 3.6 250 23:36 09.10.2019
6496 Rain 12 1013 66 10000 3.6 250 23:18 09.10.2019
6497 Rain 12 1013 66 10000 3.6 250 23:18 09.10.2019
6498 Rain 12 1013 66 10000 4.1 260 22:41 09.10.2019
6499 Rain 12 1013 66 10000 4.1 260 22:22 09.10.2019
6500 Rain 7 1012 89 0 2.72 314.121 21:57 09.10.2019
6501 Rain 7 1012 89 0 2.72 314.121 21:38 09.10.2019
6502 Rain 13 1015 62 10000 5.7 270 21:19 09.10.2019
6503 Rain 13 1015 62 10000 5.7 270 20:55 09.10.2019
6504 Rain 13 1015 62 10000 5.7 270 20:37 09.10.2019
6505 Rain 13 1015 62 10000 5.7 270 20:18 09.10.2019
6506 Rain 13 1015 62 10000 5.7 270 20:18 09.10.2019
6507 Rain 13 1015 62 10000 5.7 270 20:18 09.10.2019
6508 Rain 13 1015 58 10000 4.1 270 19:43 09.10.2019
6509 Rain 13 1015 58 10000 4.1 270 19:23 09.10.2019
6510 Rain 12 1016 62 10000 3.6 300 18:39 09.10.2019
6511 Rain 12 1016 62 10000 3.6 300 18:21 09.10.2019
6512 Clouds 11 1017 66 10000 3.1 300 17:58 09.10.2019
6513 Clouds 11 1017 66 10000 3.1 300 17:40 09.10.2019
6514 Clouds 11 1017 66 10000 3.1 300 17:22 09.10.2019
6515 Clouds 10 1017 66 10000 3.6 290 16:57 09.10.2019
6516 Clouds 10 1017 66 10000 3.6 290 16:39 09.10.2019
6517 Clouds 10 1017 66 10000 3.6 290 16:39 09.10.2019
6518 Clouds 10 1017 66 10000 3.6 290 16:20 09.10.2019
6519 Clouds 10 1017 66 10000 3.6 290 16:20 09.10.2019
6520 Clouds 9 1018 76 10000 3.6 280 15:56 09.10.2019
6521 Clouds 9 1018 76 10000 3.6 280 15:37 09.10.2019
6522 Clouds 9 1018 76 10000 3.6 280 15:37 09.10.2019
6523 Clouds 9 1018 76 10000 3.6 280 15:18 09.10.2019
6524 Clouds 7 1018 81 10000 3.6 280 14:45 09.10.2019
6525 Clouds 7 1018 81 10000 3.6 280 14:19 09.10.2019
6526 Rain 7 1018 81 10000 2.1 260 13:59 09.10.2019
6527 Rain 7 1018 81 10000 2.1 260 13:38 09.10.2019
6528 Rain 7 1018 81 10000 2.1 260 13:18 09.10.2019
6529 Rain 6 1018 87 10000 1.5 260 12:44 09.10.2019
6530 Rain 6 1018 87 10000 1.5 260 12:23 09.10.2019
6531 Rain 7 1018 75 10000 3.1 280 11:58 09.10.2019
6532 Rain 7 1018 75 10000 3.1 280 11:39 09.10.2019
6533 Rain 7 1018 75 10000 3.1 280 11:20 09.10.2019
6534 Rain 7 1018 75 10000 3.1 300 10:58 09.10.2019
6535 Rain 7 1018 75 10000 3.1 300 10:40 09.10.2019
6536 Rain 7 1018 75 10000 3.1 300 10:18 09.10.2019
6537 Clear 7 1018 70 10000 3.1 280 09:43 09.10.2019
6538 Clear 7 1018 70 10000 3.1 280 09:20 09.10.2019
6539 Clear 7 1018 70 10000 3.1 280 08:57 09.10.2019
6540 Clear 7 1018 70 10000 3.1 280 08:37 09.10.2019
6541 Clear 7 1018 70 10000 3.1 280 08:18 09.10.2019
6542 Clouds 7 1019 70 10000 3.1 300 07:43 09.10.2019
6543 Clouds 7 1019 70 10000 3.1 300 07:23 09.10.2019
6544 Clouds 7 1019 70 10000 3.1 310 06:52 09.10.2019
6545 Clouds 7 1019 70 10000 3.1 310 06:20 09.10.2019
6546 Clear 7 1020 65 10000 3.6 280 05:46 09.10.2019
6547 Clear 7 1020 65 10000 3.6 280 05:46 09.10.2019
6548 Clear 8 1020 61 10000 3.6 270 04:27 09.10.2019
6549 Clear 8 1020 61 10000 4.1 250 02:54 09.10.2019
6550 Clear 9 1020 93 10000 4.6 270 01:44 09.10.2019
6551 Clear 9 1020 92 10000 4.6 270 01:21 09.10.2019
6552 Clear 9 1020 92 10000 4.6 270 01:21 09.10.2019
6553 Clear 9 1020 92 10000 4.6 270 01:21 09.10.2019
6554 Clear 9 1020 92 10000 5.7 270 00:57 09.10.2019
6555 Clear 9 1020 92 10000 5.7 270 00:39 09.10.2019
6556 Clear 9 1020 63 10000 5.7 270 00:20 09.10.2019
6557 Clear 11 1019 63 10000 5.7 270 23:40 08.10.2019
6558 Clear 11 1019 63 10000 5.7 270 23:19 08.10.2019
6559 Clouds 12 1019 63 10000 7.2 280 22:58 08.10.2019
6560 Clouds 12 1019 63 10000 7.2 280 22:39 08.10.2019
6561 Clouds 12 1019 63 10000 7.2 280 22:20 08.10.2019
6562 Clouds 12 1019 50 10000 6.7 280 21:57 08.10.2019
6563 Clouds 12 1019 50 10000 6.7 280 21:39 08.10.2019
6564 Clouds 12 1019 50 10000 6.7 280 21:39 08.10.2019
6565 Clouds 12 1019 50 10000 6.7 280 21:19 08.10.2019
6566 Rain 8 1020 59 0 4.34 294.941 20:56 08.10.2019
6567 Rain 8 1020 59 0 4.34 294.941 20:56 08.10.2019
6568 Rain 8 1019 58 0 4.12 299.03 20:37 08.10.2019
6569 Clouds 11 1020 58 10000 6.7 280 20:19 08.10.2019
6570 Clouds 11 1020 58 10000 6.7 280 19:57 08.10.2019
6571 Clouds 11 1020 58 10000 6.7 280 19:38 08.10.2019
6572 Clouds 11 1020 58 10000 6.7 280 19:20 08.10.2019
6573 Clouds 11 1020 58 10000 6.7 280 18:46 08.10.2019
6574 Clouds 11 1020 58 10000 6.7 280 18:28 08.10.2019
6575 Clouds 7 1020 65 0 3.01 291.862 17:59 08.10.2019
6576 Clouds 7 1020 65 0 3.01 291.862 17:40 08.10.2019
6577 Clouds 7 1020 65 0 3.01 291.862 17:40 08.10.2019
6578 Clouds 10 1021 65 10000 5.1 270 17:20 08.10.2019
6579 Clouds 10 1021 65 10000 5.1 270 16:57 08.10.2019
6580 Clouds 10 1021 65 10000 5.1 270 16:38 08.10.2019
6581 Clouds 10 1021 65 10000 5.1 270 16:20 08.10.2019
6582 Clouds 7 1020 65 0 3.01 291.862 15:40 08.10.2019
6583 Clouds 7 1021 82 10000 2.1 250 15:21 08.10.2019
6584 Clouds 7 1021 82 10000 2.1 250 14:57 08.10.2019
6585 Clouds 7 1021 82 10000 2.1 250 14:38 08.10.2019
6586 Clouds 7 1021 82 10000 2.1 250 14:20 08.10.2019
6587 Clouds 7 1021 82 10000 2.1 260 13:55 08.10.2019
6588 Clouds 7 1021 82 10000 2.1 260 13:37 08.10.2019
6589 Clouds 7 1021 82 10000 2.1 260 13:18 08.10.2019
6590 Clouds 7 1021 56 10000 2.1 270 12:41 08.10.2019
6591 Clouds 7 1021 56 10000 2.1 270 12:20 08.10.2019
6592 Clear 7 1021 56 10000 3.1 240 11:58 08.10.2019
6593 Clear 7 1021 56 10000 3.1 240 11:39 08.10.2019
6594 Clear 7 1021 56 10000 3.1 240 11:21 08.10.2019
6595 Clear 7 1020 56 10000 3.6 260 10:54 08.10.2019
6596 Clear 7 1020 56 10000 3.6 260 10:54 08.10.2019
6597 Clear 7 1020 56 10000 3.6 260 10:36 08.10.2019
6598 Clear 7 1020 56 10000 3.6 260 10:18 08.10.2019
6599 Clear 7 1020 56 10000 4.6 250 09:40 08.10.2019
6600 Clear 7 1020 56 10000 4.6 250 09:22 08.10.2019
6601 Clear 7 1021 92 10000 4.1 260 08:45 08.10.2019
6602 Clear 7 1021 91 10000 4.1 260 08:25 08.10.2019
6603 Clear 7 1021 91 10000 5.1 270 07:57 08.10.2019
6604 Clear 7 1021 91 10000 5.1 270 07:38 08.10.2019
6605 Clear 7 1021 91 10000 5.1 270 07:19 08.10.2019
6606 Clear 8 1021 91 10000 5.1 260 06:45 08.10.2019
6607 Clear 8 1021 86 10000 5.1 260 06:21 08.10.2019
6608 Clear 8 1021 61 10000 3.1 260 05:43 08.10.2019
6609 Clear 8 1021 61 10000 3.1 260 05:19 08.10.2019
6610 Rain 8 1021 61 10000 4.1 260 03:31 08.10.2019
6611 Clouds 8 1020 61 10000 3.6 270 02:42 08.10.2019
6612 Clear 9 1020 57 10000 3.6 260 01:58 08.10.2019
6613 Clear 9 1020 57 10000 3.6 260 01:40 08.10.2019
6614 Clear 9 1019 57 10000 5.1 270 00:55 08.10.2019
6615 Clear 9 1019 57 10000 5.1 270 00:23 08.10.2019
6616 Clear 10 1019 53 10000 5.7 270 23:46 07.10.2019
6617 Clear 10 1019 53 10000 5.7 270 23:21 07.10.2019
6618 Clear 10 1019 53 10000 5.7 270 23:21 07.10.2019
6619 Rain 10 1019 53 10000 6.2 260 22:59 07.10.2019
6620 Rain 10 1019 53 10000 6.2 260 22:40 07.10.2019
6621 Rain 10 1019 53 10000 6.2 260 22:21 07.10.2019
6622 Rain 9 1019 61 10000 5.7 260 21:59 07.10.2019
6623 Rain 9 1019 61 10000 5.7 260 21:40 07.10.2019
6624 Rain 9 1019 61 10000 5.7 260 21:20 07.10.2019
6625 Rain 10 1018 59 10000 6.7 270 20:58 07.10.2019
6626 Rain 10 1018 59 10000 6.7 270 20:39 07.10.2019
6627 Rain 10 1018 59 10000 6.7 270 20:39 07.10.2019
6628 Rain 10 1018 59 10000 6.7 270 20:21 07.10.2019
6629 Rain 10 1018 53 10000 6.7 280 19:59 07.10.2019
6630 Rain 10 1018 53 10000 6.7 280 19:59 07.10.2019
6631 Rain 10 1018 53 10000 6.7 280 19:40 07.10.2019
6632 Rain 10 1018 53 10000 6.7 280 19:20 07.10.2019
6633 Clouds 8 1017 59 0 6.56 283.966 18:58 07.10.2019
6634 Clouds 8 1017 59 0 6.56 283.966 18:38 07.10.2019
6635 Rain 9 1018 61 10000 6.7 270 18:18 07.10.2019
6636 Rain 9 1018 61 10000 6.7 270 17:43 07.10.2019
6637 Rain 9 1018 61 10000 6.7 270 17:23 07.10.2019
6638 Rain 9 1018 61 10000 6.7 270 17:23 07.10.2019
6639 Rain 9 1018 57 9000 6.7 270 16:58 07.10.2019
6640 Rain 9 1018 57 9000 6.7 270 16:58 07.10.2019
6641 Rain 9 1018 57 9000 6.7 270 16:39 07.10.2019
6642 Rain 9 1018 57 9000 6.7 270 16:20 07.10.2019
6643 Clouds 7 1018 63 0 5.97 286.671 15:45 07.10.2019
6644 Rain 7 1017 63 10000 5.1 260 15:26 07.10.2019
6645 Rain 7 1017 79 10000 5.1 260 14:55 07.10.2019
6646 Rain 7 1017 79 10000 5.1 260 14:37 07.10.2019
6647 Rain 7 1017 79 10000 5.1 260 14:19 07.10.2019
6648 Clear 6 1017 79 10000 4.6 260 13:41 07.10.2019
6649 Clear 6 1017 80 10000 4.6 260 13:20 07.10.2019
6650 Clear 6 1016 70 10000 4.1 260 12:55 07.10.2019
6651 Clear 6 1016 70 10000 4.1 260 12:37 07.10.2019
6652 Clear 6 1016 70 10000 4.1 260 12:19 07.10.2019
6653 Clear 6 1016 70 10000 3.6 240 11:57 07.10.2019
6654 Clear 6 1016 70 10000 3.6 240 11:37 07.10.2019
6655 Clear 6 1016 70 10000 3.6 240 11:18 07.10.2019
6656 Rain 5 1016 75 10000 4.6 260 10:41 07.10.2019
6657 Rain 5 1016 75 10000 4.6 260 10:41 07.10.2019
6658 Rain 5 1016 75 10000 4.6 260 10:41 07.10.2019
6659 Rain 5 1016 75 10000 4.6 260 10:20 07.10.2019
6660 Rain 5 1016 75 10000 4.6 260 10:20 07.10.2019
6661 Rain 5 1015 75 10000 3.1 260 09:42 07.10.2019
6662 Rain 5 1015 75 10000 3.1 260 09:23 07.10.2019
6663 Clear 6 1014 70 10000 4.1 260 08:56 07.10.2019
6664 Clear 6 1014 70 10000 4.1 260 08:38 07.10.2019
6665 Clear 6 1014 70 10000 4.1 260 08:19 07.10.2019
6666 Clear 6 1014 70 10000 3.6 240 07:41 07.10.2019
6667 Clear 6 1014 70 10000 3.6 240 07:21 07.10.2019
6668 Clear 6 1014 70 10000 3.6 240 07:21 07.10.2019
6669 Rain 5 1013 80 10000 4.6 240 06:48 07.10.2019
6670 Rain 5 1013 80 10000 4.6 240 06:27 07.10.2019
6671 Rain 5 1012 86 10000 4.1 260 05:42 07.10.2019
6672 Rain 5 1012 86 10000 4.1 260 05:21 07.10.2019
6673 Rain 6 1012 81 10000 4.1 250 04:23 07.10.2019
6674 Rain 5 1011 86 10000 3.1 240 03:44 07.10.2019
6675 Rain 5 1011 86 10000 3.1 240 03:19 07.10.2019
6676 Rain 6 1010 75 10000 5.1 240 02:20 07.10.2019
6677 Clear 6 1009 81 10000 4.6 240 01:50 07.10.2019
6678 Clear 6 1009 81 10000 4.6 240 01:21 07.10.2019
6679 Clear 7 1010 75 10000 4.1 260 00:38 07.10.2019
6680 Clear 7 1010 75 10000 4.1 260 00:19 07.10.2019
6681 Rain 7 1009 81 10000 4.6 250 23:42 06.10.2019
6682 Rain 7 1009 81 10000 4.6 250 23:42 06.10.2019
6683 Rain 7 1009 81 10000 4.6 250 23:21 06.10.2019
6684 Rain 8 1009 75 10000 5.1 260 22:59 06.10.2019
6685 Rain 8 1009 75 10000 5.1 260 22:40 06.10.2019
6686 Rain 8 1009 75 10000 5.1 260 22:21 06.10.2019
6687 Rain 8 1009 75 10000 5.1 260 22:21 06.10.2019
6688 Clear 11 1008 57 10000 6.2 260 21:57 06.10.2019
6689 Clear 11 1008 57 10000 6.2 260 21:37 06.10.2019
6690 Clear 11 1008 57 10000 6.2 260 21:19 06.10.2019
6691 Clear 11 1007 62 10000 5.7 270 20:57 06.10.2019
6692 Clear 11 1007 62 10000 5.7 270 20:38 06.10.2019
6693 Clear 11 1007 62 10000 5.7 270 20:20 06.10.2019
6694 Rain 10 1006 76 8000 4.6 280 19:57 06.10.2019
6695 Rain 10 1006 76 8000 4.6 280 19:37 06.10.2019
6696 Rain 10 1006 76 8000 4.6 280 19:19 06.10.2019
6697 Rain 10 1005 81 10000 4.6 250 18:56 06.10.2019
6698 Rain 10 1005 81 10000 4.6 250 18:56 06.10.2019
6699 Rain 10 1005 81 10000 4.6 250 18:37 06.10.2019
6700 Rain 10 1005 81 10000 4.6 250 18:18 06.10.2019
6701 Rain 7 1005 93 10000 0.5 0 17:43 06.10.2019
6702 Rain 7 1005 93 10000 0.5 0 17:20 06.10.2019
6703 Rain 6 1006 93 9000 1 0 16:56 06.10.2019
6704 Rain 6 1006 93 9000 1 0 16:38 06.10.2019
6705 Rain 6 1006 93 9000 1 0 16:19 06.10.2019
6706 Rain 5 1006 100 5000 0.5 0 15:43 06.10.2019
6707 Rain 5 1006 100 5000 0.5 0 15:22 06.10.2019
6708 Rain 5 1007 93 7000 1 0 14:56 06.10.2019
6709 Rain 5 1007 93 7000 1 0 14:38 06.10.2019
6710 Rain 5 1007 93 7000 1 0 14:19 06.10.2019
6711 Rain 4 1009 100 5000 4.21 332.168 13:42 06.10.2019
6712 Rain 4 1009 100 5000 4.21 332.168 13:42 06.10.2019
6713 Rain 4 1009 100 5000 4.35 333.335 13:24 06.10.2019
6714 Rain 4 1009 100 10000 0.5 0 12:59 06.10.2019
6715 Rain 4 1009 100 10000 0.5 0 12:41 06.10.2019
6716 Rain 4 1009 100 10000 0.5 0 12:21 06.10.2019
6717 Rain 4 1010 100 10000 1 0 11:59 06.10.2019
6718 Rain 4 1010 100 10000 1 0 11:41 06.10.2019
6719 Rain 4 1010 100 10000 1 0 11:23 06.10.2019
6720 Rain 5 1011 93 10000 3.13 338.96 10:55 06.10.2019
6721 Rain 5 1011 93 10000 3.13 338.96 10:37 06.10.2019
6722 Rain 5 1011 93 10000 3.13 338.96 10:19 06.10.2019
6723 Rain 5 1012 93 10000 3.13 338.96 09:41 06.10.2019
6724 Rain 5 1012 93 10000 2.38 338.888 09:19 06.10.2019
6725 Rain 5 1014 86 10000 1 0 08:48 06.10.2019
6726 Rain 5 1014 86 10000 1 0 08:21 06.10.2019
6727 Clear 6 1015 75 10000 2.44 329.214 07: